<?xml version="1.0" encoding="UTF-8" standalone="no" ?>
<gpx xmlns="http://www.topografix.com/GPX/1/1" xmlns:xsi="http://www.w3.org/2001/XMLSchema-instance" xsi:schemaLocation="http://www.topografix.com/GPX/1/1 http://www.topografix.com/GPX/1/1/gpx.xsd" version="1.1" creator="VisuGPX - https://www.visugpx.com">
  <metadata>
    <name>2018-02-28 Bike ride-Amberieux-Savigneux O 33k</name>
    <desc><![CDATA[2018-02-28 Bike ride-Amberieux-Savigneux O 33k]]></desc>
  </metadata>
  <wpt lat="45.9244" lon="4.73716">
    <ele>174</ele>
    <name><![CDATA[2018-02-28 10:29 (Start)]]></name>
  </wpt>
  <wpt lat="45.92461" lon="4.73713">
    <ele>174</ele>
    <name><![CDATA[2018-02-28 10:29 (End)]]></name>
  </wpt>
  <trk>
    <name><![CDATA[2018-02-28 10:29]]></name>
    <trkseg>
      <trkpt lat="45.9244" lon="4.73716">
        <ele>174</ele>
        <time>2018-02-28T09:29:20.076Z</time>
      </trkpt>
      <trkpt lat="45.92453" lon="4.73714">
        <ele>174</ele>
        <time>2018-02-28T09:29:20Z</time>
      </trkpt>
      <trkpt lat="45.92461" lon="4.7371">
        <ele>174</ele>
        <time>2018-02-28T09:29:49Z</time>
      </trkpt>
      <trkpt lat="45.92462" lon="4.73709">
        <ele>174</ele>
        <time>2018-02-28T09:29:50Z</time>
      </trkpt>
      <trkpt lat="45.92463" lon="4.73699">
        <ele>174</ele>
        <time>2018-02-28T09:29:55Z</time>
      </trkpt>
      <trkpt lat="45.92464" lon="4.73696">
        <ele>174</ele>
        <time>2018-02-28T09:29:56Z</time>
      </trkpt>
      <trkpt lat="45.92465" lon="4.73684">
        <ele>174</ele>
        <time>2018-02-28T09:30:00Z</time>
      </trkpt>
      <trkpt lat="45.92465" lon="4.73681">
        <ele>174</ele>
        <time>2018-02-28T09:30:01Z</time>
      </trkpt>
      <trkpt lat="45.92466" lon="4.73669">
        <ele>174</ele>
        <time>2018-02-28T09:30:04Z</time>
      </trkpt>
      <trkpt lat="45.92466" lon="4.73666">
        <ele>174</ele>
        <time>2018-02-28T09:30:05Z</time>
      </trkpt>
      <trkpt lat="45.92468" lon="4.73654">
        <ele>174</ele>
        <time>2018-02-28T09:30:08Z</time>
      </trkpt>
      <trkpt lat="45.9247" lon="4.7365">
        <ele>174</ele>
        <time>2018-02-28T09:30:09Z</time>
      </trkpt>
      <trkpt lat="45.92475" lon="4.7364">
        <ele>174</ele>
        <time>2018-02-28T09:30:10Z</time>
      </trkpt>
      <trkpt lat="45.92477" lon="4.73639">
        <ele>174</ele>
        <time>2018-02-28T09:30:11Z</time>
      </trkpt>
      <trkpt lat="45.92485" lon="4.73638">
        <ele>174</ele>
        <time>2018-02-28T09:30:15Z</time>
      </trkpt>
      <trkpt lat="45.92488" lon="4.73639">
        <ele>174</ele>
        <time>2018-02-28T09:30:16Z</time>
      </trkpt>
      <trkpt lat="45.92496" lon="4.73639">
        <ele>174</ele>
        <time>2018-02-28T09:30:19Z</time>
      </trkpt>
      <trkpt lat="45.92499" lon="4.73639">
        <ele>174</ele>
        <time>2018-02-28T09:30:20Z</time>
      </trkpt>
      <trkpt lat="45.92502" lon="4.73639">
        <ele>174</ele>
        <time>2018-02-28T09:30:21Z</time>
      </trkpt>
      <trkpt lat="45.92512" lon="4.7364">
        <ele>174</ele>
        <time>2018-02-28T09:30:22Z</time>
      </trkpt>
      <trkpt lat="45.92519" lon="4.73641">
        <ele>173</ele>
        <time>2018-02-28T09:30:24Z</time>
      </trkpt>
      <trkpt lat="45.92521" lon="4.73642">
        <ele>173</ele>
        <time>2018-02-28T09:30:25Z</time>
      </trkpt>
      <trkpt lat="45.92528" lon="4.73642">
        <ele>173</ele>
        <time>2018-02-28T09:30:27Z</time>
      </trkpt>
      <trkpt lat="45.92531" lon="4.73642">
        <ele>173</ele>
        <time>2018-02-28T09:30:28Z</time>
      </trkpt>
      <trkpt lat="45.92538" lon="4.73636">
        <ele>173</ele>
        <time>2018-02-28T09:30:54Z</time>
      </trkpt>
      <trkpt lat="45.92538" lon="4.73635">
        <ele>173</ele>
        <time>2018-02-28T09:30:55Z</time>
      </trkpt>
      <trkpt lat="45.92546" lon="4.73633">
        <ele>173</ele>
        <time>2018-02-28T09:31:01Z</time>
      </trkpt>
      <trkpt lat="45.92548" lon="4.73633">
        <ele>173</ele>
        <time>2018-02-28T09:31:02Z</time>
      </trkpt>
      <trkpt lat="45.92556" lon="4.73632">
        <ele>173</ele>
        <time>2018-02-28T09:31:05Z</time>
      </trkpt>
      <trkpt lat="45.92559" lon="4.73632">
        <ele>173</ele>
        <time>2018-02-28T09:31:06Z</time>
      </trkpt>
      <trkpt lat="45.92566" lon="4.7363">
        <ele>173</ele>
        <time>2018-02-28T09:31:09Z</time>
      </trkpt>
      <trkpt lat="45.92568" lon="4.73629">
        <ele>173</ele>
        <time>2018-02-28T09:31:10Z</time>
      </trkpt>
      <trkpt lat="45.92574" lon="4.73629">
        <ele>173</ele>
        <time>2018-02-28T09:31:12Z</time>
      </trkpt>
      <trkpt lat="45.92583" lon="4.73628">
        <ele>173</ele>
        <time>2018-02-28T09:31:13Z</time>
      </trkpt>
      <trkpt lat="45.92588" lon="4.73627">
        <ele>172</ele>
        <time>2018-02-28T09:31:15Z</time>
      </trkpt>
      <trkpt lat="45.92593" lon="4.73626">
        <ele>172</ele>
        <time>2018-02-28T09:31:16Z</time>
      </trkpt>
      <trkpt lat="45.92599" lon="4.73627">
        <ele>173</ele>
        <time>2018-02-28T09:31:17Z</time>
      </trkpt>
      <trkpt lat="45.92603" lon="4.73628">
        <ele>173</ele>
        <time>2018-02-28T09:31:18Z</time>
      </trkpt>
      <trkpt lat="45.92611" lon="4.73633">
        <ele>173</ele>
        <time>2018-02-28T09:31:20Z</time>
      </trkpt>
      <trkpt lat="45.92616" lon="4.73637">
        <ele>173</ele>
        <time>2018-02-28T09:31:21Z</time>
      </trkpt>
      <trkpt lat="45.92621" lon="4.73647">
        <ele>173</ele>
        <time>2018-02-28T09:31:23Z</time>
      </trkpt>
      <trkpt lat="45.92624" lon="4.73651">
        <ele>173</ele>
        <time>2018-02-28T09:31:24Z</time>
      </trkpt>
      <trkpt lat="45.92626" lon="4.73657">
        <ele>173</ele>
        <time>2018-02-28T09:31:25Z</time>
      </trkpt>
      <trkpt lat="45.92629" lon="4.73662">
        <ele>173</ele>
        <time>2018-02-28T09:31:26Z</time>
      </trkpt>
      <trkpt lat="45.92632" lon="4.73667">
        <ele>173</ele>
        <time>2018-02-28T09:31:27Z</time>
      </trkpt>
      <trkpt lat="45.92636" lon="4.73672">
        <ele>173</ele>
        <time>2018-02-28T09:31:28Z</time>
      </trkpt>
      <trkpt lat="45.92639" lon="4.73677">
        <ele>173</ele>
        <time>2018-02-28T09:31:29Z</time>
      </trkpt>
      <trkpt lat="45.92643" lon="4.73681">
        <ele>173</ele>
        <time>2018-02-28T09:31:30Z</time>
      </trkpt>
      <trkpt lat="45.92645" lon="4.73687">
        <ele>173</ele>
        <time>2018-02-28T09:31:31Z</time>
      </trkpt>
      <trkpt lat="45.92649" lon="4.7369">
        <ele>173</ele>
        <time>2018-02-28T09:31:32Z</time>
      </trkpt>
      <trkpt lat="45.92653" lon="4.73694">
        <ele>173</ele>
        <time>2018-02-28T09:31:33Z</time>
      </trkpt>
      <trkpt lat="45.92657" lon="4.73697">
        <ele>173</ele>
        <time>2018-02-28T09:31:34Z</time>
      </trkpt>
      <trkpt lat="45.92662" lon="4.73699">
        <ele>173</ele>
        <time>2018-02-28T09:31:35Z</time>
      </trkpt>
      <trkpt lat="45.92667" lon="4.73702">
        <ele>173</ele>
        <time>2018-02-28T09:31:36Z</time>
      </trkpt>
      <trkpt lat="45.92671" lon="4.73705">
        <ele>174</ele>
        <time>2018-02-28T09:31:37Z</time>
      </trkpt>
      <trkpt lat="45.92676" lon="4.73707">
        <ele>173</ele>
        <time>2018-02-28T09:31:38Z</time>
      </trkpt>
      <trkpt lat="45.92685" lon="4.73707">
        <ele>173</ele>
        <time>2018-02-28T09:31:40Z</time>
      </trkpt>
      <trkpt lat="45.9269" lon="4.73709">
        <ele>173</ele>
        <time>2018-02-28T09:31:41Z</time>
      </trkpt>
      <trkpt lat="45.92695" lon="4.73711">
        <ele>173</ele>
        <time>2018-02-28T09:31:42Z</time>
      </trkpt>
      <trkpt lat="45.927" lon="4.73713">
        <ele>173</ele>
        <time>2018-02-28T09:31:43Z</time>
      </trkpt>
      <trkpt lat="45.92705" lon="4.73714">
        <ele>173</ele>
        <time>2018-02-28T09:31:44Z</time>
      </trkpt>
      <trkpt lat="45.9271" lon="4.73715">
        <ele>173</ele>
        <time>2018-02-28T09:31:45Z</time>
      </trkpt>
      <trkpt lat="45.92715" lon="4.73716">
        <ele>173</ele>
        <time>2018-02-28T09:31:46Z</time>
      </trkpt>
      <trkpt lat="45.9272" lon="4.73717">
        <ele>173</ele>
        <time>2018-02-28T09:31:47Z</time>
      </trkpt>
      <trkpt lat="45.92726" lon="4.73719">
        <ele>173</ele>
        <time>2018-02-28T09:31:48Z</time>
      </trkpt>
      <trkpt lat="45.92732" lon="4.7372">
        <ele>173</ele>
        <time>2018-02-28T09:31:49Z</time>
      </trkpt>
      <trkpt lat="45.92737" lon="4.73721">
        <ele>173</ele>
        <time>2018-02-28T09:31:50Z</time>
      </trkpt>
      <trkpt lat="45.92742" lon="4.73722">
        <ele>173</ele>
        <time>2018-02-28T09:31:51Z</time>
      </trkpt>
      <trkpt lat="45.92747" lon="4.73723">
        <ele>173</ele>
        <time>2018-02-28T09:31:52Z</time>
      </trkpt>
      <trkpt lat="45.92751" lon="4.73723">
        <ele>172</ele>
        <time>2018-02-28T09:31:53Z</time>
      </trkpt>
      <trkpt lat="45.92759" lon="4.73725">
        <ele>172</ele>
        <time>2018-02-28T09:31:55Z</time>
      </trkpt>
      <trkpt lat="45.92762" lon="4.73729">
        <ele>172</ele>
        <time>2018-02-28T09:31:56Z</time>
      </trkpt>
      <trkpt lat="45.9277" lon="4.73732">
        <ele>172</ele>
        <time>2018-02-28T09:31:59Z</time>
      </trkpt>
      <trkpt lat="45.92775" lon="4.73731">
        <ele>172</ele>
        <time>2018-02-28T09:32:00Z</time>
      </trkpt>
      <trkpt lat="45.92779" lon="4.73722">
        <ele>172</ele>
        <time>2018-02-28T09:32:02Z</time>
      </trkpt>
      <trkpt lat="45.92781" lon="4.73715">
        <ele>172</ele>
        <time>2018-02-28T09:32:03Z</time>
      </trkpt>
      <trkpt lat="45.92781" lon="4.73707">
        <ele>172</ele>
        <time>2018-02-28T09:32:04Z</time>
      </trkpt>
      <trkpt lat="45.92783" lon="4.73701">
        <ele>172</ele>
        <time>2018-02-28T09:32:05Z</time>
      </trkpt>
      <trkpt lat="45.92785" lon="4.73694">
        <ele>172</ele>
        <time>2018-02-28T09:32:06Z</time>
      </trkpt>
      <trkpt lat="45.92786" lon="4.73687">
        <ele>172</ele>
        <time>2018-02-28T09:32:07Z</time>
      </trkpt>
      <trkpt lat="45.92787" lon="4.73681">
        <ele>172</ele>
        <time>2018-02-28T09:32:08Z</time>
      </trkpt>
      <trkpt lat="45.92788" lon="4.73674">
        <ele>172</ele>
        <time>2018-02-28T09:32:09Z</time>
      </trkpt>
      <trkpt lat="45.9279" lon="4.73668">
        <ele>172</ele>
        <time>2018-02-28T09:32:10Z</time>
      </trkpt>
      <trkpt lat="45.92792" lon="4.73661">
        <ele>172</ele>
        <time>2018-02-28T09:32:11Z</time>
      </trkpt>
      <trkpt lat="45.92794" lon="4.73655">
        <ele>172</ele>
        <time>2018-02-28T09:32:12Z</time>
      </trkpt>
      <trkpt lat="45.92796" lon="4.73649">
        <ele>172</ele>
        <time>2018-02-28T09:32:13Z</time>
      </trkpt>
      <trkpt lat="45.928" lon="4.73638">
        <ele>172</ele>
        <time>2018-02-28T09:32:15Z</time>
      </trkpt>
      <trkpt lat="45.92802" lon="4.73634">
        <ele>172</ele>
        <time>2018-02-28T09:32:16Z</time>
      </trkpt>
      <trkpt lat="45.92808" lon="4.73628">
        <ele>172</ele>
        <time>2018-02-28T09:32:18Z</time>
      </trkpt>
      <trkpt lat="45.92809" lon="4.73623">
        <ele>172</ele>
        <time>2018-02-28T09:32:19Z</time>
      </trkpt>
      <trkpt lat="45.92811" lon="4.7361">
        <ele>172</ele>
        <time>2018-02-28T09:32:21Z</time>
      </trkpt>
      <trkpt lat="45.9281" lon="4.73604">
        <ele>172</ele>
        <time>2018-02-28T09:32:22Z</time>
      </trkpt>
      <trkpt lat="45.92812" lon="4.73597">
        <ele>172</ele>
        <time>2018-02-28T09:32:23Z</time>
      </trkpt>
      <trkpt lat="45.92811" lon="4.73589">
        <ele>172</ele>
        <time>2018-02-28T09:32:24Z</time>
      </trkpt>
      <trkpt lat="45.92812" lon="4.73583">
        <ele>171</ele>
        <time>2018-02-28T09:32:25Z</time>
      </trkpt>
      <trkpt lat="45.92813" lon="4.73575">
        <ele>171</ele>
        <time>2018-02-28T09:32:26Z</time>
      </trkpt>
      <trkpt lat="45.92813" lon="4.73568">
        <ele>171</ele>
        <time>2018-02-28T09:32:27Z</time>
      </trkpt>
      <trkpt lat="45.92813" lon="4.73561">
        <ele>171</ele>
        <time>2018-02-28T09:32:28Z</time>
      </trkpt>
      <trkpt lat="45.92813" lon="4.73554">
        <ele>171</ele>
        <time>2018-02-28T09:32:29Z</time>
      </trkpt>
      <trkpt lat="45.92814" lon="4.73548">
        <ele>171</ele>
        <time>2018-02-28T09:32:30Z</time>
      </trkpt>
      <trkpt lat="45.92815" lon="4.7354">
        <ele>172</ele>
        <time>2018-02-28T09:32:31Z</time>
      </trkpt>
      <trkpt lat="45.92816" lon="4.73534">
        <ele>172</ele>
        <time>2018-02-28T09:32:32Z</time>
      </trkpt>
      <trkpt lat="45.92816" lon="4.73526">
        <ele>172</ele>
        <time>2018-02-28T09:32:33Z</time>
      </trkpt>
      <trkpt lat="45.92818" lon="4.73518">
        <ele>172</ele>
        <time>2018-02-28T09:32:34Z</time>
      </trkpt>
      <trkpt lat="45.92819" lon="4.73512">
        <ele>172</ele>
        <time>2018-02-28T09:32:35Z</time>
      </trkpt>
      <trkpt lat="45.92819" lon="4.73505">
        <ele>172</ele>
        <time>2018-02-28T09:32:36Z</time>
      </trkpt>
      <trkpt lat="45.9282" lon="4.73497">
        <ele>172</ele>
        <time>2018-02-28T09:32:37Z</time>
      </trkpt>
      <trkpt lat="45.92822" lon="4.73489">
        <ele>172</ele>
        <time>2018-02-28T09:32:38Z</time>
      </trkpt>
      <trkpt lat="45.92823" lon="4.73481">
        <ele>172</ele>
        <time>2018-02-28T09:32:39Z</time>
      </trkpt>
      <trkpt lat="45.92823" lon="4.73475">
        <ele>172</ele>
        <time>2018-02-28T09:32:40Z</time>
      </trkpt>
      <trkpt lat="45.92823" lon="4.73467">
        <ele>171</ele>
        <time>2018-02-28T09:32:41Z</time>
      </trkpt>
      <trkpt lat="45.92825" lon="4.73459">
        <ele>171</ele>
        <time>2018-02-28T09:32:42Z</time>
      </trkpt>
      <trkpt lat="45.92826" lon="4.73452">
        <ele>172</ele>
        <time>2018-02-28T09:32:43Z</time>
      </trkpt>
      <trkpt lat="45.92826" lon="4.73444">
        <ele>172</ele>
        <time>2018-02-28T09:32:44Z</time>
      </trkpt>
      <trkpt lat="45.92827" lon="4.73436">
        <ele>172</ele>
        <time>2018-02-28T09:32:45Z</time>
      </trkpt>
      <trkpt lat="45.92829" lon="4.73429">
        <ele>172</ele>
        <time>2018-02-28T09:32:46Z</time>
      </trkpt>
      <trkpt lat="45.92829" lon="4.73421">
        <ele>172</ele>
        <time>2018-02-28T09:32:47Z</time>
      </trkpt>
      <trkpt lat="45.92831" lon="4.73414">
        <ele>172</ele>
        <time>2018-02-28T09:32:48Z</time>
      </trkpt>
      <trkpt lat="45.92832" lon="4.73406">
        <ele>172</ele>
        <time>2018-02-28T09:32:49Z</time>
      </trkpt>
      <trkpt lat="45.92833" lon="4.73399">
        <ele>172</ele>
        <time>2018-02-28T09:32:50Z</time>
      </trkpt>
      <trkpt lat="45.92834" lon="4.73391">
        <ele>172</ele>
        <time>2018-02-28T09:32:51Z</time>
      </trkpt>
      <trkpt lat="45.92835" lon="4.73382">
        <ele>172</ele>
        <time>2018-02-28T09:32:52Z</time>
      </trkpt>
      <trkpt lat="45.92836" lon="4.73375">
        <ele>172</ele>
        <time>2018-02-28T09:32:53Z</time>
      </trkpt>
      <trkpt lat="45.92837" lon="4.73368">
        <ele>171</ele>
        <time>2018-02-28T09:32:54Z</time>
      </trkpt>
      <trkpt lat="45.92837" lon="4.73361">
        <ele>171</ele>
        <time>2018-02-28T09:32:55Z</time>
      </trkpt>
      <trkpt lat="45.92838" lon="4.73354">
        <ele>171</ele>
        <time>2018-02-28T09:32:56Z</time>
      </trkpt>
      <trkpt lat="45.92839" lon="4.73346">
        <ele>171</ele>
        <time>2018-02-28T09:32:57Z</time>
      </trkpt>
      <trkpt lat="45.92839" lon="4.73338">
        <ele>171</ele>
        <time>2018-02-28T09:32:58Z</time>
      </trkpt>
      <trkpt lat="45.9284" lon="4.7333">
        <ele>171</ele>
        <time>2018-02-28T09:32:59Z</time>
      </trkpt>
      <trkpt lat="45.92841" lon="4.73323">
        <ele>171</ele>
        <time>2018-02-28T09:33:00Z</time>
      </trkpt>
      <trkpt lat="45.92842" lon="4.73315">
        <ele>171</ele>
        <time>2018-02-28T09:33:01Z</time>
      </trkpt>
      <trkpt lat="45.92843" lon="4.73307">
        <ele>171</ele>
        <time>2018-02-28T09:33:02Z</time>
      </trkpt>
      <trkpt lat="45.92844" lon="4.73298">
        <ele>171</ele>
        <time>2018-02-28T09:33:03Z</time>
      </trkpt>
      <trkpt lat="45.92844" lon="4.73291">
        <ele>171</ele>
        <time>2018-02-28T09:33:04Z</time>
      </trkpt>
      <trkpt lat="45.92846" lon="4.73281">
        <ele>171</ele>
        <time>2018-02-28T09:33:05Z</time>
      </trkpt>
      <trkpt lat="45.92847" lon="4.73273">
        <ele>171</ele>
        <time>2018-02-28T09:33:06Z</time>
      </trkpt>
      <trkpt lat="45.92848" lon="4.73265">
        <ele>171</ele>
        <time>2018-02-28T09:33:07Z</time>
      </trkpt>
      <trkpt lat="45.9285" lon="4.73256">
        <ele>171</ele>
        <time>2018-02-28T09:33:08Z</time>
      </trkpt>
      <trkpt lat="45.92851" lon="4.73248">
        <ele>171</ele>
        <time>2018-02-28T09:33:09Z</time>
      </trkpt>
      <trkpt lat="45.92852" lon="4.7324">
        <ele>171</ele>
        <time>2018-02-28T09:33:10Z</time>
      </trkpt>
      <trkpt lat="45.92854" lon="4.73233">
        <ele>171</ele>
        <time>2018-02-28T09:33:11Z</time>
      </trkpt>
      <trkpt lat="45.92855" lon="4.73224">
        <ele>171</ele>
        <time>2018-02-28T09:33:12Z</time>
      </trkpt>
      <trkpt lat="45.92856" lon="4.73216">
        <ele>171</ele>
        <time>2018-02-28T09:33:13Z</time>
      </trkpt>
      <trkpt lat="45.92856" lon="4.73209">
        <ele>171</ele>
        <time>2018-02-28T09:33:14Z</time>
      </trkpt>
      <trkpt lat="45.92857" lon="4.732">
        <ele>171</ele>
        <time>2018-02-28T09:33:15Z</time>
      </trkpt>
      <trkpt lat="45.92857" lon="4.73193">
        <ele>171</ele>
        <time>2018-02-28T09:33:16Z</time>
      </trkpt>
      <trkpt lat="45.92858" lon="4.73185">
        <ele>171</ele>
        <time>2018-02-28T09:33:17Z</time>
      </trkpt>
      <trkpt lat="45.92859" lon="4.73177">
        <ele>171</ele>
        <time>2018-02-28T09:33:18Z</time>
      </trkpt>
      <trkpt lat="45.92861" lon="4.73169">
        <ele>171</ele>
        <time>2018-02-28T09:33:19Z</time>
      </trkpt>
      <trkpt lat="45.92862" lon="4.73161">
        <ele>171</ele>
        <time>2018-02-28T09:33:20Z</time>
      </trkpt>
      <trkpt lat="45.92864" lon="4.73153">
        <ele>171</ele>
        <time>2018-02-28T09:33:21Z</time>
      </trkpt>
      <trkpt lat="45.92865" lon="4.73145">
        <ele>171</ele>
        <time>2018-02-28T09:33:22Z</time>
      </trkpt>
      <trkpt lat="45.92866" lon="4.73138">
        <ele>171</ele>
        <time>2018-02-28T09:33:23Z</time>
      </trkpt>
      <trkpt lat="45.92867" lon="4.7313">
        <ele>171</ele>
        <time>2018-02-28T09:33:24Z</time>
      </trkpt>
      <trkpt lat="45.92869" lon="4.73122">
        <ele>171</ele>
        <time>2018-02-28T09:33:25Z</time>
      </trkpt>
      <trkpt lat="45.92871" lon="4.73115">
        <ele>172</ele>
        <time>2018-02-28T09:33:26Z</time>
      </trkpt>
      <trkpt lat="45.92872" lon="4.73107">
        <ele>172</ele>
        <time>2018-02-28T09:33:27Z</time>
      </trkpt>
      <trkpt lat="45.92874" lon="4.731">
        <ele>172</ele>
        <time>2018-02-28T09:33:28Z</time>
      </trkpt>
      <trkpt lat="45.92877" lon="4.73093">
        <ele>172</ele>
        <time>2018-02-28T09:33:29Z</time>
      </trkpt>
      <trkpt lat="45.92879" lon="4.73087">
        <ele>172</ele>
        <time>2018-02-28T09:33:30Z</time>
      </trkpt>
      <trkpt lat="45.92882" lon="4.7308">
        <ele>172</ele>
        <time>2018-02-28T09:33:31Z</time>
      </trkpt>
      <trkpt lat="45.92884" lon="4.73075">
        <ele>172</ele>
        <time>2018-02-28T09:33:32Z</time>
      </trkpt>
      <trkpt lat="45.92887" lon="4.7307">
        <ele>172</ele>
        <time>2018-02-28T09:33:33Z</time>
      </trkpt>
      <trkpt lat="45.9289" lon="4.73065">
        <ele>172</ele>
        <time>2018-02-28T09:33:34Z</time>
      </trkpt>
      <trkpt lat="45.92893" lon="4.7306">
        <ele>172</ele>
        <time>2018-02-28T09:33:35Z</time>
      </trkpt>
      <trkpt lat="45.92896" lon="4.73055">
        <ele>172</ele>
        <time>2018-02-28T09:33:36Z</time>
      </trkpt>
      <trkpt lat="45.92899" lon="4.7305">
        <ele>172</ele>
        <time>2018-02-28T09:33:37Z</time>
      </trkpt>
      <trkpt lat="45.92903" lon="4.73044">
        <ele>172</ele>
        <time>2018-02-28T09:33:38Z</time>
      </trkpt>
      <trkpt lat="45.92906" lon="4.73038">
        <ele>172</ele>
        <time>2018-02-28T09:33:39Z</time>
      </trkpt>
      <trkpt lat="45.92909" lon="4.73033">
        <ele>172</ele>
        <time>2018-02-28T09:33:40Z</time>
      </trkpt>
      <trkpt lat="45.92913" lon="4.73029">
        <ele>172</ele>
        <time>2018-02-28T09:33:41Z</time>
      </trkpt>
      <trkpt lat="45.92918" lon="4.73023">
        <ele>172</ele>
        <time>2018-02-28T09:33:42Z</time>
      </trkpt>
      <trkpt lat="45.92922" lon="4.73018">
        <ele>172</ele>
        <time>2018-02-28T09:33:43Z</time>
      </trkpt>
      <trkpt lat="45.92926" lon="4.73012">
        <ele>172</ele>
        <time>2018-02-28T09:33:44Z</time>
      </trkpt>
      <trkpt lat="45.9293" lon="4.73008">
        <ele>172</ele>
        <time>2018-02-28T09:33:45Z</time>
      </trkpt>
      <trkpt lat="45.92934" lon="4.73003">
        <ele>171</ele>
        <time>2018-02-28T09:33:46Z</time>
      </trkpt>
      <trkpt lat="45.92938" lon="4.72999">
        <ele>171</ele>
        <time>2018-02-28T09:33:47Z</time>
      </trkpt>
      <trkpt lat="45.92942" lon="4.72994">
        <ele>171</ele>
        <time>2018-02-28T09:33:48Z</time>
      </trkpt>
      <trkpt lat="45.92946" lon="4.72989">
        <ele>171</ele>
        <time>2018-02-28T09:33:49Z</time>
      </trkpt>
      <trkpt lat="45.92951" lon="4.72984">
        <ele>171</ele>
        <time>2018-02-28T09:33:50Z</time>
      </trkpt>
      <trkpt lat="45.92956" lon="4.72979">
        <ele>171</ele>
        <time>2018-02-28T09:33:51Z</time>
      </trkpt>
      <trkpt lat="45.9296" lon="4.72973">
        <ele>171</ele>
        <time>2018-02-28T09:33:52Z</time>
      </trkpt>
      <trkpt lat="45.92964" lon="4.72969">
        <ele>171</ele>
        <time>2018-02-28T09:33:53Z</time>
      </trkpt>
      <trkpt lat="45.92969" lon="4.72963">
        <ele>171</ele>
        <time>2018-02-28T09:33:54Z</time>
      </trkpt>
      <trkpt lat="45.92973" lon="4.72958">
        <ele>171</ele>
        <time>2018-02-28T09:33:55Z</time>
      </trkpt>
      <trkpt lat="45.92976" lon="4.72952">
        <ele>171</ele>
        <time>2018-02-28T09:33:56Z</time>
      </trkpt>
      <trkpt lat="45.9298" lon="4.72948">
        <ele>171</ele>
        <time>2018-02-28T09:33:57Z</time>
      </trkpt>
      <trkpt lat="45.92984" lon="4.72943">
        <ele>171</ele>
        <time>2018-02-28T09:33:58Z</time>
      </trkpt>
      <trkpt lat="45.92988" lon="4.72938">
        <ele>171</ele>
        <time>2018-02-28T09:33:59Z</time>
      </trkpt>
      <trkpt lat="45.92992" lon="4.72932">
        <ele>171</ele>
        <time>2018-02-28T09:34:00Z</time>
      </trkpt>
      <trkpt lat="45.92995" lon="4.72928">
        <ele>171</ele>
        <time>2018-02-28T09:34:01Z</time>
      </trkpt>
      <trkpt lat="45.92999" lon="4.72923">
        <ele>171</ele>
        <time>2018-02-28T09:34:02Z</time>
      </trkpt>
      <trkpt lat="45.93003" lon="4.72917">
        <ele>171</ele>
        <time>2018-02-28T09:34:03Z</time>
      </trkpt>
      <trkpt lat="45.93007" lon="4.72912">
        <ele>171</ele>
        <time>2018-02-28T09:34:04Z</time>
      </trkpt>
      <trkpt lat="45.93011" lon="4.72908">
        <ele>171</ele>
        <time>2018-02-28T09:34:05Z</time>
      </trkpt>
      <trkpt lat="45.93016" lon="4.72903">
        <ele>172</ele>
        <time>2018-02-28T09:34:06Z</time>
      </trkpt>
      <trkpt lat="45.93021" lon="4.72898">
        <ele>172</ele>
        <time>2018-02-28T09:34:07Z</time>
      </trkpt>
      <trkpt lat="45.93027" lon="4.72894">
        <ele>172</ele>
        <time>2018-02-28T09:34:08Z</time>
      </trkpt>
      <trkpt lat="45.93031" lon="4.72889">
        <ele>172</ele>
        <time>2018-02-28T09:34:09Z</time>
      </trkpt>
      <trkpt lat="45.93035" lon="4.72884">
        <ele>172</ele>
        <time>2018-02-28T09:34:10Z</time>
      </trkpt>
      <trkpt lat="45.93039" lon="4.72879">
        <ele>172</ele>
        <time>2018-02-28T09:34:11Z</time>
      </trkpt>
      <trkpt lat="45.93043" lon="4.72874">
        <ele>172</ele>
        <time>2018-02-28T09:34:12Z</time>
      </trkpt>
      <trkpt lat="45.93048" lon="4.72869">
        <ele>172</ele>
        <time>2018-02-28T09:34:13Z</time>
      </trkpt>
      <trkpt lat="45.93051" lon="4.72864">
        <ele>172</ele>
        <time>2018-02-28T09:34:14Z</time>
      </trkpt>
      <trkpt lat="45.93056" lon="4.72859">
        <ele>172</ele>
        <time>2018-02-28T09:34:15Z</time>
      </trkpt>
      <trkpt lat="45.9306" lon="4.72853">
        <ele>172</ele>
        <time>2018-02-28T09:34:16Z</time>
      </trkpt>
      <trkpt lat="45.93063" lon="4.72849">
        <ele>172</ele>
        <time>2018-02-28T09:34:17Z</time>
      </trkpt>
      <trkpt lat="45.93067" lon="4.72844">
        <ele>172</ele>
        <time>2018-02-28T09:34:18Z</time>
      </trkpt>
      <trkpt lat="45.93071" lon="4.72838">
        <ele>173</ele>
        <time>2018-02-28T09:34:19Z</time>
      </trkpt>
      <trkpt lat="45.93075" lon="4.72832">
        <ele>173</ele>
        <time>2018-02-28T09:34:20Z</time>
      </trkpt>
      <trkpt lat="45.93079" lon="4.72827">
        <ele>173</ele>
        <time>2018-02-28T09:34:21Z</time>
      </trkpt>
      <trkpt lat="45.93084" lon="4.7282">
        <ele>172</ele>
        <time>2018-02-28T09:34:22Z</time>
      </trkpt>
      <trkpt lat="45.93088" lon="4.72813">
        <ele>172</ele>
        <time>2018-02-28T09:34:23Z</time>
      </trkpt>
      <trkpt lat="45.93096" lon="4.72808">
        <ele>172</ele>
        <time>2018-02-28T09:34:24Z</time>
      </trkpt>
      <trkpt lat="45.93103" lon="4.72802">
        <ele>171</ele>
        <time>2018-02-28T09:34:26Z</time>
      </trkpt>
      <trkpt lat="45.93108" lon="4.72796">
        <ele>171</ele>
        <time>2018-02-28T09:34:27Z</time>
      </trkpt>
      <trkpt lat="45.93113" lon="4.72792">
        <ele>171</ele>
        <time>2018-02-28T09:34:28Z</time>
      </trkpt>
      <trkpt lat="45.93117" lon="4.72787">
        <ele>171</ele>
        <time>2018-02-28T09:34:29Z</time>
      </trkpt>
      <trkpt lat="45.93121" lon="4.72783">
        <ele>171</ele>
        <time>2018-02-28T09:34:30Z</time>
      </trkpt>
      <trkpt lat="45.93126" lon="4.7278">
        <ele>171</ele>
        <time>2018-02-28T09:34:31Z</time>
      </trkpt>
      <trkpt lat="45.9313" lon="4.72776">
        <ele>171</ele>
        <time>2018-02-28T09:34:32Z</time>
      </trkpt>
      <trkpt lat="45.93135" lon="4.72772">
        <ele>171</ele>
        <time>2018-02-28T09:34:33Z</time>
      </trkpt>
      <trkpt lat="45.93139" lon="4.72768">
        <ele>171</ele>
        <time>2018-02-28T09:34:34Z</time>
      </trkpt>
      <trkpt lat="45.93144" lon="4.72763">
        <ele>171</ele>
        <time>2018-02-28T09:34:35Z</time>
      </trkpt>
      <trkpt lat="45.93148" lon="4.72758">
        <ele>170</ele>
        <time>2018-02-28T09:34:36Z</time>
      </trkpt>
      <trkpt lat="45.93152" lon="4.72753">
        <ele>170</ele>
        <time>2018-02-28T09:34:37Z</time>
      </trkpt>
      <trkpt lat="45.93157" lon="4.72748">
        <ele>170</ele>
        <time>2018-02-28T09:34:38Z</time>
      </trkpt>
      <trkpt lat="45.93161" lon="4.72742">
        <ele>170</ele>
        <time>2018-02-28T09:34:39Z</time>
      </trkpt>
      <trkpt lat="45.93165" lon="4.72737">
        <ele>170</ele>
        <time>2018-02-28T09:34:40Z</time>
      </trkpt>
      <trkpt lat="45.93168" lon="4.72731">
        <ele>170</ele>
        <time>2018-02-28T09:34:41Z</time>
      </trkpt>
      <trkpt lat="45.93172" lon="4.72726">
        <ele>170</ele>
        <time>2018-02-28T09:34:42Z</time>
      </trkpt>
      <trkpt lat="45.93176" lon="4.72722">
        <ele>170</ele>
        <time>2018-02-28T09:34:43Z</time>
      </trkpt>
      <trkpt lat="45.9318" lon="4.72717">
        <ele>169</ele>
        <time>2018-02-28T09:34:44Z</time>
      </trkpt>
      <trkpt lat="45.93184" lon="4.72712">
        <ele>169</ele>
        <time>2018-02-28T09:34:45Z</time>
      </trkpt>
      <trkpt lat="45.93188" lon="4.72707">
        <ele>169</ele>
        <time>2018-02-28T09:34:46Z</time>
      </trkpt>
      <trkpt lat="45.93191" lon="4.72703">
        <ele>169</ele>
        <time>2018-02-28T09:34:47Z</time>
      </trkpt>
      <trkpt lat="45.93195" lon="4.72698">
        <ele>169</ele>
        <time>2018-02-28T09:34:48Z</time>
      </trkpt>
      <trkpt lat="45.93199" lon="4.72694">
        <ele>169</ele>
        <time>2018-02-28T09:34:49Z</time>
      </trkpt>
      <trkpt lat="45.93203" lon="4.72688">
        <ele>169</ele>
        <time>2018-02-28T09:34:50Z</time>
      </trkpt>
      <trkpt lat="45.93207" lon="4.72683">
        <ele>169</ele>
        <time>2018-02-28T09:34:51Z</time>
      </trkpt>
      <trkpt lat="45.93211" lon="4.72678">
        <ele>169</ele>
        <time>2018-02-28T09:34:52Z</time>
      </trkpt>
      <trkpt lat="45.93216" lon="4.72673">
        <ele>169</ele>
        <time>2018-02-28T09:34:53Z</time>
      </trkpt>
      <trkpt lat="45.9322" lon="4.72669">
        <ele>169</ele>
        <time>2018-02-28T09:34:54Z</time>
      </trkpt>
      <trkpt lat="45.93224" lon="4.72664">
        <ele>170</ele>
        <time>2018-02-28T09:34:55Z</time>
      </trkpt>
      <trkpt lat="45.93228" lon="4.72659">
        <ele>170</ele>
        <time>2018-02-28T09:34:56Z</time>
      </trkpt>
      <trkpt lat="45.93232" lon="4.72653">
        <ele>170</ele>
        <time>2018-02-28T09:34:57Z</time>
      </trkpt>
      <trkpt lat="45.93236" lon="4.72648">
        <ele>170</ele>
        <time>2018-02-28T09:34:58Z</time>
      </trkpt>
      <trkpt lat="45.9324" lon="4.72643">
        <ele>170</ele>
        <time>2018-02-28T09:34:59Z</time>
      </trkpt>
      <trkpt lat="45.93244" lon="4.72639">
        <ele>170</ele>
        <time>2018-02-28T09:35:00Z</time>
      </trkpt>
      <trkpt lat="45.93248" lon="4.72633">
        <ele>170</ele>
        <time>2018-02-28T09:35:01Z</time>
      </trkpt>
      <trkpt lat="45.93253" lon="4.72629">
        <ele>170</ele>
        <time>2018-02-28T09:35:02Z</time>
      </trkpt>
      <trkpt lat="45.93258" lon="4.72624">
        <ele>170</ele>
        <time>2018-02-28T09:35:03Z</time>
      </trkpt>
      <trkpt lat="45.93261" lon="4.72619">
        <ele>170</ele>
        <time>2018-02-28T09:35:04Z</time>
      </trkpt>
      <trkpt lat="45.93266" lon="4.72615">
        <ele>170</ele>
        <time>2018-02-28T09:35:05Z</time>
      </trkpt>
      <trkpt lat="45.9327" lon="4.72611">
        <ele>170</ele>
        <time>2018-02-28T09:35:06Z</time>
      </trkpt>
      <trkpt lat="45.93274" lon="4.72606">
        <ele>170</ele>
        <time>2018-02-28T09:35:07Z</time>
      </trkpt>
      <trkpt lat="45.93278" lon="4.72601">
        <ele>170</ele>
        <time>2018-02-28T09:35:08Z</time>
      </trkpt>
      <trkpt lat="45.93281" lon="4.72596">
        <ele>170</ele>
        <time>2018-02-28T09:35:09Z</time>
      </trkpt>
      <trkpt lat="45.93285" lon="4.72592">
        <ele>170</ele>
        <time>2018-02-28T09:35:10Z</time>
      </trkpt>
      <trkpt lat="45.93289" lon="4.72587">
        <ele>170</ele>
        <time>2018-02-28T09:35:11Z</time>
      </trkpt>
      <trkpt lat="45.93293" lon="4.72583">
        <ele>171</ele>
        <time>2018-02-28T09:35:12Z</time>
      </trkpt>
      <trkpt lat="45.93296" lon="4.72578">
        <ele>171</ele>
        <time>2018-02-28T09:35:13Z</time>
      </trkpt>
      <trkpt lat="45.93299" lon="4.72573">
        <ele>171</ele>
        <time>2018-02-28T09:35:14Z</time>
      </trkpt>
      <trkpt lat="45.93302" lon="4.72568">
        <ele>171</ele>
        <time>2018-02-28T09:35:15Z</time>
      </trkpt>
      <trkpt lat="45.93306" lon="4.72563">
        <ele>171</ele>
        <time>2018-02-28T09:35:16Z</time>
      </trkpt>
      <trkpt lat="45.9331" lon="4.72559">
        <ele>172</ele>
        <time>2018-02-28T09:35:17Z</time>
      </trkpt>
      <trkpt lat="45.93315" lon="4.72554">
        <ele>172</ele>
        <time>2018-02-28T09:35:18Z</time>
      </trkpt>
      <trkpt lat="45.93319" lon="4.7255">
        <ele>172</ele>
        <time>2018-02-28T09:35:19Z</time>
      </trkpt>
      <trkpt lat="45.93324" lon="4.72545">
        <ele>172</ele>
        <time>2018-02-28T09:35:20Z</time>
      </trkpt>
      <trkpt lat="45.93328" lon="4.7254">
        <ele>172</ele>
        <time>2018-02-28T09:35:21Z</time>
      </trkpt>
      <trkpt lat="45.93333" lon="4.72536">
        <ele>172</ele>
        <time>2018-02-28T09:35:22Z</time>
      </trkpt>
      <trkpt lat="45.93337" lon="4.72531">
        <ele>172</ele>
        <time>2018-02-28T09:35:23Z</time>
      </trkpt>
      <trkpt lat="45.93341" lon="4.72526">
        <ele>172</ele>
        <time>2018-02-28T09:35:24Z</time>
      </trkpt>
      <trkpt lat="45.93345" lon="4.72522">
        <ele>172</ele>
        <time>2018-02-28T09:35:25Z</time>
      </trkpt>
      <trkpt lat="45.9335" lon="4.72517">
        <ele>172</ele>
        <time>2018-02-28T09:35:26Z</time>
      </trkpt>
      <trkpt lat="45.93355" lon="4.72513">
        <ele>172</ele>
        <time>2018-02-28T09:35:27Z</time>
      </trkpt>
      <trkpt lat="45.93359" lon="4.72507">
        <ele>172</ele>
        <time>2018-02-28T09:35:28Z</time>
      </trkpt>
      <trkpt lat="45.93364" lon="4.72502">
        <ele>172</ele>
        <time>2018-02-28T09:35:29Z</time>
      </trkpt>
      <trkpt lat="45.93367" lon="4.72497">
        <ele>173</ele>
        <time>2018-02-28T09:35:30Z</time>
      </trkpt>
      <trkpt lat="45.93372" lon="4.72493">
        <ele>173</ele>
        <time>2018-02-28T09:35:31Z</time>
      </trkpt>
      <trkpt lat="45.93376" lon="4.72488">
        <ele>173</ele>
        <time>2018-02-28T09:35:32Z</time>
      </trkpt>
      <trkpt lat="45.9338" lon="4.72483">
        <ele>173</ele>
        <time>2018-02-28T09:35:33Z</time>
      </trkpt>
      <trkpt lat="45.93384" lon="4.72478">
        <ele>173</ele>
        <time>2018-02-28T09:35:34Z</time>
      </trkpt>
      <trkpt lat="45.93387" lon="4.72474">
        <ele>173</ele>
        <time>2018-02-28T09:35:35Z</time>
      </trkpt>
      <trkpt lat="45.93391" lon="4.72469">
        <ele>173</ele>
        <time>2018-02-28T09:35:36Z</time>
      </trkpt>
      <trkpt lat="45.93394" lon="4.72463">
        <ele>173</ele>
        <time>2018-02-28T09:35:37Z</time>
      </trkpt>
      <trkpt lat="45.93397" lon="4.72451">
        <ele>173</ele>
        <time>2018-02-28T09:35:40Z</time>
      </trkpt>
      <trkpt lat="45.93398" lon="4.72448">
        <ele>173</ele>
        <time>2018-02-28T09:35:41Z</time>
      </trkpt>
      <trkpt lat="45.93401" lon="4.72441">
        <ele>173</ele>
        <time>2018-02-28T09:35:43Z</time>
      </trkpt>
      <trkpt lat="45.93405" lon="4.7243">
        <ele>173</ele>
        <time>2018-02-28T09:35:44Z</time>
      </trkpt>
      <trkpt lat="45.9341" lon="4.72422">
        <ele>174</ele>
        <time>2018-02-28T09:35:46Z</time>
      </trkpt>
      <trkpt lat="45.93414" lon="4.72418">
        <ele>174</ele>
        <time>2018-02-28T09:35:47Z</time>
      </trkpt>
      <trkpt lat="45.93418" lon="4.72416">
        <ele>174</ele>
        <time>2018-02-28T09:35:48Z</time>
      </trkpt>
      <trkpt lat="45.93423" lon="4.72414">
        <ele>174</ele>
        <time>2018-02-28T09:35:49Z</time>
      </trkpt>
      <trkpt lat="45.9343" lon="4.72408">
        <ele>174</ele>
        <time>2018-02-28T09:35:51Z</time>
      </trkpt>
      <trkpt lat="45.93435" lon="4.72406">
        <ele>174</ele>
        <time>2018-02-28T09:35:52Z</time>
      </trkpt>
      <trkpt lat="45.93443" lon="4.72401">
        <ele>173</ele>
        <time>2018-02-28T09:35:54Z</time>
      </trkpt>
      <trkpt lat="45.93446" lon="4.72399">
        <ele>173</ele>
        <time>2018-02-28T09:35:55Z</time>
      </trkpt>
      <trkpt lat="45.93454" lon="4.72393">
        <ele>173</ele>
        <time>2018-02-28T09:35:57Z</time>
      </trkpt>
      <trkpt lat="45.93459" lon="4.72389">
        <ele>173</ele>
        <time>2018-02-28T09:35:58Z</time>
      </trkpt>
      <trkpt lat="45.93463" lon="4.72384">
        <ele>173</ele>
        <time>2018-02-28T09:35:59Z</time>
      </trkpt>
      <trkpt lat="45.93467" lon="4.72379">
        <ele>173</ele>
        <time>2018-02-28T09:36:00Z</time>
      </trkpt>
      <trkpt lat="45.93472" lon="4.72375">
        <ele>173</ele>
        <time>2018-02-28T09:36:01Z</time>
      </trkpt>
      <trkpt lat="45.93475" lon="4.72371">
        <ele>173</ele>
        <time>2018-02-28T09:36:02Z</time>
      </trkpt>
      <trkpt lat="45.93478" lon="4.72365">
        <ele>173</ele>
        <time>2018-02-28T09:36:03Z</time>
      </trkpt>
      <trkpt lat="45.93481" lon="4.72361">
        <ele>173</ele>
        <time>2018-02-28T09:36:04Z</time>
      </trkpt>
      <trkpt lat="45.93485" lon="4.72355">
        <ele>173</ele>
        <time>2018-02-28T09:36:05Z</time>
      </trkpt>
      <trkpt lat="45.93489" lon="4.7235">
        <ele>173</ele>
        <time>2018-02-28T09:36:06Z</time>
      </trkpt>
      <trkpt lat="45.93493" lon="4.72344">
        <ele>173</ele>
        <time>2018-02-28T09:36:07Z</time>
      </trkpt>
      <trkpt lat="45.93497" lon="4.72339">
        <ele>173</ele>
        <time>2018-02-28T09:36:08Z</time>
      </trkpt>
      <trkpt lat="45.93501" lon="4.72334">
        <ele>173</ele>
        <time>2018-02-28T09:36:09Z</time>
      </trkpt>
      <trkpt lat="45.93504" lon="4.72329">
        <ele>173</ele>
        <time>2018-02-28T09:36:10Z</time>
      </trkpt>
      <trkpt lat="45.93508" lon="4.72324">
        <ele>173</ele>
        <time>2018-02-28T09:36:11Z</time>
      </trkpt>
      <trkpt lat="45.93512" lon="4.72318">
        <ele>173</ele>
        <time>2018-02-28T09:36:12Z</time>
      </trkpt>
      <trkpt lat="45.93517" lon="4.7231">
        <ele>173</ele>
        <time>2018-02-28T09:36:14Z</time>
      </trkpt>
      <trkpt lat="45.9352" lon="4.72305">
        <ele>173</ele>
        <time>2018-02-28T09:36:15Z</time>
      </trkpt>
      <trkpt lat="45.93524" lon="4.72296">
        <ele>172</ele>
        <time>2018-02-28T09:36:17Z</time>
      </trkpt>
      <trkpt lat="45.93526" lon="4.72291">
        <ele>172</ele>
        <time>2018-02-28T09:36:18Z</time>
      </trkpt>
      <trkpt lat="45.9353" lon="4.72281">
        <ele>172</ele>
        <time>2018-02-28T09:36:20Z</time>
      </trkpt>
      <trkpt lat="45.93532" lon="4.72276">
        <ele>172</ele>
        <time>2018-02-28T09:36:21Z</time>
      </trkpt>
      <trkpt lat="45.93536" lon="4.72266">
        <ele>172</ele>
        <time>2018-02-28T09:36:23Z</time>
      </trkpt>
      <trkpt lat="45.93538" lon="4.72261">
        <ele>172</ele>
        <time>2018-02-28T09:36:24Z</time>
      </trkpt>
      <trkpt lat="45.93542" lon="4.7225">
        <ele>172</ele>
        <time>2018-02-28T09:36:26Z</time>
      </trkpt>
      <trkpt lat="45.93545" lon="4.72244">
        <ele>172</ele>
        <time>2018-02-28T09:36:27Z</time>
      </trkpt>
      <trkpt lat="45.93547" lon="4.72238">
        <ele>172</ele>
        <time>2018-02-28T09:36:28Z</time>
      </trkpt>
      <trkpt lat="45.93549" lon="4.72233">
        <ele>172</ele>
        <time>2018-02-28T09:36:29Z</time>
      </trkpt>
      <trkpt lat="45.93553" lon="4.72228">
        <ele>173</ele>
        <time>2018-02-28T09:36:30Z</time>
      </trkpt>
      <trkpt lat="45.93558" lon="4.72225">
        <ele>173</ele>
        <time>2018-02-28T09:36:31Z</time>
      </trkpt>
      <trkpt lat="45.93563" lon="4.72226">
        <ele>173</ele>
        <time>2018-02-28T09:36:32Z</time>
      </trkpt>
      <trkpt lat="45.93567" lon="4.72228">
        <ele>173</ele>
        <time>2018-02-28T09:36:33Z</time>
      </trkpt>
      <trkpt lat="45.93571" lon="4.72231">
        <ele>173</ele>
        <time>2018-02-28T09:36:34Z</time>
      </trkpt>
      <trkpt lat="45.93576" lon="4.72235">
        <ele>173</ele>
        <time>2018-02-28T09:36:35Z</time>
      </trkpt>
      <trkpt lat="45.9358" lon="4.72238">
        <ele>173</ele>
        <time>2018-02-28T09:36:36Z</time>
      </trkpt>
      <trkpt lat="45.93584" lon="4.72242">
        <ele>173</ele>
        <time>2018-02-28T09:36:37Z</time>
      </trkpt>
      <trkpt lat="45.93591" lon="4.72247">
        <ele>173</ele>
        <time>2018-02-28T09:36:39Z</time>
      </trkpt>
      <trkpt lat="45.93594" lon="4.72251">
        <ele>173</ele>
        <time>2018-02-28T09:36:40Z</time>
      </trkpt>
      <trkpt lat="45.93598" lon="4.72254">
        <ele>173</ele>
        <time>2018-02-28T09:36:41Z</time>
      </trkpt>
      <trkpt lat="45.93602" lon="4.72258">
        <ele>173</ele>
        <time>2018-02-28T09:36:42Z</time>
      </trkpt>
      <trkpt lat="45.93608" lon="4.72266">
        <ele>172</ele>
        <time>2018-02-28T09:36:44Z</time>
      </trkpt>
      <trkpt lat="45.93613" lon="4.7227">
        <ele>172</ele>
        <time>2018-02-28T09:36:45Z</time>
      </trkpt>
      <trkpt lat="45.93617" lon="4.72275">
        <ele>172</ele>
        <time>2018-02-28T09:36:46Z</time>
      </trkpt>
      <trkpt lat="45.93622" lon="4.7228">
        <ele>172</ele>
        <time>2018-02-28T09:36:47Z</time>
      </trkpt>
      <trkpt lat="45.93626" lon="4.72285">
        <ele>172</ele>
        <time>2018-02-28T09:36:49Z</time>
      </trkpt>
      <trkpt lat="45.9363" lon="4.72291">
        <ele>172</ele>
        <time>2018-02-28T09:36:50Z</time>
      </trkpt>
      <trkpt lat="45.93633" lon="4.72294">
        <ele>172</ele>
        <time>2018-02-28T09:36:51Z</time>
      </trkpt>
      <trkpt lat="45.9364" lon="4.72298">
        <ele>172</ele>
        <time>2018-02-28T09:36:52Z</time>
      </trkpt>
      <trkpt lat="45.93645" lon="4.72303">
        <ele>172</ele>
        <time>2018-02-28T09:36:53Z</time>
      </trkpt>
      <trkpt lat="45.93649" lon="4.72306">
        <ele>172</ele>
        <time>2018-02-28T09:36:54Z</time>
      </trkpt>
      <trkpt lat="45.93654" lon="4.7231">
        <ele>172</ele>
        <time>2018-02-28T09:36:55Z</time>
      </trkpt>
      <trkpt lat="45.93659" lon="4.72315">
        <ele>172</ele>
        <time>2018-02-28T09:36:56Z</time>
      </trkpt>
      <trkpt lat="45.93664" lon="4.72319">
        <ele>172</ele>
        <time>2018-02-28T09:36:57Z</time>
      </trkpt>
      <trkpt lat="45.93668" lon="4.72321">
        <ele>171</ele>
        <time>2018-02-28T09:36:58Z</time>
      </trkpt>
      <trkpt lat="45.93674" lon="4.72325">
        <ele>171</ele>
        <time>2018-02-28T09:36:59Z</time>
      </trkpt>
      <trkpt lat="45.93677" lon="4.7233">
        <ele>171</ele>
        <time>2018-02-28T09:37:00Z</time>
      </trkpt>
      <trkpt lat="45.93681" lon="4.72336">
        <ele>171</ele>
        <time>2018-02-28T09:37:01Z</time>
      </trkpt>
      <trkpt lat="45.93686" lon="4.72341">
        <ele>171</ele>
        <time>2018-02-28T09:37:02Z</time>
      </trkpt>
      <trkpt lat="45.93692" lon="4.72344">
        <ele>171</ele>
        <time>2018-02-28T09:37:04Z</time>
      </trkpt>
      <trkpt lat="45.93697" lon="4.72349">
        <ele>171</ele>
        <time>2018-02-28T09:37:05Z</time>
      </trkpt>
      <trkpt lat="45.93705" lon="4.72355">
        <ele>171</ele>
        <time>2018-02-28T09:37:07Z</time>
      </trkpt>
      <trkpt lat="45.9371" lon="4.72362">
        <ele>172</ele>
        <time>2018-02-28T09:37:08Z</time>
      </trkpt>
      <trkpt lat="45.93716" lon="4.72367">
        <ele>172</ele>
        <time>2018-02-28T09:37:09Z</time>
      </trkpt>
      <trkpt lat="45.9372" lon="4.72372">
        <ele>172</ele>
        <time>2018-02-28T09:37:10Z</time>
      </trkpt>
      <trkpt lat="45.93724" lon="4.72377">
        <ele>171</ele>
        <time>2018-02-28T09:37:11Z</time>
      </trkpt>
      <trkpt lat="45.93728" lon="4.72381">
        <ele>171</ele>
        <time>2018-02-28T09:37:12Z</time>
      </trkpt>
      <trkpt lat="45.93732" lon="4.72386">
        <ele>171</ele>
        <time>2018-02-28T09:37:13Z</time>
      </trkpt>
      <trkpt lat="45.93737" lon="4.7239">
        <ele>171</ele>
        <time>2018-02-28T09:37:14Z</time>
      </trkpt>
      <trkpt lat="45.93742" lon="4.72393">
        <ele>171</ele>
        <time>2018-02-28T09:37:15Z</time>
      </trkpt>
      <trkpt lat="45.93747" lon="4.72399">
        <ele>171</ele>
        <time>2018-02-28T09:37:16Z</time>
      </trkpt>
      <trkpt lat="45.93752" lon="4.72401">
        <ele>171</ele>
        <time>2018-02-28T09:37:17Z</time>
      </trkpt>
      <trkpt lat="45.93757" lon="4.72405">
        <ele>171</ele>
        <time>2018-02-28T09:37:18Z</time>
      </trkpt>
      <trkpt lat="45.93761" lon="4.72409">
        <ele>171</ele>
        <time>2018-02-28T09:37:19Z</time>
      </trkpt>
      <trkpt lat="45.93765" lon="4.72413">
        <ele>171</ele>
        <time>2018-02-28T09:37:20Z</time>
      </trkpt>
      <trkpt lat="45.93769" lon="4.72417">
        <ele>171</ele>
        <time>2018-02-28T09:37:21Z</time>
      </trkpt>
      <trkpt lat="45.93772" lon="4.72424">
        <ele>171</ele>
        <time>2018-02-28T09:37:22Z</time>
      </trkpt>
      <trkpt lat="45.93776" lon="4.72428">
        <ele>171</ele>
        <time>2018-02-28T09:37:23Z</time>
      </trkpt>
      <trkpt lat="45.93781" lon="4.72432">
        <ele>172</ele>
        <time>2018-02-28T09:37:24Z</time>
      </trkpt>
      <trkpt lat="45.93784" lon="4.72436">
        <ele>172</ele>
        <time>2018-02-28T09:37:25Z</time>
      </trkpt>
      <trkpt lat="45.93789" lon="4.72439">
        <ele>172</ele>
        <time>2018-02-28T09:37:26Z</time>
      </trkpt>
      <trkpt lat="45.93793" lon="4.72444">
        <ele>172</ele>
        <time>2018-02-28T09:37:27Z</time>
      </trkpt>
      <trkpt lat="45.93797" lon="4.72447">
        <ele>172</ele>
        <time>2018-02-28T09:37:28Z</time>
      </trkpt>
      <trkpt lat="45.93799" lon="4.72448">
        <ele>172</ele>
        <time>2018-02-28T09:37:29Z</time>
      </trkpt>
      <trkpt lat="45.93805" lon="4.72455">
        <ele>172</ele>
        <time>2018-02-28T09:37:30Z</time>
      </trkpt>
      <trkpt lat="45.9381" lon="4.7246">
        <ele>172</ele>
        <time>2018-02-28T09:37:31Z</time>
      </trkpt>
      <trkpt lat="45.93816" lon="4.72466">
        <ele>172</ele>
        <time>2018-02-28T09:37:32Z</time>
      </trkpt>
      <trkpt lat="45.93822" lon="4.72475">
        <ele>172</ele>
        <time>2018-02-28T09:37:34Z</time>
      </trkpt>
      <trkpt lat="45.93823" lon="4.72477">
        <ele>173</ele>
        <time>2018-02-28T09:37:35Z</time>
      </trkpt>
      <trkpt lat="45.93832" lon="4.72479">
        <ele>173</ele>
        <time>2018-02-28T09:37:39Z</time>
      </trkpt>
      <trkpt lat="45.93833" lon="4.72478">
        <ele>173</ele>
        <time>2018-02-28T09:37:40Z</time>
      </trkpt>
      <trkpt lat="45.93834" lon="4.72479">
        <ele>173</ele>
        <time>2018-02-28T09:37:41Z</time>
      </trkpt>
      <trkpt lat="45.93844" lon="4.72492">
        <ele>173</ele>
        <time>2018-02-28T09:37:42Z</time>
      </trkpt>
      <trkpt lat="45.93849" lon="4.72499">
        <ele>173</ele>
        <time>2018-02-28T09:37:44Z</time>
      </trkpt>
      <trkpt lat="45.93859" lon="4.72506">
        <ele>173</ele>
        <time>2018-02-28T09:37:45Z</time>
      </trkpt>
      <trkpt lat="45.93864" lon="4.72508">
        <ele>173</ele>
        <time>2018-02-28T09:37:46Z</time>
      </trkpt>
      <trkpt lat="45.93871" lon="4.72507">
        <ele>173</ele>
        <time>2018-02-28T09:37:47Z</time>
      </trkpt>
      <trkpt lat="45.93876" lon="4.72505">
        <ele>173</ele>
        <time>2018-02-28T09:37:48Z</time>
      </trkpt>
      <trkpt lat="45.93881" lon="4.72502">
        <ele>173</ele>
        <time>2018-02-28T09:37:49Z</time>
      </trkpt>
      <trkpt lat="45.93885" lon="4.72497">
        <ele>172</ele>
        <time>2018-02-28T09:37:50Z</time>
      </trkpt>
      <trkpt lat="45.93889" lon="4.72494">
        <ele>172</ele>
        <time>2018-02-28T09:37:51Z</time>
      </trkpt>
      <trkpt lat="45.93894" lon="4.7249">
        <ele>172</ele>
        <time>2018-02-28T09:37:52Z</time>
      </trkpt>
      <trkpt lat="45.93898" lon="4.72487">
        <ele>172</ele>
        <time>2018-02-28T09:37:53Z</time>
      </trkpt>
      <trkpt lat="45.93902" lon="4.72482">
        <ele>172</ele>
        <time>2018-02-28T09:37:54Z</time>
      </trkpt>
      <trkpt lat="45.93907" lon="4.72477">
        <ele>172</ele>
        <time>2018-02-28T09:37:55Z</time>
      </trkpt>
      <trkpt lat="45.93911" lon="4.72473">
        <ele>172</ele>
        <time>2018-02-28T09:37:56Z</time>
      </trkpt>
      <trkpt lat="45.93915" lon="4.72468">
        <ele>172</ele>
        <time>2018-02-28T09:37:57Z</time>
      </trkpt>
      <trkpt lat="45.9392" lon="4.72462">
        <ele>171</ele>
        <time>2018-02-28T09:37:58Z</time>
      </trkpt>
      <trkpt lat="45.93924" lon="4.72457">
        <ele>171</ele>
        <time>2018-02-28T09:37:59Z</time>
      </trkpt>
      <trkpt lat="45.93928" lon="4.72452">
        <ele>171</ele>
        <time>2018-02-28T09:38:00Z</time>
      </trkpt>
      <trkpt lat="45.93932" lon="4.72446">
        <ele>171</ele>
        <time>2018-02-28T09:38:01Z</time>
      </trkpt>
      <trkpt lat="45.93937" lon="4.72441">
        <ele>171</ele>
        <time>2018-02-28T09:38:02Z</time>
      </trkpt>
      <trkpt lat="45.93941" lon="4.72436">
        <ele>171</ele>
        <time>2018-02-28T09:38:03Z</time>
      </trkpt>
      <trkpt lat="45.93945" lon="4.7243">
        <ele>171</ele>
        <time>2018-02-28T09:38:04Z</time>
      </trkpt>
      <trkpt lat="45.93949" lon="4.72425">
        <ele>171</ele>
        <time>2018-02-28T09:38:05Z</time>
      </trkpt>
      <trkpt lat="45.93953" lon="4.72419">
        <ele>171</ele>
        <time>2018-02-28T09:38:06Z</time>
      </trkpt>
      <trkpt lat="45.93957" lon="4.72416">
        <ele>171</ele>
        <time>2018-02-28T09:38:07Z</time>
      </trkpt>
      <trkpt lat="45.93962" lon="4.7241">
        <ele>171</ele>
        <time>2018-02-28T09:38:08Z</time>
      </trkpt>
      <trkpt lat="45.93966" lon="4.72405">
        <ele>171</ele>
        <time>2018-02-28T09:38:09Z</time>
      </trkpt>
      <trkpt lat="45.93971" lon="4.724">
        <ele>171</ele>
        <time>2018-02-28T09:38:10Z</time>
      </trkpt>
      <trkpt lat="45.93976" lon="4.72395">
        <ele>171</ele>
        <time>2018-02-28T09:38:11Z</time>
      </trkpt>
      <trkpt lat="45.93981" lon="4.72389">
        <ele>171</ele>
        <time>2018-02-28T09:38:12Z</time>
      </trkpt>
      <trkpt lat="45.93985" lon="4.72384">
        <ele>171</ele>
        <time>2018-02-28T09:38:13Z</time>
      </trkpt>
      <trkpt lat="45.93989" lon="4.7238">
        <ele>171</ele>
        <time>2018-02-28T09:38:14Z</time>
      </trkpt>
      <trkpt lat="45.93993" lon="4.72375">
        <ele>171</ele>
        <time>2018-02-28T09:38:15Z</time>
      </trkpt>
      <trkpt lat="45.93997" lon="4.7237">
        <ele>171</ele>
        <time>2018-02-28T09:38:16Z</time>
      </trkpt>
      <trkpt lat="45.94001" lon="4.72364">
        <ele>171</ele>
        <time>2018-02-28T09:38:17Z</time>
      </trkpt>
      <trkpt lat="45.94005" lon="4.7236">
        <ele>171</ele>
        <time>2018-02-28T09:38:18Z</time>
      </trkpt>
      <trkpt lat="45.94009" lon="4.72356">
        <ele>171</ele>
        <time>2018-02-28T09:38:19Z</time>
      </trkpt>
      <trkpt lat="45.94012" lon="4.72351">
        <ele>171</ele>
        <time>2018-02-28T09:38:20Z</time>
      </trkpt>
      <trkpt lat="45.94015" lon="4.72345">
        <ele>171</ele>
        <time>2018-02-28T09:38:21Z</time>
      </trkpt>
      <trkpt lat="45.94021" lon="4.72336">
        <ele>171</ele>
        <time>2018-02-28T09:38:23Z</time>
      </trkpt>
      <trkpt lat="45.94024" lon="4.72331">
        <ele>171</ele>
        <time>2018-02-28T09:38:24Z</time>
      </trkpt>
      <trkpt lat="45.94029" lon="4.72327">
        <ele>171</ele>
        <time>2018-02-28T09:38:25Z</time>
      </trkpt>
      <trkpt lat="45.94033" lon="4.72322">
        <ele>171</ele>
        <time>2018-02-28T09:38:26Z</time>
      </trkpt>
      <trkpt lat="45.94036" lon="4.72318">
        <ele>171</ele>
        <time>2018-02-28T09:38:27Z</time>
      </trkpt>
      <trkpt lat="45.9404" lon="4.72312">
        <ele>171</ele>
        <time>2018-02-28T09:38:28Z</time>
      </trkpt>
      <trkpt lat="45.94046" lon="4.72303">
        <ele>171</ele>
        <time>2018-02-28T09:38:30Z</time>
      </trkpt>
      <trkpt lat="45.9405" lon="4.723">
        <ele>171</ele>
        <time>2018-02-28T09:38:31Z</time>
      </trkpt>
      <trkpt lat="45.94054" lon="4.72296">
        <ele>171</ele>
        <time>2018-02-28T09:38:32Z</time>
      </trkpt>
      <trkpt lat="45.94057" lon="4.72292">
        <ele>171</ele>
        <time>2018-02-28T09:38:33Z</time>
      </trkpt>
      <trkpt lat="45.9406" lon="4.72287">
        <ele>171</ele>
        <time>2018-02-28T09:38:34Z</time>
      </trkpt>
      <trkpt lat="45.94066" lon="4.72281">
        <ele>171</ele>
        <time>2018-02-28T09:38:35Z</time>
      </trkpt>
      <trkpt lat="45.9407" lon="4.72278">
        <ele>171</ele>
        <time>2018-02-28T09:38:36Z</time>
      </trkpt>
      <trkpt lat="45.94075" lon="4.72275">
        <ele>171</ele>
        <time>2018-02-28T09:38:37Z</time>
      </trkpt>
      <trkpt lat="45.94079" lon="4.72272">
        <ele>171</ele>
        <time>2018-02-28T09:38:38Z</time>
      </trkpt>
      <trkpt lat="45.94084" lon="4.72268">
        <ele>171</ele>
        <time>2018-02-28T09:38:39Z</time>
      </trkpt>
      <trkpt lat="45.94091" lon="4.72266">
        <ele>171</ele>
        <time>2018-02-28T09:38:41Z</time>
      </trkpt>
      <trkpt lat="45.94095" lon="4.72263">
        <ele>171</ele>
        <time>2018-02-28T09:38:42Z</time>
      </trkpt>
      <trkpt lat="45.94099" lon="4.72262">
        <ele>171</ele>
        <time>2018-02-28T09:38:43Z</time>
      </trkpt>
      <trkpt lat="45.94104" lon="4.72263">
        <ele>171</ele>
        <time>2018-02-28T09:38:44Z</time>
      </trkpt>
      <trkpt lat="45.94112" lon="4.72265">
        <ele>171</ele>
        <time>2018-02-28T09:38:46Z</time>
      </trkpt>
      <trkpt lat="45.94117" lon="4.72265">
        <ele>171</ele>
        <time>2018-02-28T09:38:47Z</time>
      </trkpt>
      <trkpt lat="45.94124" lon="4.72268">
        <ele>171</ele>
        <time>2018-02-28T09:38:49Z</time>
      </trkpt>
      <trkpt lat="45.94129" lon="4.72272">
        <ele>171</ele>
        <time>2018-02-28T09:38:50Z</time>
      </trkpt>
      <trkpt lat="45.94133" lon="4.72275">
        <ele>171</ele>
        <time>2018-02-28T09:38:51Z</time>
      </trkpt>
      <trkpt lat="45.94138" lon="4.72277">
        <ele>171</ele>
        <time>2018-02-28T09:38:52Z</time>
      </trkpt>
      <trkpt lat="45.94142" lon="4.72278">
        <ele>171</ele>
        <time>2018-02-28T09:38:53Z</time>
      </trkpt>
      <trkpt lat="45.94147" lon="4.7228">
        <ele>171</ele>
        <time>2018-02-28T09:38:54Z</time>
      </trkpt>
      <trkpt lat="45.94151" lon="4.72282">
        <ele>171</ele>
        <time>2018-02-28T09:38:55Z</time>
      </trkpt>
      <trkpt lat="45.94156" lon="4.72284">
        <ele>171</ele>
        <time>2018-02-28T09:38:56Z</time>
      </trkpt>
      <trkpt lat="45.94162" lon="4.72285">
        <ele>171</ele>
        <time>2018-02-28T09:38:57Z</time>
      </trkpt>
      <trkpt lat="45.94166" lon="4.72286">
        <ele>171</ele>
        <time>2018-02-28T09:38:58Z</time>
      </trkpt>
      <trkpt lat="45.94174" lon="4.72285">
        <ele>171</ele>
        <time>2018-02-28T09:39:00Z</time>
      </trkpt>
      <trkpt lat="45.94179" lon="4.72286">
        <ele>171</ele>
        <time>2018-02-28T09:39:01Z</time>
      </trkpt>
      <trkpt lat="45.94187" lon="4.72287">
        <ele>171</ele>
        <time>2018-02-28T09:39:03Z</time>
      </trkpt>
      <trkpt lat="45.94192" lon="4.72287">
        <ele>171</ele>
        <time>2018-02-28T09:39:04Z</time>
      </trkpt>
      <trkpt lat="45.94197" lon="4.72287">
        <ele>171</ele>
        <time>2018-02-28T09:39:05Z</time>
      </trkpt>
      <trkpt lat="45.94202" lon="4.72288">
        <ele>171</ele>
        <time>2018-02-28T09:39:06Z</time>
      </trkpt>
      <trkpt lat="45.9421" lon="4.72287">
        <ele>171</ele>
        <time>2018-02-28T09:39:08Z</time>
      </trkpt>
      <trkpt lat="45.94212" lon="4.72287">
        <ele>171</ele>
        <time>2018-02-28T09:39:09Z</time>
      </trkpt>
      <trkpt lat="45.94218" lon="4.72286">
        <ele>171</ele>
        <time>2018-02-28T09:39:10Z</time>
      </trkpt>
      <trkpt lat="45.94222" lon="4.72286">
        <ele>171</ele>
        <time>2018-02-28T09:39:11Z</time>
      </trkpt>
      <trkpt lat="45.94229" lon="4.72282">
        <ele>171</ele>
        <time>2018-02-28T09:39:13Z</time>
      </trkpt>
      <trkpt lat="45.94233" lon="4.7228">
        <ele>171</ele>
        <time>2018-02-28T09:39:14Z</time>
      </trkpt>
      <trkpt lat="45.94242" lon="4.72278">
        <ele>171</ele>
        <time>2018-02-28T09:39:16Z</time>
      </trkpt>
      <trkpt lat="45.94246" lon="4.72277">
        <ele>171</ele>
        <time>2018-02-28T09:39:17Z</time>
      </trkpt>
      <trkpt lat="45.94254" lon="4.72275">
        <ele>171</ele>
        <time>2018-02-28T09:39:19Z</time>
      </trkpt>
      <trkpt lat="45.94256" lon="4.72274">
        <ele>171</ele>
        <time>2018-02-28T09:39:20Z</time>
      </trkpt>
      <trkpt lat="45.94263" lon="4.72271">
        <ele>171</ele>
        <time>2018-02-28T09:39:23Z</time>
      </trkpt>
      <trkpt lat="45.94266" lon="4.72271">
        <ele>171</ele>
        <time>2018-02-28T09:39:24Z</time>
      </trkpt>
      <trkpt lat="45.94273" lon="4.72274">
        <ele>171</ele>
        <time>2018-02-28T09:39:25Z</time>
      </trkpt>
      <trkpt lat="45.94276" lon="4.72279">
        <ele>171</ele>
        <time>2018-02-28T09:39:26Z</time>
      </trkpt>
      <trkpt lat="45.9428" lon="4.72289">
        <ele>171</ele>
        <time>2018-02-28T09:39:28Z</time>
      </trkpt>
      <trkpt lat="45.94282" lon="4.72295">
        <ele>171</ele>
        <time>2018-02-28T09:39:29Z</time>
      </trkpt>
      <trkpt lat="45.94286" lon="4.72302">
        <ele>171</ele>
        <time>2018-02-28T09:39:31Z</time>
      </trkpt>
      <trkpt lat="45.94291" lon="4.72309">
        <ele>171</ele>
        <time>2018-02-28T09:39:32Z</time>
      </trkpt>
      <trkpt lat="45.94293" lon="4.72315">
        <ele>171</ele>
        <time>2018-02-28T09:39:33Z</time>
      </trkpt>
      <trkpt lat="45.94296" lon="4.72321">
        <ele>171</ele>
        <time>2018-02-28T09:39:34Z</time>
      </trkpt>
      <trkpt lat="45.943" lon="4.72326">
        <ele>171</ele>
        <time>2018-02-28T09:39:35Z</time>
      </trkpt>
      <trkpt lat="45.94302" lon="4.72332">
        <ele>171</ele>
        <time>2018-02-28T09:39:36Z</time>
      </trkpt>
      <trkpt lat="45.94304" lon="4.72337">
        <ele>172</ele>
        <time>2018-02-28T09:39:37Z</time>
      </trkpt>
      <trkpt lat="45.94306" lon="4.72344">
        <ele>172</ele>
        <time>2018-02-28T09:39:38Z</time>
      </trkpt>
      <trkpt lat="45.94309" lon="4.72351">
        <ele>172</ele>
        <time>2018-02-28T09:39:39Z</time>
      </trkpt>
      <trkpt lat="45.94311" lon="4.72357">
        <ele>172</ele>
        <time>2018-02-28T09:39:40Z</time>
      </trkpt>
      <trkpt lat="45.94314" lon="4.72362">
        <ele>172</ele>
        <time>2018-02-28T09:39:41Z</time>
      </trkpt>
      <trkpt lat="45.94316" lon="4.72369">
        <ele>172</ele>
        <time>2018-02-28T09:39:42Z</time>
      </trkpt>
      <trkpt lat="45.94321" lon="4.72379">
        <ele>172</ele>
        <time>2018-02-28T09:39:44Z</time>
      </trkpt>
      <trkpt lat="45.94323" lon="4.72385">
        <ele>172</ele>
        <time>2018-02-28T09:39:45Z</time>
      </trkpt>
      <trkpt lat="45.94326" lon="4.72391">
        <ele>172</ele>
        <time>2018-02-28T09:39:46Z</time>
      </trkpt>
      <trkpt lat="45.94329" lon="4.72398">
        <ele>172</ele>
        <time>2018-02-28T09:39:47Z</time>
      </trkpt>
      <trkpt lat="45.94331" lon="4.72404">
        <ele>173</ele>
        <time>2018-02-28T09:39:48Z</time>
      </trkpt>
      <trkpt lat="45.94334" lon="4.7241">
        <ele>173</ele>
        <time>2018-02-28T09:39:49Z</time>
      </trkpt>
      <trkpt lat="45.94337" lon="4.72416">
        <ele>173</ele>
        <time>2018-02-28T09:39:50Z</time>
      </trkpt>
      <trkpt lat="45.9434" lon="4.72423">
        <ele>173</ele>
        <time>2018-02-28T09:39:51Z</time>
      </trkpt>
      <trkpt lat="45.94343" lon="4.7243">
        <ele>173</ele>
        <time>2018-02-28T09:39:52Z</time>
      </trkpt>
      <trkpt lat="45.94345" lon="4.72436">
        <ele>173</ele>
        <time>2018-02-28T09:39:53Z</time>
      </trkpt>
      <trkpt lat="45.94349" lon="4.72443">
        <ele>173</ele>
        <time>2018-02-28T09:39:55Z</time>
      </trkpt>
      <trkpt lat="45.94353" lon="4.7245">
        <ele>173</ele>
        <time>2018-02-28T09:39:56Z</time>
      </trkpt>
      <trkpt lat="45.94357" lon="4.72456">
        <ele>173</ele>
        <time>2018-02-28T09:39:57Z</time>
      </trkpt>
      <trkpt lat="45.9436" lon="4.72462">
        <ele>173</ele>
        <time>2018-02-28T09:39:58Z</time>
      </trkpt>
      <trkpt lat="45.94364" lon="4.72473">
        <ele>173</ele>
        <time>2018-02-28T09:40:00Z</time>
      </trkpt>
      <trkpt lat="45.94366" lon="4.72478">
        <ele>173</ele>
        <time>2018-02-28T09:40:01Z</time>
      </trkpt>
      <trkpt lat="45.9437" lon="4.72484">
        <ele>173</ele>
        <time>2018-02-28T09:40:02Z</time>
      </trkpt>
      <trkpt lat="45.94371" lon="4.7249">
        <ele>173</ele>
        <time>2018-02-28T09:40:03Z</time>
      </trkpt>
      <trkpt lat="45.94373" lon="4.72497">
        <ele>173</ele>
        <time>2018-02-28T09:40:04Z</time>
      </trkpt>
      <trkpt lat="45.94375" lon="4.72503">
        <ele>174</ele>
        <time>2018-02-28T09:40:05Z</time>
      </trkpt>
      <trkpt lat="45.94377" lon="4.7251">
        <ele>174</ele>
        <time>2018-02-28T09:40:06Z</time>
      </trkpt>
      <trkpt lat="45.94378" lon="4.72517">
        <ele>174</ele>
        <time>2018-02-28T09:40:07Z</time>
      </trkpt>
      <trkpt lat="45.9438" lon="4.72523">
        <ele>174</ele>
        <time>2018-02-28T09:40:08Z</time>
      </trkpt>
      <trkpt lat="45.94381" lon="4.72529">
        <ele>174</ele>
        <time>2018-02-28T09:40:09Z</time>
      </trkpt>
      <trkpt lat="45.94383" lon="4.72535">
        <ele>174</ele>
        <time>2018-02-28T09:40:10Z</time>
      </trkpt>
      <trkpt lat="45.94387" lon="4.72542">
        <ele>174</ele>
        <time>2018-02-28T09:40:11Z</time>
      </trkpt>
      <trkpt lat="45.94387" lon="4.72554">
        <ele>173</ele>
        <time>2018-02-28T09:40:13Z</time>
      </trkpt>
      <trkpt lat="45.9439" lon="4.72561">
        <ele>173</ele>
        <time>2018-02-28T09:40:14Z</time>
      </trkpt>
      <trkpt lat="45.94391" lon="4.72569">
        <ele>173</ele>
        <time>2018-02-28T09:40:15Z</time>
      </trkpt>
      <trkpt lat="45.94393" lon="4.72576">
        <ele>173</ele>
        <time>2018-02-28T09:40:16Z</time>
      </trkpt>
      <trkpt lat="45.94393" lon="4.72584">
        <ele>173</ele>
        <time>2018-02-28T09:40:17Z</time>
      </trkpt>
      <trkpt lat="45.94395" lon="4.7259">
        <ele>173</ele>
        <time>2018-02-28T09:40:18Z</time>
      </trkpt>
      <trkpt lat="45.94395" lon="4.72596">
        <ele>173</ele>
        <time>2018-02-28T09:40:19Z</time>
      </trkpt>
      <trkpt lat="45.94398" lon="4.72604">
        <ele>173</ele>
        <time>2018-02-28T09:40:20Z</time>
      </trkpt>
      <trkpt lat="45.94399" lon="4.72611">
        <ele>173</ele>
        <time>2018-02-28T09:40:21Z</time>
      </trkpt>
      <trkpt lat="45.944" lon="4.72617">
        <ele>173</ele>
        <time>2018-02-28T09:40:22Z</time>
      </trkpt>
      <trkpt lat="45.94402" lon="4.72625">
        <ele>173</ele>
        <time>2018-02-28T09:40:23Z</time>
      </trkpt>
      <trkpt lat="45.94402" lon="4.72631">
        <ele>174</ele>
        <time>2018-02-28T09:40:24Z</time>
      </trkpt>
      <trkpt lat="45.94403" lon="4.72637">
        <ele>174</ele>
        <time>2018-02-28T09:40:25Z</time>
      </trkpt>
      <trkpt lat="45.94404" lon="4.72644">
        <ele>174</ele>
        <time>2018-02-28T09:40:26Z</time>
      </trkpt>
      <trkpt lat="45.94405" lon="4.72652">
        <ele>174</ele>
        <time>2018-02-28T09:40:27Z</time>
      </trkpt>
      <trkpt lat="45.94405" lon="4.72659">
        <ele>174</ele>
        <time>2018-02-28T09:40:28Z</time>
      </trkpt>
      <trkpt lat="45.94406" lon="4.72666">
        <ele>174</ele>
        <time>2018-02-28T09:40:29Z</time>
      </trkpt>
      <trkpt lat="45.94406" lon="4.72672">
        <ele>173</ele>
        <time>2018-02-28T09:40:30Z</time>
      </trkpt>
      <trkpt lat="45.94409" lon="4.72684">
        <ele>173</ele>
        <time>2018-02-28T09:40:32Z</time>
      </trkpt>
      <trkpt lat="45.9441" lon="4.7269">
        <ele>173</ele>
        <time>2018-02-28T09:40:33Z</time>
      </trkpt>
      <trkpt lat="45.94412" lon="4.72696">
        <ele>173</ele>
        <time>2018-02-28T09:40:34Z</time>
      </trkpt>
      <trkpt lat="45.94412" lon="4.72703">
        <ele>172</ele>
        <time>2018-02-28T09:40:35Z</time>
      </trkpt>
      <trkpt lat="45.94414" lon="4.72715">
        <ele>172</ele>
        <time>2018-02-28T09:40:37Z</time>
      </trkpt>
      <trkpt lat="45.94415" lon="4.72721">
        <ele>172</ele>
        <time>2018-02-28T09:40:38Z</time>
      </trkpt>
      <trkpt lat="45.94416" lon="4.72733">
        <ele>172</ele>
        <time>2018-02-28T09:40:40Z</time>
      </trkpt>
      <trkpt lat="45.94416" lon="4.72738">
        <ele>171</ele>
        <time>2018-02-28T09:40:41Z</time>
      </trkpt>
      <trkpt lat="45.94418" lon="4.7275">
        <ele>171</ele>
        <time>2018-02-28T09:40:43Z</time>
      </trkpt>
      <trkpt lat="45.94418" lon="4.72756">
        <ele>170</ele>
        <time>2018-02-28T09:40:44Z</time>
      </trkpt>
      <trkpt lat="45.94418" lon="4.72768">
        <ele>169</ele>
        <time>2018-02-28T09:41:14Z</time>
      </trkpt>
      <trkpt lat="45.94418" lon="4.72769">
        <ele>169</ele>
        <time>2018-02-28T09:41:15Z</time>
      </trkpt>
      <trkpt lat="45.9442" lon="4.72781">
        <ele>168</ele>
        <time>2018-02-28T09:41:27Z</time>
      </trkpt>
      <trkpt lat="45.94421" lon="4.72782">
        <ele>168</ele>
        <time>2018-02-28T09:41:28Z</time>
      </trkpt>
      <trkpt lat="45.94423" lon="4.72792">
        <ele>168</ele>
        <time>2018-02-28T09:41:33Z</time>
      </trkpt>
      <trkpt lat="45.94424" lon="4.72795">
        <ele>168</ele>
        <time>2018-02-28T09:41:34Z</time>
      </trkpt>
      <trkpt lat="45.94426" lon="4.72804">
        <ele>167</ele>
        <time>2018-02-28T09:41:37Z</time>
      </trkpt>
      <trkpt lat="45.94427" lon="4.72807">
        <ele>167</ele>
        <time>2018-02-28T09:41:38Z</time>
      </trkpt>
      <trkpt lat="45.94429" lon="4.72818">
        <ele>167</ele>
        <time>2018-02-28T09:41:41Z</time>
      </trkpt>
      <trkpt lat="45.94429" lon="4.72822">
        <ele>167</ele>
        <time>2018-02-28T09:41:42Z</time>
      </trkpt>
      <trkpt lat="45.94431" lon="4.72836">
        <ele>166</ele>
        <time>2018-02-28T09:41:43Z</time>
      </trkpt>
      <trkpt lat="45.94432" lon="4.72848">
        <ele>166</ele>
        <time>2018-02-28T09:41:45Z</time>
      </trkpt>
      <trkpt lat="45.94433" lon="4.72854">
        <ele>166</ele>
        <time>2018-02-28T09:41:46Z</time>
      </trkpt>
      <trkpt lat="45.94435" lon="4.72865">
        <ele>166</ele>
        <time>2018-02-28T09:41:48Z</time>
      </trkpt>
      <trkpt lat="45.94435" lon="4.72871">
        <ele>166</ele>
        <time>2018-02-28T09:41:49Z</time>
      </trkpt>
      <trkpt lat="45.94437" lon="4.72882">
        <ele>166</ele>
        <time>2018-02-28T09:41:51Z</time>
      </trkpt>
      <trkpt lat="45.94438" lon="4.72888">
        <ele>166</ele>
        <time>2018-02-28T09:41:52Z</time>
      </trkpt>
      <trkpt lat="45.94439" lon="4.729">
        <ele>166</ele>
        <time>2018-02-28T09:41:54Z</time>
      </trkpt>
      <trkpt lat="45.9444" lon="4.72907">
        <ele>166</ele>
        <time>2018-02-28T09:41:55Z</time>
      </trkpt>
      <trkpt lat="45.94441" lon="4.72913">
        <ele>166</ele>
        <time>2018-02-28T09:41:56Z</time>
      </trkpt>
      <trkpt lat="45.94441" lon="4.72921">
        <ele>167</ele>
        <time>2018-02-28T09:41:57Z</time>
      </trkpt>
      <trkpt lat="45.94442" lon="4.72928">
        <ele>167</ele>
        <time>2018-02-28T09:41:58Z</time>
      </trkpt>
      <trkpt lat="45.94443" lon="4.72936">
        <ele>167</ele>
        <time>2018-02-28T09:41:59Z</time>
      </trkpt>
      <trkpt lat="45.94444" lon="4.72943">
        <ele>167</ele>
        <time>2018-02-28T09:42:00Z</time>
      </trkpt>
      <trkpt lat="45.94445" lon="4.72951">
        <ele>167</ele>
        <time>2018-02-28T09:42:01Z</time>
      </trkpt>
      <trkpt lat="45.94445" lon="4.72958">
        <ele>167</ele>
        <time>2018-02-28T09:42:02Z</time>
      </trkpt>
      <trkpt lat="45.94446" lon="4.72966">
        <ele>167</ele>
        <time>2018-02-28T09:42:03Z</time>
      </trkpt>
      <trkpt lat="45.94447" lon="4.72974">
        <ele>167</ele>
        <time>2018-02-28T09:42:04Z</time>
      </trkpt>
      <trkpt lat="45.94448" lon="4.72982">
        <ele>167</ele>
        <time>2018-02-28T09:42:05Z</time>
      </trkpt>
      <trkpt lat="45.94448" lon="4.72991">
        <ele>167</ele>
        <time>2018-02-28T09:42:06Z</time>
      </trkpt>
      <trkpt lat="45.94449" lon="4.73">
        <ele>167</ele>
        <time>2018-02-28T09:42:07Z</time>
      </trkpt>
      <trkpt lat="45.9445" lon="4.73008">
        <ele>169</ele>
        <time>2018-02-28T09:42:08Z</time>
      </trkpt>
      <trkpt lat="45.94452" lon="4.73017">
        <ele>169</ele>
        <time>2018-02-28T09:42:09Z</time>
      </trkpt>
      <trkpt lat="45.94453" lon="4.73026">
        <ele>169</ele>
        <time>2018-02-28T09:42:10Z</time>
      </trkpt>
      <trkpt lat="45.94454" lon="4.73035">
        <ele>169</ele>
        <time>2018-02-28T09:42:11Z</time>
      </trkpt>
      <trkpt lat="45.94455" lon="4.73043">
        <ele>169</ele>
        <time>2018-02-28T09:42:12Z</time>
      </trkpt>
      <trkpt lat="45.94457" lon="4.73053">
        <ele>170</ele>
        <time>2018-02-28T09:42:13Z</time>
      </trkpt>
      <trkpt lat="45.94458" lon="4.73063">
        <ele>170</ele>
        <time>2018-02-28T09:42:14Z</time>
      </trkpt>
      <trkpt lat="45.94459" lon="4.73072">
        <ele>170</ele>
        <time>2018-02-28T09:42:15Z</time>
      </trkpt>
      <trkpt lat="45.9446" lon="4.7308">
        <ele>170</ele>
        <time>2018-02-28T09:42:16Z</time>
      </trkpt>
      <trkpt lat="45.94461" lon="4.73088">
        <ele>171</ele>
        <time>2018-02-28T09:42:17Z</time>
      </trkpt>
      <trkpt lat="45.94461" lon="4.73096">
        <ele>171</ele>
        <time>2018-02-28T09:42:18Z</time>
      </trkpt>
      <trkpt lat="45.94462" lon="4.73104">
        <ele>172</ele>
        <time>2018-02-28T09:42:19Z</time>
      </trkpt>
      <trkpt lat="45.94463" lon="4.7311">
        <ele>172</ele>
        <time>2018-02-28T09:42:20Z</time>
      </trkpt>
      <trkpt lat="45.94464" lon="4.73118">
        <ele>172</ele>
        <time>2018-02-28T09:42:21Z</time>
      </trkpt>
      <trkpt lat="45.94465" lon="4.73125">
        <ele>172</ele>
        <time>2018-02-28T09:42:22Z</time>
      </trkpt>
      <trkpt lat="45.94466" lon="4.73132">
        <ele>172</ele>
        <time>2018-02-28T09:42:23Z</time>
      </trkpt>
      <trkpt lat="45.94467" lon="4.73139">
        <ele>172</ele>
        <time>2018-02-28T09:42:24Z</time>
      </trkpt>
      <trkpt lat="45.94468" lon="4.73146">
        <ele>172</ele>
        <time>2018-02-28T09:42:25Z</time>
      </trkpt>
      <trkpt lat="45.9447" lon="4.73152">
        <ele>172</ele>
        <time>2018-02-28T09:42:26Z</time>
      </trkpt>
      <trkpt lat="45.9447" lon="4.73159">
        <ele>172</ele>
        <time>2018-02-28T09:42:27Z</time>
      </trkpt>
      <trkpt lat="45.94471" lon="4.73166">
        <ele>173</ele>
        <time>2018-02-28T09:42:28Z</time>
      </trkpt>
      <trkpt lat="45.94471" lon="4.73174">
        <ele>174</ele>
        <time>2018-02-28T09:42:29Z</time>
      </trkpt>
      <trkpt lat="45.94472" lon="4.7318">
        <ele>174</ele>
        <time>2018-02-28T09:42:30Z</time>
      </trkpt>
      <trkpt lat="45.94473" lon="4.73187">
        <ele>174</ele>
        <time>2018-02-28T09:42:31Z</time>
      </trkpt>
      <trkpt lat="45.94474" lon="4.73195">
        <ele>174</ele>
        <time>2018-02-28T09:42:32Z</time>
      </trkpt>
      <trkpt lat="45.94474" lon="4.73202">
        <ele>174</ele>
        <time>2018-02-28T09:42:33Z</time>
      </trkpt>
      <trkpt lat="45.94475" lon="4.73209">
        <ele>175</ele>
        <time>2018-02-28T09:42:34Z</time>
      </trkpt>
      <trkpt lat="45.94476" lon="4.73216">
        <ele>175</ele>
        <time>2018-02-28T09:42:35Z</time>
      </trkpt>
      <trkpt lat="45.94479" lon="4.73229">
        <ele>175</ele>
        <time>2018-02-28T09:42:37Z</time>
      </trkpt>
      <trkpt lat="45.9448" lon="4.73235">
        <ele>175</ele>
        <time>2018-02-28T09:42:38Z</time>
      </trkpt>
      <trkpt lat="45.9448" lon="4.73246">
        <ele>175</ele>
        <time>2018-02-28T09:42:40Z</time>
      </trkpt>
      <trkpt lat="45.94481" lon="4.73252">
        <ele>176</ele>
        <time>2018-02-28T09:42:41Z</time>
      </trkpt>
      <trkpt lat="45.94483" lon="4.73262">
        <ele>177</ele>
        <time>2018-02-28T09:42:43Z</time>
      </trkpt>
      <trkpt lat="45.94484" lon="4.73267">
        <ele>177</ele>
        <time>2018-02-28T09:42:44Z</time>
      </trkpt>
      <trkpt lat="45.94486" lon="4.73272">
        <ele>177</ele>
        <time>2018-02-28T09:42:46Z</time>
      </trkpt>
      <trkpt lat="45.94488" lon="4.73281">
        <ele>177</ele>
        <time>2018-02-28T09:42:47Z</time>
      </trkpt>
      <trkpt lat="45.9449" lon="4.73291">
        <ele>177</ele>
        <time>2018-02-28T09:42:49Z</time>
      </trkpt>
      <trkpt lat="45.94491" lon="4.73297">
        <ele>177</ele>
        <time>2018-02-28T09:42:50Z</time>
      </trkpt>
      <trkpt lat="45.94492" lon="4.73306">
        <ele>177</ele>
        <time>2018-02-28T09:42:53Z</time>
      </trkpt>
      <trkpt lat="45.94492" lon="4.7331">
        <ele>177</ele>
        <time>2018-02-28T09:42:54Z</time>
      </trkpt>
      <trkpt lat="45.94493" lon="4.73318">
        <ele>177</ele>
        <time>2018-02-28T09:42:56Z</time>
      </trkpt>
      <trkpt lat="45.94493" lon="4.73323">
        <ele>177</ele>
        <time>2018-02-28T09:42:57Z</time>
      </trkpt>
      <trkpt lat="45.94494" lon="4.73332">
        <ele>177</ele>
        <time>2018-02-28T09:42:59Z</time>
      </trkpt>
      <trkpt lat="45.94494" lon="4.73336">
        <ele>178</ele>
        <time>2018-02-28T09:43:00Z</time>
      </trkpt>
      <trkpt lat="45.94495" lon="4.73346">
        <ele>178</ele>
        <time>2018-02-28T09:43:02Z</time>
      </trkpt>
      <trkpt lat="45.94496" lon="4.73351">
        <ele>178</ele>
        <time>2018-02-28T09:43:03Z</time>
      </trkpt>
      <trkpt lat="45.94496" lon="4.73361">
        <ele>179</ele>
        <time>2018-02-28T09:43:05Z</time>
      </trkpt>
      <trkpt lat="45.94497" lon="4.73375">
        <ele>179</ele>
        <time>2018-02-28T09:43:06Z</time>
      </trkpt>
      <trkpt lat="45.94497" lon="4.73385">
        <ele>179</ele>
        <time>2018-02-28T09:43:09Z</time>
      </trkpt>
      <trkpt lat="45.94497" lon="4.73389">
        <ele>179</ele>
        <time>2018-02-28T09:43:10Z</time>
      </trkpt>
      <trkpt lat="45.94498" lon="4.73401">
        <ele>180</ele>
        <time>2018-02-28T09:43:13Z</time>
      </trkpt>
      <trkpt lat="45.94499" lon="4.73406">
        <ele>180</ele>
        <time>2018-02-28T09:43:14Z</time>
      </trkpt>
      <trkpt lat="45.94499" lon="4.73415">
        <ele>180</ele>
        <time>2018-02-28T09:43:16Z</time>
      </trkpt>
      <trkpt lat="45.945" lon="4.73419">
        <ele>180</ele>
        <time>2018-02-28T09:43:17Z</time>
      </trkpt>
      <trkpt lat="45.945" lon="4.73429">
        <ele>180</ele>
        <time>2018-02-28T09:43:19Z</time>
      </trkpt>
      <trkpt lat="45.945" lon="4.73433">
        <ele>181</ele>
        <time>2018-02-28T09:43:20Z</time>
      </trkpt>
      <trkpt lat="45.94501" lon="4.73446">
        <ele>181</ele>
        <time>2018-02-28T09:43:23Z</time>
      </trkpt>
      <trkpt lat="45.94501" lon="4.7345">
        <ele>181</ele>
        <time>2018-02-28T09:43:24Z</time>
      </trkpt>
      <trkpt lat="45.945" lon="4.7346">
        <ele>181</ele>
        <time>2018-02-28T09:43:26Z</time>
      </trkpt>
      <trkpt lat="45.945" lon="4.73464">
        <ele>181</ele>
        <time>2018-02-28T09:43:27Z</time>
      </trkpt>
      <trkpt lat="45.94502" lon="4.73477">
        <ele>182</ele>
        <time>2018-02-28T09:43:30Z</time>
      </trkpt>
      <trkpt lat="45.94503" lon="4.73481">
        <ele>182</ele>
        <time>2018-02-28T09:43:31Z</time>
      </trkpt>
      <trkpt lat="45.94503" lon="4.73489">
        <ele>182</ele>
        <time>2018-02-28T09:43:33Z</time>
      </trkpt>
      <trkpt lat="45.94504" lon="4.73493">
        <ele>182</ele>
        <time>2018-02-28T09:43:34Z</time>
      </trkpt>
      <trkpt lat="45.94503" lon="4.73503">
        <ele>183</ele>
        <time>2018-02-28T09:43:36Z</time>
      </trkpt>
      <trkpt lat="45.94503" lon="4.73507">
        <ele>183</ele>
        <time>2018-02-28T09:43:37Z</time>
      </trkpt>
      <trkpt lat="45.94503" lon="4.73516">
        <ele>183</ele>
        <time>2018-02-28T09:43:39Z</time>
      </trkpt>
      <trkpt lat="45.94503" lon="4.73521">
        <ele>183</ele>
        <time>2018-02-28T09:43:40Z</time>
      </trkpt>
      <trkpt lat="45.94503" lon="4.73534">
        <ele>183</ele>
        <time>2018-02-28T09:43:43Z</time>
      </trkpt>
      <trkpt lat="45.94502" lon="4.73538">
        <ele>183</ele>
        <time>2018-02-28T09:43:44Z</time>
      </trkpt>
      <trkpt lat="45.94502" lon="4.7355">
        <ele>183</ele>
        <time>2018-02-28T09:43:47Z</time>
      </trkpt>
      <trkpt lat="45.94502" lon="4.73555">
        <ele>183</ele>
        <time>2018-02-28T09:43:48Z</time>
      </trkpt>
      <trkpt lat="45.94502" lon="4.73559">
        <ele>184</ele>
        <time>2018-02-28T09:43:49Z</time>
      </trkpt>
      <trkpt lat="45.94501" lon="4.73574">
        <ele>184</ele>
        <time>2018-02-28T09:43:50Z</time>
      </trkpt>
      <trkpt lat="45.945" lon="4.73585">
        <ele>185</ele>
        <time>2018-02-28T09:43:52Z</time>
      </trkpt>
      <trkpt lat="45.94499" lon="4.7359">
        <ele>185</ele>
        <time>2018-02-28T09:43:53Z</time>
      </trkpt>
      <trkpt lat="45.94498" lon="4.736">
        <ele>185</ele>
        <time>2018-02-28T09:43:56Z</time>
      </trkpt>
      <trkpt lat="45.94498" lon="4.73603">
        <ele>185</ele>
        <time>2018-02-28T09:43:57Z</time>
      </trkpt>
      <trkpt lat="45.94497" lon="4.73615">
        <ele>186</ele>
        <time>2018-02-28T09:44:00Z</time>
      </trkpt>
      <trkpt lat="45.94497" lon="4.73619">
        <ele>186</ele>
        <time>2018-02-28T09:44:01Z</time>
      </trkpt>
      <trkpt lat="45.94495" lon="4.73632">
        <ele>186</ele>
        <time>2018-02-28T09:44:02Z</time>
      </trkpt>
      <trkpt lat="45.94493" lon="4.73645">
        <ele>186</ele>
        <time>2018-02-28T09:44:04Z</time>
      </trkpt>
      <trkpt lat="45.94491" lon="4.73651">
        <ele>185</ele>
        <time>2018-02-28T09:44:05Z</time>
      </trkpt>
      <trkpt lat="45.9449" lon="4.73663">
        <ele>185</ele>
        <time>2018-02-28T09:44:07Z</time>
      </trkpt>
      <trkpt lat="45.94489" lon="4.73668">
        <ele>185</ele>
        <time>2018-02-28T09:44:08Z</time>
      </trkpt>
      <trkpt lat="45.94487" lon="4.7368">
        <ele>186</ele>
        <time>2018-02-28T09:44:10Z</time>
      </trkpt>
      <trkpt lat="45.94486" lon="4.73686">
        <ele>186</ele>
        <time>2018-02-28T09:44:11Z</time>
      </trkpt>
      <trkpt lat="45.94485" lon="4.73698">
        <ele>186</ele>
        <time>2018-02-28T09:44:13Z</time>
      </trkpt>
      <trkpt lat="45.94484" lon="4.73704">
        <ele>186</ele>
        <time>2018-02-28T09:44:14Z</time>
      </trkpt>
      <trkpt lat="45.94483" lon="4.73715">
        <ele>186</ele>
        <time>2018-02-28T09:44:16Z</time>
      </trkpt>
      <trkpt lat="45.94482" lon="4.73721">
        <ele>186</ele>
        <time>2018-02-28T09:44:17Z</time>
      </trkpt>
      <trkpt lat="45.94481" lon="4.73733">
        <ele>186</ele>
        <time>2018-02-28T09:44:19Z</time>
      </trkpt>
      <trkpt lat="45.94481" lon="4.73739">
        <ele>186</ele>
        <time>2018-02-28T09:44:20Z</time>
      </trkpt>
      <trkpt lat="45.94479" lon="4.7375">
        <ele>186</ele>
        <time>2018-02-28T09:44:22Z</time>
      </trkpt>
      <trkpt lat="45.94478" lon="4.73756">
        <ele>186</ele>
        <time>2018-02-28T09:44:23Z</time>
      </trkpt>
      <trkpt lat="45.94479" lon="4.73767">
        <ele>186</ele>
        <time>2018-02-28T09:44:25Z</time>
      </trkpt>
      <trkpt lat="45.94482" lon="4.73772">
        <ele>186</ele>
        <time>2018-02-28T09:44:26Z</time>
      </trkpt>
      <trkpt lat="45.94487" lon="4.73777">
        <ele>186</ele>
        <time>2018-02-28T09:44:28Z</time>
      </trkpt>
      <trkpt lat="45.94492" lon="4.7378">
        <ele>186</ele>
        <time>2018-02-28T09:44:29Z</time>
      </trkpt>
      <trkpt lat="45.945" lon="4.73786">
        <ele>186</ele>
        <time>2018-02-28T09:44:31Z</time>
      </trkpt>
      <trkpt lat="45.94503" lon="4.73789">
        <ele>186</ele>
        <time>2018-02-28T09:44:32Z</time>
      </trkpt>
      <trkpt lat="45.9451" lon="4.73795">
        <ele>186</ele>
        <time>2018-02-28T09:44:34Z</time>
      </trkpt>
      <trkpt lat="45.94514" lon="4.73798">
        <ele>186</ele>
        <time>2018-02-28T09:44:35Z</time>
      </trkpt>
      <trkpt lat="45.94519" lon="4.73803">
        <ele>186</ele>
        <time>2018-02-28T09:44:38Z</time>
      </trkpt>
      <trkpt lat="45.94525" lon="4.73808">
        <ele>186</ele>
        <time>2018-02-28T09:44:39Z</time>
      </trkpt>
      <trkpt lat="45.94529" lon="4.73812">
        <ele>186</ele>
        <time>2018-02-28T09:44:41Z</time>
      </trkpt>
      <trkpt lat="45.94534" lon="4.73817">
        <ele>186</ele>
        <time>2018-02-28T09:44:42Z</time>
      </trkpt>
      <trkpt lat="45.94541" lon="4.73823">
        <ele>186</ele>
        <time>2018-02-28T09:44:45Z</time>
      </trkpt>
      <trkpt lat="45.94547" lon="4.73828">
        <ele>186</ele>
        <time>2018-02-28T09:44:46Z</time>
      </trkpt>
      <trkpt lat="45.94553" lon="4.73834">
        <ele>186</ele>
        <time>2018-02-28T09:44:48Z</time>
      </trkpt>
      <trkpt lat="45.94556" lon="4.73837">
        <ele>186</ele>
        <time>2018-02-28T09:44:49Z</time>
      </trkpt>
      <trkpt lat="45.94562" lon="4.73843">
        <ele>186</ele>
        <time>2018-02-28T09:44:51Z</time>
      </trkpt>
      <trkpt lat="45.94565" lon="4.73846">
        <ele>186</ele>
        <time>2018-02-28T09:44:52Z</time>
      </trkpt>
      <trkpt lat="45.94569" lon="4.73851">
        <ele>186</ele>
        <time>2018-02-28T09:44:54Z</time>
      </trkpt>
      <trkpt lat="45.94573" lon="4.73855">
        <ele>186</ele>
        <time>2018-02-28T09:44:55Z</time>
      </trkpt>
      <trkpt lat="45.94579" lon="4.73861">
        <ele>186</ele>
        <time>2018-02-28T09:44:57Z</time>
      </trkpt>
      <trkpt lat="45.94582" lon="4.73865">
        <ele>186</ele>
        <time>2018-02-28T09:44:58Z</time>
      </trkpt>
      <trkpt lat="45.94588" lon="4.73872">
        <ele>187</ele>
        <time>2018-02-28T09:45:01Z</time>
      </trkpt>
      <trkpt lat="45.94593" lon="4.73878">
        <ele>187</ele>
        <time>2018-02-28T09:45:02Z</time>
      </trkpt>
      <trkpt lat="45.94599" lon="4.73884">
        <ele>187</ele>
        <time>2018-02-28T09:45:04Z</time>
      </trkpt>
      <trkpt lat="45.94602" lon="4.73887">
        <ele>187</ele>
        <time>2018-02-28T09:45:05Z</time>
      </trkpt>
      <trkpt lat="45.94608" lon="4.73896">
        <ele>187</ele>
        <time>2018-02-28T09:45:08Z</time>
      </trkpt>
      <trkpt lat="45.94612" lon="4.73902">
        <ele>187</ele>
        <time>2018-02-28T09:45:09Z</time>
      </trkpt>
      <trkpt lat="45.94618" lon="4.73908">
        <ele>187</ele>
        <time>2018-02-28T09:45:11Z</time>
      </trkpt>
      <trkpt lat="45.94621" lon="4.73912">
        <ele>187</ele>
        <time>2018-02-28T09:45:12Z</time>
      </trkpt>
      <trkpt lat="45.94626" lon="4.7392">
        <ele>187</ele>
        <time>2018-02-28T09:45:14Z</time>
      </trkpt>
      <trkpt lat="45.94628" lon="4.73922">
        <ele>187</ele>
        <time>2018-02-28T09:45:15Z</time>
      </trkpt>
      <trkpt lat="45.94634" lon="4.73929">
        <ele>187</ele>
        <time>2018-02-28T09:45:18Z</time>
      </trkpt>
      <trkpt lat="45.94636" lon="4.73932">
        <ele>187</ele>
        <time>2018-02-28T09:45:19Z</time>
      </trkpt>
      <trkpt lat="45.94642" lon="4.7394">
        <ele>187</ele>
        <time>2018-02-28T09:45:20Z</time>
      </trkpt>
      <trkpt lat="45.94645" lon="4.73944">
        <ele>187</ele>
        <time>2018-02-28T09:45:21Z</time>
      </trkpt>
      <trkpt lat="45.94651" lon="4.73951">
        <ele>187</ele>
        <time>2018-02-28T09:45:23Z</time>
      </trkpt>
      <trkpt lat="45.94654" lon="4.73956">
        <ele>187</ele>
        <time>2018-02-28T09:45:24Z</time>
      </trkpt>
      <trkpt lat="45.9466" lon="4.73963">
        <ele>187</ele>
        <time>2018-02-28T09:45:26Z</time>
      </trkpt>
      <trkpt lat="45.94662" lon="4.73967">
        <ele>187</ele>
        <time>2018-02-28T09:45:27Z</time>
      </trkpt>
      <trkpt lat="45.94665" lon="4.73971">
        <ele>187</ele>
        <time>2018-02-28T09:45:29Z</time>
      </trkpt>
      <trkpt lat="45.9467" lon="4.73977">
        <ele>187</ele>
        <time>2018-02-28T09:45:30Z</time>
      </trkpt>
      <trkpt lat="45.94673" lon="4.73981">
        <ele>187</ele>
        <time>2018-02-28T09:45:32Z</time>
      </trkpt>
      <trkpt lat="45.94677" lon="4.73987">
        <ele>187</ele>
        <time>2018-02-28T09:45:33Z</time>
      </trkpt>
      <trkpt lat="45.94682" lon="4.73995">
        <ele>187</ele>
        <time>2018-02-28T09:45:35Z</time>
      </trkpt>
      <trkpt lat="45.94684" lon="4.73997">
        <ele>187</ele>
        <time>2018-02-28T09:45:36Z</time>
      </trkpt>
      <trkpt lat="45.94687" lon="4.74002">
        <ele>187</ele>
        <time>2018-02-28T09:45:38Z</time>
      </trkpt>
      <trkpt lat="45.94692" lon="4.7401">
        <ele>187</ele>
        <time>2018-02-28T09:45:39Z</time>
      </trkpt>
      <trkpt lat="45.94698" lon="4.74018">
        <ele>187</ele>
        <time>2018-02-28T09:45:41Z</time>
      </trkpt>
      <trkpt lat="45.94699" lon="4.74019">
        <ele>187</ele>
        <time>2018-02-28T09:45:42Z</time>
      </trkpt>
      <trkpt lat="45.94705" lon="4.74027">
        <ele>187</ele>
        <time>2018-02-28T09:45:45Z</time>
      </trkpt>
      <trkpt lat="45.94711" lon="4.74035">
        <ele>187</ele>
        <time>2018-02-28T09:45:46Z</time>
      </trkpt>
      <trkpt lat="45.94716" lon="4.74043">
        <ele>187</ele>
        <time>2018-02-28T09:45:48Z</time>
      </trkpt>
      <trkpt lat="45.94717" lon="4.74045">
        <ele>187</ele>
        <time>2018-02-28T09:45:49Z</time>
      </trkpt>
      <trkpt lat="45.94721" lon="4.7405">
        <ele>187</ele>
        <time>2018-02-28T09:45:50Z</time>
      </trkpt>
      <trkpt lat="45.94724" lon="4.74054">
        <ele>188</ele>
        <time>2018-02-28T09:45:51Z</time>
      </trkpt>
      <trkpt lat="45.9473" lon="4.74061">
        <ele>188</ele>
        <time>2018-02-28T09:45:53Z</time>
      </trkpt>
      <trkpt lat="45.94733" lon="4.74065">
        <ele>188</ele>
        <time>2018-02-28T09:45:54Z</time>
      </trkpt>
      <trkpt lat="45.94738" lon="4.74072">
        <ele>188</ele>
        <time>2018-02-28T09:45:56Z</time>
      </trkpt>
      <trkpt lat="45.94741" lon="4.74076">
        <ele>188</ele>
        <time>2018-02-28T09:45:57Z</time>
      </trkpt>
      <trkpt lat="45.94747" lon="4.74083">
        <ele>189</ele>
        <time>2018-02-28T09:45:59Z</time>
      </trkpt>
      <trkpt lat="45.94749" lon="4.74088">
        <ele>189</ele>
        <time>2018-02-28T09:46:00Z</time>
      </trkpt>
      <trkpt lat="45.94755" lon="4.74096">
        <ele>189</ele>
        <time>2018-02-28T09:46:02Z</time>
      </trkpt>
      <trkpt lat="45.94758" lon="4.741">
        <ele>189</ele>
        <time>2018-02-28T09:46:03Z</time>
      </trkpt>
      <trkpt lat="45.94762" lon="4.74106">
        <ele>189</ele>
        <time>2018-02-28T09:46:05Z</time>
      </trkpt>
      <trkpt lat="45.94766" lon="4.74111">
        <ele>189</ele>
        <time>2018-02-28T09:46:06Z</time>
      </trkpt>
      <trkpt lat="45.94772" lon="4.74119">
        <ele>189</ele>
        <time>2018-02-28T09:46:08Z</time>
      </trkpt>
      <trkpt lat="45.94775" lon="4.74123">
        <ele>189</ele>
        <time>2018-02-28T09:46:09Z</time>
      </trkpt>
      <trkpt lat="45.9478" lon="4.7413">
        <ele>189</ele>
        <time>2018-02-28T09:46:11Z</time>
      </trkpt>
      <trkpt lat="45.94783" lon="4.74134">
        <ele>189</ele>
        <time>2018-02-28T09:46:12Z</time>
      </trkpt>
      <trkpt lat="45.94788" lon="4.74143">
        <ele>189</ele>
        <time>2018-02-28T09:46:14Z</time>
      </trkpt>
      <trkpt lat="45.9479" lon="4.74146">
        <ele>189</ele>
        <time>2018-02-28T09:46:15Z</time>
      </trkpt>
      <trkpt lat="45.94793" lon="4.74151">
        <ele>189</ele>
        <time>2018-02-28T09:46:17Z</time>
      </trkpt>
      <trkpt lat="45.94797" lon="4.74159">
        <ele>189</ele>
        <time>2018-02-28T09:46:18Z</time>
      </trkpt>
      <trkpt lat="45.94802" lon="4.74167">
        <ele>189</ele>
        <time>2018-02-28T09:46:20Z</time>
      </trkpt>
      <trkpt lat="45.94805" lon="4.74171">
        <ele>189</ele>
        <time>2018-02-28T09:46:21Z</time>
      </trkpt>
      <trkpt lat="45.94811" lon="4.7418">
        <ele>189</ele>
        <time>2018-02-28T09:46:23Z</time>
      </trkpt>
      <trkpt lat="45.94813" lon="4.74185">
        <ele>189</ele>
        <time>2018-02-28T09:46:24Z</time>
      </trkpt>
      <trkpt lat="45.94816" lon="4.7419">
        <ele>189</ele>
        <time>2018-02-28T09:46:25Z</time>
      </trkpt>
      <trkpt lat="45.94818" lon="4.74195">
        <ele>189</ele>
        <time>2018-02-28T09:46:26Z</time>
      </trkpt>
      <trkpt lat="45.94823" lon="4.74205">
        <ele>189</ele>
        <time>2018-02-28T09:46:28Z</time>
      </trkpt>
      <trkpt lat="45.94826" lon="4.74209">
        <ele>189</ele>
        <time>2018-02-28T09:46:29Z</time>
      </trkpt>
      <trkpt lat="45.94831" lon="4.74219">
        <ele>188</ele>
        <time>2018-02-28T09:46:31Z</time>
      </trkpt>
      <trkpt lat="45.94833" lon="4.74225">
        <ele>189</ele>
        <time>2018-02-28T09:46:32Z</time>
      </trkpt>
      <trkpt lat="45.94839" lon="4.74235">
        <ele>190</ele>
        <time>2018-02-28T09:46:34Z</time>
      </trkpt>
      <trkpt lat="45.94842" lon="4.74241">
        <ele>190</ele>
        <time>2018-02-28T09:46:35Z</time>
      </trkpt>
      <trkpt lat="45.94847" lon="4.7425">
        <ele>190</ele>
        <time>2018-02-28T09:46:37Z</time>
      </trkpt>
      <trkpt lat="45.9485" lon="4.74254">
        <ele>190</ele>
        <time>2018-02-28T09:46:38Z</time>
      </trkpt>
      <trkpt lat="45.94856" lon="4.74264">
        <ele>190</ele>
        <time>2018-02-28T09:46:40Z</time>
      </trkpt>
      <trkpt lat="45.94857" lon="4.74269">
        <ele>190</ele>
        <time>2018-02-28T09:46:41Z</time>
      </trkpt>
      <trkpt lat="45.94862" lon="4.74279">
        <ele>190</ele>
        <time>2018-02-28T09:46:43Z</time>
      </trkpt>
      <trkpt lat="45.94865" lon="4.74284">
        <ele>191</ele>
        <time>2018-02-28T09:46:44Z</time>
      </trkpt>
      <trkpt lat="45.94869" lon="4.74293">
        <ele>191</ele>
        <time>2018-02-28T09:46:46Z</time>
      </trkpt>
      <trkpt lat="45.94872" lon="4.74298">
        <ele>191</ele>
        <time>2018-02-28T09:46:47Z</time>
      </trkpt>
      <trkpt lat="45.94876" lon="4.74308">
        <ele>191</ele>
        <time>2018-02-28T09:46:49Z</time>
      </trkpt>
      <trkpt lat="45.94879" lon="4.74312">
        <ele>191</ele>
        <time>2018-02-28T09:46:50Z</time>
      </trkpt>
      <trkpt lat="45.94883" lon="4.74321">
        <ele>191</ele>
        <time>2018-02-28T09:46:52Z</time>
      </trkpt>
      <trkpt lat="45.94886" lon="4.74326">
        <ele>191</ele>
        <time>2018-02-28T09:46:53Z</time>
      </trkpt>
      <trkpt lat="45.94891" lon="4.74336">
        <ele>191</ele>
        <time>2018-02-28T09:46:55Z</time>
      </trkpt>
      <trkpt lat="45.94893" lon="4.7434">
        <ele>191</ele>
        <time>2018-02-28T09:46:56Z</time>
      </trkpt>
      <trkpt lat="45.94898" lon="4.74348">
        <ele>191</ele>
        <time>2018-02-28T09:46:59Z</time>
      </trkpt>
      <trkpt lat="45.94903" lon="4.74357">
        <ele>191</ele>
        <time>2018-02-28T09:47:00Z</time>
      </trkpt>
      <trkpt lat="45.94907" lon="4.74365">
        <ele>191</ele>
        <time>2018-02-28T09:47:02Z</time>
      </trkpt>
      <trkpt lat="45.9491" lon="4.7437">
        <ele>191</ele>
        <time>2018-02-28T09:47:03Z</time>
      </trkpt>
      <trkpt lat="45.94915" lon="4.74378">
        <ele>191</ele>
        <time>2018-02-28T09:47:05Z</time>
      </trkpt>
      <trkpt lat="45.94917" lon="4.74382">
        <ele>192</ele>
        <time>2018-02-28T09:47:06Z</time>
      </trkpt>
      <trkpt lat="45.94922" lon="4.74391">
        <ele>192</ele>
        <time>2018-02-28T09:47:08Z</time>
      </trkpt>
      <trkpt lat="45.94924" lon="4.74396">
        <ele>192</ele>
        <time>2018-02-28T09:47:09Z</time>
      </trkpt>
      <trkpt lat="45.94928" lon="4.74405">
        <ele>192</ele>
        <time>2018-02-28T09:47:11Z</time>
      </trkpt>
      <trkpt lat="45.9493" lon="4.74409">
        <ele>192</ele>
        <time>2018-02-28T09:47:12Z</time>
      </trkpt>
      <trkpt lat="45.94935" lon="4.74418">
        <ele>192</ele>
        <time>2018-02-28T09:47:14Z</time>
      </trkpt>
      <trkpt lat="45.94937" lon="4.74422">
        <ele>192</ele>
        <time>2018-02-28T09:47:15Z</time>
      </trkpt>
      <trkpt lat="45.94943" lon="4.74432">
        <ele>192</ele>
        <time>2018-02-28T09:47:19Z</time>
      </trkpt>
      <trkpt lat="45.94944" lon="4.74435">
        <ele>192</ele>
        <time>2018-02-28T09:47:20Z</time>
      </trkpt>
      <trkpt lat="45.94947" lon="4.74441">
        <ele>192</ele>
        <time>2018-02-28T09:47:22Z</time>
      </trkpt>
      <trkpt lat="45.94953" lon="4.74452">
        <ele>192</ele>
        <time>2018-02-28T09:47:23Z</time>
      </trkpt>
      <trkpt lat="45.94957" lon="4.7446">
        <ele>193</ele>
        <time>2018-02-28T09:47:25Z</time>
      </trkpt>
      <trkpt lat="45.9496" lon="4.74465">
        <ele>193</ele>
        <time>2018-02-28T09:47:26Z</time>
      </trkpt>
      <trkpt lat="45.94965" lon="4.74474">
        <ele>193</ele>
        <time>2018-02-28T09:47:28Z</time>
      </trkpt>
      <trkpt lat="45.94967" lon="4.74479">
        <ele>193</ele>
        <time>2018-02-28T09:47:29Z</time>
      </trkpt>
      <trkpt lat="45.94972" lon="4.74489">
        <ele>193</ele>
        <time>2018-02-28T09:47:31Z</time>
      </trkpt>
      <trkpt lat="45.94975" lon="4.74494">
        <ele>193</ele>
        <time>2018-02-28T09:47:32Z</time>
      </trkpt>
      <trkpt lat="45.94981" lon="4.74503">
        <ele>193</ele>
        <time>2018-02-28T09:47:34Z</time>
      </trkpt>
      <trkpt lat="45.94983" lon="4.74508">
        <ele>193</ele>
        <time>2018-02-28T09:47:35Z</time>
      </trkpt>
      <trkpt lat="45.94988" lon="4.74518">
        <ele>193</ele>
        <time>2018-02-28T09:47:37Z</time>
      </trkpt>
      <trkpt lat="45.94991" lon="4.74522">
        <ele>193</ele>
        <time>2018-02-28T09:47:38Z</time>
      </trkpt>
      <trkpt lat="45.94995" lon="4.74529">
        <ele>193</ele>
        <time>2018-02-28T09:47:40Z</time>
      </trkpt>
      <trkpt lat="45.94998" lon="4.74534">
        <ele>193</ele>
        <time>2018-02-28T09:47:41Z</time>
      </trkpt>
      <trkpt lat="45.95002" lon="4.74544">
        <ele>194</ele>
        <time>2018-02-28T09:47:44Z</time>
      </trkpt>
      <trkpt lat="45.95006" lon="4.74552">
        <ele>194</ele>
        <time>2018-02-28T09:47:45Z</time>
      </trkpt>
      <trkpt lat="45.9501" lon="4.74561">
        <ele>194</ele>
        <time>2018-02-28T09:47:47Z</time>
      </trkpt>
      <trkpt lat="45.95012" lon="4.74566">
        <ele>194</ele>
        <time>2018-02-28T09:47:48Z</time>
      </trkpt>
      <trkpt lat="45.95017" lon="4.74574">
        <ele>194</ele>
        <time>2018-02-28T09:47:50Z</time>
      </trkpt>
      <trkpt lat="45.95019" lon="4.74579">
        <ele>194</ele>
        <time>2018-02-28T09:47:51Z</time>
      </trkpt>
      <trkpt lat="45.95023" lon="4.74587">
        <ele>194</ele>
        <time>2018-02-28T09:47:53Z</time>
      </trkpt>
      <trkpt lat="45.95026" lon="4.74592">
        <ele>194</ele>
        <time>2018-02-28T09:47:54Z</time>
      </trkpt>
      <trkpt lat="45.9503" lon="4.74601">
        <ele>194</ele>
        <time>2018-02-28T09:47:56Z</time>
      </trkpt>
      <trkpt lat="45.95033" lon="4.74605">
        <ele>194</ele>
        <time>2018-02-28T09:47:57Z</time>
      </trkpt>
      <trkpt lat="45.95037" lon="4.74614">
        <ele>194</ele>
        <time>2018-02-28T09:47:59Z</time>
      </trkpt>
      <trkpt lat="45.9504" lon="4.74619">
        <ele>194</ele>
        <time>2018-02-28T09:48:00Z</time>
      </trkpt>
      <trkpt lat="45.95045" lon="4.74629">
        <ele>194</ele>
        <time>2018-02-28T09:48:02Z</time>
      </trkpt>
      <trkpt lat="45.95047" lon="4.74633">
        <ele>194</ele>
        <time>2018-02-28T09:48:03Z</time>
      </trkpt>
      <trkpt lat="45.95052" lon="4.74642">
        <ele>194</ele>
        <time>2018-02-28T09:48:05Z</time>
      </trkpt>
      <trkpt lat="45.95055" lon="4.74647">
        <ele>194</ele>
        <time>2018-02-28T09:48:06Z</time>
      </trkpt>
      <trkpt lat="45.95059" lon="4.74655">
        <ele>194</ele>
        <time>2018-02-28T09:48:08Z</time>
      </trkpt>
      <trkpt lat="45.95062" lon="4.7466">
        <ele>195</ele>
        <time>2018-02-28T09:48:09Z</time>
      </trkpt>
      <trkpt lat="45.95067" lon="4.74669">
        <ele>194</ele>
        <time>2018-02-28T09:48:11Z</time>
      </trkpt>
      <trkpt lat="45.9507" lon="4.74674">
        <ele>194</ele>
        <time>2018-02-28T09:48:12Z</time>
      </trkpt>
      <trkpt lat="45.95075" lon="4.74683">
        <ele>194</ele>
        <time>2018-02-28T09:48:14Z</time>
      </trkpt>
      <trkpt lat="45.95078" lon="4.74688">
        <ele>194</ele>
        <time>2018-02-28T09:48:15Z</time>
      </trkpt>
      <trkpt lat="45.95083" lon="4.74696">
        <ele>194</ele>
        <time>2018-02-28T09:48:17Z</time>
      </trkpt>
      <trkpt lat="45.95085" lon="4.747">
        <ele>194</ele>
        <time>2018-02-28T09:48:18Z</time>
      </trkpt>
      <trkpt lat="45.9509" lon="4.74709">
        <ele>194</ele>
        <time>2018-02-28T09:48:20Z</time>
      </trkpt>
      <trkpt lat="45.95092" lon="4.74713">
        <ele>194</ele>
        <time>2018-02-28T09:48:21Z</time>
      </trkpt>
      <trkpt lat="45.95096" lon="4.74722">
        <ele>194</ele>
        <time>2018-02-28T09:48:23Z</time>
      </trkpt>
      <trkpt lat="45.95099" lon="4.74727">
        <ele>194</ele>
        <time>2018-02-28T09:48:24Z</time>
      </trkpt>
      <trkpt lat="45.95104" lon="4.74736">
        <ele>194</ele>
        <time>2018-02-28T09:48:26Z</time>
      </trkpt>
      <trkpt lat="45.95107" lon="4.74741">
        <ele>194</ele>
        <time>2018-02-28T09:48:27Z</time>
      </trkpt>
      <trkpt lat="45.9511" lon="4.74746">
        <ele>194</ele>
        <time>2018-02-28T09:48:28Z</time>
      </trkpt>
      <trkpt lat="45.95114" lon="4.7475">
        <ele>194</ele>
        <time>2018-02-28T09:48:29Z</time>
      </trkpt>
      <trkpt lat="45.95117" lon="4.74755">
        <ele>194</ele>
        <time>2018-02-28T09:48:30Z</time>
      </trkpt>
      <trkpt lat="45.9512" lon="4.7476">
        <ele>194</ele>
        <time>2018-02-28T09:48:31Z</time>
      </trkpt>
      <trkpt lat="45.95126" lon="4.7477">
        <ele>194</ele>
        <time>2018-02-28T09:48:33Z</time>
      </trkpt>
      <trkpt lat="45.95128" lon="4.74774">
        <ele>194</ele>
        <time>2018-02-28T09:48:34Z</time>
      </trkpt>
      <trkpt lat="45.95135" lon="4.74782">
        <ele>194</ele>
        <time>2018-02-28T09:48:36Z</time>
      </trkpt>
      <trkpt lat="45.95138" lon="4.74786">
        <ele>194</ele>
        <time>2018-02-28T09:48:37Z</time>
      </trkpt>
      <trkpt lat="45.95144" lon="4.74795">
        <ele>194</ele>
        <time>2018-02-28T09:48:39Z</time>
      </trkpt>
      <trkpt lat="45.95146" lon="4.748">
        <ele>194</ele>
        <time>2018-02-28T09:48:40Z</time>
      </trkpt>
      <trkpt lat="45.95149" lon="4.74804">
        <ele>194</ele>
        <time>2018-02-28T09:48:41Z</time>
      </trkpt>
      <trkpt lat="45.95152" lon="4.7481">
        <ele>194</ele>
        <time>2018-02-28T09:48:42Z</time>
      </trkpt>
      <trkpt lat="45.95155" lon="4.74816">
        <ele>194</ele>
        <time>2018-02-28T09:48:43Z</time>
      </trkpt>
      <trkpt lat="45.95158" lon="4.74821">
        <ele>194</ele>
        <time>2018-02-28T09:48:44Z</time>
      </trkpt>
      <trkpt lat="45.95161" lon="4.74825">
        <ele>194</ele>
        <time>2018-02-28T09:48:45Z</time>
      </trkpt>
      <trkpt lat="45.95165" lon="4.7483">
        <ele>194</ele>
        <time>2018-02-28T09:48:46Z</time>
      </trkpt>
      <trkpt lat="45.9517" lon="4.74839">
        <ele>194</ele>
        <time>2018-02-28T09:48:48Z</time>
      </trkpt>
      <trkpt lat="45.95173" lon="4.74844">
        <ele>194</ele>
        <time>2018-02-28T09:48:49Z</time>
      </trkpt>
      <trkpt lat="45.95179" lon="4.74852">
        <ele>194</ele>
        <time>2018-02-28T09:48:51Z</time>
      </trkpt>
      <trkpt lat="45.95181" lon="4.74857">
        <ele>194</ele>
        <time>2018-02-28T09:48:52Z</time>
      </trkpt>
      <trkpt lat="45.95187" lon="4.74866">
        <ele>194</ele>
        <time>2018-02-28T09:48:54Z</time>
      </trkpt>
      <trkpt lat="45.9519" lon="4.74871">
        <ele>194</ele>
        <time>2018-02-28T09:48:55Z</time>
      </trkpt>
      <trkpt lat="45.95195" lon="4.7488">
        <ele>194</ele>
        <time>2018-02-28T09:48:57Z</time>
      </trkpt>
      <trkpt lat="45.95198" lon="4.74885">
        <ele>194</ele>
        <time>2018-02-28T09:48:58Z</time>
      </trkpt>
      <trkpt lat="45.95201" lon="4.74892">
        <ele>194</ele>
        <time>2018-02-28T09:49:00Z</time>
      </trkpt>
      <trkpt lat="45.95205" lon="4.74898">
        <ele>194</ele>
        <time>2018-02-28T09:49:01Z</time>
      </trkpt>
      <trkpt lat="45.9521" lon="4.74906">
        <ele>193</ele>
        <time>2018-02-28T09:49:03Z</time>
      </trkpt>
      <trkpt lat="45.95213" lon="4.7491">
        <ele>193</ele>
        <time>2018-02-28T09:49:04Z</time>
      </trkpt>
      <trkpt lat="45.95218" lon="4.74918">
        <ele>192</ele>
        <time>2018-02-28T09:49:06Z</time>
      </trkpt>
      <trkpt lat="45.95221" lon="4.74922">
        <ele>192</ele>
        <time>2018-02-28T09:49:07Z</time>
      </trkpt>
      <trkpt lat="45.95226" lon="4.7493">
        <ele>192</ele>
        <time>2018-02-28T09:49:09Z</time>
      </trkpt>
      <trkpt lat="45.95229" lon="4.74935">
        <ele>192</ele>
        <time>2018-02-28T09:49:10Z</time>
      </trkpt>
      <trkpt lat="45.95233" lon="4.74939">
        <ele>192</ele>
        <time>2018-02-28T09:49:11Z</time>
      </trkpt>
      <trkpt lat="45.95236" lon="4.74944">
        <ele>192</ele>
        <time>2018-02-28T09:49:12Z</time>
      </trkpt>
      <trkpt lat="45.95241" lon="4.74953">
        <ele>192</ele>
        <time>2018-02-28T09:49:14Z</time>
      </trkpt>
      <trkpt lat="45.95244" lon="4.74957">
        <ele>192</ele>
        <time>2018-02-28T09:49:15Z</time>
      </trkpt>
      <trkpt lat="45.9525" lon="4.74966">
        <ele>192</ele>
        <time>2018-02-28T09:49:17Z</time>
      </trkpt>
      <trkpt lat="45.95253" lon="4.74969">
        <ele>192</ele>
        <time>2018-02-28T09:49:18Z</time>
      </trkpt>
      <trkpt lat="45.95258" lon="4.74978">
        <ele>192</ele>
        <time>2018-02-28T09:49:20Z</time>
      </trkpt>
      <trkpt lat="45.95261" lon="4.74983">
        <ele>192</ele>
        <time>2018-02-28T09:49:21Z</time>
      </trkpt>
      <trkpt lat="45.95267" lon="4.74993">
        <ele>192</ele>
        <time>2018-02-28T09:49:23Z</time>
      </trkpt>
      <trkpt lat="45.9527" lon="4.74998">
        <ele>192</ele>
        <time>2018-02-28T09:49:24Z</time>
      </trkpt>
      <trkpt lat="45.95273" lon="4.75003">
        <ele>191</ele>
        <time>2018-02-28T09:49:25Z</time>
      </trkpt>
      <trkpt lat="45.95276" lon="4.75008">
        <ele>191</ele>
        <time>2018-02-28T09:49:26Z</time>
      </trkpt>
      <trkpt lat="45.95279" lon="4.75014">
        <ele>191</ele>
        <time>2018-02-28T09:49:27Z</time>
      </trkpt>
      <trkpt lat="45.95282" lon="4.75019">
        <ele>191</ele>
        <time>2018-02-28T09:49:28Z</time>
      </trkpt>
      <trkpt lat="45.95285" lon="4.75024">
        <ele>191</ele>
        <time>2018-02-28T09:49:29Z</time>
      </trkpt>
      <trkpt lat="45.95289" lon="4.75029">
        <ele>191</ele>
        <time>2018-02-28T09:49:30Z</time>
      </trkpt>
      <trkpt lat="45.95294" lon="4.75039">
        <ele>191</ele>
        <time>2018-02-28T09:49:32Z</time>
      </trkpt>
      <trkpt lat="45.95299" lon="4.75043">
        <ele>191</ele>
        <time>2018-02-28T09:49:33Z</time>
      </trkpt>
      <trkpt lat="45.95303" lon="4.75049">
        <ele>191</ele>
        <time>2018-02-28T09:49:34Z</time>
      </trkpt>
      <trkpt lat="45.95305" lon="4.75054">
        <ele>191</ele>
        <time>2018-02-28T09:49:35Z</time>
      </trkpt>
      <trkpt lat="45.95311" lon="4.75063">
        <ele>192</ele>
        <time>2018-02-28T09:49:37Z</time>
      </trkpt>
      <trkpt lat="45.95314" lon="4.75067">
        <ele>192</ele>
        <time>2018-02-28T09:49:38Z</time>
      </trkpt>
      <trkpt lat="45.9532" lon="4.75077">
        <ele>192</ele>
        <time>2018-02-28T09:49:40Z</time>
      </trkpt>
      <trkpt lat="45.95322" lon="4.75081">
        <ele>192</ele>
        <time>2018-02-28T09:49:41Z</time>
      </trkpt>
      <trkpt lat="45.95328" lon="4.75089">
        <ele>192</ele>
        <time>2018-02-28T09:49:43Z</time>
      </trkpt>
      <trkpt lat="45.95331" lon="4.75094">
        <ele>191</ele>
        <time>2018-02-28T09:49:44Z</time>
      </trkpt>
      <trkpt lat="45.95337" lon="4.75103">
        <ele>192</ele>
        <time>2018-02-28T09:49:46Z</time>
      </trkpt>
      <trkpt lat="45.9534" lon="4.75108">
        <ele>192</ele>
        <time>2018-02-28T09:49:47Z</time>
      </trkpt>
      <trkpt lat="45.95343" lon="4.75113">
        <ele>192</ele>
        <time>2018-02-28T09:49:48Z</time>
      </trkpt>
      <trkpt lat="45.95347" lon="4.75118">
        <ele>191</ele>
        <time>2018-02-28T09:49:49Z</time>
      </trkpt>
      <trkpt lat="45.9535" lon="4.75125">
        <ele>191</ele>
        <time>2018-02-28T09:49:50Z</time>
      </trkpt>
      <trkpt lat="45.95354" lon="4.7513">
        <ele>191</ele>
        <time>2018-02-28T09:49:51Z</time>
      </trkpt>
      <trkpt lat="45.95357" lon="4.75135">
        <ele>191</ele>
        <time>2018-02-28T09:49:52Z</time>
      </trkpt>
      <trkpt lat="45.95361" lon="4.75139">
        <ele>191</ele>
        <time>2018-02-28T09:49:53Z</time>
      </trkpt>
      <trkpt lat="45.95364" lon="4.75145">
        <ele>191</ele>
        <time>2018-02-28T09:49:54Z</time>
      </trkpt>
      <trkpt lat="45.95368" lon="4.7515">
        <ele>191</ele>
        <time>2018-02-28T09:49:55Z</time>
      </trkpt>
      <trkpt lat="45.95373" lon="4.75159">
        <ele>191</ele>
        <time>2018-02-28T09:49:57Z</time>
      </trkpt>
      <trkpt lat="45.95376" lon="4.75164">
        <ele>191</ele>
        <time>2018-02-28T09:49:58Z</time>
      </trkpt>
      <trkpt lat="45.95379" lon="4.75168">
        <ele>189</ele>
        <time>2018-02-28T09:49:59Z</time>
      </trkpt>
      <trkpt lat="45.95383" lon="4.75174">
        <ele>189</ele>
        <time>2018-02-28T09:50:00Z</time>
      </trkpt>
      <trkpt lat="45.95386" lon="4.7518">
        <ele>189</ele>
        <time>2018-02-28T09:50:01Z</time>
      </trkpt>
      <trkpt lat="45.95388" lon="4.75186">
        <ele>189</ele>
        <time>2018-02-28T09:50:02Z</time>
      </trkpt>
      <trkpt lat="45.95391" lon="4.75192">
        <ele>189</ele>
        <time>2018-02-28T09:50:03Z</time>
      </trkpt>
      <trkpt lat="45.95394" lon="4.75197">
        <ele>189</ele>
        <time>2018-02-28T09:50:04Z</time>
      </trkpt>
      <trkpt lat="45.95397" lon="4.75202">
        <ele>189</ele>
        <time>2018-02-28T09:50:05Z</time>
      </trkpt>
      <trkpt lat="45.954" lon="4.75208">
        <ele>189</ele>
        <time>2018-02-28T09:50:06Z</time>
      </trkpt>
      <trkpt lat="45.95403" lon="4.75213">
        <ele>189</ele>
        <time>2018-02-28T09:50:07Z</time>
      </trkpt>
      <trkpt lat="45.95406" lon="4.75217">
        <ele>189</ele>
        <time>2018-02-28T09:50:08Z</time>
      </trkpt>
      <trkpt lat="45.95409" lon="4.75223">
        <ele>189</ele>
        <time>2018-02-28T09:50:09Z</time>
      </trkpt>
      <trkpt lat="45.95411" lon="4.7523">
        <ele>189</ele>
        <time>2018-02-28T09:50:10Z</time>
      </trkpt>
      <trkpt lat="45.95418" lon="4.75238">
        <ele>190</ele>
        <time>2018-02-28T09:50:12Z</time>
      </trkpt>
      <trkpt lat="45.95421" lon="4.75242">
        <ele>190</ele>
        <time>2018-02-28T09:50:13Z</time>
      </trkpt>
      <trkpt lat="45.95425" lon="4.75248">
        <ele>190</ele>
        <time>2018-02-28T09:50:14Z</time>
      </trkpt>
      <trkpt lat="45.95428" lon="4.75252">
        <ele>189</ele>
        <time>2018-02-28T09:50:15Z</time>
      </trkpt>
      <trkpt lat="45.95432" lon="4.75257">
        <ele>189</ele>
        <time>2018-02-28T09:50:16Z</time>
      </trkpt>
      <trkpt lat="45.95434" lon="4.75263">
        <ele>189</ele>
        <time>2018-02-28T09:50:17Z</time>
      </trkpt>
      <trkpt lat="45.95438" lon="4.75268">
        <ele>189</ele>
        <time>2018-02-28T09:50:18Z</time>
      </trkpt>
      <trkpt lat="45.95442" lon="4.75274">
        <ele>189</ele>
        <time>2018-02-28T09:50:19Z</time>
      </trkpt>
      <trkpt lat="45.95444" lon="4.7528">
        <ele>188</ele>
        <time>2018-02-28T09:50:20Z</time>
      </trkpt>
      <trkpt lat="45.95447" lon="4.75285">
        <ele>188</ele>
        <time>2018-02-28T09:50:21Z</time>
      </trkpt>
      <trkpt lat="45.9545" lon="4.7529">
        <ele>188</ele>
        <time>2018-02-28T09:50:22Z</time>
      </trkpt>
      <trkpt lat="45.95453" lon="4.75296">
        <ele>188</ele>
        <time>2018-02-28T09:50:23Z</time>
      </trkpt>
      <trkpt lat="45.95456" lon="4.75301">
        <ele>188</ele>
        <time>2018-02-28T09:50:24Z</time>
      </trkpt>
      <trkpt lat="45.9546" lon="4.75305">
        <ele>188</ele>
        <time>2018-02-28T09:50:25Z</time>
      </trkpt>
      <trkpt lat="45.95462" lon="4.75312">
        <ele>188</ele>
        <time>2018-02-28T09:50:26Z</time>
      </trkpt>
      <trkpt lat="45.95465" lon="4.75317">
        <ele>188</ele>
        <time>2018-02-28T09:50:27Z</time>
      </trkpt>
      <trkpt lat="45.95467" lon="4.75323">
        <ele>188</ele>
        <time>2018-02-28T09:50:28Z</time>
      </trkpt>
      <trkpt lat="45.9547" lon="4.75328">
        <ele>188</ele>
        <time>2018-02-28T09:50:29Z</time>
      </trkpt>
      <trkpt lat="45.95473" lon="4.75333">
        <ele>188</ele>
        <time>2018-02-28T09:50:30Z</time>
      </trkpt>
      <trkpt lat="45.95476" lon="4.75339">
        <ele>186</ele>
        <time>2018-02-28T09:50:31Z</time>
      </trkpt>
      <trkpt lat="45.95481" lon="4.75349">
        <ele>186</ele>
        <time>2018-02-28T09:50:33Z</time>
      </trkpt>
      <trkpt lat="45.95483" lon="4.75355">
        <ele>186</ele>
        <time>2018-02-28T09:50:34Z</time>
      </trkpt>
      <trkpt lat="45.95485" lon="4.7536">
        <ele>186</ele>
        <time>2018-02-28T09:50:35Z</time>
      </trkpt>
      <trkpt lat="45.95488" lon="4.75366">
        <ele>186</ele>
        <time>2018-02-28T09:50:36Z</time>
      </trkpt>
      <trkpt lat="45.95492" lon="4.75372">
        <ele>185</ele>
        <time>2018-02-28T09:50:37Z</time>
      </trkpt>
      <trkpt lat="45.95494" lon="4.75379">
        <ele>185</ele>
        <time>2018-02-28T09:50:38Z</time>
      </trkpt>
      <trkpt lat="45.95497" lon="4.75386">
        <ele>185</ele>
        <time>2018-02-28T09:50:39Z</time>
      </trkpt>
      <trkpt lat="45.95499" lon="4.75391">
        <ele>185</ele>
        <time>2018-02-28T09:50:40Z</time>
      </trkpt>
      <trkpt lat="45.955" lon="4.754">
        <ele>187</ele>
        <time>2018-02-28T09:50:41Z</time>
      </trkpt>
      <trkpt lat="45.95503" lon="4.75407">
        <ele>187</ele>
        <time>2018-02-28T09:50:42Z</time>
      </trkpt>
      <trkpt lat="45.95505" lon="4.75414">
        <ele>186</ele>
        <time>2018-02-28T09:50:43Z</time>
      </trkpt>
      <trkpt lat="45.95506" lon="4.75422">
        <ele>186</ele>
        <time>2018-02-28T09:50:44Z</time>
      </trkpt>
      <trkpt lat="45.95507" lon="4.7543">
        <ele>186</ele>
        <time>2018-02-28T09:50:45Z</time>
      </trkpt>
      <trkpt lat="45.95508" lon="4.75439">
        <ele>186</ele>
        <time>2018-02-28T09:50:46Z</time>
      </trkpt>
      <trkpt lat="45.95509" lon="4.75447">
        <ele>187</ele>
        <time>2018-02-28T09:50:47Z</time>
      </trkpt>
      <trkpt lat="45.9551" lon="4.75455">
        <ele>187</ele>
        <time>2018-02-28T09:50:48Z</time>
      </trkpt>
      <trkpt lat="45.9551" lon="4.75462">
        <ele>186</ele>
        <time>2018-02-28T09:50:49Z</time>
      </trkpt>
      <trkpt lat="45.95511" lon="4.7547">
        <ele>186</ele>
        <time>2018-02-28T09:50:50Z</time>
      </trkpt>
      <trkpt lat="45.95512" lon="4.75478">
        <ele>186</ele>
        <time>2018-02-28T09:50:51Z</time>
      </trkpt>
      <trkpt lat="45.95514" lon="4.75485">
        <ele>186</ele>
        <time>2018-02-28T09:50:52Z</time>
      </trkpt>
      <trkpt lat="45.95518" lon="4.7549">
        <ele>186</ele>
        <time>2018-02-28T09:50:53Z</time>
      </trkpt>
      <trkpt lat="45.95522" lon="4.75495">
        <ele>186</ele>
        <time>2018-02-28T09:50:54Z</time>
      </trkpt>
      <trkpt lat="45.95526" lon="4.75499">
        <ele>186</ele>
        <time>2018-02-28T09:50:55Z</time>
      </trkpt>
      <trkpt lat="45.9553" lon="4.75502">
        <ele>185</ele>
        <time>2018-02-28T09:50:56Z</time>
      </trkpt>
      <trkpt lat="45.95534" lon="4.75505">
        <ele>186</ele>
        <time>2018-02-28T09:50:57Z</time>
      </trkpt>
      <trkpt lat="45.95538" lon="4.7551">
        <ele>186</ele>
        <time>2018-02-28T09:50:58Z</time>
      </trkpt>
      <trkpt lat="45.95541" lon="4.75514">
        <ele>186</ele>
        <time>2018-02-28T09:50:59Z</time>
      </trkpt>
      <trkpt lat="45.95545" lon="4.75518">
        <ele>186</ele>
        <time>2018-02-28T09:51:00Z</time>
      </trkpt>
      <trkpt lat="45.95549" lon="4.75523">
        <ele>186</ele>
        <time>2018-02-28T09:51:01Z</time>
      </trkpt>
      <trkpt lat="45.95553" lon="4.75526">
        <ele>186</ele>
        <time>2018-02-28T09:51:02Z</time>
      </trkpt>
      <trkpt lat="45.95557" lon="4.7553">
        <ele>186</ele>
        <time>2018-02-28T09:51:03Z</time>
      </trkpt>
      <trkpt lat="45.95562" lon="4.75535">
        <ele>186</ele>
        <time>2018-02-28T09:51:04Z</time>
      </trkpt>
      <trkpt lat="45.95566" lon="4.75539">
        <ele>186</ele>
        <time>2018-02-28T09:51:05Z</time>
      </trkpt>
      <trkpt lat="45.95571" lon="4.75543">
        <ele>186</ele>
        <time>2018-02-28T09:51:06Z</time>
      </trkpt>
      <trkpt lat="45.95575" lon="4.75547">
        <ele>186</ele>
        <time>2018-02-28T09:51:07Z</time>
      </trkpt>
      <trkpt lat="45.95578" lon="4.75552">
        <ele>186</ele>
        <time>2018-02-28T09:51:08Z</time>
      </trkpt>
      <trkpt lat="45.95582" lon="4.75557">
        <ele>186</ele>
        <time>2018-02-28T09:51:09Z</time>
      </trkpt>
      <trkpt lat="45.95585" lon="4.75561">
        <ele>188</ele>
        <time>2018-02-28T09:51:10Z</time>
      </trkpt>
      <trkpt lat="45.95588" lon="4.75566">
        <ele>188</ele>
        <time>2018-02-28T09:51:11Z</time>
      </trkpt>
      <trkpt lat="45.95591" lon="4.75571">
        <ele>188</ele>
        <time>2018-02-28T09:51:12Z</time>
      </trkpt>
      <trkpt lat="45.95594" lon="4.75576">
        <ele>187</ele>
        <time>2018-02-28T09:51:13Z</time>
      </trkpt>
      <trkpt lat="45.95597" lon="4.75583">
        <ele>187</ele>
        <time>2018-02-28T09:51:14Z</time>
      </trkpt>
      <trkpt lat="45.95603" lon="4.75593">
        <ele>187</ele>
        <time>2018-02-28T09:51:16Z</time>
      </trkpt>
      <trkpt lat="45.95605" lon="4.75598">
        <ele>187</ele>
        <time>2018-02-28T09:51:17Z</time>
      </trkpt>
      <trkpt lat="45.95608" lon="4.75608">
        <ele>188</ele>
        <time>2018-02-28T09:51:19Z</time>
      </trkpt>
      <trkpt lat="45.9561" lon="4.75614">
        <ele>188</ele>
        <time>2018-02-28T09:51:20Z</time>
      </trkpt>
      <trkpt lat="45.95613" lon="4.75625">
        <ele>188</ele>
        <time>2018-02-28T09:51:22Z</time>
      </trkpt>
      <trkpt lat="45.95615" lon="4.75632">
        <ele>188</ele>
        <time>2018-02-28T09:51:23Z</time>
      </trkpt>
      <trkpt lat="45.95617" lon="4.75638">
        <ele>188</ele>
        <time>2018-02-28T09:51:24Z</time>
      </trkpt>
      <trkpt lat="45.95618" lon="4.75644">
        <ele>188</ele>
        <time>2018-02-28T09:51:25Z</time>
      </trkpt>
      <trkpt lat="45.9562" lon="4.75656">
        <ele>188</ele>
        <time>2018-02-28T09:51:27Z</time>
      </trkpt>
      <trkpt lat="45.9562" lon="4.75662">
        <ele>188</ele>
        <time>2018-02-28T09:51:28Z</time>
      </trkpt>
      <trkpt lat="45.95621" lon="4.75674">
        <ele>187</ele>
        <time>2018-02-28T09:51:30Z</time>
      </trkpt>
      <trkpt lat="45.95623" lon="4.7568">
        <ele>187</ele>
        <time>2018-02-28T09:51:31Z</time>
      </trkpt>
      <trkpt lat="45.95624" lon="4.75692">
        <ele>187</ele>
        <time>2018-02-28T09:51:33Z</time>
      </trkpt>
      <trkpt lat="45.95625" lon="4.75698">
        <ele>187</ele>
        <time>2018-02-28T09:51:34Z</time>
      </trkpt>
      <trkpt lat="45.95625" lon="4.75705">
        <ele>187</ele>
        <time>2018-02-28T09:51:35Z</time>
      </trkpt>
      <trkpt lat="45.95627" lon="4.75711">
        <ele>187</ele>
        <time>2018-02-28T09:51:36Z</time>
      </trkpt>
      <trkpt lat="45.95628" lon="4.75718">
        <ele>187</ele>
        <time>2018-02-28T09:51:37Z</time>
      </trkpt>
      <trkpt lat="45.95629" lon="4.75725">
        <ele>187</ele>
        <time>2018-02-28T09:51:38Z</time>
      </trkpt>
      <trkpt lat="45.95629" lon="4.75732">
        <ele>187</ele>
        <time>2018-02-28T09:51:39Z</time>
      </trkpt>
      <trkpt lat="45.9563" lon="4.75739">
        <ele>187</ele>
        <time>2018-02-28T09:51:40Z</time>
      </trkpt>
      <trkpt lat="45.95632" lon="4.75745">
        <ele>187</ele>
        <time>2018-02-28T09:51:41Z</time>
      </trkpt>
      <trkpt lat="45.95633" lon="4.75752">
        <ele>186</ele>
        <time>2018-02-28T09:51:42Z</time>
      </trkpt>
      <trkpt lat="45.95635" lon="4.75763">
        <ele>186</ele>
        <time>2018-02-28T09:51:44Z</time>
      </trkpt>
      <trkpt lat="45.95636" lon="4.7577">
        <ele>186</ele>
        <time>2018-02-28T09:51:45Z</time>
      </trkpt>
      <trkpt lat="45.95637" lon="4.75776">
        <ele>186</ele>
        <time>2018-02-28T09:51:46Z</time>
      </trkpt>
      <trkpt lat="45.95637" lon="4.75783">
        <ele>185</ele>
        <time>2018-02-28T09:51:47Z</time>
      </trkpt>
      <trkpt lat="45.95638" lon="4.75789">
        <ele>185</ele>
        <time>2018-02-28T09:51:48Z</time>
      </trkpt>
      <trkpt lat="45.95639" lon="4.75796">
        <ele>185</ele>
        <time>2018-02-28T09:51:49Z</time>
      </trkpt>
      <trkpt lat="45.95641" lon="4.75803">
        <ele>185</ele>
        <time>2018-02-28T09:51:50Z</time>
      </trkpt>
      <trkpt lat="45.95642" lon="4.75811">
        <ele>185</ele>
        <time>2018-02-28T09:51:51Z</time>
      </trkpt>
      <trkpt lat="45.95644" lon="4.75818">
        <ele>185</ele>
        <time>2018-02-28T09:51:52Z</time>
      </trkpt>
      <trkpt lat="45.95646" lon="4.75826">
        <ele>185</ele>
        <time>2018-02-28T09:51:53Z</time>
      </trkpt>
      <trkpt lat="45.95648" lon="4.75833">
        <ele>185</ele>
        <time>2018-02-28T09:51:54Z</time>
      </trkpt>
      <trkpt lat="45.95649" lon="4.75841">
        <ele>185</ele>
        <time>2018-02-28T09:51:55Z</time>
      </trkpt>
      <trkpt lat="45.95651" lon="4.75848">
        <ele>185</ele>
        <time>2018-02-28T09:51:56Z</time>
      </trkpt>
      <trkpt lat="45.95653" lon="4.75855">
        <ele>184</ele>
        <time>2018-02-28T09:51:57Z</time>
      </trkpt>
      <trkpt lat="45.95655" lon="4.75861">
        <ele>184</ele>
        <time>2018-02-28T09:51:58Z</time>
      </trkpt>
      <trkpt lat="45.95657" lon="4.75868">
        <ele>184</ele>
        <time>2018-02-28T09:51:59Z</time>
      </trkpt>
      <trkpt lat="45.95659" lon="4.75875">
        <ele>184</ele>
        <time>2018-02-28T09:52:00Z</time>
      </trkpt>
      <trkpt lat="45.95661" lon="4.7588">
        <ele>184</ele>
        <time>2018-02-28T09:52:01Z</time>
      </trkpt>
      <trkpt lat="45.95663" lon="4.75886">
        <ele>184</ele>
        <time>2018-02-28T09:52:02Z</time>
      </trkpt>
      <trkpt lat="45.95665" lon="4.75893">
        <ele>184</ele>
        <time>2018-02-28T09:52:03Z</time>
      </trkpt>
      <trkpt lat="45.95667" lon="4.75899">
        <ele>185</ele>
        <time>2018-02-28T09:52:04Z</time>
      </trkpt>
      <trkpt lat="45.9567" lon="4.75905">
        <ele>185</ele>
        <time>2018-02-28T09:52:05Z</time>
      </trkpt>
      <trkpt lat="45.95673" lon="4.75913">
        <ele>185</ele>
        <time>2018-02-28T09:52:06Z</time>
      </trkpt>
      <trkpt lat="45.95676" lon="4.75919">
        <ele>184</ele>
        <time>2018-02-28T09:52:07Z</time>
      </trkpt>
      <trkpt lat="45.95678" lon="4.75925">
        <ele>185</ele>
        <time>2018-02-28T09:52:08Z</time>
      </trkpt>
      <trkpt lat="45.95681" lon="4.75932">
        <ele>185</ele>
        <time>2018-02-28T09:52:09Z</time>
      </trkpt>
      <trkpt lat="45.95684" lon="4.75939">
        <ele>185</ele>
        <time>2018-02-28T09:52:10Z</time>
      </trkpt>
      <trkpt lat="45.95687" lon="4.75946">
        <ele>185</ele>
        <time>2018-02-28T09:52:11Z</time>
      </trkpt>
      <trkpt lat="45.9569" lon="4.75953">
        <ele>185</ele>
        <time>2018-02-28T09:52:12Z</time>
      </trkpt>
      <trkpt lat="45.95693" lon="4.75959">
        <ele>185</ele>
        <time>2018-02-28T09:52:13Z</time>
      </trkpt>
      <trkpt lat="45.95696" lon="4.75964">
        <ele>185</ele>
        <time>2018-02-28T09:52:14Z</time>
      </trkpt>
      <trkpt lat="45.957" lon="4.75969">
        <ele>185</ele>
        <time>2018-02-28T09:52:15Z</time>
      </trkpt>
      <trkpt lat="45.95702" lon="4.75975">
        <ele>185</ele>
        <time>2018-02-28T09:52:16Z</time>
      </trkpt>
      <trkpt lat="45.95705" lon="4.75981">
        <ele>185</ele>
        <time>2018-02-28T09:52:17Z</time>
      </trkpt>
      <trkpt lat="45.95708" lon="4.75987">
        <ele>185</ele>
        <time>2018-02-28T09:52:18Z</time>
      </trkpt>
      <trkpt lat="45.9571" lon="4.75993">
        <ele>185</ele>
        <time>2018-02-28T09:52:19Z</time>
      </trkpt>
      <trkpt lat="45.95713" lon="4.75999">
        <ele>185</ele>
        <time>2018-02-28T09:52:20Z</time>
      </trkpt>
      <trkpt lat="45.95716" lon="4.76004">
        <ele>184</ele>
        <time>2018-02-28T09:52:21Z</time>
      </trkpt>
      <trkpt lat="45.9572" lon="4.76015">
        <ele>184</ele>
        <time>2018-02-28T09:52:23Z</time>
      </trkpt>
      <trkpt lat="45.95723" lon="4.7602">
        <ele>184</ele>
        <time>2018-02-28T09:52:24Z</time>
      </trkpt>
      <trkpt lat="45.95725" lon="4.76026">
        <ele>184</ele>
        <time>2018-02-28T09:52:25Z</time>
      </trkpt>
      <trkpt lat="45.95728" lon="4.76032">
        <ele>184</ele>
        <time>2018-02-28T09:52:26Z</time>
      </trkpt>
      <trkpt lat="45.95731" lon="4.76038">
        <ele>184</ele>
        <time>2018-02-28T09:52:27Z</time>
      </trkpt>
      <trkpt lat="45.95733" lon="4.76044">
        <ele>184</ele>
        <time>2018-02-28T09:52:28Z</time>
      </trkpt>
      <trkpt lat="45.95736" lon="4.7605">
        <ele>184</ele>
        <time>2018-02-28T09:52:29Z</time>
      </trkpt>
      <trkpt lat="45.95738" lon="4.76055">
        <ele>184</ele>
        <time>2018-02-28T09:52:30Z</time>
      </trkpt>
      <trkpt lat="45.95741" lon="4.76061">
        <ele>184</ele>
        <time>2018-02-28T09:52:31Z</time>
      </trkpt>
      <trkpt lat="45.95743" lon="4.76067">
        <ele>185</ele>
        <time>2018-02-28T09:52:32Z</time>
      </trkpt>
      <trkpt lat="45.95745" lon="4.76073">
        <ele>185</ele>
        <time>2018-02-28T09:52:33Z</time>
      </trkpt>
      <trkpt lat="45.95747" lon="4.7608">
        <ele>185</ele>
        <time>2018-02-28T09:52:34Z</time>
      </trkpt>
      <trkpt lat="45.95749" lon="4.76086">
        <ele>185</ele>
        <time>2018-02-28T09:52:35Z</time>
      </trkpt>
      <trkpt lat="45.95752" lon="4.76091">
        <ele>185</ele>
        <time>2018-02-28T09:52:36Z</time>
      </trkpt>
      <trkpt lat="45.95755" lon="4.76102">
        <ele>186</ele>
        <time>2018-02-28T09:52:38Z</time>
      </trkpt>
      <trkpt lat="45.95757" lon="4.76107">
        <ele>186</ele>
        <time>2018-02-28T09:52:39Z</time>
      </trkpt>
      <trkpt lat="45.95758" lon="4.76119">
        <ele>186</ele>
        <time>2018-02-28T09:52:41Z</time>
      </trkpt>
      <trkpt lat="45.95758" lon="4.76125">
        <ele>186</ele>
        <time>2018-02-28T09:52:42Z</time>
      </trkpt>
      <trkpt lat="45.9576" lon="4.76131">
        <ele>186</ele>
        <time>2018-02-28T09:52:43Z</time>
      </trkpt>
      <trkpt lat="45.9576" lon="4.76138">
        <ele>186</ele>
        <time>2018-02-28T09:52:44Z</time>
      </trkpt>
      <trkpt lat="45.95761" lon="4.76145">
        <ele>186</ele>
        <time>2018-02-28T09:52:45Z</time>
      </trkpt>
      <trkpt lat="45.95761" lon="4.76152">
        <ele>186</ele>
        <time>2018-02-28T09:52:46Z</time>
      </trkpt>
      <trkpt lat="45.95761" lon="4.76164">
        <ele>186</ele>
        <time>2018-02-28T09:52:48Z</time>
      </trkpt>
      <trkpt lat="45.95761" lon="4.7617">
        <ele>185</ele>
        <time>2018-02-28T09:52:49Z</time>
      </trkpt>
      <trkpt lat="45.95762" lon="4.76176">
        <ele>185</ele>
        <time>2018-02-28T09:52:50Z</time>
      </trkpt>
      <trkpt lat="45.95762" lon="4.76183">
        <ele>186</ele>
        <time>2018-02-28T09:52:51Z</time>
      </trkpt>
      <trkpt lat="45.95763" lon="4.76195">
        <ele>186</ele>
        <time>2018-02-28T09:52:53Z</time>
      </trkpt>
      <trkpt lat="45.95763" lon="4.76202">
        <ele>186</ele>
        <time>2018-02-28T09:52:54Z</time>
      </trkpt>
      <trkpt lat="45.95764" lon="4.76208">
        <ele>186</ele>
        <time>2018-02-28T09:52:55Z</time>
      </trkpt>
      <trkpt lat="45.95765" lon="4.76215">
        <ele>186</ele>
        <time>2018-02-28T09:52:56Z</time>
      </trkpt>
      <trkpt lat="45.95765" lon="4.76228">
        <ele>186</ele>
        <time>2018-02-28T09:52:58Z</time>
      </trkpt>
      <trkpt lat="45.95766" lon="4.76233">
        <ele>186</ele>
        <time>2018-02-28T09:52:59Z</time>
      </trkpt>
      <trkpt lat="45.95766" lon="4.7624">
        <ele>186</ele>
        <time>2018-02-28T09:53:00Z</time>
      </trkpt>
      <trkpt lat="45.95766" lon="4.76247">
        <ele>185</ele>
        <time>2018-02-28T09:53:01Z</time>
      </trkpt>
      <trkpt lat="45.95767" lon="4.76254">
        <ele>185</ele>
        <time>2018-02-28T09:53:02Z</time>
      </trkpt>
      <trkpt lat="45.95767" lon="4.76261">
        <ele>185</ele>
        <time>2018-02-28T09:53:03Z</time>
      </trkpt>
      <trkpt lat="45.95767" lon="4.76269">
        <ele>185</ele>
        <time>2018-02-28T09:53:04Z</time>
      </trkpt>
      <trkpt lat="45.95767" lon="4.76276">
        <ele>186</ele>
        <time>2018-02-28T09:53:05Z</time>
      </trkpt>
      <trkpt lat="45.95766" lon="4.76282">
        <ele>186</ele>
        <time>2018-02-28T09:53:06Z</time>
      </trkpt>
      <trkpt lat="45.95767" lon="4.76289">
        <ele>186</ele>
        <time>2018-02-28T09:53:07Z</time>
      </trkpt>
      <trkpt lat="45.95767" lon="4.76295">
        <ele>186</ele>
        <time>2018-02-28T09:53:08Z</time>
      </trkpt>
      <trkpt lat="45.95767" lon="4.76302">
        <ele>186</ele>
        <time>2018-02-28T09:53:09Z</time>
      </trkpt>
      <trkpt lat="45.95768" lon="4.76314">
        <ele>185</ele>
        <time>2018-02-28T09:53:11Z</time>
      </trkpt>
      <trkpt lat="45.95768" lon="4.76322">
        <ele>185</ele>
        <time>2018-02-28T09:53:12Z</time>
      </trkpt>
      <trkpt lat="45.95769" lon="4.76335">
        <ele>186</ele>
        <time>2018-02-28T09:53:14Z</time>
      </trkpt>
      <trkpt lat="45.95769" lon="4.76341">
        <ele>186</ele>
        <time>2018-02-28T09:53:15Z</time>
      </trkpt>
      <trkpt lat="45.95769" lon="4.76348">
        <ele>186</ele>
        <time>2018-02-28T09:53:16Z</time>
      </trkpt>
      <trkpt lat="45.9577" lon="4.76354">
        <ele>186</ele>
        <time>2018-02-28T09:53:17Z</time>
      </trkpt>
      <trkpt lat="45.9577" lon="4.76361">
        <ele>186</ele>
        <time>2018-02-28T09:53:18Z</time>
      </trkpt>
      <trkpt lat="45.95771" lon="4.76368">
        <ele>186</ele>
        <time>2018-02-28T09:53:19Z</time>
      </trkpt>
      <trkpt lat="45.95771" lon="4.7638">
        <ele>186</ele>
        <time>2018-02-28T09:53:21Z</time>
      </trkpt>
      <trkpt lat="45.95772" lon="4.76386">
        <ele>186</ele>
        <time>2018-02-28T09:53:22Z</time>
      </trkpt>
      <trkpt lat="45.95773" lon="4.76392">
        <ele>186</ele>
        <time>2018-02-28T09:53:23Z</time>
      </trkpt>
      <trkpt lat="45.95773" lon="4.76399">
        <ele>186</ele>
        <time>2018-02-28T09:53:24Z</time>
      </trkpt>
      <trkpt lat="45.95773" lon="4.76406">
        <ele>186</ele>
        <time>2018-02-28T09:53:25Z</time>
      </trkpt>
      <trkpt lat="45.95774" lon="4.76413">
        <ele>186</ele>
        <time>2018-02-28T09:53:26Z</time>
      </trkpt>
      <trkpt lat="45.95776" lon="4.76424">
        <ele>186</ele>
        <time>2018-02-28T09:53:28Z</time>
      </trkpt>
      <trkpt lat="45.95776" lon="4.7643">
        <ele>186</ele>
        <time>2018-02-28T09:53:29Z</time>
      </trkpt>
      <trkpt lat="45.95779" lon="4.76442">
        <ele>186</ele>
        <time>2018-02-28T09:53:31Z</time>
      </trkpt>
      <trkpt lat="45.9578" lon="4.76449">
        <ele>186</ele>
        <time>2018-02-28T09:53:32Z</time>
      </trkpt>
      <trkpt lat="45.95781" lon="4.76455">
        <ele>186</ele>
        <time>2018-02-28T09:53:33Z</time>
      </trkpt>
      <trkpt lat="45.95782" lon="4.76462">
        <ele>186</ele>
        <time>2018-02-28T09:53:34Z</time>
      </trkpt>
      <trkpt lat="45.95784" lon="4.76473">
        <ele>186</ele>
        <time>2018-02-28T09:53:36Z</time>
      </trkpt>
      <trkpt lat="45.95785" lon="4.76478">
        <ele>186</ele>
        <time>2018-02-28T09:53:37Z</time>
      </trkpt>
      <trkpt lat="45.95786" lon="4.76491">
        <ele>186</ele>
        <time>2018-02-28T09:53:39Z</time>
      </trkpt>
      <trkpt lat="45.95787" lon="4.76497">
        <ele>186</ele>
        <time>2018-02-28T09:53:40Z</time>
      </trkpt>
      <trkpt lat="45.95788" lon="4.76504">
        <ele>187</ele>
        <time>2018-02-28T09:53:41Z</time>
      </trkpt>
      <trkpt lat="45.95789" lon="4.76511">
        <ele>187</ele>
        <time>2018-02-28T09:53:42Z</time>
      </trkpt>
      <trkpt lat="45.9579" lon="4.76517">
        <ele>187</ele>
        <time>2018-02-28T09:53:43Z</time>
      </trkpt>
      <trkpt lat="45.95791" lon="4.76524">
        <ele>187</ele>
        <time>2018-02-28T09:53:44Z</time>
      </trkpt>
      <trkpt lat="45.95794" lon="4.76536">
        <ele>187</ele>
        <time>2018-02-28T09:53:46Z</time>
      </trkpt>
      <trkpt lat="45.95795" lon="4.76542">
        <ele>187</ele>
        <time>2018-02-28T09:53:47Z</time>
      </trkpt>
      <trkpt lat="45.95796" lon="4.76549">
        <ele>187</ele>
        <time>2018-02-28T09:53:48Z</time>
      </trkpt>
      <trkpt lat="45.95796" lon="4.76556">
        <ele>187</ele>
        <time>2018-02-28T09:53:49Z</time>
      </trkpt>
      <trkpt lat="45.95799" lon="4.76568">
        <ele>187</ele>
        <time>2018-02-28T09:53:51Z</time>
      </trkpt>
      <trkpt lat="45.958" lon="4.76576">
        <ele>187</ele>
        <time>2018-02-28T09:53:52Z</time>
      </trkpt>
      <trkpt lat="45.95801" lon="4.76588">
        <ele>187</ele>
        <time>2018-02-28T09:53:54Z</time>
      </trkpt>
      <trkpt lat="45.95802" lon="4.76594">
        <ele>187</ele>
        <time>2018-02-28T09:53:55Z</time>
      </trkpt>
      <trkpt lat="45.95804" lon="4.76606">
        <ele>188</ele>
        <time>2018-02-28T09:53:57Z</time>
      </trkpt>
      <trkpt lat="45.95805" lon="4.76612">
        <ele>188</ele>
        <time>2018-02-28T09:53:58Z</time>
      </trkpt>
      <trkpt lat="45.95806" lon="4.76624">
        <ele>188</ele>
        <time>2018-02-28T09:54:00Z</time>
      </trkpt>
      <trkpt lat="45.95807" lon="4.76631">
        <ele>188</ele>
        <time>2018-02-28T09:54:01Z</time>
      </trkpt>
      <trkpt lat="45.95809" lon="4.76643">
        <ele>188</ele>
        <time>2018-02-28T09:54:03Z</time>
      </trkpt>
      <trkpt lat="45.9581" lon="4.76649">
        <ele>188</ele>
        <time>2018-02-28T09:54:04Z</time>
      </trkpt>
      <trkpt lat="45.95812" lon="4.7666">
        <ele>188</ele>
        <time>2018-02-28T09:54:06Z</time>
      </trkpt>
      <trkpt lat="45.95812" lon="4.76666">
        <ele>188</ele>
        <time>2018-02-28T09:54:07Z</time>
      </trkpt>
      <trkpt lat="45.95814" lon="4.76676">
        <ele>189</ele>
        <time>2018-02-28T09:54:09Z</time>
      </trkpt>
      <trkpt lat="45.95815" lon="4.76682">
        <ele>189</ele>
        <time>2018-02-28T09:54:10Z</time>
      </trkpt>
      <trkpt lat="45.95816" lon="4.76693">
        <ele>189</ele>
        <time>2018-02-28T09:54:12Z</time>
      </trkpt>
      <trkpt lat="45.95816" lon="4.76695">
        <ele>189</ele>
        <time>2018-02-28T09:54:13Z</time>
      </trkpt>
      <trkpt lat="45.95817" lon="4.76703">
        <ele>189</ele>
        <time>2018-02-28T09:54:14Z</time>
      </trkpt>
      <trkpt lat="45.95818" lon="4.76708">
        <ele>189</ele>
        <time>2018-02-28T09:54:15Z</time>
      </trkpt>
      <trkpt lat="45.9582" lon="4.7672">
        <ele>189</ele>
        <time>2018-02-28T09:54:17Z</time>
      </trkpt>
      <trkpt lat="45.9582" lon="4.76725">
        <ele>190</ele>
        <time>2018-02-28T09:54:18Z</time>
      </trkpt>
      <trkpt lat="45.95821" lon="4.76737">
        <ele>190</ele>
        <time>2018-02-28T09:54:20Z</time>
      </trkpt>
      <trkpt lat="45.95821" lon="4.76743">
        <ele>190</ele>
        <time>2018-02-28T09:54:21Z</time>
      </trkpt>
      <trkpt lat="45.95823" lon="4.76753">
        <ele>191</ele>
        <time>2018-02-28T09:54:23Z</time>
      </trkpt>
      <trkpt lat="45.95824" lon="4.76758">
        <ele>190</ele>
        <time>2018-02-28T09:54:24Z</time>
      </trkpt>
      <trkpt lat="45.95827" lon="4.7677">
        <ele>190</ele>
        <time>2018-02-28T09:54:26Z</time>
      </trkpt>
      <trkpt lat="45.95828" lon="4.76775">
        <ele>190</ele>
        <time>2018-02-28T09:54:27Z</time>
      </trkpt>
      <trkpt lat="45.95832" lon="4.76785">
        <ele>190</ele>
        <time>2018-02-28T09:54:29Z</time>
      </trkpt>
      <trkpt lat="45.95835" lon="4.76789">
        <ele>191</ele>
        <time>2018-02-28T09:54:30Z</time>
      </trkpt>
      <trkpt lat="45.95841" lon="4.76797">
        <ele>191</ele>
        <time>2018-02-28T09:54:32Z</time>
      </trkpt>
      <trkpt lat="45.95844" lon="4.768">
        <ele>191</ele>
        <time>2018-02-28T09:54:33Z</time>
      </trkpt>
      <trkpt lat="45.95851" lon="4.76806">
        <ele>191</ele>
        <time>2018-02-28T09:54:35Z</time>
      </trkpt>
      <trkpt lat="45.95855" lon="4.76809">
        <ele>191</ele>
        <time>2018-02-28T09:54:36Z</time>
      </trkpt>
      <trkpt lat="45.95861" lon="4.76815">
        <ele>191</ele>
        <time>2018-02-28T09:54:38Z</time>
      </trkpt>
      <trkpt lat="45.95864" lon="4.76818">
        <ele>191</ele>
        <time>2018-02-28T09:54:39Z</time>
      </trkpt>
      <trkpt lat="45.95871" lon="4.76825">
        <ele>191</ele>
        <time>2018-02-28T09:54:41Z</time>
      </trkpt>
      <trkpt lat="45.95874" lon="4.76828">
        <ele>191</ele>
        <time>2018-02-28T09:54:42Z</time>
      </trkpt>
      <trkpt lat="45.95881" lon="4.76835">
        <ele>191</ele>
        <time>2018-02-28T09:54:44Z</time>
      </trkpt>
      <trkpt lat="45.95884" lon="4.76838">
        <ele>191</ele>
        <time>2018-02-28T09:54:45Z</time>
      </trkpt>
      <trkpt lat="45.9589" lon="4.76846">
        <ele>191</ele>
        <time>2018-02-28T09:54:47Z</time>
      </trkpt>
      <trkpt lat="45.95893" lon="4.76849">
        <ele>191</ele>
        <time>2018-02-28T09:54:48Z</time>
      </trkpt>
      <trkpt lat="45.959" lon="4.76855">
        <ele>191</ele>
        <time>2018-02-28T09:54:50Z</time>
      </trkpt>
      <trkpt lat="45.95903" lon="4.76859">
        <ele>191</ele>
        <time>2018-02-28T09:54:51Z</time>
      </trkpt>
      <trkpt lat="45.95909" lon="4.76865">
        <ele>191</ele>
        <time>2018-02-28T09:54:53Z</time>
      </trkpt>
      <trkpt lat="45.95913" lon="4.76869">
        <ele>191</ele>
        <time>2018-02-28T09:54:54Z</time>
      </trkpt>
      <trkpt lat="45.9592" lon="4.76875">
        <ele>192</ele>
        <time>2018-02-28T09:54:57Z</time>
      </trkpt>
      <trkpt lat="45.95922" lon="4.76877">
        <ele>192</ele>
        <time>2018-02-28T09:54:58Z</time>
      </trkpt>
      <trkpt lat="45.95926" lon="4.76882">
        <ele>192</ele>
        <time>2018-02-28T09:55:00Z</time>
      </trkpt>
      <trkpt lat="45.95929" lon="4.76885">
        <ele>192</ele>
        <time>2018-02-28T09:55:01Z</time>
      </trkpt>
      <trkpt lat="45.95934" lon="4.76891">
        <ele>192</ele>
        <time>2018-02-28T09:55:03Z</time>
      </trkpt>
      <trkpt lat="45.95936" lon="4.76894">
        <ele>192</ele>
        <time>2018-02-28T09:55:04Z</time>
      </trkpt>
      <trkpt lat="45.95941" lon="4.769">
        <ele>192</ele>
        <time>2018-02-28T09:55:06Z</time>
      </trkpt>
      <trkpt lat="45.95944" lon="4.76902">
        <ele>192</ele>
        <time>2018-02-28T09:55:07Z</time>
      </trkpt>
      <trkpt lat="45.95949" lon="4.76908">
        <ele>193</ele>
        <time>2018-02-28T09:55:09Z</time>
      </trkpt>
      <trkpt lat="45.95951" lon="4.76911">
        <ele>193</ele>
        <time>2018-02-28T09:55:10Z</time>
      </trkpt>
      <trkpt lat="45.95958" lon="4.76919">
        <ele>195</ele>
        <time>2018-02-28T09:55:13Z</time>
      </trkpt>
      <trkpt lat="45.9596" lon="4.76921">
        <ele>195</ele>
        <time>2018-02-28T09:55:14Z</time>
      </trkpt>
      <trkpt lat="45.95966" lon="4.76928">
        <ele>195</ele>
        <time>2018-02-28T09:55:17Z</time>
      </trkpt>
      <trkpt lat="45.95968" lon="4.76931">
        <ele>195</ele>
        <time>2018-02-28T09:55:18Z</time>
      </trkpt>
      <trkpt lat="45.95973" lon="4.76939">
        <ele>196</ele>
        <time>2018-02-28T09:55:21Z</time>
      </trkpt>
      <trkpt lat="45.95975" lon="4.76942">
        <ele>196</ele>
        <time>2018-02-28T09:55:22Z</time>
      </trkpt>
      <trkpt lat="45.95978" lon="4.76952">
        <ele>196</ele>
        <time>2018-02-28T09:55:25Z</time>
      </trkpt>
      <trkpt lat="45.95979" lon="4.76956">
        <ele>196</ele>
        <time>2018-02-28T09:55:26Z</time>
      </trkpt>
      <trkpt lat="45.9598" lon="4.76968">
        <ele>197</ele>
        <time>2018-02-28T09:55:29Z</time>
      </trkpt>
      <trkpt lat="45.9598" lon="4.76972">
        <ele>197</ele>
        <time>2018-02-28T09:55:30Z</time>
      </trkpt>
      <trkpt lat="45.95979" lon="4.76984">
        <ele>197</ele>
        <time>2018-02-28T09:55:33Z</time>
      </trkpt>
      <trkpt lat="45.95979" lon="4.76987">
        <ele>197</ele>
        <time>2018-02-28T09:55:34Z</time>
      </trkpt>
      <trkpt lat="45.95976" lon="4.76997">
        <ele>198</ele>
        <time>2018-02-28T09:55:37Z</time>
      </trkpt>
      <trkpt lat="45.95976" lon="4.77">
        <ele>198</ele>
        <time>2018-02-28T09:55:38Z</time>
      </trkpt>
      <trkpt lat="45.95971" lon="4.77011">
        <ele>200</ele>
        <time>2018-02-28T09:55:42Z</time>
      </trkpt>
      <trkpt lat="45.9597" lon="4.77014">
        <ele>200</ele>
        <time>2018-02-28T09:55:43Z</time>
      </trkpt>
      <trkpt lat="45.95967" lon="4.77023">
        <ele>200</ele>
        <time>2018-02-28T09:55:46Z</time>
      </trkpt>
      <trkpt lat="45.95965" lon="4.77026">
        <ele>200</ele>
        <time>2018-02-28T09:55:47Z</time>
      </trkpt>
      <trkpt lat="45.95963" lon="4.77035">
        <ele>200</ele>
        <time>2018-02-28T09:55:50Z</time>
      </trkpt>
      <trkpt lat="45.95962" lon="4.77038">
        <ele>200</ele>
        <time>2018-02-28T09:55:51Z</time>
      </trkpt>
      <trkpt lat="45.95958" lon="4.77049">
        <ele>200</ele>
        <time>2018-02-28T09:55:55Z</time>
      </trkpt>
      <trkpt lat="45.95957" lon="4.77052">
        <ele>200</ele>
        <time>2018-02-28T09:55:56Z</time>
      </trkpt>
      <trkpt lat="45.95954" lon="4.77061">
        <ele>200</ele>
        <time>2018-02-28T09:55:59Z</time>
      </trkpt>
      <trkpt lat="45.95953" lon="4.77064">
        <ele>200</ele>
        <time>2018-02-28T09:56:00Z</time>
      </trkpt>
      <trkpt lat="45.95951" lon="4.77073">
        <ele>200</ele>
        <time>2018-02-28T09:56:03Z</time>
      </trkpt>
      <trkpt lat="45.9595" lon="4.77076">
        <ele>200</ele>
        <time>2018-02-28T09:56:04Z</time>
      </trkpt>
      <trkpt lat="45.95947" lon="4.77086">
        <ele>201</ele>
        <time>2018-02-28T09:56:07Z</time>
      </trkpt>
      <trkpt lat="45.95947" lon="4.77089">
        <ele>201</ele>
        <time>2018-02-28T09:56:08Z</time>
      </trkpt>
      <trkpt lat="45.95944" lon="4.77099">
        <ele>201</ele>
        <time>2018-02-28T09:56:11Z</time>
      </trkpt>
      <trkpt lat="45.95944" lon="4.77102">
        <ele>201</ele>
        <time>2018-02-28T09:56:12Z</time>
      </trkpt>
      <trkpt lat="45.95943" lon="4.77114">
        <ele>201</ele>
        <time>2018-02-28T09:56:15Z</time>
      </trkpt>
      <trkpt lat="45.95943" lon="4.77117">
        <ele>201</ele>
        <time>2018-02-28T09:56:16Z</time>
      </trkpt>
      <trkpt lat="45.95943" lon="4.77129">
        <ele>201</ele>
        <time>2018-02-28T09:56:19Z</time>
      </trkpt>
      <trkpt lat="45.95943" lon="4.77133">
        <ele>201</ele>
        <time>2018-02-28T09:56:20Z</time>
      </trkpt>
      <trkpt lat="45.95943" lon="4.77144">
        <ele>201</ele>
        <time>2018-02-28T09:56:23Z</time>
      </trkpt>
      <trkpt lat="45.95943" lon="4.77148">
        <ele>201</ele>
        <time>2018-02-28T09:56:24Z</time>
      </trkpt>
      <trkpt lat="45.95944" lon="4.77158">
        <ele>201</ele>
        <time>2018-02-28T09:56:27Z</time>
      </trkpt>
      <trkpt lat="45.95945" lon="4.77161">
        <ele>201</ele>
        <time>2018-02-28T09:56:28Z</time>
      </trkpt>
      <trkpt lat="45.95947" lon="4.77171">
        <ele>200</ele>
        <time>2018-02-28T09:56:31Z</time>
      </trkpt>
      <trkpt lat="45.95948" lon="4.77174">
        <ele>201</ele>
        <time>2018-02-28T09:56:32Z</time>
      </trkpt>
      <trkpt lat="45.9595" lon="4.77184">
        <ele>201</ele>
        <time>2018-02-28T09:56:35Z</time>
      </trkpt>
      <trkpt lat="45.95951" lon="4.77187">
        <ele>201</ele>
        <time>2018-02-28T09:56:36Z</time>
      </trkpt>
      <trkpt lat="45.95954" lon="4.77196">
        <ele>201</ele>
        <time>2018-02-28T09:56:39Z</time>
      </trkpt>
      <trkpt lat="45.95955" lon="4.77199">
        <ele>201</ele>
        <time>2018-02-28T09:56:40Z</time>
      </trkpt>
      <trkpt lat="45.95958" lon="4.77208">
        <ele>201</ele>
        <time>2018-02-28T09:56:43Z</time>
      </trkpt>
      <trkpt lat="45.9596" lon="4.77211">
        <ele>201</ele>
        <time>2018-02-28T09:56:44Z</time>
      </trkpt>
      <trkpt lat="45.95965" lon="4.77218">
        <ele>201</ele>
        <time>2018-02-28T09:56:47Z</time>
      </trkpt>
      <trkpt lat="45.95967" lon="4.77221">
        <ele>201</ele>
        <time>2018-02-28T09:56:48Z</time>
      </trkpt>
      <trkpt lat="45.95972" lon="4.77226">
        <ele>202</ele>
        <time>2018-02-28T09:56:51Z</time>
      </trkpt>
      <trkpt lat="45.95974" lon="4.77228">
        <ele>202</ele>
        <time>2018-02-28T09:56:52Z</time>
      </trkpt>
      <trkpt lat="45.9598" lon="4.77234">
        <ele>202</ele>
        <time>2018-02-28T09:56:55Z</time>
      </trkpt>
      <trkpt lat="45.95983" lon="4.77236">
        <ele>202</ele>
        <time>2018-02-28T09:56:56Z</time>
      </trkpt>
      <trkpt lat="45.95989" lon="4.7724">
        <ele>202</ele>
        <time>2018-02-28T09:56:59Z</time>
      </trkpt>
      <trkpt lat="45.95992" lon="4.77241">
        <ele>202</ele>
        <time>2018-02-28T09:57:00Z</time>
      </trkpt>
      <trkpt lat="45.95998" lon="4.77244">
        <ele>203</ele>
        <time>2018-02-28T09:57:03Z</time>
      </trkpt>
      <trkpt lat="45.96001" lon="4.77245">
        <ele>204</ele>
        <time>2018-02-28T09:57:04Z</time>
      </trkpt>
      <trkpt lat="45.96008" lon="4.77246">
        <ele>205</ele>
        <time>2018-02-28T09:57:07Z</time>
      </trkpt>
      <trkpt lat="45.96011" lon="4.77247">
        <ele>205</ele>
        <time>2018-02-28T09:57:08Z</time>
      </trkpt>
      <trkpt lat="45.96018" lon="4.77248">
        <ele>206</ele>
        <time>2018-02-28T09:57:11Z</time>
      </trkpt>
      <trkpt lat="45.9602" lon="4.77248">
        <ele>206</ele>
        <time>2018-02-28T09:57:12Z</time>
      </trkpt>
      <trkpt lat="45.96028" lon="4.77248">
        <ele>207</ele>
        <time>2018-02-28T09:57:15Z</time>
      </trkpt>
      <trkpt lat="45.96031" lon="4.77248">
        <ele>207</ele>
        <time>2018-02-28T09:57:16Z</time>
      </trkpt>
      <trkpt lat="45.96038" lon="4.77247">
        <ele>208</ele>
        <time>2018-02-28T09:57:19Z</time>
      </trkpt>
      <trkpt lat="45.96041" lon="4.77247">
        <ele>208</ele>
        <time>2018-02-28T09:57:20Z</time>
      </trkpt>
      <trkpt lat="45.96049" lon="4.77247">
        <ele>209</ele>
        <time>2018-02-28T09:57:23Z</time>
      </trkpt>
      <trkpt lat="45.96051" lon="4.77247">
        <ele>209</ele>
        <time>2018-02-28T09:57:24Z</time>
      </trkpt>
      <trkpt lat="45.96058" lon="4.77246">
        <ele>209</ele>
        <time>2018-02-28T09:57:27Z</time>
      </trkpt>
      <trkpt lat="45.96061" lon="4.77246">
        <ele>209</ele>
        <time>2018-02-28T09:57:28Z</time>
      </trkpt>
      <trkpt lat="45.96068" lon="4.77245">
        <ele>210</ele>
        <time>2018-02-28T09:57:31Z</time>
      </trkpt>
      <trkpt lat="45.96071" lon="4.77245">
        <ele>210</ele>
        <time>2018-02-28T09:57:32Z</time>
      </trkpt>
      <trkpt lat="45.96078" lon="4.77244">
        <ele>210</ele>
        <time>2018-02-28T09:57:35Z</time>
      </trkpt>
      <trkpt lat="45.9608" lon="4.77244">
        <ele>210</ele>
        <time>2018-02-28T09:57:36Z</time>
      </trkpt>
      <trkpt lat="45.96087" lon="4.77243">
        <ele>211</ele>
        <time>2018-02-28T09:57:39Z</time>
      </trkpt>
      <trkpt lat="45.9609" lon="4.77242">
        <ele>212</ele>
        <time>2018-02-28T09:57:40Z</time>
      </trkpt>
      <trkpt lat="45.96098" lon="4.77241">
        <ele>213</ele>
        <time>2018-02-28T09:57:44Z</time>
      </trkpt>
      <trkpt lat="45.96101" lon="4.77241">
        <ele>213</ele>
        <time>2018-02-28T09:57:45Z</time>
      </trkpt>
      <trkpt lat="45.96109" lon="4.7724">
        <ele>213</ele>
        <time>2018-02-28T09:57:49Z</time>
      </trkpt>
      <trkpt lat="45.96111" lon="4.7724">
        <ele>214</ele>
        <time>2018-02-28T09:57:50Z</time>
      </trkpt>
      <trkpt lat="45.96118" lon="4.7724">
        <ele>214</ele>
        <time>2018-02-28T09:57:53Z</time>
      </trkpt>
      <trkpt lat="45.9612" lon="4.77241">
        <ele>214</ele>
        <time>2018-02-28T09:57:54Z</time>
      </trkpt>
      <trkpt lat="45.96128" lon="4.77243">
        <ele>214</ele>
        <time>2018-02-28T09:57:57Z</time>
      </trkpt>
      <trkpt lat="45.96131" lon="4.77244">
        <ele>215</ele>
        <time>2018-02-28T09:57:58Z</time>
      </trkpt>
      <trkpt lat="45.9614" lon="4.77246">
        <ele>215</ele>
        <time>2018-02-28T09:58:01Z</time>
      </trkpt>
      <trkpt lat="45.96142" lon="4.77246">
        <ele>215</ele>
        <time>2018-02-28T09:58:02Z</time>
      </trkpt>
      <trkpt lat="45.9615" lon="4.77249">
        <ele>215</ele>
        <time>2018-02-28T09:58:05Z</time>
      </trkpt>
      <trkpt lat="45.96153" lon="4.7725">
        <ele>215</ele>
        <time>2018-02-28T09:58:06Z</time>
      </trkpt>
      <trkpt lat="45.9616" lon="4.77254">
        <ele>215</ele>
        <time>2018-02-28T09:58:09Z</time>
      </trkpt>
      <trkpt lat="45.96163" lon="4.77255">
        <ele>215</ele>
        <time>2018-02-28T09:58:10Z</time>
      </trkpt>
      <trkpt lat="45.9617" lon="4.77259">
        <ele>216</ele>
        <time>2018-02-28T09:58:13Z</time>
      </trkpt>
      <trkpt lat="45.96172" lon="4.77261">
        <ele>216</ele>
        <time>2018-02-28T09:58:14Z</time>
      </trkpt>
      <trkpt lat="45.9618" lon="4.77265">
        <ele>216</ele>
        <time>2018-02-28T09:58:17Z</time>
      </trkpt>
      <trkpt lat="45.96182" lon="4.77267">
        <ele>216</ele>
        <time>2018-02-28T09:58:18Z</time>
      </trkpt>
      <trkpt lat="45.9619" lon="4.77272">
        <ele>216</ele>
        <time>2018-02-28T09:58:21Z</time>
      </trkpt>
      <trkpt lat="45.96192" lon="4.77273">
        <ele>216</ele>
        <time>2018-02-28T09:58:22Z</time>
      </trkpt>
      <trkpt lat="45.96201" lon="4.77278">
        <ele>216</ele>
        <time>2018-02-28T09:58:25Z</time>
      </trkpt>
      <trkpt lat="45.96203" lon="4.7728">
        <ele>216</ele>
        <time>2018-02-28T09:58:26Z</time>
      </trkpt>
      <trkpt lat="45.96211" lon="4.77284">
        <ele>217</ele>
        <time>2018-02-28T09:58:29Z</time>
      </trkpt>
      <trkpt lat="45.96214" lon="4.77286">
        <ele>217</ele>
        <time>2018-02-28T09:58:30Z</time>
      </trkpt>
      <trkpt lat="45.96222" lon="4.7729">
        <ele>217</ele>
        <time>2018-02-28T09:58:33Z</time>
      </trkpt>
      <trkpt lat="45.96225" lon="4.77291">
        <ele>217</ele>
        <time>2018-02-28T09:58:34Z</time>
      </trkpt>
      <trkpt lat="45.96233" lon="4.77295">
        <ele>217</ele>
        <time>2018-02-28T09:58:37Z</time>
      </trkpt>
      <trkpt lat="45.96236" lon="4.77296">
        <ele>217</ele>
        <time>2018-02-28T09:58:38Z</time>
      </trkpt>
      <trkpt lat="45.96243" lon="4.773">
        <ele>217</ele>
        <time>2018-02-28T09:58:41Z</time>
      </trkpt>
      <trkpt lat="45.96246" lon="4.77301">
        <ele>217</ele>
        <time>2018-02-28T09:58:42Z</time>
      </trkpt>
      <trkpt lat="45.96254" lon="4.77304">
        <ele>219</ele>
        <time>2018-02-28T09:58:45Z</time>
      </trkpt>
      <trkpt lat="45.96256" lon="4.77306">
        <ele>219</ele>
        <time>2018-02-28T09:58:46Z</time>
      </trkpt>
      <trkpt lat="45.96264" lon="4.77311">
        <ele>218</ele>
        <time>2018-02-28T09:58:49Z</time>
      </trkpt>
      <trkpt lat="45.96267" lon="4.77312">
        <ele>218</ele>
        <time>2018-02-28T09:58:50Z</time>
      </trkpt>
      <trkpt lat="45.96274" lon="4.77316">
        <ele>219</ele>
        <time>2018-02-28T09:58:53Z</time>
      </trkpt>
      <trkpt lat="45.96276" lon="4.77318">
        <ele>219</ele>
        <time>2018-02-28T09:58:54Z</time>
      </trkpt>
      <trkpt lat="45.96283" lon="4.77322">
        <ele>219</ele>
        <time>2018-02-28T09:58:57Z</time>
      </trkpt>
      <trkpt lat="45.96286" lon="4.77324">
        <ele>219</ele>
        <time>2018-02-28T09:58:58Z</time>
      </trkpt>
      <trkpt lat="45.96293" lon="4.77329">
        <ele>219</ele>
        <time>2018-02-28T09:59:01Z</time>
      </trkpt>
      <trkpt lat="45.96296" lon="4.7733">
        <ele>219</ele>
        <time>2018-02-28T09:59:02Z</time>
      </trkpt>
      <trkpt lat="45.96304" lon="4.77335">
        <ele>217</ele>
        <time>2018-02-28T09:59:05Z</time>
      </trkpt>
      <trkpt lat="45.96307" lon="4.77337">
        <ele>217</ele>
        <time>2018-02-28T09:59:06Z</time>
      </trkpt>
      <trkpt lat="45.96312" lon="4.7734">
        <ele>218</ele>
        <time>2018-02-28T09:59:08Z</time>
      </trkpt>
      <trkpt lat="45.96315" lon="4.77342">
        <ele>218</ele>
        <time>2018-02-28T09:59:09Z</time>
      </trkpt>
      <trkpt lat="45.96322" lon="4.77345">
        <ele>218</ele>
        <time>2018-02-28T09:59:11Z</time>
      </trkpt>
      <trkpt lat="45.96325" lon="4.77347">
        <ele>218</ele>
        <time>2018-02-28T09:59:12Z</time>
      </trkpt>
      <trkpt lat="45.96331" lon="4.77351">
        <ele>218</ele>
        <time>2018-02-28T09:59:14Z</time>
      </trkpt>
      <trkpt lat="45.96335" lon="4.77353">
        <ele>219</ele>
        <time>2018-02-28T09:59:15Z</time>
      </trkpt>
      <trkpt lat="45.96341" lon="4.77356">
        <ele>219</ele>
        <time>2018-02-28T09:59:17Z</time>
      </trkpt>
      <trkpt lat="45.96344" lon="4.77358">
        <ele>219</ele>
        <time>2018-02-28T09:59:18Z</time>
      </trkpt>
      <trkpt lat="45.9635" lon="4.77361">
        <ele>219</ele>
        <time>2018-02-28T09:59:20Z</time>
      </trkpt>
      <trkpt lat="45.96352" lon="4.77363">
        <ele>219</ele>
        <time>2018-02-28T09:59:21Z</time>
      </trkpt>
      <trkpt lat="45.9636" lon="4.77367">
        <ele>219</ele>
        <time>2018-02-28T09:59:24Z</time>
      </trkpt>
      <trkpt lat="45.96363" lon="4.77369">
        <ele>219</ele>
        <time>2018-02-28T09:59:25Z</time>
      </trkpt>
      <trkpt lat="45.96369" lon="4.77371">
        <ele>219</ele>
        <time>2018-02-28T09:59:27Z</time>
      </trkpt>
      <trkpt lat="45.96372" lon="4.77373">
        <ele>219</ele>
        <time>2018-02-28T09:59:28Z</time>
      </trkpt>
      <trkpt lat="45.96378" lon="4.77376">
        <ele>220</ele>
        <time>2018-02-28T09:59:30Z</time>
      </trkpt>
      <trkpt lat="45.96382" lon="4.77378">
        <ele>220</ele>
        <time>2018-02-28T09:59:31Z</time>
      </trkpt>
      <trkpt lat="45.96388" lon="4.77382">
        <ele>220</ele>
        <time>2018-02-28T09:59:33Z</time>
      </trkpt>
      <trkpt lat="45.96391" lon="4.77384">
        <ele>220</ele>
        <time>2018-02-28T09:59:34Z</time>
      </trkpt>
      <trkpt lat="45.96397" lon="4.77387">
        <ele>220</ele>
        <time>2018-02-28T09:59:36Z</time>
      </trkpt>
      <trkpt lat="45.964" lon="4.77389">
        <ele>220</ele>
        <time>2018-02-28T09:59:37Z</time>
      </trkpt>
      <trkpt lat="45.96408" lon="4.77394">
        <ele>220</ele>
        <time>2018-02-28T09:59:40Z</time>
      </trkpt>
      <trkpt lat="45.9641" lon="4.77396">
        <ele>220</ele>
        <time>2018-02-28T09:59:41Z</time>
      </trkpt>
      <trkpt lat="45.96418" lon="4.77401">
        <ele>222</ele>
        <time>2018-02-28T09:59:44Z</time>
      </trkpt>
      <trkpt lat="45.96421" lon="4.77403">
        <ele>222</ele>
        <time>2018-02-28T09:59:45Z</time>
      </trkpt>
      <trkpt lat="45.96427" lon="4.77407">
        <ele>222</ele>
        <time>2018-02-28T09:59:47Z</time>
      </trkpt>
      <trkpt lat="45.9643" lon="4.77409">
        <ele>222</ele>
        <time>2018-02-28T09:59:48Z</time>
      </trkpt>
      <trkpt lat="45.96436" lon="4.77412">
        <ele>222</ele>
        <time>2018-02-28T09:59:50Z</time>
      </trkpt>
      <trkpt lat="45.96439" lon="4.77414">
        <ele>222</ele>
        <time>2018-02-28T09:59:51Z</time>
      </trkpt>
      <trkpt lat="45.96447" lon="4.77417">
        <ele>221</ele>
        <time>2018-02-28T09:59:54Z</time>
      </trkpt>
      <trkpt lat="45.9645" lon="4.77418">
        <ele>221</ele>
        <time>2018-02-28T09:59:55Z</time>
      </trkpt>
      <trkpt lat="45.96455" lon="4.77421">
        <ele>221</ele>
        <time>2018-02-28T09:59:57Z</time>
      </trkpt>
      <trkpt lat="45.96459" lon="4.77423">
        <ele>221</ele>
        <time>2018-02-28T09:59:58Z</time>
      </trkpt>
      <trkpt lat="45.96465" lon="4.77426">
        <ele>221</ele>
        <time>2018-02-28T10:00:00Z</time>
      </trkpt>
      <trkpt lat="45.96467" lon="4.77428">
        <ele>221</ele>
        <time>2018-02-28T10:00:01Z</time>
      </trkpt>
      <trkpt lat="45.96473" lon="4.77432">
        <ele>221</ele>
        <time>2018-02-28T10:00:03Z</time>
      </trkpt>
      <trkpt lat="45.96476" lon="4.77434">
        <ele>221</ele>
        <time>2018-02-28T10:00:04Z</time>
      </trkpt>
      <trkpt lat="45.96482" lon="4.77438">
        <ele>221</ele>
        <time>2018-02-28T10:00:06Z</time>
      </trkpt>
      <trkpt lat="45.96485" lon="4.7744">
        <ele>221</ele>
        <time>2018-02-28T10:00:07Z</time>
      </trkpt>
      <trkpt lat="45.96493" lon="4.77445">
        <ele>221</ele>
        <time>2018-02-28T10:00:10Z</time>
      </trkpt>
      <trkpt lat="45.96495" lon="4.77446">
        <ele>221</ele>
        <time>2018-02-28T10:00:11Z</time>
      </trkpt>
      <trkpt lat="45.96501" lon="4.7745">
        <ele>223</ele>
        <time>2018-02-28T10:00:13Z</time>
      </trkpt>
      <trkpt lat="45.96504" lon="4.77452">
        <ele>223</ele>
        <time>2018-02-28T10:00:14Z</time>
      </trkpt>
      <trkpt lat="45.96511" lon="4.77458">
        <ele>223</ele>
        <time>2018-02-28T10:00:17Z</time>
      </trkpt>
      <trkpt lat="45.96514" lon="4.77459">
        <ele>223</ele>
        <time>2018-02-28T10:00:18Z</time>
      </trkpt>
      <trkpt lat="45.96521" lon="4.77465">
        <ele>223</ele>
        <time>2018-02-28T10:00:21Z</time>
      </trkpt>
      <trkpt lat="45.96524" lon="4.77466">
        <ele>223</ele>
        <time>2018-02-28T10:00:22Z</time>
      </trkpt>
      <trkpt lat="45.96531" lon="4.77472">
        <ele>223</ele>
        <time>2018-02-28T10:00:25Z</time>
      </trkpt>
      <trkpt lat="45.96534" lon="4.77474">
        <ele>223</ele>
        <time>2018-02-28T10:00:26Z</time>
      </trkpt>
      <trkpt lat="45.96539" lon="4.77477">
        <ele>223</ele>
        <time>2018-02-28T10:00:28Z</time>
      </trkpt>
      <trkpt lat="45.96542" lon="4.77479">
        <ele>223</ele>
        <time>2018-02-28T10:00:29Z</time>
      </trkpt>
      <trkpt lat="45.96548" lon="4.77482">
        <ele>223</ele>
        <time>2018-02-28T10:00:31Z</time>
      </trkpt>
      <trkpt lat="45.96551" lon="4.77484">
        <ele>223</ele>
        <time>2018-02-28T10:00:32Z</time>
      </trkpt>
      <trkpt lat="45.96557" lon="4.77488">
        <ele>224</ele>
        <time>2018-02-28T10:00:34Z</time>
      </trkpt>
      <trkpt lat="45.9656" lon="4.7749">
        <ele>224</ele>
        <time>2018-02-28T10:00:35Z</time>
      </trkpt>
      <trkpt lat="45.96566" lon="4.77493">
        <ele>224</ele>
        <time>2018-02-28T10:00:37Z</time>
      </trkpt>
      <trkpt lat="45.96569" lon="4.77495">
        <ele>224</ele>
        <time>2018-02-28T10:00:38Z</time>
      </trkpt>
      <trkpt lat="45.96574" lon="4.77498">
        <ele>224</ele>
        <time>2018-02-28T10:00:40Z</time>
      </trkpt>
      <trkpt lat="45.96577" lon="4.775">
        <ele>224</ele>
        <time>2018-02-28T10:00:41Z</time>
      </trkpt>
      <trkpt lat="45.96583" lon="4.77504">
        <ele>224</ele>
        <time>2018-02-28T10:00:43Z</time>
      </trkpt>
      <trkpt lat="45.96586" lon="4.77506">
        <ele>224</ele>
        <time>2018-02-28T10:00:44Z</time>
      </trkpt>
      <trkpt lat="45.96591" lon="4.7751">
        <ele>224</ele>
        <time>2018-02-28T10:00:46Z</time>
      </trkpt>
      <trkpt lat="45.96594" lon="4.77512">
        <ele>224</ele>
        <time>2018-02-28T10:00:47Z</time>
      </trkpt>
      <trkpt lat="45.96599" lon="4.77515">
        <ele>224</ele>
        <time>2018-02-28T10:00:49Z</time>
      </trkpt>
      <trkpt lat="45.96602" lon="4.77517">
        <ele>224</ele>
        <time>2018-02-28T10:00:50Z</time>
      </trkpt>
      <trkpt lat="45.9661" lon="4.77523">
        <ele>224</ele>
        <time>2018-02-28T10:00:53Z</time>
      </trkpt>
      <trkpt lat="45.96613" lon="4.77524">
        <ele>224</ele>
        <time>2018-02-28T10:00:54Z</time>
      </trkpt>
      <trkpt lat="45.96619" lon="4.77528">
        <ele>224</ele>
        <time>2018-02-28T10:00:56Z</time>
      </trkpt>
      <trkpt lat="45.96622" lon="4.7753">
        <ele>224</ele>
        <time>2018-02-28T10:00:57Z</time>
      </trkpt>
      <trkpt lat="45.96628" lon="4.77534">
        <ele>224</ele>
        <time>2018-02-28T10:00:59Z</time>
      </trkpt>
      <trkpt lat="45.96637" lon="4.7754">
        <ele>224</ele>
        <time>2018-02-28T10:01:00Z</time>
      </trkpt>
      <trkpt lat="45.96644" lon="4.77545">
        <ele>224</ele>
        <time>2018-02-28T10:01:04Z</time>
      </trkpt>
      <trkpt lat="45.96646" lon="4.77546">
        <ele>224</ele>
        <time>2018-02-28T10:01:05Z</time>
      </trkpt>
      <trkpt lat="45.96654" lon="4.77552">
        <ele>224</ele>
        <time>2018-02-28T10:01:08Z</time>
      </trkpt>
      <trkpt lat="45.96656" lon="4.77553">
        <ele>224</ele>
        <time>2018-02-28T10:01:09Z</time>
      </trkpt>
      <trkpt lat="45.96662" lon="4.77557">
        <ele>224</ele>
        <time>2018-02-28T10:01:11Z</time>
      </trkpt>
      <trkpt lat="45.96665" lon="4.77558">
        <ele>225</ele>
        <time>2018-02-28T10:01:12Z</time>
      </trkpt>
      <trkpt lat="45.9667" lon="4.77562">
        <ele>225</ele>
        <time>2018-02-28T10:01:14Z</time>
      </trkpt>
      <trkpt lat="45.96673" lon="4.77564">
        <ele>225</ele>
        <time>2018-02-28T10:01:15Z</time>
      </trkpt>
      <trkpt lat="45.96678" lon="4.77568">
        <ele>225</ele>
        <time>2018-02-28T10:01:17Z</time>
      </trkpt>
      <trkpt lat="45.96681" lon="4.7757">
        <ele>225</ele>
        <time>2018-02-28T10:01:18Z</time>
      </trkpt>
      <trkpt lat="45.96686" lon="4.77575">
        <ele>225</ele>
        <time>2018-02-28T10:01:20Z</time>
      </trkpt>
      <trkpt lat="45.96689" lon="4.77577">
        <ele>225</ele>
        <time>2018-02-28T10:01:21Z</time>
      </trkpt>
      <trkpt lat="45.96695" lon="4.77581">
        <ele>225</ele>
        <time>2018-02-28T10:01:23Z</time>
      </trkpt>
      <trkpt lat="45.96697" lon="4.77584">
        <ele>226</ele>
        <time>2018-02-28T10:01:24Z</time>
      </trkpt>
      <trkpt lat="45.96702" lon="4.77589">
        <ele>226</ele>
        <time>2018-02-28T10:01:26Z</time>
      </trkpt>
      <trkpt lat="45.96705" lon="4.77592">
        <ele>226</ele>
        <time>2018-02-28T10:01:27Z</time>
      </trkpt>
      <trkpt lat="45.9671" lon="4.77598">
        <ele>226</ele>
        <time>2018-02-28T10:01:29Z</time>
      </trkpt>
      <trkpt lat="45.96712" lon="4.77601">
        <ele>226</ele>
        <time>2018-02-28T10:01:30Z</time>
      </trkpt>
      <trkpt lat="45.96717" lon="4.77607">
        <ele>226</ele>
        <time>2018-02-28T10:01:32Z</time>
      </trkpt>
      <trkpt lat="45.96719" lon="4.7761">
        <ele>226</ele>
        <time>2018-02-28T10:01:33Z</time>
      </trkpt>
      <trkpt lat="45.96725" lon="4.77616">
        <ele>226</ele>
        <time>2018-02-28T10:01:35Z</time>
      </trkpt>
      <trkpt lat="45.96727" lon="4.77619">
        <ele>226</ele>
        <time>2018-02-28T10:01:36Z</time>
      </trkpt>
      <trkpt lat="45.96732" lon="4.77625">
        <ele>226</ele>
        <time>2018-02-28T10:01:38Z</time>
      </trkpt>
      <trkpt lat="45.96734" lon="4.77629">
        <ele>226</ele>
        <time>2018-02-28T10:01:39Z</time>
      </trkpt>
      <trkpt lat="45.96739" lon="4.77635">
        <ele>227</ele>
        <time>2018-02-28T10:01:41Z</time>
      </trkpt>
      <trkpt lat="45.96741" lon="4.77638">
        <ele>227</ele>
        <time>2018-02-28T10:01:42Z</time>
      </trkpt>
      <trkpt lat="45.96746" lon="4.77644">
        <ele>227</ele>
        <time>2018-02-28T10:01:44Z</time>
      </trkpt>
      <trkpt lat="45.96749" lon="4.77647">
        <ele>227</ele>
        <time>2018-02-28T10:01:45Z</time>
      </trkpt>
      <trkpt lat="45.96754" lon="4.77653">
        <ele>227</ele>
        <time>2018-02-28T10:01:47Z</time>
      </trkpt>
      <trkpt lat="45.96756" lon="4.77656">
        <ele>227</ele>
        <time>2018-02-28T10:01:48Z</time>
      </trkpt>
      <trkpt lat="45.96761" lon="4.77662">
        <ele>227</ele>
        <time>2018-02-28T10:01:50Z</time>
      </trkpt>
      <trkpt lat="45.96764" lon="4.77665">
        <ele>227</ele>
        <time>2018-02-28T10:01:51Z</time>
      </trkpt>
      <trkpt lat="45.96772" lon="4.77674">
        <ele>227</ele>
        <time>2018-02-28T10:01:52Z</time>
      </trkpt>
      <trkpt lat="45.96778" lon="4.77682">
        <ele>227</ele>
        <time>2018-02-28T10:01:54Z</time>
      </trkpt>
      <trkpt lat="45.96781" lon="4.77686">
        <ele>227</ele>
        <time>2018-02-28T10:01:55Z</time>
      </trkpt>
      <trkpt lat="45.96787" lon="4.77694">
        <ele>227</ele>
        <time>2018-02-28T10:01:57Z</time>
      </trkpt>
      <trkpt lat="45.9679" lon="4.77698">
        <ele>227</ele>
        <time>2018-02-28T10:01:58Z</time>
      </trkpt>
      <trkpt lat="45.96797" lon="4.77705">
        <ele>228</ele>
        <time>2018-02-28T10:02:00Z</time>
      </trkpt>
      <trkpt lat="45.968" lon="4.77708">
        <ele>228</ele>
        <time>2018-02-28T10:02:01Z</time>
      </trkpt>
      <trkpt lat="45.96805" lon="4.77715">
        <ele>228</ele>
        <time>2018-02-28T10:02:03Z</time>
      </trkpt>
      <trkpt lat="45.96808" lon="4.77719">
        <ele>228</ele>
        <time>2018-02-28T10:02:04Z</time>
      </trkpt>
      <trkpt lat="45.96815" lon="4.77725">
        <ele>228</ele>
        <time>2018-02-28T10:02:08Z</time>
      </trkpt>
      <trkpt lat="45.96817" lon="4.77727">
        <ele>228</ele>
        <time>2018-02-28T10:02:09Z</time>
      </trkpt>
      <trkpt lat="45.96824" lon="4.77734">
        <ele>228</ele>
        <time>2018-02-28T10:02:12Z</time>
      </trkpt>
      <trkpt lat="45.96826" lon="4.77736">
        <ele>228</ele>
        <time>2018-02-28T10:02:13Z</time>
      </trkpt>
      <trkpt lat="45.96831" lon="4.77741">
        <ele>228</ele>
        <time>2018-02-28T10:02:15Z</time>
      </trkpt>
      <trkpt lat="45.96834" lon="4.77744">
        <ele>228</ele>
        <time>2018-02-28T10:02:16Z</time>
      </trkpt>
      <trkpt lat="45.96839" lon="4.7775">
        <ele>228</ele>
        <time>2018-02-28T10:02:18Z</time>
      </trkpt>
      <trkpt lat="45.96842" lon="4.77753">
        <ele>228</ele>
        <time>2018-02-28T10:02:19Z</time>
      </trkpt>
      <trkpt lat="45.9685" lon="4.77761">
        <ele>228</ele>
        <time>2018-02-28T10:02:20Z</time>
      </trkpt>
      <trkpt lat="45.96856" lon="4.77767">
        <ele>228</ele>
        <time>2018-02-28T10:02:22Z</time>
      </trkpt>
      <trkpt lat="45.96858" lon="4.77769">
        <ele>228</ele>
        <time>2018-02-28T10:02:23Z</time>
      </trkpt>
      <trkpt lat="45.96864" lon="4.77775">
        <ele>228</ele>
        <time>2018-02-28T10:02:26Z</time>
      </trkpt>
      <trkpt lat="45.96871" lon="4.77782">
        <ele>228</ele>
        <time>2018-02-28T10:02:27Z</time>
      </trkpt>
      <trkpt lat="45.96877" lon="4.77788">
        <ele>228</ele>
        <time>2018-02-28T10:02:29Z</time>
      </trkpt>
      <trkpt lat="45.96879" lon="4.77789">
        <ele>228</ele>
        <time>2018-02-28T10:02:30Z</time>
      </trkpt>
      <trkpt lat="45.96886" lon="4.77797">
        <ele>228</ele>
        <time>2018-02-28T10:02:32Z</time>
      </trkpt>
      <trkpt lat="45.96888" lon="4.778">
        <ele>228</ele>
        <time>2018-02-28T10:02:33Z</time>
      </trkpt>
      <trkpt lat="45.96894" lon="4.77806">
        <ele>228</ele>
        <time>2018-02-28T10:02:36Z</time>
      </trkpt>
      <trkpt lat="45.96896" lon="4.77808">
        <ele>228</ele>
        <time>2018-02-28T10:02:37Z</time>
      </trkpt>
      <trkpt lat="45.96901" lon="4.77812">
        <ele>228</ele>
        <time>2018-02-28T10:02:39Z</time>
      </trkpt>
      <trkpt lat="45.96908" lon="4.7782">
        <ele>228</ele>
        <time>2018-02-28T10:02:40Z</time>
      </trkpt>
      <trkpt lat="45.96913" lon="4.77825">
        <ele>228</ele>
        <time>2018-02-28T10:02:43Z</time>
      </trkpt>
      <trkpt lat="45.96915" lon="4.77827">
        <ele>228</ele>
        <time>2018-02-28T10:02:44Z</time>
      </trkpt>
      <trkpt lat="45.96923" lon="4.77835">
        <ele>228</ele>
        <time>2018-02-28T10:02:47Z</time>
      </trkpt>
      <trkpt lat="45.96925" lon="4.77837">
        <ele>228</ele>
        <time>2018-02-28T10:02:48Z</time>
      </trkpt>
      <trkpt lat="45.96931" lon="4.77844">
        <ele>228</ele>
        <time>2018-02-28T10:02:50Z</time>
      </trkpt>
      <trkpt lat="45.96933" lon="4.77847">
        <ele>228</ele>
        <time>2018-02-28T10:02:51Z</time>
      </trkpt>
      <trkpt lat="45.96939" lon="4.77852">
        <ele>228</ele>
        <time>2018-02-28T10:02:53Z</time>
      </trkpt>
      <trkpt lat="45.96941" lon="4.77855">
        <ele>228</ele>
        <time>2018-02-28T10:02:54Z</time>
      </trkpt>
      <trkpt lat="45.96947" lon="4.77862">
        <ele>228</ele>
        <time>2018-02-28T10:02:56Z</time>
      </trkpt>
      <trkpt lat="45.96955" lon="4.77871">
        <ele>228</ele>
        <time>2018-02-28T10:02:57Z</time>
      </trkpt>
      <trkpt lat="45.9696" lon="4.77878">
        <ele>228</ele>
        <time>2018-02-28T10:02:59Z</time>
      </trkpt>
      <trkpt lat="45.96963" lon="4.77881">
        <ele>228</ele>
        <time>2018-02-28T10:03:00Z</time>
      </trkpt>
      <trkpt lat="45.96968" lon="4.77889">
        <ele>228</ele>
        <time>2018-02-28T10:03:02Z</time>
      </trkpt>
      <trkpt lat="45.9697" lon="4.77891">
        <ele>228</ele>
        <time>2018-02-28T10:03:03Z</time>
      </trkpt>
      <trkpt lat="45.96974" lon="4.77896">
        <ele>228</ele>
        <time>2018-02-28T10:03:04Z</time>
      </trkpt>
      <trkpt lat="45.96977" lon="4.77899">
        <ele>228</ele>
        <time>2018-02-28T10:03:05Z</time>
      </trkpt>
      <trkpt lat="45.96983" lon="4.77906">
        <ele>227</ele>
        <time>2018-02-28T10:03:08Z</time>
      </trkpt>
      <trkpt lat="45.96988" lon="4.77913">
        <ele>227</ele>
        <time>2018-02-28T10:03:09Z</time>
      </trkpt>
      <trkpt lat="45.96994" lon="4.7792">
        <ele>227</ele>
        <time>2018-02-28T10:03:11Z</time>
      </trkpt>
      <trkpt lat="45.96996" lon="4.77923">
        <ele>227</ele>
        <time>2018-02-28T10:03:12Z</time>
      </trkpt>
      <trkpt lat="45.97002" lon="4.7793">
        <ele>228</ele>
        <time>2018-02-28T10:03:14Z</time>
      </trkpt>
      <trkpt lat="45.97005" lon="4.77934">
        <ele>228</ele>
        <time>2018-02-28T10:03:15Z</time>
      </trkpt>
      <trkpt lat="45.97011" lon="4.7794">
        <ele>228</ele>
        <time>2018-02-28T10:03:17Z</time>
      </trkpt>
      <trkpt lat="45.97013" lon="4.77942">
        <ele>228</ele>
        <time>2018-02-28T10:03:18Z</time>
      </trkpt>
      <trkpt lat="45.97017" lon="4.77947">
        <ele>228</ele>
        <time>2018-02-28T10:03:19Z</time>
      </trkpt>
      <trkpt lat="45.9702" lon="4.7795">
        <ele>228</ele>
        <time>2018-02-28T10:03:20Z</time>
      </trkpt>
      <trkpt lat="45.97025" lon="4.77957">
        <ele>228</ele>
        <time>2018-02-28T10:03:22Z</time>
      </trkpt>
      <trkpt lat="45.97028" lon="4.7796">
        <ele>228</ele>
        <time>2018-02-28T10:03:23Z</time>
      </trkpt>
      <trkpt lat="45.97033" lon="4.77967">
        <ele>229</ele>
        <time>2018-02-28T10:03:25Z</time>
      </trkpt>
      <trkpt lat="45.97036" lon="4.7797">
        <ele>229</ele>
        <time>2018-02-28T10:03:26Z</time>
      </trkpt>
      <trkpt lat="45.97042" lon="4.77977">
        <ele>229</ele>
        <time>2018-02-28T10:03:28Z</time>
      </trkpt>
      <trkpt lat="45.97045" lon="4.7798">
        <ele>229</ele>
        <time>2018-02-28T10:03:29Z</time>
      </trkpt>
      <trkpt lat="45.97051" lon="4.77986">
        <ele>229</ele>
        <time>2018-02-28T10:03:31Z</time>
      </trkpt>
      <trkpt lat="45.97054" lon="4.7799">
        <ele>229</ele>
        <time>2018-02-28T10:03:32Z</time>
      </trkpt>
      <trkpt lat="45.97059" lon="4.77996">
        <ele>229</ele>
        <time>2018-02-28T10:03:34Z</time>
      </trkpt>
      <trkpt lat="45.97062" lon="4.77999">
        <ele>229</ele>
        <time>2018-02-28T10:03:35Z</time>
      </trkpt>
      <trkpt lat="45.97069" lon="4.78006">
        <ele>229</ele>
        <time>2018-02-28T10:03:38Z</time>
      </trkpt>
      <trkpt lat="45.97071" lon="4.78008">
        <ele>229</ele>
        <time>2018-02-28T10:03:39Z</time>
      </trkpt>
      <trkpt lat="45.97078" lon="4.78014">
        <ele>229</ele>
        <time>2018-02-28T10:03:42Z</time>
      </trkpt>
      <trkpt lat="45.97081" lon="4.78017">
        <ele>229</ele>
        <time>2018-02-28T10:03:43Z</time>
      </trkpt>
      <trkpt lat="45.97086" lon="4.78021">
        <ele>229</ele>
        <time>2018-02-28T10:03:45Z</time>
      </trkpt>
      <trkpt lat="45.97089" lon="4.78023">
        <ele>229</ele>
        <time>2018-02-28T10:03:46Z</time>
      </trkpt>
      <trkpt lat="45.97094" lon="4.78028">
        <ele>229</ele>
        <time>2018-02-28T10:03:48Z</time>
      </trkpt>
      <trkpt lat="45.97097" lon="4.7803">
        <ele>229</ele>
        <time>2018-02-28T10:03:49Z</time>
      </trkpt>
      <trkpt lat="45.97102" lon="4.78035">
        <ele>229</ele>
        <time>2018-02-28T10:03:51Z</time>
      </trkpt>
      <trkpt lat="45.97105" lon="4.78038">
        <ele>229</ele>
        <time>2018-02-28T10:03:52Z</time>
      </trkpt>
      <trkpt lat="45.9711" lon="4.78043">
        <ele>229</ele>
        <time>2018-02-28T10:03:54Z</time>
      </trkpt>
      <trkpt lat="45.97113" lon="4.78046">
        <ele>229</ele>
        <time>2018-02-28T10:03:55Z</time>
      </trkpt>
      <trkpt lat="45.97118" lon="4.78052">
        <ele>229</ele>
        <time>2018-02-28T10:03:57Z</time>
      </trkpt>
      <trkpt lat="45.97121" lon="4.78055">
        <ele>229</ele>
        <time>2018-02-28T10:03:58Z</time>
      </trkpt>
      <trkpt lat="45.97126" lon="4.78061">
        <ele>230</ele>
        <time>2018-02-28T10:04:00Z</time>
      </trkpt>
      <trkpt lat="45.97128" lon="4.78064">
        <ele>230</ele>
        <time>2018-02-28T10:04:01Z</time>
      </trkpt>
      <trkpt lat="45.97133" lon="4.78071">
        <ele>230</ele>
        <time>2018-02-28T10:04:03Z</time>
      </trkpt>
      <trkpt lat="45.97135" lon="4.78075">
        <ele>230</ele>
        <time>2018-02-28T10:04:04Z</time>
      </trkpt>
      <trkpt lat="45.9714" lon="4.78082">
        <ele>230</ele>
        <time>2018-02-28T10:04:06Z</time>
      </trkpt>
      <trkpt lat="45.97142" lon="4.78085">
        <ele>230</ele>
        <time>2018-02-28T10:04:07Z</time>
      </trkpt>
      <trkpt lat="45.97146" lon="4.78093">
        <ele>230</ele>
        <time>2018-02-28T10:04:09Z</time>
      </trkpt>
      <trkpt lat="45.97153" lon="4.78104">
        <ele>230</ele>
        <time>2018-02-28T10:04:10Z</time>
      </trkpt>
      <trkpt lat="45.97157" lon="4.78112">
        <ele>230</ele>
        <time>2018-02-28T10:04:12Z</time>
      </trkpt>
      <trkpt lat="45.9716" lon="4.78117">
        <ele>230</ele>
        <time>2018-02-28T10:04:13Z</time>
      </trkpt>
      <trkpt lat="45.97164" lon="4.78124">
        <ele>230</ele>
        <time>2018-02-28T10:04:16Z</time>
      </trkpt>
      <trkpt lat="45.97166" lon="4.78128">
        <ele>230</ele>
        <time>2018-02-28T10:04:17Z</time>
      </trkpt>
      <trkpt lat="45.97168" lon="4.78131">
        <ele>231</ele>
        <time>2018-02-28T10:04:18Z</time>
      </trkpt>
      <trkpt lat="45.97173" lon="4.78141">
        <ele>231</ele>
        <time>2018-02-28T10:04:19Z</time>
      </trkpt>
      <trkpt lat="45.97178" lon="4.7815">
        <ele>231</ele>
        <time>2018-02-28T10:04:21Z</time>
      </trkpt>
      <trkpt lat="45.9718" lon="4.78154">
        <ele>231</ele>
        <time>2018-02-28T10:04:22Z</time>
      </trkpt>
      <trkpt lat="45.97185" lon="4.78163">
        <ele>231</ele>
        <time>2018-02-28T10:04:25Z</time>
      </trkpt>
      <trkpt lat="45.97186" lon="4.78166">
        <ele>231</ele>
        <time>2018-02-28T10:04:26Z</time>
      </trkpt>
      <trkpt lat="45.97192" lon="4.78176">
        <ele>231</ele>
        <time>2018-02-28T10:04:29Z</time>
      </trkpt>
      <trkpt lat="45.97194" lon="4.78179">
        <ele>231</ele>
        <time>2018-02-28T10:04:30Z</time>
      </trkpt>
      <trkpt lat="45.97198" lon="4.78186">
        <ele>231</ele>
        <time>2018-02-28T10:04:32Z</time>
      </trkpt>
      <trkpt lat="45.972" lon="4.78189">
        <ele>231</ele>
        <time>2018-02-28T10:04:33Z</time>
      </trkpt>
      <trkpt lat="45.97204" lon="4.78196">
        <ele>231</ele>
        <time>2018-02-28T10:04:35Z</time>
      </trkpt>
      <trkpt lat="45.97206" lon="4.782">
        <ele>231</ele>
        <time>2018-02-28T10:04:36Z</time>
      </trkpt>
      <trkpt lat="45.9721" lon="4.78207">
        <ele>231</ele>
        <time>2018-02-28T10:04:38Z</time>
      </trkpt>
      <trkpt lat="45.97213" lon="4.78211">
        <ele>231</ele>
        <time>2018-02-28T10:04:39Z</time>
      </trkpt>
      <trkpt lat="45.97217" lon="4.78218">
        <ele>231</ele>
        <time>2018-02-28T10:04:41Z</time>
      </trkpt>
      <trkpt lat="45.97219" lon="4.78222">
        <ele>231</ele>
        <time>2018-02-28T10:04:42Z</time>
      </trkpt>
      <trkpt lat="45.97226" lon="4.78233">
        <ele>231</ele>
        <time>2018-02-28T10:04:43Z</time>
      </trkpt>
      <trkpt lat="45.9723" lon="4.78242">
        <ele>231</ele>
        <time>2018-02-28T10:04:45Z</time>
      </trkpt>
      <trkpt lat="45.97233" lon="4.78246">
        <ele>231</ele>
        <time>2018-02-28T10:04:46Z</time>
      </trkpt>
      <trkpt lat="45.97238" lon="4.78254">
        <ele>231</ele>
        <time>2018-02-28T10:04:48Z</time>
      </trkpt>
      <trkpt lat="45.9724" lon="4.78258">
        <ele>231</ele>
        <time>2018-02-28T10:04:49Z</time>
      </trkpt>
      <trkpt lat="45.97246" lon="4.78266">
        <ele>231</ele>
        <time>2018-02-28T10:04:51Z</time>
      </trkpt>
      <trkpt lat="45.97249" lon="4.7827">
        <ele>231</ele>
        <time>2018-02-28T10:04:52Z</time>
      </trkpt>
      <trkpt lat="45.97254" lon="4.78278">
        <ele>232</ele>
        <time>2018-02-28T10:04:54Z</time>
      </trkpt>
      <trkpt lat="45.97256" lon="4.78281">
        <ele>232</ele>
        <time>2018-02-28T10:04:55Z</time>
      </trkpt>
      <trkpt lat="45.97261" lon="4.78289">
        <ele>232</ele>
        <time>2018-02-28T10:04:57Z</time>
      </trkpt>
      <trkpt lat="45.97263" lon="4.78292">
        <ele>232</ele>
        <time>2018-02-28T10:04:58Z</time>
      </trkpt>
      <trkpt lat="45.97269" lon="4.78301">
        <ele>232</ele>
        <time>2018-02-28T10:05:01Z</time>
      </trkpt>
      <trkpt lat="45.97271" lon="4.78303">
        <ele>232</ele>
        <time>2018-02-28T10:05:02Z</time>
      </trkpt>
      <trkpt lat="45.97277" lon="4.78311">
        <ele>232</ele>
        <time>2018-02-28T10:05:05Z</time>
      </trkpt>
      <trkpt lat="45.97279" lon="4.78314">
        <ele>232</ele>
        <time>2018-02-28T10:05:06Z</time>
      </trkpt>
      <trkpt lat="45.97283" lon="4.7832">
        <ele>232</ele>
        <time>2018-02-28T10:05:08Z</time>
      </trkpt>
      <trkpt lat="45.97286" lon="4.78323">
        <ele>232</ele>
        <time>2018-02-28T10:05:09Z</time>
      </trkpt>
      <trkpt lat="45.97291" lon="4.78331">
        <ele>232</ele>
        <time>2018-02-28T10:05:11Z</time>
      </trkpt>
      <trkpt lat="45.97298" lon="4.7834">
        <ele>232</ele>
        <time>2018-02-28T10:05:12Z</time>
      </trkpt>
      <trkpt lat="45.97303" lon="4.78348">
        <ele>232</ele>
        <time>2018-02-28T10:05:14Z</time>
      </trkpt>
      <trkpt lat="45.97306" lon="4.78351">
        <ele>232</ele>
        <time>2018-02-28T10:05:15Z</time>
      </trkpt>
      <trkpt lat="45.97311" lon="4.78358">
        <ele>232</ele>
        <time>2018-02-28T10:05:17Z</time>
      </trkpt>
      <trkpt lat="45.97313" lon="4.7836">
        <ele>232</ele>
        <time>2018-02-28T10:05:18Z</time>
      </trkpt>
      <trkpt lat="45.97315" lon="4.78363">
        <ele>232</ele>
        <time>2018-02-28T10:05:19Z</time>
      </trkpt>
      <trkpt lat="45.9732" lon="4.78369">
        <ele>232</ele>
        <time>2018-02-28T10:05:20Z</time>
      </trkpt>
      <trkpt lat="45.97325" lon="4.78376">
        <ele>232</ele>
        <time>2018-02-28T10:05:22Z</time>
      </trkpt>
      <trkpt lat="45.97327" lon="4.78378">
        <ele>232</ele>
        <time>2018-02-28T10:05:23Z</time>
      </trkpt>
      <trkpt lat="45.97329" lon="4.7838">
        <ele>232</ele>
        <time>2018-02-28T10:05:24Z</time>
      </trkpt>
      <trkpt lat="45.97333" lon="4.78387">
        <ele>233</ele>
        <time>2018-02-28T10:05:25Z</time>
      </trkpt>
      <trkpt lat="45.97339" lon="4.78394">
        <ele>232</ele>
        <time>2018-02-28T10:05:27Z</time>
      </trkpt>
      <trkpt lat="45.97342" lon="4.78397">
        <ele>232</ele>
        <time>2018-02-28T10:05:28Z</time>
      </trkpt>
      <trkpt lat="45.97348" lon="4.78404">
        <ele>232</ele>
        <time>2018-02-28T10:05:30Z</time>
      </trkpt>
      <trkpt lat="45.97351" lon="4.78407">
        <ele>232</ele>
        <time>2018-02-28T10:05:31Z</time>
      </trkpt>
      <trkpt lat="45.97357" lon="4.78414">
        <ele>232</ele>
        <time>2018-02-28T10:05:33Z</time>
      </trkpt>
      <trkpt lat="45.9736" lon="4.78417">
        <ele>233</ele>
        <time>2018-02-28T10:05:34Z</time>
      </trkpt>
      <trkpt lat="45.97365" lon="4.78421">
        <ele>233</ele>
        <time>2018-02-28T10:05:36Z</time>
      </trkpt>
      <trkpt lat="45.97369" lon="4.78426">
        <ele>233</ele>
        <time>2018-02-28T10:05:37Z</time>
      </trkpt>
      <trkpt lat="45.97376" lon="4.78433">
        <ele>233</ele>
        <time>2018-02-28T10:05:40Z</time>
      </trkpt>
      <trkpt lat="45.97378" lon="4.78435">
        <ele>233</ele>
        <time>2018-02-28T10:05:41Z</time>
      </trkpt>
      <trkpt lat="45.97384" lon="4.78441">
        <ele>233</ele>
        <time>2018-02-28T10:05:42Z</time>
      </trkpt>
      <trkpt lat="45.97386" lon="4.78442">
        <ele>233</ele>
        <time>2018-02-28T10:05:43Z</time>
      </trkpt>
      <trkpt lat="45.97392" lon="4.78448">
        <ele>233</ele>
        <time>2018-02-28T10:05:46Z</time>
      </trkpt>
      <trkpt lat="45.97398" lon="4.78455">
        <ele>233</ele>
        <time>2018-02-28T10:05:47Z</time>
      </trkpt>
      <trkpt lat="45.97404" lon="4.78461">
        <ele>233</ele>
        <time>2018-02-28T10:05:49Z</time>
      </trkpt>
      <trkpt lat="45.97407" lon="4.78465">
        <ele>233</ele>
        <time>2018-02-28T10:05:50Z</time>
      </trkpt>
      <trkpt lat="45.97413" lon="4.7847">
        <ele>233</ele>
        <time>2018-02-28T10:05:52Z</time>
      </trkpt>
      <trkpt lat="45.97416" lon="4.78473">
        <ele>233</ele>
        <time>2018-02-28T10:05:53Z</time>
      </trkpt>
      <trkpt lat="45.97422" lon="4.78479">
        <ele>234</ele>
        <time>2018-02-28T10:05:55Z</time>
      </trkpt>
      <trkpt lat="45.97425" lon="4.78481">
        <ele>234</ele>
        <time>2018-02-28T10:05:56Z</time>
      </trkpt>
      <trkpt lat="45.97428" lon="4.78485">
        <ele>234</ele>
        <time>2018-02-28T10:05:58Z</time>
      </trkpt>
      <trkpt lat="45.97434" lon="4.78489">
        <ele>234</ele>
        <time>2018-02-28T10:05:59Z</time>
      </trkpt>
      <trkpt lat="45.9744" lon="4.78494">
        <ele>234</ele>
        <time>2018-02-28T10:06:01Z</time>
      </trkpt>
      <trkpt lat="45.97443" lon="4.78497">
        <ele>234</ele>
        <time>2018-02-28T10:06:02Z</time>
      </trkpt>
      <trkpt lat="45.97448" lon="4.78501">
        <ele>234</ele>
        <time>2018-02-28T10:06:04Z</time>
      </trkpt>
      <trkpt lat="45.97453" lon="4.78505">
        <ele>234</ele>
        <time>2018-02-28T10:06:05Z</time>
      </trkpt>
      <trkpt lat="45.97459" lon="4.78509">
        <ele>233</ele>
        <time>2018-02-28T10:06:07Z</time>
      </trkpt>
      <trkpt lat="45.97463" lon="4.78512">
        <ele>233</ele>
        <time>2018-02-28T10:06:08Z</time>
      </trkpt>
      <trkpt lat="45.9747" lon="4.78517">
        <ele>233</ele>
        <time>2018-02-28T10:06:10Z</time>
      </trkpt>
      <trkpt lat="45.97473" lon="4.78519">
        <ele>233</ele>
        <time>2018-02-28T10:06:11Z</time>
      </trkpt>
      <trkpt lat="45.97479" lon="4.78524">
        <ele>233</ele>
        <time>2018-02-28T10:06:13Z</time>
      </trkpt>
      <trkpt lat="45.97483" lon="4.78526">
        <ele>233</ele>
        <time>2018-02-28T10:06:14Z</time>
      </trkpt>
      <trkpt lat="45.97489" lon="4.78532">
        <ele>233</ele>
        <time>2018-02-28T10:06:16Z</time>
      </trkpt>
      <trkpt lat="45.97493" lon="4.78534">
        <ele>233</ele>
        <time>2018-02-28T10:06:17Z</time>
      </trkpt>
      <trkpt lat="45.97499" lon="4.78539">
        <ele>233</ele>
        <time>2018-02-28T10:06:19Z</time>
      </trkpt>
      <trkpt lat="45.97503" lon="4.78542">
        <ele>234</ele>
        <time>2018-02-28T10:06:20Z</time>
      </trkpt>
      <trkpt lat="45.9751" lon="4.78546">
        <ele>234</ele>
        <time>2018-02-28T10:06:22Z</time>
      </trkpt>
      <trkpt lat="45.97513" lon="4.78549">
        <ele>234</ele>
        <time>2018-02-28T10:06:23Z</time>
      </trkpt>
      <trkpt lat="45.9752" lon="4.78553">
        <ele>234</ele>
        <time>2018-02-28T10:06:25Z</time>
      </trkpt>
      <trkpt lat="45.97524" lon="4.78555">
        <ele>234</ele>
        <time>2018-02-28T10:06:26Z</time>
      </trkpt>
      <trkpt lat="45.97531" lon="4.78559">
        <ele>234</ele>
        <time>2018-02-28T10:06:28Z</time>
      </trkpt>
      <trkpt lat="45.97534" lon="4.78561">
        <ele>234</ele>
        <time>2018-02-28T10:06:29Z</time>
      </trkpt>
      <trkpt lat="45.97542" lon="4.78565">
        <ele>234</ele>
        <time>2018-02-28T10:06:31Z</time>
      </trkpt>
      <trkpt lat="45.97546" lon="4.78566">
        <ele>234</ele>
        <time>2018-02-28T10:06:32Z</time>
      </trkpt>
      <trkpt lat="45.97553" lon="4.78569">
        <ele>234</ele>
        <time>2018-02-28T10:06:34Z</time>
      </trkpt>
      <trkpt lat="45.97557" lon="4.78571">
        <ele>233</ele>
        <time>2018-02-28T10:06:35Z</time>
      </trkpt>
      <trkpt lat="45.97564" lon="4.78574">
        <ele>233</ele>
        <time>2018-02-28T10:06:37Z</time>
      </trkpt>
      <trkpt lat="45.97568" lon="4.78576">
        <ele>233</ele>
        <time>2018-02-28T10:06:38Z</time>
      </trkpt>
      <trkpt lat="45.97575" lon="4.78578">
        <ele>233</ele>
        <time>2018-02-28T10:06:40Z</time>
      </trkpt>
      <trkpt lat="45.97578" lon="4.7858">
        <ele>233</ele>
        <time>2018-02-28T10:06:41Z</time>
      </trkpt>
      <trkpt lat="45.97585" lon="4.78583">
        <ele>233</ele>
        <time>2018-02-28T10:06:43Z</time>
      </trkpt>
      <trkpt lat="45.97589" lon="4.78585">
        <ele>233</ele>
        <time>2018-02-28T10:06:44Z</time>
      </trkpt>
      <trkpt lat="45.97597" lon="4.78588">
        <ele>233</ele>
        <time>2018-02-28T10:06:47Z</time>
      </trkpt>
      <trkpt lat="45.97599" lon="4.78589">
        <ele>233</ele>
        <time>2018-02-28T10:06:48Z</time>
      </trkpt>
      <trkpt lat="45.97607" lon="4.78592">
        <ele>233</ele>
        <time>2018-02-28T10:06:51Z</time>
      </trkpt>
      <trkpt lat="45.97616" lon="4.78596">
        <ele>233</ele>
        <time>2018-02-28T10:06:52Z</time>
      </trkpt>
      <trkpt lat="45.97623" lon="4.78599">
        <ele>233</ele>
        <time>2018-02-28T10:06:54Z</time>
      </trkpt>
      <trkpt lat="45.97627" lon="4.786">
        <ele>233</ele>
        <time>2018-02-28T10:06:55Z</time>
      </trkpt>
      <trkpt lat="45.97633" lon="4.78603">
        <ele>233</ele>
        <time>2018-02-28T10:06:57Z</time>
      </trkpt>
      <trkpt lat="45.97637" lon="4.78604">
        <ele>233</ele>
        <time>2018-02-28T10:06:58Z</time>
      </trkpt>
      <trkpt lat="45.97644" lon="4.78608">
        <ele>233</ele>
        <time>2018-02-28T10:07:00Z</time>
      </trkpt>
      <trkpt lat="45.97647" lon="4.7861">
        <ele>233</ele>
        <time>2018-02-28T10:07:01Z</time>
      </trkpt>
      <trkpt lat="45.97654" lon="4.78613">
        <ele>233</ele>
        <time>2018-02-28T10:07:04Z</time>
      </trkpt>
      <trkpt lat="45.97661" lon="4.78615">
        <ele>233</ele>
        <time>2018-02-28T10:07:05Z</time>
      </trkpt>
      <trkpt lat="45.97668" lon="4.78618">
        <ele>234</ele>
        <time>2018-02-28T10:07:07Z</time>
      </trkpt>
      <trkpt lat="45.97671" lon="4.78619">
        <ele>234</ele>
        <time>2018-02-28T10:07:08Z</time>
      </trkpt>
      <trkpt lat="45.97679" lon="4.78623">
        <ele>234</ele>
        <time>2018-02-28T10:07:11Z</time>
      </trkpt>
      <trkpt lat="45.97684" lon="4.78625">
        <ele>234</ele>
        <time>2018-02-28T10:07:12Z</time>
      </trkpt>
      <trkpt lat="45.97691" lon="4.78628">
        <ele>234</ele>
        <time>2018-02-28T10:07:15Z</time>
      </trkpt>
      <trkpt lat="45.97693" lon="4.78629">
        <ele>234</ele>
        <time>2018-02-28T10:07:16Z</time>
      </trkpt>
      <trkpt lat="45.97701" lon="4.78632">
        <ele>234</ele>
        <time>2018-02-28T10:07:17Z</time>
      </trkpt>
      <trkpt lat="45.97702" lon="4.78633">
        <ele>234</ele>
        <time>2018-02-28T10:07:18Z</time>
      </trkpt>
      <trkpt lat="45.97708" lon="4.78635">
        <ele>234</ele>
        <time>2018-02-28T10:07:19Z</time>
      </trkpt>
      <trkpt lat="45.97711" lon="4.78636">
        <ele>234</ele>
        <time>2018-02-28T10:07:20Z</time>
      </trkpt>
      <trkpt lat="45.97719" lon="4.78639">
        <ele>234</ele>
        <time>2018-02-28T10:07:22Z</time>
      </trkpt>
      <trkpt lat="45.97723" lon="4.78641">
        <ele>234</ele>
        <time>2018-02-28T10:07:23Z</time>
      </trkpt>
      <trkpt lat="45.9773" lon="4.78644">
        <ele>234</ele>
        <time>2018-02-28T10:07:25Z</time>
      </trkpt>
      <trkpt lat="45.97734" lon="4.78646">
        <ele>234</ele>
        <time>2018-02-28T10:07:26Z</time>
      </trkpt>
      <trkpt lat="45.97742" lon="4.78649">
        <ele>234</ele>
        <time>2018-02-28T10:07:28Z</time>
      </trkpt>
      <trkpt lat="45.97746" lon="4.7865">
        <ele>234</ele>
        <time>2018-02-28T10:07:29Z</time>
      </trkpt>
      <trkpt lat="45.97753" lon="4.78654">
        <ele>235</ele>
        <time>2018-02-28T10:07:31Z</time>
      </trkpt>
      <trkpt lat="45.97757" lon="4.78656">
        <ele>235</ele>
        <time>2018-02-28T10:07:32Z</time>
      </trkpt>
      <trkpt lat="45.97764" lon="4.78658">
        <ele>235</ele>
        <time>2018-02-28T10:07:34Z</time>
      </trkpt>
      <trkpt lat="45.97768" lon="4.7866">
        <ele>235</ele>
        <time>2018-02-28T10:07:35Z</time>
      </trkpt>
      <trkpt lat="45.97775" lon="4.78664">
        <ele>235</ele>
        <time>2018-02-28T10:07:37Z</time>
      </trkpt>
      <trkpt lat="45.97777" lon="4.78664">
        <ele>235</ele>
        <time>2018-02-28T10:07:38Z</time>
      </trkpt>
      <trkpt lat="45.97779" lon="4.78665">
        <ele>235</ele>
        <time>2018-02-28T10:07:39Z</time>
      </trkpt>
      <trkpt lat="45.97786" lon="4.78667">
        <ele>235</ele>
        <time>2018-02-28T10:07:40Z</time>
      </trkpt>
      <trkpt lat="45.97792" lon="4.78669">
        <ele>235</ele>
        <time>2018-02-28T10:07:43Z</time>
      </trkpt>
      <trkpt lat="45.97795" lon="4.7867">
        <ele>235</ele>
        <time>2018-02-28T10:07:44Z</time>
      </trkpt>
      <trkpt lat="45.97803" lon="4.78674">
        <ele>235</ele>
        <time>2018-02-28T10:07:47Z</time>
      </trkpt>
      <trkpt lat="45.97812" lon="4.78677">
        <ele>235</ele>
        <time>2018-02-28T10:07:48Z</time>
      </trkpt>
      <trkpt lat="45.97819" lon="4.78681">
        <ele>235</ele>
        <time>2018-02-28T10:07:50Z</time>
      </trkpt>
      <trkpt lat="45.97823" lon="4.78683">
        <ele>235</ele>
        <time>2018-02-28T10:07:51Z</time>
      </trkpt>
      <trkpt lat="45.97831" lon="4.78688">
        <ele>235</ele>
        <time>2018-02-28T10:07:53Z</time>
      </trkpt>
      <trkpt lat="45.97835" lon="4.7869">
        <ele>236</ele>
        <time>2018-02-28T10:07:54Z</time>
      </trkpt>
      <trkpt lat="45.97842" lon="4.78694">
        <ele>236</ele>
        <time>2018-02-28T10:07:57Z</time>
      </trkpt>
      <trkpt lat="45.97845" lon="4.78696">
        <ele>236</ele>
        <time>2018-02-28T10:07:58Z</time>
      </trkpt>
      <trkpt lat="45.97847" lon="4.78697">
        <ele>236</ele>
        <time>2018-02-28T10:07:59Z</time>
      </trkpt>
      <trkpt lat="45.97855" lon="4.78702">
        <ele>236</ele>
        <time>2018-02-28T10:08:00Z</time>
      </trkpt>
      <trkpt lat="45.97862" lon="4.78706">
        <ele>236</ele>
        <time>2018-02-28T10:08:02Z</time>
      </trkpt>
      <trkpt lat="45.97865" lon="4.78708">
        <ele>236</ele>
        <time>2018-02-28T10:08:03Z</time>
      </trkpt>
      <trkpt lat="45.97872" lon="4.78712">
        <ele>236</ele>
        <time>2018-02-28T10:08:05Z</time>
      </trkpt>
      <trkpt lat="45.97875" lon="4.78715">
        <ele>236</ele>
        <time>2018-02-28T10:08:06Z</time>
      </trkpt>
      <trkpt lat="45.97882" lon="4.7872">
        <ele>236</ele>
        <time>2018-02-28T10:08:08Z</time>
      </trkpt>
      <trkpt lat="45.97885" lon="4.78722">
        <ele>236</ele>
        <time>2018-02-28T10:08:09Z</time>
      </trkpt>
      <trkpt lat="45.97892" lon="4.78727">
        <ele>236</ele>
        <time>2018-02-28T10:08:11Z</time>
      </trkpt>
      <trkpt lat="45.97893" lon="4.78729">
        <ele>236</ele>
        <time>2018-02-28T10:08:12Z</time>
      </trkpt>
      <trkpt lat="45.97901" lon="4.78735">
        <ele>237</ele>
        <time>2018-02-28T10:08:14Z</time>
      </trkpt>
      <trkpt lat="45.97904" lon="4.78738">
        <ele>237</ele>
        <time>2018-02-28T10:08:15Z</time>
      </trkpt>
      <trkpt lat="45.97911" lon="4.78743">
        <ele>237</ele>
        <time>2018-02-28T10:08:17Z</time>
      </trkpt>
      <trkpt lat="45.97915" lon="4.78746">
        <ele>237</ele>
        <time>2018-02-28T10:08:18Z</time>
      </trkpt>
      <trkpt lat="45.97922" lon="4.78751">
        <ele>237</ele>
        <time>2018-02-28T10:08:20Z</time>
      </trkpt>
      <trkpt lat="45.97926" lon="4.78753">
        <ele>237</ele>
        <time>2018-02-28T10:08:21Z</time>
      </trkpt>
      <trkpt lat="45.97933" lon="4.78757">
        <ele>238</ele>
        <time>2018-02-28T10:08:23Z</time>
      </trkpt>
      <trkpt lat="45.97937" lon="4.7876">
        <ele>238</ele>
        <time>2018-02-28T10:08:24Z</time>
      </trkpt>
      <trkpt lat="45.97944" lon="4.78765">
        <ele>238</ele>
        <time>2018-02-28T10:08:27Z</time>
      </trkpt>
      <trkpt lat="45.97946" lon="4.78767">
        <ele>238</ele>
        <time>2018-02-28T10:08:28Z</time>
      </trkpt>
      <trkpt lat="45.97951" lon="4.7877">
        <ele>238</ele>
        <time>2018-02-28T10:08:30Z</time>
      </trkpt>
      <trkpt lat="45.97959" lon="4.78777">
        <ele>238</ele>
        <time>2018-02-28T10:08:31Z</time>
      </trkpt>
      <trkpt lat="45.97965" lon="4.78781">
        <ele>238</ele>
        <time>2018-02-28T10:08:33Z</time>
      </trkpt>
      <trkpt lat="45.97968" lon="4.78784">
        <ele>238</ele>
        <time>2018-02-28T10:08:34Z</time>
      </trkpt>
      <trkpt lat="45.97974" lon="4.78788">
        <ele>238</ele>
        <time>2018-02-28T10:08:37Z</time>
      </trkpt>
      <trkpt lat="45.97977" lon="4.78789">
        <ele>238</ele>
        <time>2018-02-28T10:08:38Z</time>
      </trkpt>
      <trkpt lat="45.97984" lon="4.78795">
        <ele>238</ele>
        <time>2018-02-28T10:08:39Z</time>
      </trkpt>
      <trkpt lat="45.97986" lon="4.78796">
        <ele>238</ele>
        <time>2018-02-28T10:08:40Z</time>
      </trkpt>
      <trkpt lat="45.9799" lon="4.78799">
        <ele>238</ele>
        <time>2018-02-28T10:08:42Z</time>
      </trkpt>
      <trkpt lat="45.97997" lon="4.78804">
        <ele>238</ele>
        <time>2018-02-28T10:08:43Z</time>
      </trkpt>
      <trkpt lat="45.98004" lon="4.78809">
        <ele>238</ele>
        <time>2018-02-28T10:08:47Z</time>
      </trkpt>
      <trkpt lat="45.98007" lon="4.78811">
        <ele>238</ele>
        <time>2018-02-28T10:08:48Z</time>
      </trkpt>
      <trkpt lat="45.98009" lon="4.78813">
        <ele>238</ele>
        <time>2018-02-28T10:08:49Z</time>
      </trkpt>
      <trkpt lat="45.98017" lon="4.78819">
        <ele>238</ele>
        <time>2018-02-28T10:08:50Z</time>
      </trkpt>
      <trkpt lat="45.98024" lon="4.78824">
        <ele>238</ele>
        <time>2018-02-28T10:08:52Z</time>
      </trkpt>
      <trkpt lat="45.98028" lon="4.78826">
        <ele>238</ele>
        <time>2018-02-28T10:08:53Z</time>
      </trkpt>
      <trkpt lat="45.98036" lon="4.78832">
        <ele>238</ele>
        <time>2018-02-28T10:08:55Z</time>
      </trkpt>
      <trkpt lat="45.9804" lon="4.78834">
        <ele>238</ele>
        <time>2018-02-28T10:08:56Z</time>
      </trkpt>
      <trkpt lat="45.98047" lon="4.7884">
        <ele>238</ele>
        <time>2018-02-28T10:08:58Z</time>
      </trkpt>
      <trkpt lat="45.98051" lon="4.78842">
        <ele>239</ele>
        <time>2018-02-28T10:08:59Z</time>
      </trkpt>
      <trkpt lat="45.98057" lon="4.78847">
        <ele>239</ele>
        <time>2018-02-28T10:09:01Z</time>
      </trkpt>
      <trkpt lat="45.98061" lon="4.78849">
        <ele>239</ele>
        <time>2018-02-28T10:09:02Z</time>
      </trkpt>
      <trkpt lat="45.98068" lon="4.78855">
        <ele>239</ele>
        <time>2018-02-28T10:09:04Z</time>
      </trkpt>
      <trkpt lat="45.9807" lon="4.78856">
        <ele>239</ele>
        <time>2018-02-28T10:09:05Z</time>
      </trkpt>
      <trkpt lat="45.98076" lon="4.78861">
        <ele>239</ele>
        <time>2018-02-28T10:09:08Z</time>
      </trkpt>
      <trkpt lat="45.98078" lon="4.78862">
        <ele>239</ele>
        <time>2018-02-28T10:09:09Z</time>
      </trkpt>
      <trkpt lat="45.98086" lon="4.78867">
        <ele>239</ele>
        <time>2018-02-28T10:09:12Z</time>
      </trkpt>
      <trkpt lat="45.98089" lon="4.78869">
        <ele>239</ele>
        <time>2018-02-28T10:09:13Z</time>
      </trkpt>
      <trkpt lat="45.98095" lon="4.78873">
        <ele>239</ele>
        <time>2018-02-28T10:09:15Z</time>
      </trkpt>
      <trkpt lat="45.98098" lon="4.78875">
        <ele>240</ele>
        <time>2018-02-28T10:09:16Z</time>
      </trkpt>
      <trkpt lat="45.98103" lon="4.78879">
        <ele>240</ele>
        <time>2018-02-28T10:09:18Z</time>
      </trkpt>
      <trkpt lat="45.98106" lon="4.78881">
        <ele>240</ele>
        <time>2018-02-28T10:09:19Z</time>
      </trkpt>
      <trkpt lat="45.98112" lon="4.78885">
        <ele>240</ele>
        <time>2018-02-28T10:09:21Z</time>
      </trkpt>
      <trkpt lat="45.98115" lon="4.78887">
        <ele>240</ele>
        <time>2018-02-28T10:09:22Z</time>
      </trkpt>
      <trkpt lat="45.98121" lon="4.7889">
        <ele>240</ele>
        <time>2018-02-28T10:09:24Z</time>
      </trkpt>
      <trkpt lat="45.98124" lon="4.78892">
        <ele>240</ele>
        <time>2018-02-28T10:09:25Z</time>
      </trkpt>
      <trkpt lat="45.98132" lon="4.78896">
        <ele>240</ele>
        <time>2018-02-28T10:09:28Z</time>
      </trkpt>
      <trkpt lat="45.98135" lon="4.78898">
        <ele>240</ele>
        <time>2018-02-28T10:09:29Z</time>
      </trkpt>
      <trkpt lat="45.98143" lon="4.78903">
        <ele>240</ele>
        <time>2018-02-28T10:09:30Z</time>
      </trkpt>
      <trkpt lat="45.98152" lon="4.78906">
        <ele>240</ele>
        <time>2018-02-28T10:09:34Z</time>
      </trkpt>
      <trkpt lat="45.98159" lon="4.7891">
        <ele>240</ele>
        <time>2018-02-28T10:09:35Z</time>
      </trkpt>
      <trkpt lat="45.98165" lon="4.78914">
        <ele>240</ele>
        <time>2018-02-28T10:09:38Z</time>
      </trkpt>
      <trkpt lat="45.98168" lon="4.78916">
        <ele>240</ele>
        <time>2018-02-28T10:09:39Z</time>
      </trkpt>
      <trkpt lat="45.98176" lon="4.7892">
        <ele>240</ele>
        <time>2018-02-28T10:09:42Z</time>
      </trkpt>
      <trkpt lat="45.98178" lon="4.78922">
        <ele>240</ele>
        <time>2018-02-28T10:09:43Z</time>
      </trkpt>
      <trkpt lat="45.98184" lon="4.78925">
        <ele>241</ele>
        <time>2018-02-28T10:09:45Z</time>
      </trkpt>
      <trkpt lat="45.98187" lon="4.78926">
        <ele>241</ele>
        <time>2018-02-28T10:09:46Z</time>
      </trkpt>
      <trkpt lat="45.9819" lon="4.78928">
        <ele>241</ele>
        <time>2018-02-28T10:09:47Z</time>
      </trkpt>
      <trkpt lat="45.982" lon="4.78935">
        <ele>241</ele>
        <time>2018-02-28T10:09:48Z</time>
      </trkpt>
      <trkpt lat="45.98208" lon="4.78939">
        <ele>241</ele>
        <time>2018-02-28T10:09:50Z</time>
      </trkpt>
      <trkpt lat="45.98212" lon="4.78941">
        <ele>241</ele>
        <time>2018-02-28T10:09:51Z</time>
      </trkpt>
      <trkpt lat="45.9822" lon="4.78946">
        <ele>241</ele>
        <time>2018-02-28T10:09:53Z</time>
      </trkpt>
      <trkpt lat="45.98223" lon="4.78949">
        <ele>241</ele>
        <time>2018-02-28T10:09:54Z</time>
      </trkpt>
      <trkpt lat="45.9823" lon="4.78955">
        <ele>241</ele>
        <time>2018-02-28T10:09:56Z</time>
      </trkpt>
      <trkpt lat="45.98232" lon="4.78956">
        <ele>241</ele>
        <time>2018-02-28T10:09:57Z</time>
      </trkpt>
      <trkpt lat="45.98239" lon="4.7896">
        <ele>241</ele>
        <time>2018-02-28T10:09:59Z</time>
      </trkpt>
      <trkpt lat="45.98241" lon="4.78961">
        <ele>241</ele>
        <time>2018-02-28T10:10:00Z</time>
      </trkpt>
      <trkpt lat="45.98248" lon="4.78964">
        <ele>241</ele>
        <time>2018-02-28T10:10:03Z</time>
      </trkpt>
      <trkpt lat="45.9825" lon="4.78966">
        <ele>241</ele>
        <time>2018-02-28T10:10:04Z</time>
      </trkpt>
      <trkpt lat="45.98258" lon="4.7897">
        <ele>241</ele>
        <time>2018-02-28T10:10:07Z</time>
      </trkpt>
      <trkpt lat="45.98261" lon="4.78972">
        <ele>241</ele>
        <time>2018-02-28T10:10:08Z</time>
      </trkpt>
      <trkpt lat="45.98264" lon="4.78974">
        <ele>241</ele>
        <time>2018-02-28T10:10:09Z</time>
      </trkpt>
      <trkpt lat="45.98274" lon="4.78979">
        <ele>241</ele>
        <time>2018-02-28T10:10:10Z</time>
      </trkpt>
      <trkpt lat="45.98281" lon="4.78984">
        <ele>241</ele>
        <time>2018-02-28T10:10:12Z</time>
      </trkpt>
      <trkpt lat="45.98285" lon="4.78986">
        <ele>241</ele>
        <time>2018-02-28T10:10:13Z</time>
      </trkpt>
      <trkpt lat="45.98293" lon="4.7899">
        <ele>241</ele>
        <time>2018-02-28T10:10:15Z</time>
      </trkpt>
      <trkpt lat="45.98296" lon="4.78992">
        <ele>241</ele>
        <time>2018-02-28T10:10:16Z</time>
      </trkpt>
      <trkpt lat="45.98304" lon="4.78995">
        <ele>241</ele>
        <time>2018-02-28T10:10:18Z</time>
      </trkpt>
      <trkpt lat="45.98307" lon="4.78997">
        <ele>241</ele>
        <time>2018-02-28T10:10:19Z</time>
      </trkpt>
      <trkpt lat="45.98315" lon="4.79002">
        <ele>242</ele>
        <time>2018-02-28T10:10:21Z</time>
      </trkpt>
      <trkpt lat="45.98319" lon="4.79004">
        <ele>242</ele>
        <time>2018-02-28T10:10:22Z</time>
      </trkpt>
      <trkpt lat="45.98326" lon="4.79009">
        <ele>242</ele>
        <time>2018-02-28T10:10:24Z</time>
      </trkpt>
      <trkpt lat="45.9833" lon="4.79012">
        <ele>242</ele>
        <time>2018-02-28T10:10:25Z</time>
      </trkpt>
      <trkpt lat="45.98336" lon="4.79017">
        <ele>242</ele>
        <time>2018-02-28T10:10:27Z</time>
      </trkpt>
      <trkpt lat="45.9834" lon="4.7902">
        <ele>242</ele>
        <time>2018-02-28T10:10:28Z</time>
      </trkpt>
      <trkpt lat="45.98346" lon="4.79027">
        <ele>242</ele>
        <time>2018-02-28T10:10:30Z</time>
      </trkpt>
      <trkpt lat="45.98349" lon="4.7903">
        <ele>242</ele>
        <time>2018-02-28T10:10:31Z</time>
      </trkpt>
      <trkpt lat="45.98355" lon="4.79038">
        <ele>242</ele>
        <time>2018-02-28T10:10:33Z</time>
      </trkpt>
      <trkpt lat="45.98356" lon="4.7904">
        <ele>242</ele>
        <time>2018-02-28T10:10:34Z</time>
      </trkpt>
      <trkpt lat="45.9836" lon="4.79046">
        <ele>242</ele>
        <time>2018-02-28T10:10:35Z</time>
      </trkpt>
      <trkpt lat="45.98362" lon="4.7905">
        <ele>242</ele>
        <time>2018-02-28T10:10:36Z</time>
      </trkpt>
      <trkpt lat="45.98367" lon="4.79059">
        <ele>242</ele>
        <time>2018-02-28T10:10:38Z</time>
      </trkpt>
      <trkpt lat="45.9837" lon="4.79063">
        <ele>242</ele>
        <time>2018-02-28T10:10:39Z</time>
      </trkpt>
      <trkpt lat="45.98374" lon="4.79072">
        <ele>242</ele>
        <time>2018-02-28T10:10:41Z</time>
      </trkpt>
      <trkpt lat="45.98377" lon="4.79076">
        <ele>242</ele>
        <time>2018-02-28T10:10:42Z</time>
      </trkpt>
      <trkpt lat="45.98382" lon="4.79085">
        <ele>242</ele>
        <time>2018-02-28T10:10:44Z</time>
      </trkpt>
      <trkpt lat="45.98383" lon="4.79087">
        <ele>242</ele>
        <time>2018-02-28T10:10:45Z</time>
      </trkpt>
      <trkpt lat="45.98388" lon="4.79096">
        <ele>242</ele>
        <time>2018-02-28T10:10:48Z</time>
      </trkpt>
      <trkpt lat="45.98393" lon="4.79105">
        <ele>242</ele>
        <time>2018-02-28T10:10:49Z</time>
      </trkpt>
      <trkpt lat="45.98398" lon="4.79114">
        <ele>242</ele>
        <time>2018-02-28T10:10:51Z</time>
      </trkpt>
      <trkpt lat="45.984" lon="4.79118">
        <ele>242</ele>
        <time>2018-02-28T10:10:52Z</time>
      </trkpt>
      <trkpt lat="45.98405" lon="4.79127">
        <ele>242</ele>
        <time>2018-02-28T10:10:54Z</time>
      </trkpt>
      <trkpt lat="45.98408" lon="4.79132">
        <ele>242</ele>
        <time>2018-02-28T10:10:55Z</time>
      </trkpt>
      <trkpt lat="45.98413" lon="4.79141">
        <ele>242</ele>
        <time>2018-02-28T10:10:57Z</time>
      </trkpt>
      <trkpt lat="45.98416" lon="4.79146">
        <ele>242</ele>
        <time>2018-02-28T10:10:58Z</time>
      </trkpt>
      <trkpt lat="45.98421" lon="4.79156">
        <ele>242</ele>
        <time>2018-02-28T10:11:00Z</time>
      </trkpt>
      <trkpt lat="45.98423" lon="4.79161">
        <ele>242</ele>
        <time>2018-02-28T10:11:01Z</time>
      </trkpt>
      <trkpt lat="45.98428" lon="4.7917">
        <ele>242</ele>
        <time>2018-02-28T10:11:03Z</time>
      </trkpt>
      <trkpt lat="45.98431" lon="4.79174">
        <ele>242</ele>
        <time>2018-02-28T10:11:04Z</time>
      </trkpt>
      <trkpt lat="45.98436" lon="4.79183">
        <ele>242</ele>
        <time>2018-02-28T10:11:06Z</time>
      </trkpt>
      <trkpt lat="45.98438" lon="4.79187">
        <ele>242</ele>
        <time>2018-02-28T10:11:07Z</time>
      </trkpt>
      <trkpt lat="45.98443" lon="4.79196">
        <ele>242</ele>
        <time>2018-02-28T10:11:09Z</time>
      </trkpt>
      <trkpt lat="45.98446" lon="4.792">
        <ele>242</ele>
        <time>2018-02-28T10:11:10Z</time>
      </trkpt>
      <trkpt lat="45.98451" lon="4.7921">
        <ele>242</ele>
        <time>2018-02-28T10:11:12Z</time>
      </trkpt>
      <trkpt lat="45.98454" lon="4.79216">
        <ele>243</ele>
        <time>2018-02-28T10:11:13Z</time>
      </trkpt>
      <trkpt lat="45.98458" lon="4.79226">
        <ele>243</ele>
        <time>2018-02-28T10:11:15Z</time>
      </trkpt>
      <trkpt lat="45.98461" lon="4.79232">
        <ele>243</ele>
        <time>2018-02-28T10:11:16Z</time>
      </trkpt>
      <trkpt lat="45.98465" lon="4.79241">
        <ele>243</ele>
        <time>2018-02-28T10:11:18Z</time>
      </trkpt>
      <trkpt lat="45.98468" lon="4.79246">
        <ele>243</ele>
        <time>2018-02-28T10:11:19Z</time>
      </trkpt>
      <trkpt lat="45.98472" lon="4.79256">
        <ele>243</ele>
        <time>2018-02-28T10:11:21Z</time>
      </trkpt>
      <trkpt lat="45.98475" lon="4.7926">
        <ele>243</ele>
        <time>2018-02-28T10:11:22Z</time>
      </trkpt>
      <trkpt lat="45.9848" lon="4.79269">
        <ele>243</ele>
        <time>2018-02-28T10:11:24Z</time>
      </trkpt>
      <trkpt lat="45.98482" lon="4.79274">
        <ele>243</ele>
        <time>2018-02-28T10:11:25Z</time>
      </trkpt>
      <trkpt lat="45.98486" lon="4.79283">
        <ele>243</ele>
        <time>2018-02-28T10:11:27Z</time>
      </trkpt>
      <trkpt lat="45.98489" lon="4.79288">
        <ele>243</ele>
        <time>2018-02-28T10:11:28Z</time>
      </trkpt>
      <trkpt lat="45.98493" lon="4.79296">
        <ele>243</ele>
        <time>2018-02-28T10:11:30Z</time>
      </trkpt>
      <trkpt lat="45.98494" lon="4.79299">
        <ele>243</ele>
        <time>2018-02-28T10:11:31Z</time>
      </trkpt>
      <trkpt lat="45.98498" lon="4.79307">
        <ele>243</ele>
        <time>2018-02-28T10:11:34Z</time>
      </trkpt>
      <trkpt lat="45.985" lon="4.79311">
        <ele>243</ele>
        <time>2018-02-28T10:11:35Z</time>
      </trkpt>
      <trkpt lat="45.98503" lon="4.79318">
        <ele>243</ele>
        <time>2018-02-28T10:11:37Z</time>
      </trkpt>
      <trkpt lat="45.98506" lon="4.7933">
        <ele>243</ele>
        <time>2018-02-28T10:11:38Z</time>
      </trkpt>
      <trkpt lat="45.98509" lon="4.79341">
        <ele>243</ele>
        <time>2018-02-28T10:11:40Z</time>
      </trkpt>
      <trkpt lat="45.9851" lon="4.79346">
        <ele>243</ele>
        <time>2018-02-28T10:11:41Z</time>
      </trkpt>
      <trkpt lat="45.98512" lon="4.79357">
        <ele>243</ele>
        <time>2018-02-28T10:11:43Z</time>
      </trkpt>
      <trkpt lat="45.98514" lon="4.79362">
        <ele>243</ele>
        <time>2018-02-28T10:11:44Z</time>
      </trkpt>
      <trkpt lat="45.98516" lon="4.79374">
        <ele>243</ele>
        <time>2018-02-28T10:11:46Z</time>
      </trkpt>
      <trkpt lat="45.98516" lon="4.79379">
        <ele>244</ele>
        <time>2018-02-28T10:11:47Z</time>
      </trkpt>
      <trkpt lat="45.98518" lon="4.7939">
        <ele>244</ele>
        <time>2018-02-28T10:11:50Z</time>
      </trkpt>
      <trkpt lat="45.98519" lon="4.79394">
        <ele>244</ele>
        <time>2018-02-28T10:11:51Z</time>
      </trkpt>
      <trkpt lat="45.9852" lon="4.79404">
        <ele>244</ele>
        <time>2018-02-28T10:11:52Z</time>
      </trkpt>
      <trkpt lat="45.98521" lon="4.79409">
        <ele>244</ele>
        <time>2018-02-28T10:11:53Z</time>
      </trkpt>
      <trkpt lat="45.98521" lon="4.7942">
        <ele>244</ele>
        <time>2018-02-28T10:11:55Z</time>
      </trkpt>
      <trkpt lat="45.98522" lon="4.79426">
        <ele>244</ele>
        <time>2018-02-28T10:11:56Z</time>
      </trkpt>
      <trkpt lat="45.98523" lon="4.79437">
        <ele>244</ele>
        <time>2018-02-28T10:11:58Z</time>
      </trkpt>
      <trkpt lat="45.98523" lon="4.79442">
        <ele>244</ele>
        <time>2018-02-28T10:11:59Z</time>
      </trkpt>
      <trkpt lat="45.98523" lon="4.79448">
        <ele>244</ele>
        <time>2018-02-28T10:12:01Z</time>
      </trkpt>
      <trkpt lat="45.98524" lon="4.79457">
        <ele>244</ele>
        <time>2018-02-28T10:12:02Z</time>
      </trkpt>
      <trkpt lat="45.98524" lon="4.79468">
        <ele>244</ele>
        <time>2018-02-28T10:12:04Z</time>
      </trkpt>
      <trkpt lat="45.98524" lon="4.79473">
        <ele>244</ele>
        <time>2018-02-28T10:12:05Z</time>
      </trkpt>
      <trkpt lat="45.98524" lon="4.79485">
        <ele>244</ele>
        <time>2018-02-28T10:12:07Z</time>
      </trkpt>
      <trkpt lat="45.98525" lon="4.79492">
        <ele>244</ele>
        <time>2018-02-28T10:12:08Z</time>
      </trkpt>
      <trkpt lat="45.98526" lon="4.79498">
        <ele>244</ele>
        <time>2018-02-28T10:12:09Z</time>
      </trkpt>
      <trkpt lat="45.98527" lon="4.79505">
        <ele>244</ele>
        <time>2018-02-28T10:12:10Z</time>
      </trkpt>
      <trkpt lat="45.98528" lon="4.79512">
        <ele>244</ele>
        <time>2018-02-28T10:12:11Z</time>
      </trkpt>
      <trkpt lat="45.9853" lon="4.79518">
        <ele>244</ele>
        <time>2018-02-28T10:12:12Z</time>
      </trkpt>
      <trkpt lat="45.98534" lon="4.79528">
        <ele>244</ele>
        <time>2018-02-28T10:12:14Z</time>
      </trkpt>
      <trkpt lat="45.98536" lon="4.79534">
        <ele>244</ele>
        <time>2018-02-28T10:12:15Z</time>
      </trkpt>
      <trkpt lat="45.9854" lon="4.79543">
        <ele>244</ele>
        <time>2018-02-28T10:12:17Z</time>
      </trkpt>
      <trkpt lat="45.98543" lon="4.79548">
        <ele>244</ele>
        <time>2018-02-28T10:12:18Z</time>
      </trkpt>
      <trkpt lat="45.98549" lon="4.79557">
        <ele>244</ele>
        <time>2018-02-28T10:12:20Z</time>
      </trkpt>
      <trkpt lat="45.98552" lon="4.79561">
        <ele>244</ele>
        <time>2018-02-28T10:12:21Z</time>
      </trkpt>
      <trkpt lat="45.98559" lon="4.79569">
        <ele>244</ele>
        <time>2018-02-28T10:12:23Z</time>
      </trkpt>
      <trkpt lat="45.98562" lon="4.79573">
        <ele>244</ele>
        <time>2018-02-28T10:12:24Z</time>
      </trkpt>
      <trkpt lat="45.98568" lon="4.79581">
        <ele>245</ele>
        <time>2018-02-28T10:12:26Z</time>
      </trkpt>
      <trkpt lat="45.98572" lon="4.79584">
        <ele>245</ele>
        <time>2018-02-28T10:12:27Z</time>
      </trkpt>
      <trkpt lat="45.98579" lon="4.79591">
        <ele>245</ele>
        <time>2018-02-28T10:12:29Z</time>
      </trkpt>
      <trkpt lat="45.98582" lon="4.79593">
        <ele>245</ele>
        <time>2018-02-28T10:12:30Z</time>
      </trkpt>
      <trkpt lat="45.98588" lon="4.79599">
        <ele>245</ele>
        <time>2018-02-28T10:12:33Z</time>
      </trkpt>
      <trkpt lat="45.98589" lon="4.79601">
        <ele>245</ele>
        <time>2018-02-28T10:12:34Z</time>
      </trkpt>
      <trkpt lat="45.98593" lon="4.79608">
        <ele>245</ele>
        <time>2018-02-28T10:12:36Z</time>
      </trkpt>
      <trkpt lat="45.98598" lon="4.79619">
        <ele>245</ele>
        <time>2018-02-28T10:12:37Z</time>
      </trkpt>
      <trkpt lat="45.98602" lon="4.79629">
        <ele>245</ele>
        <time>2018-02-28T10:12:39Z</time>
      </trkpt>
      <trkpt lat="45.98606" lon="4.79633">
        <ele>245</ele>
        <time>2018-02-28T10:12:40Z</time>
      </trkpt>
      <trkpt lat="45.98613" lon="4.79637">
        <ele>245</ele>
        <time>2018-02-28T10:12:42Z</time>
      </trkpt>
      <trkpt lat="45.98617" lon="4.79639">
        <ele>245</ele>
        <time>2018-02-28T10:12:43Z</time>
      </trkpt>
      <trkpt lat="45.98625" lon="4.79642">
        <ele>245</ele>
        <time>2018-02-28T10:12:45Z</time>
      </trkpt>
      <trkpt lat="45.98628" lon="4.79645">
        <ele>245</ele>
        <time>2018-02-28T10:12:46Z</time>
      </trkpt>
      <trkpt lat="45.98634" lon="4.79653">
        <ele>245</ele>
        <time>2018-02-28T10:12:48Z</time>
      </trkpt>
      <trkpt lat="45.98637" lon="4.79657">
        <ele>245</ele>
        <time>2018-02-28T10:12:49Z</time>
      </trkpt>
      <trkpt lat="45.98642" lon="4.79667">
        <ele>245</ele>
        <time>2018-02-28T10:12:51Z</time>
      </trkpt>
      <trkpt lat="45.98644" lon="4.79672">
        <ele>245</ele>
        <time>2018-02-28T10:12:52Z</time>
      </trkpt>
      <trkpt lat="45.98649" lon="4.79682">
        <ele>245</ele>
        <time>2018-02-28T10:12:54Z</time>
      </trkpt>
      <trkpt lat="45.98651" lon="4.79686">
        <ele>245</ele>
        <time>2018-02-28T10:12:55Z</time>
      </trkpt>
      <trkpt lat="45.98654" lon="4.7969">
        <ele>245</ele>
        <time>2018-02-28T10:12:57Z</time>
      </trkpt>
      <trkpt lat="45.98659" lon="4.79696">
        <ele>245</ele>
        <time>2018-02-28T10:12:58Z</time>
      </trkpt>
      <trkpt lat="45.98665" lon="4.79703">
        <ele>245</ele>
        <time>2018-02-28T10:13:00Z</time>
      </trkpt>
      <trkpt lat="45.98668" lon="4.79706">
        <ele>245</ele>
        <time>2018-02-28T10:13:01Z</time>
      </trkpt>
      <trkpt lat="45.98675" lon="4.79712">
        <ele>245</ele>
        <time>2018-02-28T10:13:03Z</time>
      </trkpt>
      <trkpt lat="45.98678" lon="4.79714">
        <ele>245</ele>
        <time>2018-02-28T10:13:04Z</time>
      </trkpt>
      <trkpt lat="45.98686" lon="4.79719">
        <ele>245</ele>
        <time>2018-02-28T10:13:06Z</time>
      </trkpt>
      <trkpt lat="45.9869" lon="4.79721">
        <ele>245</ele>
        <time>2018-02-28T10:13:07Z</time>
      </trkpt>
      <trkpt lat="45.98697" lon="4.79725">
        <ele>245</ele>
        <time>2018-02-28T10:13:09Z</time>
      </trkpt>
      <trkpt lat="45.98701" lon="4.79727">
        <ele>245</ele>
        <time>2018-02-28T10:13:10Z</time>
      </trkpt>
      <trkpt lat="45.98707" lon="4.79729">
        <ele>245</ele>
        <time>2018-02-28T10:13:12Z</time>
      </trkpt>
      <trkpt lat="45.98712" lon="4.79732">
        <ele>245</ele>
        <time>2018-02-28T10:13:13Z</time>
      </trkpt>
      <trkpt lat="45.98719" lon="4.79736">
        <ele>245</ele>
        <time>2018-02-28T10:13:15Z</time>
      </trkpt>
      <trkpt lat="45.98723" lon="4.79738">
        <ele>245</ele>
        <time>2018-02-28T10:13:16Z</time>
      </trkpt>
      <trkpt lat="45.98729" lon="4.79742">
        <ele>245</ele>
        <time>2018-02-28T10:13:18Z</time>
      </trkpt>
      <trkpt lat="45.98733" lon="4.79745">
        <ele>245</ele>
        <time>2018-02-28T10:13:19Z</time>
      </trkpt>
      <trkpt lat="45.9874" lon="4.7975">
        <ele>245</ele>
        <time>2018-02-28T10:13:21Z</time>
      </trkpt>
      <trkpt lat="45.98743" lon="4.79752">
        <ele>245</ele>
        <time>2018-02-28T10:13:22Z</time>
      </trkpt>
      <trkpt lat="45.9875" lon="4.79758">
        <ele>245</ele>
        <time>2018-02-28T10:13:24Z</time>
      </trkpt>
      <trkpt lat="45.98754" lon="4.79761">
        <ele>245</ele>
        <time>2018-02-28T10:13:25Z</time>
      </trkpt>
      <trkpt lat="45.98758" lon="4.79765">
        <ele>245</ele>
        <time>2018-02-28T10:13:26Z</time>
      </trkpt>
      <trkpt lat="45.98762" lon="4.79768">
        <ele>245</ele>
        <time>2018-02-28T10:13:27Z</time>
      </trkpt>
      <trkpt lat="45.98766" lon="4.79772">
        <ele>245</ele>
        <time>2018-02-28T10:13:28Z</time>
      </trkpt>
      <trkpt lat="45.9877" lon="4.79776">
        <ele>245</ele>
        <time>2018-02-28T10:13:29Z</time>
      </trkpt>
      <trkpt lat="45.98776" lon="4.79783">
        <ele>245</ele>
        <time>2018-02-28T10:13:31Z</time>
      </trkpt>
      <trkpt lat="45.9878" lon="4.79787">
        <ele>245</ele>
        <time>2018-02-28T10:13:32Z</time>
      </trkpt>
      <trkpt lat="45.98787" lon="4.79794">
        <ele>245</ele>
        <time>2018-02-28T10:13:34Z</time>
      </trkpt>
      <trkpt lat="45.9879" lon="4.79798">
        <ele>245</ele>
        <time>2018-02-28T10:13:35Z</time>
      </trkpt>
      <trkpt lat="45.98794" lon="4.79801">
        <ele>245</ele>
        <time>2018-02-28T10:13:36Z</time>
      </trkpt>
      <trkpt lat="45.98798" lon="4.79805">
        <ele>245</ele>
        <time>2018-02-28T10:13:37Z</time>
      </trkpt>
      <trkpt lat="45.98801" lon="4.79809">
        <ele>245</ele>
        <time>2018-02-28T10:13:38Z</time>
      </trkpt>
      <trkpt lat="45.98806" lon="4.79813">
        <ele>245</ele>
        <time>2018-02-28T10:13:39Z</time>
      </trkpt>
      <trkpt lat="45.98812" lon="4.79822">
        <ele>245</ele>
        <time>2018-02-28T10:13:41Z</time>
      </trkpt>
      <trkpt lat="45.98816" lon="4.79827">
        <ele>245</ele>
        <time>2018-02-28T10:13:42Z</time>
      </trkpt>
      <trkpt lat="45.9882" lon="4.79831">
        <ele>244</ele>
        <time>2018-02-28T10:13:43Z</time>
      </trkpt>
      <trkpt lat="45.98824" lon="4.79836">
        <ele>244</ele>
        <time>2018-02-28T10:13:44Z</time>
      </trkpt>
      <trkpt lat="45.98827" lon="4.7984">
        <ele>244</ele>
        <time>2018-02-28T10:13:45Z</time>
      </trkpt>
      <trkpt lat="45.98831" lon="4.79845">
        <ele>244</ele>
        <time>2018-02-28T10:13:46Z</time>
      </trkpt>
      <trkpt lat="45.98834" lon="4.79851">
        <ele>244</ele>
        <time>2018-02-28T10:13:47Z</time>
      </trkpt>
      <trkpt lat="45.98838" lon="4.79855">
        <ele>244</ele>
        <time>2018-02-28T10:13:48Z</time>
      </trkpt>
      <trkpt lat="45.98842" lon="4.79859">
        <ele>244</ele>
        <time>2018-02-28T10:13:49Z</time>
      </trkpt>
      <trkpt lat="45.98846" lon="4.79865">
        <ele>244</ele>
        <time>2018-02-28T10:13:50Z</time>
      </trkpt>
      <trkpt lat="45.98851" lon="4.79869">
        <ele>244</ele>
        <time>2018-02-28T10:13:51Z</time>
      </trkpt>
      <trkpt lat="45.98855" lon="4.79873">
        <ele>243</ele>
        <time>2018-02-28T10:13:52Z</time>
      </trkpt>
      <trkpt lat="45.9886" lon="4.79878">
        <ele>243</ele>
        <time>2018-02-28T10:13:53Z</time>
      </trkpt>
      <trkpt lat="45.98864" lon="4.79883">
        <ele>243</ele>
        <time>2018-02-28T10:13:54Z</time>
      </trkpt>
      <trkpt lat="45.98868" lon="4.79887">
        <ele>244</ele>
        <time>2018-02-28T10:13:55Z</time>
      </trkpt>
      <trkpt lat="45.98872" lon="4.79891">
        <ele>244</ele>
        <time>2018-02-28T10:13:56Z</time>
      </trkpt>
      <trkpt lat="45.98876" lon="4.79896">
        <ele>244</ele>
        <time>2018-02-28T10:13:57Z</time>
      </trkpt>
      <trkpt lat="45.98879" lon="4.799">
        <ele>244</ele>
        <time>2018-02-28T10:13:58Z</time>
      </trkpt>
      <trkpt lat="45.98883" lon="4.79904">
        <ele>244</ele>
        <time>2018-02-28T10:13:59Z</time>
      </trkpt>
      <trkpt lat="45.98887" lon="4.79907">
        <ele>244</ele>
        <time>2018-02-28T10:14:00Z</time>
      </trkpt>
      <trkpt lat="45.98891" lon="4.79912">
        <ele>244</ele>
        <time>2018-02-28T10:14:01Z</time>
      </trkpt>
      <trkpt lat="45.98894" lon="4.79916">
        <ele>244</ele>
        <time>2018-02-28T10:14:02Z</time>
      </trkpt>
      <trkpt lat="45.98898" lon="4.7992">
        <ele>244</ele>
        <time>2018-02-28T10:14:03Z</time>
      </trkpt>
      <trkpt lat="45.98902" lon="4.79925">
        <ele>244</ele>
        <time>2018-02-28T10:14:04Z</time>
      </trkpt>
      <trkpt lat="45.98905" lon="4.79929">
        <ele>244</ele>
        <time>2018-02-28T10:14:05Z</time>
      </trkpt>
      <trkpt lat="45.98909" lon="4.79934">
        <ele>244</ele>
        <time>2018-02-28T10:14:06Z</time>
      </trkpt>
      <trkpt lat="45.98913" lon="4.79938">
        <ele>244</ele>
        <time>2018-02-28T10:14:07Z</time>
      </trkpt>
      <trkpt lat="45.98917" lon="4.79944">
        <ele>245</ele>
        <time>2018-02-28T10:14:08Z</time>
      </trkpt>
      <trkpt lat="45.98921" lon="4.79949">
        <ele>245</ele>
        <time>2018-02-28T10:14:09Z</time>
      </trkpt>
      <trkpt lat="45.98925" lon="4.79953">
        <ele>245</ele>
        <time>2018-02-28T10:14:10Z</time>
      </trkpt>
      <trkpt lat="45.98932" lon="4.7996">
        <ele>245</ele>
        <time>2018-02-28T10:14:12Z</time>
      </trkpt>
      <trkpt lat="45.98936" lon="4.79964">
        <ele>245</ele>
        <time>2018-02-28T10:14:13Z</time>
      </trkpt>
      <trkpt lat="45.98939" lon="4.79969">
        <ele>245</ele>
        <time>2018-02-28T10:14:14Z</time>
      </trkpt>
      <trkpt lat="45.98943" lon="4.79973">
        <ele>245</ele>
        <time>2018-02-28T10:14:15Z</time>
      </trkpt>
      <trkpt lat="45.98947" lon="4.79978">
        <ele>245</ele>
        <time>2018-02-28T10:14:16Z</time>
      </trkpt>
      <trkpt lat="45.98951" lon="4.79983">
        <ele>245</ele>
        <time>2018-02-28T10:14:17Z</time>
      </trkpt>
      <trkpt lat="45.98955" lon="4.79987">
        <ele>245</ele>
        <time>2018-02-28T10:14:18Z</time>
      </trkpt>
      <trkpt lat="45.98958" lon="4.79992">
        <ele>245</ele>
        <time>2018-02-28T10:14:19Z</time>
      </trkpt>
      <trkpt lat="45.98963" lon="4.79998">
        <ele>245</ele>
        <time>2018-02-28T10:14:20Z</time>
      </trkpt>
      <trkpt lat="45.98966" lon="4.80003">
        <ele>242</ele>
        <time>2018-02-28T10:14:21Z</time>
      </trkpt>
      <trkpt lat="45.98973" lon="4.80011">
        <ele>243</ele>
        <time>2018-02-28T10:14:23Z</time>
      </trkpt>
      <trkpt lat="45.98977" lon="4.80015">
        <ele>243</ele>
        <time>2018-02-28T10:14:24Z</time>
      </trkpt>
      <trkpt lat="45.98984" lon="4.80024">
        <ele>243</ele>
        <time>2018-02-28T10:14:26Z</time>
      </trkpt>
      <trkpt lat="45.98987" lon="4.80027">
        <ele>243</ele>
        <time>2018-02-28T10:14:27Z</time>
      </trkpt>
      <trkpt lat="45.9899" lon="4.80031">
        <ele>242</ele>
        <time>2018-02-28T10:14:28Z</time>
      </trkpt>
      <trkpt lat="45.98994" lon="4.80035">
        <ele>242</ele>
        <time>2018-02-28T10:14:29Z</time>
      </trkpt>
      <trkpt lat="45.98998" lon="4.8004">
        <ele>242</ele>
        <time>2018-02-28T10:14:30Z</time>
      </trkpt>
      <trkpt lat="45.99002" lon="4.80045">
        <ele>244</ele>
        <time>2018-02-28T10:14:31Z</time>
      </trkpt>
      <trkpt lat="45.99006" lon="4.8005">
        <ele>243</ele>
        <time>2018-02-28T10:14:32Z</time>
      </trkpt>
      <trkpt lat="45.99009" lon="4.80055">
        <ele>243</ele>
        <time>2018-02-28T10:14:33Z</time>
      </trkpt>
      <trkpt lat="45.99017" lon="4.80063">
        <ele>243</ele>
        <time>2018-02-28T10:14:35Z</time>
      </trkpt>
      <trkpt lat="45.9902" lon="4.80067">
        <ele>243</ele>
        <time>2018-02-28T10:14:36Z</time>
      </trkpt>
      <trkpt lat="45.99024" lon="4.80071">
        <ele>243</ele>
        <time>2018-02-28T10:14:37Z</time>
      </trkpt>
      <trkpt lat="45.99028" lon="4.80075">
        <ele>243</ele>
        <time>2018-02-28T10:14:38Z</time>
      </trkpt>
      <trkpt lat="45.99032" lon="4.80079">
        <ele>243</ele>
        <time>2018-02-28T10:14:39Z</time>
      </trkpt>
      <trkpt lat="45.99036" lon="4.80083">
        <ele>243</ele>
        <time>2018-02-28T10:14:40Z</time>
      </trkpt>
      <trkpt lat="45.9904" lon="4.80088">
        <ele>242</ele>
        <time>2018-02-28T10:14:41Z</time>
      </trkpt>
      <trkpt lat="45.99043" lon="4.80092">
        <ele>242</ele>
        <time>2018-02-28T10:14:42Z</time>
      </trkpt>
      <trkpt lat="45.99047" lon="4.80097">
        <ele>242</ele>
        <time>2018-02-28T10:14:43Z</time>
      </trkpt>
      <trkpt lat="45.9905" lon="4.80101">
        <ele>242</ele>
        <time>2018-02-28T10:14:44Z</time>
      </trkpt>
      <trkpt lat="45.99054" lon="4.80106">
        <ele>242</ele>
        <time>2018-02-28T10:14:45Z</time>
      </trkpt>
      <trkpt lat="45.99058" lon="4.8011">
        <ele>242</ele>
        <time>2018-02-28T10:14:46Z</time>
      </trkpt>
      <trkpt lat="45.99062" lon="4.80114">
        <ele>242</ele>
        <time>2018-02-28T10:14:47Z</time>
      </trkpt>
      <trkpt lat="45.99067" lon="4.80119">
        <ele>242</ele>
        <time>2018-02-28T10:14:48Z</time>
      </trkpt>
      <trkpt lat="45.99071" lon="4.80123">
        <ele>242</ele>
        <time>2018-02-28T10:14:49Z</time>
      </trkpt>
      <trkpt lat="45.99074" lon="4.80128">
        <ele>242</ele>
        <time>2018-02-28T10:14:50Z</time>
      </trkpt>
      <trkpt lat="45.99078" lon="4.80133">
        <ele>242</ele>
        <time>2018-02-28T10:14:51Z</time>
      </trkpt>
      <trkpt lat="45.99082" lon="4.80136">
        <ele>242</ele>
        <time>2018-02-28T10:14:52Z</time>
      </trkpt>
      <trkpt lat="45.99086" lon="4.80141">
        <ele>243</ele>
        <time>2018-02-28T10:14:53Z</time>
      </trkpt>
      <trkpt lat="45.9909" lon="4.80145">
        <ele>243</ele>
        <time>2018-02-28T10:14:54Z</time>
      </trkpt>
      <trkpt lat="45.99093" lon="4.8015">
        <ele>243</ele>
        <time>2018-02-28T10:14:55Z</time>
      </trkpt>
      <trkpt lat="45.99097" lon="4.80154">
        <ele>243</ele>
        <time>2018-02-28T10:14:56Z</time>
      </trkpt>
      <trkpt lat="45.99101" lon="4.80158">
        <ele>243</ele>
        <time>2018-02-28T10:14:57Z</time>
      </trkpt>
      <trkpt lat="45.99105" lon="4.80162">
        <ele>243</ele>
        <time>2018-02-28T10:14:58Z</time>
      </trkpt>
      <trkpt lat="45.99111" lon="4.8017">
        <ele>242</ele>
        <time>2018-02-28T10:15:00Z</time>
      </trkpt>
      <trkpt lat="45.99114" lon="4.80173">
        <ele>242</ele>
        <time>2018-02-28T10:15:01Z</time>
      </trkpt>
      <trkpt lat="45.9912" lon="4.80182">
        <ele>242</ele>
        <time>2018-02-28T10:15:03Z</time>
      </trkpt>
      <trkpt lat="45.99124" lon="4.80185">
        <ele>242</ele>
        <time>2018-02-28T10:15:04Z</time>
      </trkpt>
      <trkpt lat="45.99131" lon="4.80193">
        <ele>242</ele>
        <time>2018-02-28T10:15:06Z</time>
      </trkpt>
      <trkpt lat="45.99134" lon="4.80197">
        <ele>242</ele>
        <time>2018-02-28T10:15:07Z</time>
      </trkpt>
      <trkpt lat="45.9914" lon="4.80205">
        <ele>242</ele>
        <time>2018-02-28T10:15:09Z</time>
      </trkpt>
      <trkpt lat="45.99144" lon="4.80209">
        <ele>242</ele>
        <time>2018-02-28T10:15:10Z</time>
      </trkpt>
      <trkpt lat="45.99147" lon="4.80213">
        <ele>242</ele>
        <time>2018-02-28T10:15:11Z</time>
      </trkpt>
      <trkpt lat="45.99152" lon="4.80218">
        <ele>242</ele>
        <time>2018-02-28T10:15:12Z</time>
      </trkpt>
      <trkpt lat="45.99156" lon="4.80222">
        <ele>241</ele>
        <time>2018-02-28T10:15:13Z</time>
      </trkpt>
      <trkpt lat="45.99159" lon="4.80226">
        <ele>241</ele>
        <time>2018-02-28T10:15:14Z</time>
      </trkpt>
      <trkpt lat="45.99163" lon="4.80231">
        <ele>241</ele>
        <time>2018-02-28T10:15:15Z</time>
      </trkpt>
      <trkpt lat="45.99167" lon="4.80235">
        <ele>242</ele>
        <time>2018-02-28T10:15:16Z</time>
      </trkpt>
      <trkpt lat="45.9917" lon="4.80239">
        <ele>242</ele>
        <time>2018-02-28T10:15:17Z</time>
      </trkpt>
      <trkpt lat="45.99174" lon="4.80243">
        <ele>242</ele>
        <time>2018-02-28T10:15:18Z</time>
      </trkpt>
      <trkpt lat="45.99178" lon="4.80247">
        <ele>242</ele>
        <time>2018-02-28T10:15:19Z</time>
      </trkpt>
      <trkpt lat="45.99181" lon="4.80251">
        <ele>242</ele>
        <time>2018-02-28T10:15:20Z</time>
      </trkpt>
      <trkpt lat="45.99185" lon="4.80256">
        <ele>242</ele>
        <time>2018-02-28T10:15:21Z</time>
      </trkpt>
      <trkpt lat="45.99188" lon="4.8026">
        <ele>242</ele>
        <time>2018-02-28T10:15:22Z</time>
      </trkpt>
      <trkpt lat="45.99191" lon="4.80266">
        <ele>242</ele>
        <time>2018-02-28T10:15:23Z</time>
      </trkpt>
      <trkpt lat="45.99194" lon="4.80271">
        <ele>242</ele>
        <time>2018-02-28T10:15:24Z</time>
      </trkpt>
      <trkpt lat="45.992" lon="4.8028">
        <ele>242</ele>
        <time>2018-02-28T10:15:26Z</time>
      </trkpt>
      <trkpt lat="45.99204" lon="4.80283">
        <ele>242</ele>
        <time>2018-02-28T10:15:27Z</time>
      </trkpt>
      <trkpt lat="45.99208" lon="4.80288">
        <ele>242</ele>
        <time>2018-02-28T10:15:28Z</time>
      </trkpt>
      <trkpt lat="45.99211" lon="4.80293">
        <ele>242</ele>
        <time>2018-02-28T10:15:29Z</time>
      </trkpt>
      <trkpt lat="45.99215" lon="4.80298">
        <ele>242</ele>
        <time>2018-02-28T10:15:30Z</time>
      </trkpt>
      <trkpt lat="45.99218" lon="4.80303">
        <ele>242</ele>
        <time>2018-02-28T10:15:31Z</time>
      </trkpt>
      <trkpt lat="45.99221" lon="4.80309">
        <ele>242</ele>
        <time>2018-02-28T10:15:32Z</time>
      </trkpt>
      <trkpt lat="45.99224" lon="4.80314">
        <ele>242</ele>
        <time>2018-02-28T10:15:33Z</time>
      </trkpt>
      <trkpt lat="45.99228" lon="4.8032">
        <ele>242</ele>
        <time>2018-02-28T10:15:34Z</time>
      </trkpt>
      <trkpt lat="45.99232" lon="4.80325">
        <ele>243</ele>
        <time>2018-02-28T10:15:35Z</time>
      </trkpt>
      <trkpt lat="45.99235" lon="4.8033">
        <ele>243</ele>
        <time>2018-02-28T10:15:36Z</time>
      </trkpt>
      <trkpt lat="45.99238" lon="4.80335">
        <ele>242</ele>
        <time>2018-02-28T10:15:37Z</time>
      </trkpt>
      <trkpt lat="45.99242" lon="4.80345">
        <ele>242</ele>
        <time>2018-02-28T10:15:39Z</time>
      </trkpt>
      <trkpt lat="45.99244" lon="4.80349">
        <ele>242</ele>
        <time>2018-02-28T10:15:40Z</time>
      </trkpt>
      <trkpt lat="45.99248" lon="4.80355">
        <ele>242</ele>
        <time>2018-02-28T10:15:41Z</time>
      </trkpt>
      <trkpt lat="45.99251" lon="4.80361">
        <ele>243</ele>
        <time>2018-02-28T10:15:42Z</time>
      </trkpt>
      <trkpt lat="45.99254" lon="4.80366">
        <ele>243</ele>
        <time>2018-02-28T10:15:43Z</time>
      </trkpt>
      <trkpt lat="45.99257" lon="4.80372">
        <ele>243</ele>
        <time>2018-02-28T10:15:44Z</time>
      </trkpt>
      <trkpt lat="45.99264" lon="4.80379">
        <ele>242</ele>
        <time>2018-02-28T10:15:46Z</time>
      </trkpt>
      <trkpt lat="45.99268" lon="4.80383">
        <ele>242</ele>
        <time>2018-02-28T10:15:47Z</time>
      </trkpt>
      <trkpt lat="45.99276" lon="4.8039">
        <ele>242</ele>
        <time>2018-02-28T10:15:49Z</time>
      </trkpt>
      <trkpt lat="45.99279" lon="4.80393">
        <ele>242</ele>
        <time>2018-02-28T10:15:50Z</time>
      </trkpt>
      <trkpt lat="45.99286" lon="4.804">
        <ele>242</ele>
        <time>2018-02-28T10:15:52Z</time>
      </trkpt>
      <trkpt lat="45.99289" lon="4.80404">
        <ele>242</ele>
        <time>2018-02-28T10:15:53Z</time>
      </trkpt>
      <trkpt lat="45.99294" lon="4.80414">
        <ele>242</ele>
        <time>2018-02-28T10:15:55Z</time>
      </trkpt>
      <trkpt lat="45.99297" lon="4.80419">
        <ele>241</ele>
        <time>2018-02-28T10:15:56Z</time>
      </trkpt>
      <trkpt lat="45.993" lon="4.80425">
        <ele>241</ele>
        <time>2018-02-28T10:15:57Z</time>
      </trkpt>
      <trkpt lat="45.99302" lon="4.8043">
        <ele>241</ele>
        <time>2018-02-28T10:15:58Z</time>
      </trkpt>
      <trkpt lat="45.99305" lon="4.80442">
        <ele>241</ele>
        <time>2018-02-28T10:16:00Z</time>
      </trkpt>
      <trkpt lat="45.99306" lon="4.80449">
        <ele>241</ele>
        <time>2018-02-28T10:16:01Z</time>
      </trkpt>
      <trkpt lat="45.99306" lon="4.80456">
        <ele>241</ele>
        <time>2018-02-28T10:16:02Z</time>
      </trkpt>
      <trkpt lat="45.99308" lon="4.80462">
        <ele>241</ele>
        <time>2018-02-28T10:16:03Z</time>
      </trkpt>
      <trkpt lat="45.9931" lon="4.80469">
        <ele>241</ele>
        <time>2018-02-28T10:16:04Z</time>
      </trkpt>
      <trkpt lat="45.9931" lon="4.80476">
        <ele>241</ele>
        <time>2018-02-28T10:16:05Z</time>
      </trkpt>
      <trkpt lat="45.99311" lon="4.80482">
        <ele>241</ele>
        <time>2018-02-28T10:16:06Z</time>
      </trkpt>
      <trkpt lat="45.99312" lon="4.8049">
        <ele>241</ele>
        <time>2018-02-28T10:16:07Z</time>
      </trkpt>
      <trkpt lat="45.99313" lon="4.80496">
        <ele>241</ele>
        <time>2018-02-28T10:16:08Z</time>
      </trkpt>
      <trkpt lat="45.99314" lon="4.80503">
        <ele>241</ele>
        <time>2018-02-28T10:16:09Z</time>
      </trkpt>
      <trkpt lat="45.99316" lon="4.80509">
        <ele>241</ele>
        <time>2018-02-28T10:16:10Z</time>
      </trkpt>
      <trkpt lat="45.99316" lon="4.80516">
        <ele>241</ele>
        <time>2018-02-28T10:16:11Z</time>
      </trkpt>
      <trkpt lat="45.99317" lon="4.80522">
        <ele>241</ele>
        <time>2018-02-28T10:16:12Z</time>
      </trkpt>
      <trkpt lat="45.99318" lon="4.80529">
        <ele>241</ele>
        <time>2018-02-28T10:16:13Z</time>
      </trkpt>
      <trkpt lat="45.99318" lon="4.80535">
        <ele>241</ele>
        <time>2018-02-28T10:16:14Z</time>
      </trkpt>
      <trkpt lat="45.99319" lon="4.80542">
        <ele>241</ele>
        <time>2018-02-28T10:16:15Z</time>
      </trkpt>
      <trkpt lat="45.99321" lon="4.80554">
        <ele>242</ele>
        <time>2018-02-28T10:16:17Z</time>
      </trkpt>
      <trkpt lat="45.99322" lon="4.80561">
        <ele>242</ele>
        <time>2018-02-28T10:16:18Z</time>
      </trkpt>
      <trkpt lat="45.99323" lon="4.80568">
        <ele>242</ele>
        <time>2018-02-28T10:16:19Z</time>
      </trkpt>
      <trkpt lat="45.99324" lon="4.80574">
        <ele>242</ele>
        <time>2018-02-28T10:16:20Z</time>
      </trkpt>
      <trkpt lat="45.99326" lon="4.80586">
        <ele>242</ele>
        <time>2018-02-28T10:16:22Z</time>
      </trkpt>
      <trkpt lat="45.99326" lon="4.80595">
        <ele>242</ele>
        <time>2018-02-28T10:16:23Z</time>
      </trkpt>
      <trkpt lat="45.99328" lon="4.80607">
        <ele>243</ele>
        <time>2018-02-28T10:16:25Z</time>
      </trkpt>
      <trkpt lat="45.99328" lon="4.80611">
        <ele>243</ele>
        <time>2018-02-28T10:16:26Z</time>
      </trkpt>
      <trkpt lat="45.99331" lon="4.80623">
        <ele>243</ele>
        <time>2018-02-28T10:16:28Z</time>
      </trkpt>
      <trkpt lat="45.99331" lon="4.80628">
        <ele>243</ele>
        <time>2018-02-28T10:16:29Z</time>
      </trkpt>
      <trkpt lat="45.99332" lon="4.80641">
        <ele>243</ele>
        <time>2018-02-28T10:16:31Z</time>
      </trkpt>
      <trkpt lat="45.99332" lon="4.80647">
        <ele>243</ele>
        <time>2018-02-28T10:16:32Z</time>
      </trkpt>
      <trkpt lat="45.99333" lon="4.80654">
        <ele>244</ele>
        <time>2018-02-28T10:16:33Z</time>
      </trkpt>
      <trkpt lat="45.99334" lon="4.8066">
        <ele>244</ele>
        <time>2018-02-28T10:16:34Z</time>
      </trkpt>
      <trkpt lat="45.99336" lon="4.80672">
        <ele>244</ele>
        <time>2018-02-28T10:16:36Z</time>
      </trkpt>
      <trkpt lat="45.99337" lon="4.80678">
        <ele>244</ele>
        <time>2018-02-28T10:16:37Z</time>
      </trkpt>
      <trkpt lat="45.99339" lon="4.8069">
        <ele>244</ele>
        <time>2018-02-28T10:16:39Z</time>
      </trkpt>
      <trkpt lat="45.9934" lon="4.80696">
        <ele>244</ele>
        <time>2018-02-28T10:16:40Z</time>
      </trkpt>
      <trkpt lat="45.99342" lon="4.80708">
        <ele>244</ele>
        <time>2018-02-28T10:16:42Z</time>
      </trkpt>
      <trkpt lat="45.99343" lon="4.80715">
        <ele>244</ele>
        <time>2018-02-28T10:16:43Z</time>
      </trkpt>
      <trkpt lat="45.99344" lon="4.80727">
        <ele>244</ele>
        <time>2018-02-28T10:16:45Z</time>
      </trkpt>
      <trkpt lat="45.99345" lon="4.80732">
        <ele>245</ele>
        <time>2018-02-28T10:16:46Z</time>
      </trkpt>
      <trkpt lat="45.99347" lon="4.80744">
        <ele>245</ele>
        <time>2018-02-28T10:16:48Z</time>
      </trkpt>
      <trkpt lat="45.99348" lon="4.8075">
        <ele>245</ele>
        <time>2018-02-28T10:16:49Z</time>
      </trkpt>
      <trkpt lat="45.9935" lon="4.80761">
        <ele>245</ele>
        <time>2018-02-28T10:16:51Z</time>
      </trkpt>
      <trkpt lat="45.99351" lon="4.80767">
        <ele>245</ele>
        <time>2018-02-28T10:16:52Z</time>
      </trkpt>
      <trkpt lat="45.99352" lon="4.80779">
        <ele>245</ele>
        <time>2018-02-28T10:16:54Z</time>
      </trkpt>
      <trkpt lat="45.99352" lon="4.80784">
        <ele>246</ele>
        <time>2018-02-28T10:16:55Z</time>
      </trkpt>
      <trkpt lat="45.99354" lon="4.80796">
        <ele>246</ele>
        <time>2018-02-28T10:16:57Z</time>
      </trkpt>
      <trkpt lat="45.99355" lon="4.80802">
        <ele>246</ele>
        <time>2018-02-28T10:16:58Z</time>
      </trkpt>
      <trkpt lat="45.99356" lon="4.8081">
        <ele>246</ele>
        <time>2018-02-28T10:17:00Z</time>
      </trkpt>
      <trkpt lat="45.99357" lon="4.80817">
        <ele>246</ele>
        <time>2018-02-28T10:17:01Z</time>
      </trkpt>
      <trkpt lat="45.99358" lon="4.80828">
        <ele>246</ele>
        <time>2018-02-28T10:17:03Z</time>
      </trkpt>
      <trkpt lat="45.99359" lon="4.80831">
        <ele>246</ele>
        <time>2018-02-28T10:17:04Z</time>
      </trkpt>
      <trkpt lat="45.99361" lon="4.80843">
        <ele>247</ele>
        <time>2018-02-28T10:17:06Z</time>
      </trkpt>
      <trkpt lat="45.99361" lon="4.80845">
        <ele>247</ele>
        <time>2018-02-28T10:17:07Z</time>
      </trkpt>
      <trkpt lat="45.99363" lon="4.80856">
        <ele>248</ele>
        <time>2018-02-28T10:17:09Z</time>
      </trkpt>
      <trkpt lat="45.99363" lon="4.80863">
        <ele>248</ele>
        <time>2018-02-28T10:17:10Z</time>
      </trkpt>
      <trkpt lat="45.99364" lon="4.80876">
        <ele>248</ele>
        <time>2018-02-28T10:17:13Z</time>
      </trkpt>
      <trkpt lat="45.99365" lon="4.80879">
        <ele>248</ele>
        <time>2018-02-28T10:17:14Z</time>
      </trkpt>
      <trkpt lat="45.99366" lon="4.8089">
        <ele>248</ele>
        <time>2018-02-28T10:17:17Z</time>
      </trkpt>
      <trkpt lat="45.99366" lon="4.80894">
        <ele>248</ele>
        <time>2018-02-28T10:17:18Z</time>
      </trkpt>
      <trkpt lat="45.99368" lon="4.80907">
        <ele>248</ele>
        <time>2018-02-28T10:17:21Z</time>
      </trkpt>
      <trkpt lat="45.99369" lon="4.80911">
        <ele>248</ele>
        <time>2018-02-28T10:17:22Z</time>
      </trkpt>
      <trkpt lat="45.9937" lon="4.80921">
        <ele>250</ele>
        <time>2018-02-28T10:17:24Z</time>
      </trkpt>
      <trkpt lat="45.99371" lon="4.80925">
        <ele>250</ele>
        <time>2018-02-28T10:17:25Z</time>
      </trkpt>
      <trkpt lat="45.99372" lon="4.80934">
        <ele>250</ele>
        <time>2018-02-28T10:17:27Z</time>
      </trkpt>
      <trkpt lat="45.99373" lon="4.80939">
        <ele>250</ele>
        <time>2018-02-28T10:17:28Z</time>
      </trkpt>
      <trkpt lat="45.99374" lon="4.80947">
        <ele>250</ele>
        <time>2018-02-28T10:17:30Z</time>
      </trkpt>
      <trkpt lat="45.99374" lon="4.80952">
        <ele>250</ele>
        <time>2018-02-28T10:17:31Z</time>
      </trkpt>
      <trkpt lat="45.99376" lon="4.80962">
        <ele>250</ele>
        <time>2018-02-28T10:17:33Z</time>
      </trkpt>
      <trkpt lat="45.99376" lon="4.80966">
        <ele>250</ele>
        <time>2018-02-28T10:17:34Z</time>
      </trkpt>
      <trkpt lat="45.99378" lon="4.80979">
        <ele>250</ele>
        <time>2018-02-28T10:17:35Z</time>
      </trkpt>
      <trkpt lat="45.99379" lon="4.80989">
        <ele>250</ele>
        <time>2018-02-28T10:17:38Z</time>
      </trkpt>
      <trkpt lat="45.9938" lon="4.80993">
        <ele>250</ele>
        <time>2018-02-28T10:17:39Z</time>
      </trkpt>
      <trkpt lat="45.99381" lon="4.81001">
        <ele>251</ele>
        <time>2018-02-28T10:17:41Z</time>
      </trkpt>
      <trkpt lat="45.99382" lon="4.81006">
        <ele>251</ele>
        <time>2018-02-28T10:17:42Z</time>
      </trkpt>
      <trkpt lat="45.99384" lon="4.81019">
        <ele>251</ele>
        <time>2018-02-28T10:17:43Z</time>
      </trkpt>
      <trkpt lat="45.99385" lon="4.81029">
        <ele>251</ele>
        <time>2018-02-28T10:17:45Z</time>
      </trkpt>
      <trkpt lat="45.99386" lon="4.81032">
        <ele>251</ele>
        <time>2018-02-28T10:17:46Z</time>
      </trkpt>
      <trkpt lat="45.99387" lon="4.81044">
        <ele>251</ele>
        <time>2018-02-28T10:17:48Z</time>
      </trkpt>
      <trkpt lat="45.99388" lon="4.8105">
        <ele>251</ele>
        <time>2018-02-28T10:17:49Z</time>
      </trkpt>
      <trkpt lat="45.99389" lon="4.81061">
        <ele>251</ele>
        <time>2018-02-28T10:17:51Z</time>
      </trkpt>
      <trkpt lat="45.9939" lon="4.81066">
        <ele>251</ele>
        <time>2018-02-28T10:17:52Z</time>
      </trkpt>
      <trkpt lat="45.99392" lon="4.81078">
        <ele>251</ele>
        <time>2018-02-28T10:17:54Z</time>
      </trkpt>
      <trkpt lat="45.99393" lon="4.81084">
        <ele>251</ele>
        <time>2018-02-28T10:17:55Z</time>
      </trkpt>
      <trkpt lat="45.99395" lon="4.81094">
        <ele>251</ele>
        <time>2018-02-28T10:17:57Z</time>
      </trkpt>
      <trkpt lat="45.99395" lon="4.81097">
        <ele>251</ele>
        <time>2018-02-28T10:17:58Z</time>
      </trkpt>
      <trkpt lat="45.99396" lon="4.81104">
        <ele>251</ele>
        <time>2018-02-28T10:18:00Z</time>
      </trkpt>
      <trkpt lat="45.99398" lon="4.81114">
        <ele>251</ele>
        <time>2018-02-28T10:18:01Z</time>
      </trkpt>
      <trkpt lat="45.994" lon="4.81125">
        <ele>251</ele>
        <time>2018-02-28T10:18:03Z</time>
      </trkpt>
      <trkpt lat="45.99401" lon="4.8113">
        <ele>251</ele>
        <time>2018-02-28T10:18:04Z</time>
      </trkpt>
      <trkpt lat="45.99403" lon="4.81141">
        <ele>251</ele>
        <time>2018-02-28T10:18:06Z</time>
      </trkpt>
      <trkpt lat="45.99403" lon="4.81146">
        <ele>251</ele>
        <time>2018-02-28T10:18:07Z</time>
      </trkpt>
      <trkpt lat="45.99404" lon="4.81157">
        <ele>251</ele>
        <time>2018-02-28T10:18:09Z</time>
      </trkpt>
      <trkpt lat="45.99404" lon="4.81163">
        <ele>251</ele>
        <time>2018-02-28T10:18:10Z</time>
      </trkpt>
      <trkpt lat="45.99406" lon="4.81174">
        <ele>251</ele>
        <time>2018-02-28T10:18:12Z</time>
      </trkpt>
      <trkpt lat="45.99407" lon="4.81179">
        <ele>251</ele>
        <time>2018-02-28T10:18:13Z</time>
      </trkpt>
      <trkpt lat="45.99408" lon="4.81191">
        <ele>252</ele>
        <time>2018-02-28T10:18:15Z</time>
      </trkpt>
      <trkpt lat="45.99408" lon="4.81196">
        <ele>252</ele>
        <time>2018-02-28T10:18:16Z</time>
      </trkpt>
      <trkpt lat="45.9941" lon="4.81207">
        <ele>252</ele>
        <time>2018-02-28T10:18:18Z</time>
      </trkpt>
      <trkpt lat="45.9941" lon="4.81213">
        <ele>252</ele>
        <time>2018-02-28T10:18:19Z</time>
      </trkpt>
      <trkpt lat="45.99412" lon="4.81223">
        <ele>252</ele>
        <time>2018-02-28T10:18:21Z</time>
      </trkpt>
      <trkpt lat="45.99413" lon="4.81228">
        <ele>252</ele>
        <time>2018-02-28T10:18:22Z</time>
      </trkpt>
      <trkpt lat="45.99415" lon="4.81239">
        <ele>252</ele>
        <time>2018-02-28T10:18:24Z</time>
      </trkpt>
      <trkpt lat="45.99416" lon="4.81244">
        <ele>252</ele>
        <time>2018-02-28T10:18:25Z</time>
      </trkpt>
      <trkpt lat="45.99417" lon="4.81255">
        <ele>252</ele>
        <time>2018-02-28T10:18:27Z</time>
      </trkpt>
      <trkpt lat="45.99418" lon="4.81261">
        <ele>252</ele>
        <time>2018-02-28T10:18:28Z</time>
      </trkpt>
      <trkpt lat="45.99419" lon="4.81272">
        <ele>253</ele>
        <time>2018-02-28T10:18:30Z</time>
      </trkpt>
      <trkpt lat="45.9942" lon="4.81278">
        <ele>253</ele>
        <time>2018-02-28T10:18:31Z</time>
      </trkpt>
      <trkpt lat="45.99421" lon="4.8129">
        <ele>253</ele>
        <time>2018-02-28T10:18:33Z</time>
      </trkpt>
      <trkpt lat="45.99422" lon="4.81296">
        <ele>253</ele>
        <time>2018-02-28T10:18:34Z</time>
      </trkpt>
      <trkpt lat="45.99424" lon="4.81308">
        <ele>253</ele>
        <time>2018-02-28T10:18:36Z</time>
      </trkpt>
      <trkpt lat="45.99425" lon="4.81314">
        <ele>254</ele>
        <time>2018-02-28T10:18:37Z</time>
      </trkpt>
      <trkpt lat="45.99426" lon="4.81327">
        <ele>254</ele>
        <time>2018-02-28T10:18:39Z</time>
      </trkpt>
      <trkpt lat="45.99427" lon="4.81333">
        <ele>254</ele>
        <time>2018-02-28T10:18:40Z</time>
      </trkpt>
      <trkpt lat="45.99429" lon="4.81345">
        <ele>254</ele>
        <time>2018-02-28T10:18:42Z</time>
      </trkpt>
      <trkpt lat="45.99429" lon="4.81348">
        <ele>254</ele>
        <time>2018-02-28T10:18:43Z</time>
      </trkpt>
      <trkpt lat="45.9943" lon="4.81357">
        <ele>254</ele>
        <time>2018-02-28T10:18:44Z</time>
      </trkpt>
      <trkpt lat="45.9943" lon="4.81365">
        <ele>254</ele>
        <time>2018-02-28T10:18:45Z</time>
      </trkpt>
      <trkpt lat="45.99432" lon="4.81377">
        <ele>254</ele>
        <time>2018-02-28T10:18:47Z</time>
      </trkpt>
      <trkpt lat="45.99433" lon="4.81384">
        <ele>254</ele>
        <time>2018-02-28T10:18:48Z</time>
      </trkpt>
      <trkpt lat="45.99433" lon="4.81391">
        <ele>254</ele>
        <time>2018-02-28T10:18:49Z</time>
      </trkpt>
      <trkpt lat="45.99435" lon="4.81397">
        <ele>254</ele>
        <time>2018-02-28T10:18:50Z</time>
      </trkpt>
      <trkpt lat="45.99436" lon="4.8141">
        <ele>254</ele>
        <time>2018-02-28T10:18:52Z</time>
      </trkpt>
      <trkpt lat="45.99437" lon="4.81416">
        <ele>254</ele>
        <time>2018-02-28T10:18:53Z</time>
      </trkpt>
      <trkpt lat="45.99438" lon="4.81423">
        <ele>254</ele>
        <time>2018-02-28T10:18:54Z</time>
      </trkpt>
      <trkpt lat="45.9944" lon="4.8143">
        <ele>254</ele>
        <time>2018-02-28T10:18:55Z</time>
      </trkpt>
      <trkpt lat="45.99441" lon="4.81436">
        <ele>254</ele>
        <time>2018-02-28T10:18:56Z</time>
      </trkpt>
      <trkpt lat="45.99443" lon="4.81442">
        <ele>254</ele>
        <time>2018-02-28T10:18:57Z</time>
      </trkpt>
      <trkpt lat="45.99445" lon="4.81454">
        <ele>254</ele>
        <time>2018-02-28T10:18:59Z</time>
      </trkpt>
      <trkpt lat="45.99446" lon="4.81459">
        <ele>254</ele>
        <time>2018-02-28T10:19:00Z</time>
      </trkpt>
      <trkpt lat="45.99448" lon="4.8147">
        <ele>254</ele>
        <time>2018-02-28T10:19:02Z</time>
      </trkpt>
      <trkpt lat="45.99448" lon="4.81476">
        <ele>254</ele>
        <time>2018-02-28T10:19:03Z</time>
      </trkpt>
      <trkpt lat="45.99449" lon="4.81487">
        <ele>254</ele>
        <time>2018-02-28T10:19:05Z</time>
      </trkpt>
      <trkpt lat="45.9945" lon="4.81492">
        <ele>254</ele>
        <time>2018-02-28T10:19:06Z</time>
      </trkpt>
      <trkpt lat="45.99452" lon="4.81504">
        <ele>255</ele>
        <time>2018-02-28T10:19:08Z</time>
      </trkpt>
      <trkpt lat="45.99452" lon="4.81509">
        <ele>255</ele>
        <time>2018-02-28T10:19:09Z</time>
      </trkpt>
      <trkpt lat="45.99454" lon="4.81521">
        <ele>255</ele>
        <time>2018-02-28T10:19:11Z</time>
      </trkpt>
      <trkpt lat="45.99454" lon="4.81527">
        <ele>255</ele>
        <time>2018-02-28T10:19:12Z</time>
      </trkpt>
      <trkpt lat="45.99455" lon="4.81536">
        <ele>255</ele>
        <time>2018-02-28T10:19:14Z</time>
      </trkpt>
      <trkpt lat="45.99456" lon="4.81544">
        <ele>255</ele>
        <time>2018-02-28T10:19:15Z</time>
      </trkpt>
      <trkpt lat="45.99457" lon="4.81556">
        <ele>255</ele>
        <time>2018-02-28T10:19:17Z</time>
      </trkpt>
      <trkpt lat="45.99458" lon="4.81562">
        <ele>255</ele>
        <time>2018-02-28T10:19:18Z</time>
      </trkpt>
      <trkpt lat="45.9946" lon="4.81574">
        <ele>255</ele>
        <time>2018-02-28T10:19:20Z</time>
      </trkpt>
      <trkpt lat="45.99461" lon="4.81579">
        <ele>255</ele>
        <time>2018-02-28T10:19:21Z</time>
      </trkpt>
      <trkpt lat="45.99463" lon="4.8159">
        <ele>257</ele>
        <time>2018-02-28T10:19:23Z</time>
      </trkpt>
      <trkpt lat="45.99463" lon="4.81596">
        <ele>257</ele>
        <time>2018-02-28T10:19:24Z</time>
      </trkpt>
      <trkpt lat="45.99465" lon="4.81607">
        <ele>258</ele>
        <time>2018-02-28T10:19:26Z</time>
      </trkpt>
      <trkpt lat="45.99465" lon="4.8161">
        <ele>258</ele>
        <time>2018-02-28T10:19:27Z</time>
      </trkpt>
      <trkpt lat="45.99467" lon="4.81618">
        <ele>258</ele>
        <time>2018-02-28T10:19:28Z</time>
      </trkpt>
      <trkpt lat="45.99467" lon="4.81623">
        <ele>258</ele>
        <time>2018-02-28T10:19:29Z</time>
      </trkpt>
      <trkpt lat="45.99469" lon="4.81635">
        <ele>258</ele>
        <time>2018-02-28T10:19:31Z</time>
      </trkpt>
      <trkpt lat="45.99469" lon="4.8164">
        <ele>258</ele>
        <time>2018-02-28T10:19:32Z</time>
      </trkpt>
      <trkpt lat="45.99471" lon="4.81652">
        <ele>259</ele>
        <time>2018-02-28T10:19:34Z</time>
      </trkpt>
      <trkpt lat="45.99471" lon="4.81658">
        <ele>259</ele>
        <time>2018-02-28T10:19:35Z</time>
      </trkpt>
      <trkpt lat="45.99473" lon="4.81669">
        <ele>261</ele>
        <time>2018-02-28T10:19:37Z</time>
      </trkpt>
      <trkpt lat="45.99473" lon="4.81674">
        <ele>261</ele>
        <time>2018-02-28T10:19:38Z</time>
      </trkpt>
      <trkpt lat="45.99475" lon="4.81685">
        <ele>261</ele>
        <time>2018-02-28T10:19:40Z</time>
      </trkpt>
      <trkpt lat="45.99475" lon="4.81688">
        <ele>261</ele>
        <time>2018-02-28T10:19:41Z</time>
      </trkpt>
      <trkpt lat="45.99476" lon="4.81696">
        <ele>261</ele>
        <time>2018-02-28T10:19:42Z</time>
      </trkpt>
      <trkpt lat="45.99476" lon="4.81701">
        <ele>261</ele>
        <time>2018-02-28T10:19:43Z</time>
      </trkpt>
      <trkpt lat="45.99478" lon="4.81712">
        <ele>261</ele>
        <time>2018-02-28T10:19:45Z</time>
      </trkpt>
      <trkpt lat="45.99478" lon="4.81718">
        <ele>261</ele>
        <time>2018-02-28T10:19:46Z</time>
      </trkpt>
      <trkpt lat="45.9948" lon="4.8173">
        <ele>261</ele>
        <time>2018-02-28T10:19:48Z</time>
      </trkpt>
      <trkpt lat="45.99481" lon="4.81736">
        <ele>261</ele>
        <time>2018-02-28T10:19:49Z</time>
      </trkpt>
      <trkpt lat="45.99482" lon="4.81748">
        <ele>262</ele>
        <time>2018-02-28T10:19:51Z</time>
      </trkpt>
      <trkpt lat="45.99483" lon="4.81754">
        <ele>262</ele>
        <time>2018-02-28T10:19:52Z</time>
      </trkpt>
      <trkpt lat="45.99483" lon="4.81767">
        <ele>262</ele>
        <time>2018-02-28T10:19:54Z</time>
      </trkpt>
      <trkpt lat="45.99483" lon="4.81773">
        <ele>262</ele>
        <time>2018-02-28T10:19:55Z</time>
      </trkpt>
      <trkpt lat="45.99483" lon="4.81779">
        <ele>262</ele>
        <time>2018-02-28T10:19:56Z</time>
      </trkpt>
      <trkpt lat="45.99482" lon="4.81787">
        <ele>262</ele>
        <time>2018-02-28T10:19:57Z</time>
      </trkpt>
      <trkpt lat="45.99484" lon="4.81799">
        <ele>262</ele>
        <time>2018-02-28T10:19:59Z</time>
      </trkpt>
      <trkpt lat="45.99485" lon="4.81806">
        <ele>262</ele>
        <time>2018-02-28T10:20:00Z</time>
      </trkpt>
      <trkpt lat="45.99488" lon="4.81817">
        <ele>262</ele>
        <time>2018-02-28T10:20:02Z</time>
      </trkpt>
      <trkpt lat="45.99489" lon="4.81819">
        <ele>262</ele>
        <time>2018-02-28T10:20:03Z</time>
      </trkpt>
      <trkpt lat="45.99491" lon="4.81827">
        <ele>262</ele>
        <time>2018-02-28T10:20:04Z</time>
      </trkpt>
      <trkpt lat="45.99493" lon="4.81832">
        <ele>262</ele>
        <time>2018-02-28T10:20:05Z</time>
      </trkpt>
      <trkpt lat="45.99495" lon="4.81842">
        <ele>261</ele>
        <time>2018-02-28T10:20:07Z</time>
      </trkpt>
      <trkpt lat="45.99495" lon="4.81848">
        <ele>261</ele>
        <time>2018-02-28T10:20:08Z</time>
      </trkpt>
      <trkpt lat="45.99497" lon="4.81859">
        <ele>260</ele>
        <time>2018-02-28T10:20:10Z</time>
      </trkpt>
      <trkpt lat="45.99497" lon="4.81865">
        <ele>260</ele>
        <time>2018-02-28T10:20:11Z</time>
      </trkpt>
      <trkpt lat="45.99499" lon="4.81877">
        <ele>260</ele>
        <time>2018-02-28T10:20:13Z</time>
      </trkpt>
      <trkpt lat="45.995" lon="4.81883">
        <ele>260</ele>
        <time>2018-02-28T10:20:14Z</time>
      </trkpt>
      <trkpt lat="45.99502" lon="4.81895">
        <ele>261</ele>
        <time>2018-02-28T10:20:16Z</time>
      </trkpt>
      <trkpt lat="45.99503" lon="4.81901">
        <ele>260</ele>
        <time>2018-02-28T10:20:17Z</time>
      </trkpt>
      <trkpt lat="45.99505" lon="4.81913">
        <ele>260</ele>
        <time>2018-02-28T10:20:19Z</time>
      </trkpt>
      <trkpt lat="45.99507" lon="4.81919">
        <ele>260</ele>
        <time>2018-02-28T10:20:20Z</time>
      </trkpt>
      <trkpt lat="45.9951" lon="4.81929">
        <ele>260</ele>
        <time>2018-02-28T10:20:22Z</time>
      </trkpt>
      <trkpt lat="45.99512" lon="4.81935">
        <ele>260</ele>
        <time>2018-02-28T10:20:23Z</time>
      </trkpt>
      <trkpt lat="45.99513" lon="4.81944">
        <ele>261</ele>
        <time>2018-02-28T10:20:25Z</time>
      </trkpt>
      <trkpt lat="45.99514" lon="4.81948">
        <ele>261</ele>
        <time>2018-02-28T10:20:26Z</time>
      </trkpt>
      <trkpt lat="45.99515" lon="4.81958">
        <ele>261</ele>
        <time>2018-02-28T10:20:27Z</time>
      </trkpt>
      <trkpt lat="45.99515" lon="4.81964">
        <ele>261</ele>
        <time>2018-02-28T10:20:28Z</time>
      </trkpt>
      <trkpt lat="45.99516" lon="4.81977">
        <ele>261</ele>
        <time>2018-02-28T10:20:30Z</time>
      </trkpt>
      <trkpt lat="45.99516" lon="4.81983">
        <ele>261</ele>
        <time>2018-02-28T10:20:31Z</time>
      </trkpt>
      <trkpt lat="45.99517" lon="4.81995">
        <ele>260</ele>
        <time>2018-02-28T10:20:33Z</time>
      </trkpt>
      <trkpt lat="45.99518" lon="4.82">
        <ele>261</ele>
        <time>2018-02-28T10:20:34Z</time>
      </trkpt>
      <trkpt lat="45.99519" lon="4.8201">
        <ele>261</ele>
        <time>2018-02-28T10:20:37Z</time>
      </trkpt>
      <trkpt lat="45.99521" lon="4.82021">
        <ele>261</ele>
        <time>2018-02-28T10:20:38Z</time>
      </trkpt>
      <trkpt lat="45.99521" lon="4.82028">
        <ele>261</ele>
        <time>2018-02-28T10:20:40Z</time>
      </trkpt>
      <trkpt lat="45.99522" lon="4.82037">
        <ele>262</ele>
        <time>2018-02-28T10:20:41Z</time>
      </trkpt>
      <trkpt lat="45.99523" lon="4.82049">
        <ele>262</ele>
        <time>2018-02-28T10:20:43Z</time>
      </trkpt>
      <trkpt lat="45.99524" lon="4.82054">
        <ele>262</ele>
        <time>2018-02-28T10:20:44Z</time>
      </trkpt>
      <trkpt lat="45.99525" lon="4.82066">
        <ele>262</ele>
        <time>2018-02-28T10:20:46Z</time>
      </trkpt>
      <trkpt lat="45.99526" lon="4.82072">
        <ele>262</ele>
        <time>2018-02-28T10:20:47Z</time>
      </trkpt>
      <trkpt lat="45.99528" lon="4.82079">
        <ele>262</ele>
        <time>2018-02-28T10:20:48Z</time>
      </trkpt>
      <trkpt lat="45.99529" lon="4.82086">
        <ele>262</ele>
        <time>2018-02-28T10:20:49Z</time>
      </trkpt>
      <trkpt lat="45.99529" lon="4.82093">
        <ele>262</ele>
        <time>2018-02-28T10:20:50Z</time>
      </trkpt>
      <trkpt lat="45.99531" lon="4.821">
        <ele>263</ele>
        <time>2018-02-28T10:20:51Z</time>
      </trkpt>
      <trkpt lat="45.99531" lon="4.82107">
        <ele>263</ele>
        <time>2018-02-28T10:20:52Z</time>
      </trkpt>
      <trkpt lat="45.99531" lon="4.82114">
        <ele>263</ele>
        <time>2018-02-28T10:20:53Z</time>
      </trkpt>
      <trkpt lat="45.99532" lon="4.82121">
        <ele>263</ele>
        <time>2018-02-28T10:20:54Z</time>
      </trkpt>
      <trkpt lat="45.99533" lon="4.82128">
        <ele>263</ele>
        <time>2018-02-28T10:20:55Z</time>
      </trkpt>
      <trkpt lat="45.99534" lon="4.82134">
        <ele>263</ele>
        <time>2018-02-28T10:20:56Z</time>
      </trkpt>
      <trkpt lat="45.99535" lon="4.82141">
        <ele>263</ele>
        <time>2018-02-28T10:20:57Z</time>
      </trkpt>
      <trkpt lat="45.99536" lon="4.82148">
        <ele>263</ele>
        <time>2018-02-28T10:20:58Z</time>
      </trkpt>
      <trkpt lat="45.99537" lon="4.82154">
        <ele>263</ele>
        <time>2018-02-28T10:20:59Z</time>
      </trkpt>
      <trkpt lat="45.99539" lon="4.82166">
        <ele>263</ele>
        <time>2018-02-28T10:21:01Z</time>
      </trkpt>
      <trkpt lat="45.9954" lon="4.82172">
        <ele>262</ele>
        <time>2018-02-28T10:21:02Z</time>
      </trkpt>
      <trkpt lat="45.99541" lon="4.82184">
        <ele>262</ele>
        <time>2018-02-28T10:21:04Z</time>
      </trkpt>
      <trkpt lat="45.99542" lon="4.82189">
        <ele>262</ele>
        <time>2018-02-28T10:21:05Z</time>
      </trkpt>
      <trkpt lat="45.99544" lon="4.82199">
        <ele>262</ele>
        <time>2018-02-28T10:21:07Z</time>
      </trkpt>
      <trkpt lat="45.99546" lon="4.82205">
        <ele>262</ele>
        <time>2018-02-28T10:21:08Z</time>
      </trkpt>
      <trkpt lat="45.99549" lon="4.82217">
        <ele>262</ele>
        <time>2018-02-28T10:21:10Z</time>
      </trkpt>
      <trkpt lat="45.9955" lon="4.82223">
        <ele>262</ele>
        <time>2018-02-28T10:21:11Z</time>
      </trkpt>
      <trkpt lat="45.99551" lon="4.82229">
        <ele>262</ele>
        <time>2018-02-28T10:21:12Z</time>
      </trkpt>
      <trkpt lat="45.99552" lon="4.82235">
        <ele>262</ele>
        <time>2018-02-28T10:21:13Z</time>
      </trkpt>
      <trkpt lat="45.99554" lon="4.82241">
        <ele>262</ele>
        <time>2018-02-28T10:21:14Z</time>
      </trkpt>
      <trkpt lat="45.99557" lon="4.82246">
        <ele>262</ele>
        <time>2018-02-28T10:21:15Z</time>
      </trkpt>
      <trkpt lat="45.99558" lon="4.82252">
        <ele>262</ele>
        <time>2018-02-28T10:21:16Z</time>
      </trkpt>
      <trkpt lat="45.9956" lon="4.82259">
        <ele>262</ele>
        <time>2018-02-28T10:21:17Z</time>
      </trkpt>
      <trkpt lat="45.99561" lon="4.82265">
        <ele>262</ele>
        <time>2018-02-28T10:21:18Z</time>
      </trkpt>
      <trkpt lat="45.99563" lon="4.82271">
        <ele>262</ele>
        <time>2018-02-28T10:21:19Z</time>
      </trkpt>
      <trkpt lat="45.99564" lon="4.82278">
        <ele>262</ele>
        <time>2018-02-28T10:21:20Z</time>
      </trkpt>
      <trkpt lat="45.99566" lon="4.82284">
        <ele>262</ele>
        <time>2018-02-28T10:21:21Z</time>
      </trkpt>
      <trkpt lat="45.99568" lon="4.8229">
        <ele>262</ele>
        <time>2018-02-28T10:21:22Z</time>
      </trkpt>
      <trkpt lat="45.9957" lon="4.82296">
        <ele>262</ele>
        <time>2018-02-28T10:21:23Z</time>
      </trkpt>
      <trkpt lat="45.99572" lon="4.82307">
        <ele>262</ele>
        <time>2018-02-28T10:21:25Z</time>
      </trkpt>
      <trkpt lat="45.99574" lon="4.82312">
        <ele>262</ele>
        <time>2018-02-28T10:21:26Z</time>
      </trkpt>
      <trkpt lat="45.99576" lon="4.82323">
        <ele>262</ele>
        <time>2018-02-28T10:21:28Z</time>
      </trkpt>
      <trkpt lat="45.99577" lon="4.82329">
        <ele>262</ele>
        <time>2018-02-28T10:21:29Z</time>
      </trkpt>
      <trkpt lat="45.99579" lon="4.8234">
        <ele>262</ele>
        <time>2018-02-28T10:21:31Z</time>
      </trkpt>
      <trkpt lat="45.99579" lon="4.82345">
        <ele>262</ele>
        <time>2018-02-28T10:21:32Z</time>
      </trkpt>
      <trkpt lat="45.99581" lon="4.82356">
        <ele>261</ele>
        <time>2018-02-28T10:21:34Z</time>
      </trkpt>
      <trkpt lat="45.99581" lon="4.82362">
        <ele>261</ele>
        <time>2018-02-28T10:21:35Z</time>
      </trkpt>
      <trkpt lat="45.99581" lon="4.82373">
        <ele>261</ele>
        <time>2018-02-28T10:21:37Z</time>
      </trkpt>
      <trkpt lat="45.99582" lon="4.82378">
        <ele>261</ele>
        <time>2018-02-28T10:21:38Z</time>
      </trkpt>
      <trkpt lat="45.99584" lon="4.82388">
        <ele>264</ele>
        <time>2018-02-28T10:21:40Z</time>
      </trkpt>
      <trkpt lat="45.99585" lon="4.82394">
        <ele>264</ele>
        <time>2018-02-28T10:21:41Z</time>
      </trkpt>
      <trkpt lat="45.99587" lon="4.82404">
        <ele>263</ele>
        <time>2018-02-28T10:21:43Z</time>
      </trkpt>
      <trkpt lat="45.99588" lon="4.82407">
        <ele>263</ele>
        <time>2018-02-28T10:21:44Z</time>
      </trkpt>
      <trkpt lat="45.99589" lon="4.8241">
        <ele>263</ele>
        <time>2018-02-28T10:21:45Z</time>
      </trkpt>
      <trkpt lat="45.99591" lon="4.82419">
        <ele>263</ele>
        <time>2018-02-28T10:21:46Z</time>
      </trkpt>
      <trkpt lat="45.99593" lon="4.82429">
        <ele>263</ele>
        <time>2018-02-28T10:21:48Z</time>
      </trkpt>
      <trkpt lat="45.99595" lon="4.82434">
        <ele>264</ele>
        <time>2018-02-28T10:21:49Z</time>
      </trkpt>
      <trkpt lat="45.99599" lon="4.82443">
        <ele>264</ele>
        <time>2018-02-28T10:21:51Z</time>
      </trkpt>
      <trkpt lat="45.99601" lon="4.82447">
        <ele>264</ele>
        <time>2018-02-28T10:21:52Z</time>
      </trkpt>
      <trkpt lat="45.99606" lon="4.82456">
        <ele>264</ele>
        <time>2018-02-28T10:21:54Z</time>
      </trkpt>
      <trkpt lat="45.99608" lon="4.8246">
        <ele>265</ele>
        <time>2018-02-28T10:21:55Z</time>
      </trkpt>
      <trkpt lat="45.99612" lon="4.82471">
        <ele>265</ele>
        <time>2018-02-28T10:21:59Z</time>
      </trkpt>
      <trkpt lat="45.99616" lon="4.82481">
        <ele>265</ele>
        <time>2018-02-28T10:22:00Z</time>
      </trkpt>
      <trkpt lat="45.99619" lon="4.82489">
        <ele>265</ele>
        <time>2018-02-28T10:22:03Z</time>
      </trkpt>
      <trkpt lat="45.9962" lon="4.82493">
        <ele>265</ele>
        <time>2018-02-28T10:22:04Z</time>
      </trkpt>
      <trkpt lat="45.99624" lon="4.82504">
        <ele>265</ele>
        <time>2018-02-28T10:22:07Z</time>
      </trkpt>
      <trkpt lat="45.99625" lon="4.82508">
        <ele>265</ele>
        <time>2018-02-28T10:22:08Z</time>
      </trkpt>
      <trkpt lat="45.99627" lon="4.82516">
        <ele>265</ele>
        <time>2018-02-28T10:22:10Z</time>
      </trkpt>
      <trkpt lat="45.99629" lon="4.82521">
        <ele>265</ele>
        <time>2018-02-28T10:22:11Z</time>
      </trkpt>
      <trkpt lat="45.99631" lon="4.82531">
        <ele>266</ele>
        <time>2018-02-28T10:22:13Z</time>
      </trkpt>
      <trkpt lat="45.99634" lon="4.82544">
        <ele>266</ele>
        <time>2018-02-28T10:22:14Z</time>
      </trkpt>
      <trkpt lat="45.99636" lon="4.82555">
        <ele>266</ele>
        <time>2018-02-28T10:22:16Z</time>
      </trkpt>
      <trkpt lat="45.99637" lon="4.8256">
        <ele>266</ele>
        <time>2018-02-28T10:22:17Z</time>
      </trkpt>
      <trkpt lat="45.99639" lon="4.82571">
        <ele>266</ele>
        <time>2018-02-28T10:22:19Z</time>
      </trkpt>
      <trkpt lat="45.9964" lon="4.82576">
        <ele>266</ele>
        <time>2018-02-28T10:22:20Z</time>
      </trkpt>
      <trkpt lat="45.99643" lon="4.82587">
        <ele>267</ele>
        <time>2018-02-28T10:22:22Z</time>
      </trkpt>
      <trkpt lat="45.99644" lon="4.82592">
        <ele>267</ele>
        <time>2018-02-28T10:22:23Z</time>
      </trkpt>
      <trkpt lat="45.99646" lon="4.82604">
        <ele>267</ele>
        <time>2018-02-28T10:22:25Z</time>
      </trkpt>
      <trkpt lat="45.99647" lon="4.8261">
        <ele>267</ele>
        <time>2018-02-28T10:22:26Z</time>
      </trkpt>
      <trkpt lat="45.99649" lon="4.82622">
        <ele>267</ele>
        <time>2018-02-28T10:22:28Z</time>
      </trkpt>
      <trkpt lat="45.9965" lon="4.82627">
        <ele>267</ele>
        <time>2018-02-28T10:22:29Z</time>
      </trkpt>
      <trkpt lat="45.99651" lon="4.82638">
        <ele>267</ele>
        <time>2018-02-28T10:22:32Z</time>
      </trkpt>
      <trkpt lat="45.99652" lon="4.82642">
        <ele>267</ele>
        <time>2018-02-28T10:22:33Z</time>
      </trkpt>
      <trkpt lat="45.99653" lon="4.8265">
        <ele>267</ele>
        <time>2018-02-28T10:22:35Z</time>
      </trkpt>
      <trkpt lat="45.99655" lon="4.82662">
        <ele>268</ele>
        <time>2018-02-28T10:22:36Z</time>
      </trkpt>
      <trkpt lat="45.99657" lon="4.82673">
        <ele>268</ele>
        <time>2018-02-28T10:22:38Z</time>
      </trkpt>
      <trkpt lat="45.99658" lon="4.82678">
        <ele>268</ele>
        <time>2018-02-28T10:22:39Z</time>
      </trkpt>
      <trkpt lat="45.99659" lon="4.82689">
        <ele>268</ele>
        <time>2018-02-28T10:22:41Z</time>
      </trkpt>
      <trkpt lat="45.99659" lon="4.82695">
        <ele>268</ele>
        <time>2018-02-28T10:22:42Z</time>
      </trkpt>
      <trkpt lat="45.9966" lon="4.82705">
        <ele>268</ele>
        <time>2018-02-28T10:22:44Z</time>
      </trkpt>
      <trkpt lat="45.9966" lon="4.82711">
        <ele>268</ele>
        <time>2018-02-28T10:22:45Z</time>
      </trkpt>
      <trkpt lat="45.99661" lon="4.82722">
        <ele>268</ele>
        <time>2018-02-28T10:22:47Z</time>
      </trkpt>
      <trkpt lat="45.99662" lon="4.82728">
        <ele>268</ele>
        <time>2018-02-28T10:22:48Z</time>
      </trkpt>
      <trkpt lat="45.99663" lon="4.82739">
        <ele>268</ele>
        <time>2018-02-28T10:22:50Z</time>
      </trkpt>
      <trkpt lat="45.99663" lon="4.82744">
        <ele>269</ele>
        <time>2018-02-28T10:22:51Z</time>
      </trkpt>
      <trkpt lat="45.99665" lon="4.82754">
        <ele>269</ele>
        <time>2018-02-28T10:22:53Z</time>
      </trkpt>
      <trkpt lat="45.99666" lon="4.82759">
        <ele>269</ele>
        <time>2018-02-28T10:22:54Z</time>
      </trkpt>
      <trkpt lat="45.99668" lon="4.8277">
        <ele>269</ele>
        <time>2018-02-28T10:22:56Z</time>
      </trkpt>
      <trkpt lat="45.99669" lon="4.82775">
        <ele>269</ele>
        <time>2018-02-28T10:22:57Z</time>
      </trkpt>
      <trkpt lat="45.9967" lon="4.82786">
        <ele>269</ele>
        <time>2018-02-28T10:22:59Z</time>
      </trkpt>
      <trkpt lat="45.99671" lon="4.82791">
        <ele>269</ele>
        <time>2018-02-28T10:23:00Z</time>
      </trkpt>
      <trkpt lat="45.99674" lon="4.82802">
        <ele>270</ele>
        <time>2018-02-28T10:23:02Z</time>
      </trkpt>
      <trkpt lat="45.99675" lon="4.82808">
        <ele>270</ele>
        <time>2018-02-28T10:23:03Z</time>
      </trkpt>
      <trkpt lat="45.99677" lon="4.82818">
        <ele>270</ele>
        <time>2018-02-28T10:23:05Z</time>
      </trkpt>
      <trkpt lat="45.99678" lon="4.8282">
        <ele>270</ele>
        <time>2018-02-28T10:23:06Z</time>
      </trkpt>
      <trkpt lat="45.9968" lon="4.82827">
        <ele>270</ele>
        <time>2018-02-28T10:23:07Z</time>
      </trkpt>
      <trkpt lat="45.99682" lon="4.82833">
        <ele>270</ele>
        <time>2018-02-28T10:23:08Z</time>
      </trkpt>
      <trkpt lat="45.99685" lon="4.82843">
        <ele>270</ele>
        <time>2018-02-28T10:23:10Z</time>
      </trkpt>
      <trkpt lat="45.99687" lon="4.82848">
        <ele>270</ele>
        <time>2018-02-28T10:23:11Z</time>
      </trkpt>
      <trkpt lat="45.99691" lon="4.82859">
        <ele>270</ele>
        <time>2018-02-28T10:23:13Z</time>
      </trkpt>
      <trkpt lat="45.99693" lon="4.82864">
        <ele>270</ele>
        <time>2018-02-28T10:23:14Z</time>
      </trkpt>
      <trkpt lat="45.99695" lon="4.8287">
        <ele>270</ele>
        <time>2018-02-28T10:23:15Z</time>
      </trkpt>
      <trkpt lat="45.99696" lon="4.82876">
        <ele>271</ele>
        <time>2018-02-28T10:23:16Z</time>
      </trkpt>
      <trkpt lat="45.997" lon="4.82888">
        <ele>271</ele>
        <time>2018-02-28T10:23:18Z</time>
      </trkpt>
      <trkpt lat="45.99701" lon="4.82894">
        <ele>271</ele>
        <time>2018-02-28T10:23:19Z</time>
      </trkpt>
      <trkpt lat="45.99704" lon="4.82905">
        <ele>271</ele>
        <time>2018-02-28T10:23:21Z</time>
      </trkpt>
      <trkpt lat="45.99706" lon="4.8291">
        <ele>271</ele>
        <time>2018-02-28T10:23:22Z</time>
      </trkpt>
      <trkpt lat="45.9971" lon="4.8292">
        <ele>271</ele>
        <time>2018-02-28T10:23:24Z</time>
      </trkpt>
      <trkpt lat="45.99711" lon="4.82923">
        <ele>271</ele>
        <time>2018-02-28T10:23:25Z</time>
      </trkpt>
      <trkpt lat="45.99713" lon="4.8293">
        <ele>271</ele>
        <time>2018-02-28T10:23:26Z</time>
      </trkpt>
      <trkpt lat="45.99715" lon="4.82935">
        <ele>271</ele>
        <time>2018-02-28T10:23:27Z</time>
      </trkpt>
      <trkpt lat="45.99717" lon="4.82944">
        <ele>271</ele>
        <time>2018-02-28T10:23:29Z</time>
      </trkpt>
      <trkpt lat="45.99719" lon="4.82949">
        <ele>271</ele>
        <time>2018-02-28T10:23:30Z</time>
      </trkpt>
      <trkpt lat="45.99722" lon="4.8296">
        <ele>271</ele>
        <time>2018-02-28T10:23:32Z</time>
      </trkpt>
      <trkpt lat="45.99724" lon="4.82966">
        <ele>271</ele>
        <time>2018-02-28T10:23:33Z</time>
      </trkpt>
      <trkpt lat="45.99727" lon="4.82977">
        <ele>271</ele>
        <time>2018-02-28T10:23:35Z</time>
      </trkpt>
      <trkpt lat="45.99729" lon="4.82982">
        <ele>271</ele>
        <time>2018-02-28T10:23:36Z</time>
      </trkpt>
      <trkpt lat="45.99732" lon="4.82994">
        <ele>271</ele>
        <time>2018-02-28T10:23:38Z</time>
      </trkpt>
      <trkpt lat="45.99734" lon="4.82999">
        <ele>271</ele>
        <time>2018-02-28T10:23:39Z</time>
      </trkpt>
      <trkpt lat="45.99736" lon="4.83005">
        <ele>271</ele>
        <time>2018-02-28T10:23:40Z</time>
      </trkpt>
      <trkpt lat="45.99738" lon="4.83012">
        <ele>271</ele>
        <time>2018-02-28T10:23:41Z</time>
      </trkpt>
      <trkpt lat="45.9974" lon="4.83018">
        <ele>271</ele>
        <time>2018-02-28T10:23:42Z</time>
      </trkpt>
      <trkpt lat="45.99741" lon="4.83024">
        <ele>271</ele>
        <time>2018-02-28T10:23:43Z</time>
      </trkpt>
      <trkpt lat="45.99743" lon="4.83031">
        <ele>271</ele>
        <time>2018-02-28T10:23:44Z</time>
      </trkpt>
      <trkpt lat="45.99745" lon="4.83038">
        <ele>271</ele>
        <time>2018-02-28T10:23:45Z</time>
      </trkpt>
      <trkpt lat="45.99746" lon="4.83045">
        <ele>271</ele>
        <time>2018-02-28T10:23:46Z</time>
      </trkpt>
      <trkpt lat="45.99748" lon="4.83053">
        <ele>271</ele>
        <time>2018-02-28T10:23:47Z</time>
      </trkpt>
      <trkpt lat="45.99749" lon="4.83061">
        <ele>272</ele>
        <time>2018-02-28T10:23:48Z</time>
      </trkpt>
      <trkpt lat="45.9975" lon="4.83069">
        <ele>272</ele>
        <time>2018-02-28T10:23:49Z</time>
      </trkpt>
      <trkpt lat="45.99752" lon="4.83076">
        <ele>272</ele>
        <time>2018-02-28T10:23:50Z</time>
      </trkpt>
      <trkpt lat="45.99754" lon="4.83084">
        <ele>272</ele>
        <time>2018-02-28T10:23:51Z</time>
      </trkpt>
      <trkpt lat="45.99754" lon="4.83093">
        <ele>272</ele>
        <time>2018-02-28T10:23:52Z</time>
      </trkpt>
      <trkpt lat="45.99756" lon="4.83102">
        <ele>272</ele>
        <time>2018-02-28T10:23:53Z</time>
      </trkpt>
      <trkpt lat="45.99756" lon="4.8311">
        <ele>271</ele>
        <time>2018-02-28T10:23:54Z</time>
      </trkpt>
      <trkpt lat="45.99756" lon="4.8312">
        <ele>271</ele>
        <time>2018-02-28T10:23:55Z</time>
      </trkpt>
      <trkpt lat="45.99757" lon="4.83131">
        <ele>271</ele>
        <time>2018-02-28T10:23:56Z</time>
      </trkpt>
      <trkpt lat="45.99758" lon="4.8314">
        <ele>271</ele>
        <time>2018-02-28T10:23:57Z</time>
      </trkpt>
      <trkpt lat="45.99759" lon="4.8315">
        <ele>271</ele>
        <time>2018-02-28T10:23:58Z</time>
      </trkpt>
      <trkpt lat="45.9976" lon="4.8316">
        <ele>270</ele>
        <time>2018-02-28T10:23:59Z</time>
      </trkpt>
      <trkpt lat="45.9976" lon="4.8317">
        <ele>269</ele>
        <time>2018-02-28T10:24:00Z</time>
      </trkpt>
      <trkpt lat="45.99761" lon="4.83181">
        <ele>269</ele>
        <time>2018-02-28T10:24:01Z</time>
      </trkpt>
      <trkpt lat="45.99762" lon="4.83191">
        <ele>269</ele>
        <time>2018-02-28T10:24:02Z</time>
      </trkpt>
      <trkpt lat="45.99763" lon="4.83202">
        <ele>268</ele>
        <time>2018-02-28T10:24:03Z</time>
      </trkpt>
      <trkpt lat="45.99765" lon="4.83213">
        <ele>268</ele>
        <time>2018-02-28T10:24:04Z</time>
      </trkpt>
      <trkpt lat="45.99766" lon="4.83223">
        <ele>267</ele>
        <time>2018-02-28T10:24:05Z</time>
      </trkpt>
      <trkpt lat="45.99767" lon="4.83234">
        <ele>267</ele>
        <time>2018-02-28T10:24:06Z</time>
      </trkpt>
      <trkpt lat="45.99768" lon="4.83245">
        <ele>267</ele>
        <time>2018-02-28T10:24:07Z</time>
      </trkpt>
      <trkpt lat="45.99769" lon="4.83256">
        <ele>265</ele>
        <time>2018-02-28T10:24:08Z</time>
      </trkpt>
      <trkpt lat="45.99771" lon="4.83266">
        <ele>265</ele>
        <time>2018-02-28T10:24:09Z</time>
      </trkpt>
      <trkpt lat="45.99772" lon="4.83277">
        <ele>265</ele>
        <time>2018-02-28T10:24:10Z</time>
      </trkpt>
      <trkpt lat="45.99773" lon="4.83289">
        <ele>264</ele>
        <time>2018-02-28T10:24:11Z</time>
      </trkpt>
      <trkpt lat="45.99774" lon="4.83299">
        <ele>264</ele>
        <time>2018-02-28T10:24:12Z</time>
      </trkpt>
      <trkpt lat="45.99775" lon="4.83308">
        <ele>264</ele>
        <time>2018-02-28T10:24:13Z</time>
      </trkpt>
      <trkpt lat="45.99777" lon="4.83318">
        <ele>264</ele>
        <time>2018-02-28T10:24:14Z</time>
      </trkpt>
      <trkpt lat="45.99779" lon="4.83328">
        <ele>264</ele>
        <time>2018-02-28T10:24:15Z</time>
      </trkpt>
      <trkpt lat="45.99782" lon="4.83337">
        <ele>263</ele>
        <time>2018-02-28T10:24:16Z</time>
      </trkpt>
      <trkpt lat="45.99783" lon="4.83345">
        <ele>263</ele>
        <time>2018-02-28T10:24:17Z</time>
      </trkpt>
      <trkpt lat="45.99785" lon="4.83354">
        <ele>262</ele>
        <time>2018-02-28T10:24:18Z</time>
      </trkpt>
      <trkpt lat="45.99787" lon="4.83363">
        <ele>262</ele>
        <time>2018-02-28T10:24:19Z</time>
      </trkpt>
      <trkpt lat="45.99789" lon="4.83372">
        <ele>262</ele>
        <time>2018-02-28T10:24:20Z</time>
      </trkpt>
      <trkpt lat="45.9979" lon="4.8338">
        <ele>262</ele>
        <time>2018-02-28T10:24:21Z</time>
      </trkpt>
      <trkpt lat="45.99793" lon="4.83388">
        <ele>262</ele>
        <time>2018-02-28T10:24:22Z</time>
      </trkpt>
      <trkpt lat="45.99794" lon="4.83396">
        <ele>262</ele>
        <time>2018-02-28T10:24:23Z</time>
      </trkpt>
      <trkpt lat="45.99796" lon="4.83404">
        <ele>262</ele>
        <time>2018-02-28T10:24:24Z</time>
      </trkpt>
      <trkpt lat="45.99798" lon="4.83413">
        <ele>262</ele>
        <time>2018-02-28T10:24:25Z</time>
      </trkpt>
      <trkpt lat="45.998" lon="4.83422">
        <ele>261</ele>
        <time>2018-02-28T10:24:26Z</time>
      </trkpt>
      <trkpt lat="45.99801" lon="4.8343">
        <ele>261</ele>
        <time>2018-02-28T10:24:27Z</time>
      </trkpt>
      <trkpt lat="45.99803" lon="4.83439">
        <ele>261</ele>
        <time>2018-02-28T10:24:28Z</time>
      </trkpt>
      <trkpt lat="45.99805" lon="4.83448">
        <ele>261</ele>
        <time>2018-02-28T10:24:29Z</time>
      </trkpt>
      <trkpt lat="45.99807" lon="4.83457">
        <ele>261</ele>
        <time>2018-02-28T10:24:30Z</time>
      </trkpt>
      <trkpt lat="45.99808" lon="4.83466">
        <ele>261</ele>
        <time>2018-02-28T10:24:31Z</time>
      </trkpt>
      <trkpt lat="45.9981" lon="4.83475">
        <ele>260</ele>
        <time>2018-02-28T10:24:32Z</time>
      </trkpt>
      <trkpt lat="45.99812" lon="4.83484">
        <ele>260</ele>
        <time>2018-02-28T10:24:33Z</time>
      </trkpt>
      <trkpt lat="45.99815" lon="4.83493">
        <ele>260</ele>
        <time>2018-02-28T10:24:34Z</time>
      </trkpt>
      <trkpt lat="45.99817" lon="4.83502">
        <ele>259</ele>
        <time>2018-02-28T10:24:35Z</time>
      </trkpt>
      <trkpt lat="45.99819" lon="4.8351">
        <ele>259</ele>
        <time>2018-02-28T10:24:36Z</time>
      </trkpt>
      <trkpt lat="45.9982" lon="4.83519">
        <ele>259</ele>
        <time>2018-02-28T10:24:37Z</time>
      </trkpt>
      <trkpt lat="45.99822" lon="4.83528">
        <ele>259</ele>
        <time>2018-02-28T10:24:38Z</time>
      </trkpt>
      <trkpt lat="45.99825" lon="4.83537">
        <ele>259</ele>
        <time>2018-02-28T10:24:39Z</time>
      </trkpt>
      <trkpt lat="45.99827" lon="4.83546">
        <ele>259</ele>
        <time>2018-02-28T10:24:40Z</time>
      </trkpt>
      <trkpt lat="45.99829" lon="4.83554">
        <ele>258</ele>
        <time>2018-02-28T10:24:41Z</time>
      </trkpt>
      <trkpt lat="45.99831" lon="4.83562">
        <ele>258</ele>
        <time>2018-02-28T10:24:42Z</time>
      </trkpt>
      <trkpt lat="45.99833" lon="4.83571">
        <ele>258</ele>
        <time>2018-02-28T10:24:43Z</time>
      </trkpt>
      <trkpt lat="45.99835" lon="4.83578">
        <ele>257</ele>
        <time>2018-02-28T10:24:44Z</time>
      </trkpt>
      <trkpt lat="45.99836" lon="4.83586">
        <ele>257</ele>
        <time>2018-02-28T10:24:45Z</time>
      </trkpt>
      <trkpt lat="45.99838" lon="4.83594">
        <ele>257</ele>
        <time>2018-02-28T10:24:46Z</time>
      </trkpt>
      <trkpt lat="45.9984" lon="4.83602">
        <ele>257</ele>
        <time>2018-02-28T10:24:47Z</time>
      </trkpt>
      <trkpt lat="45.99842" lon="4.83611">
        <ele>257</ele>
        <time>2018-02-28T10:24:48Z</time>
      </trkpt>
      <trkpt lat="45.99843" lon="4.83618">
        <ele>257</ele>
        <time>2018-02-28T10:24:49Z</time>
      </trkpt>
      <trkpt lat="45.99846" lon="4.83625">
        <ele>257</ele>
        <time>2018-02-28T10:24:50Z</time>
      </trkpt>
      <trkpt lat="45.99847" lon="4.83633">
        <ele>257</ele>
        <time>2018-02-28T10:24:51Z</time>
      </trkpt>
      <trkpt lat="45.99849" lon="4.83641">
        <ele>257</ele>
        <time>2018-02-28T10:24:52Z</time>
      </trkpt>
      <trkpt lat="45.99851" lon="4.83648">
        <ele>257</ele>
        <time>2018-02-28T10:24:53Z</time>
      </trkpt>
      <trkpt lat="45.99852" lon="4.83657">
        <ele>257</ele>
        <time>2018-02-28T10:24:54Z</time>
      </trkpt>
      <trkpt lat="45.99854" lon="4.83665">
        <ele>257</ele>
        <time>2018-02-28T10:24:55Z</time>
      </trkpt>
      <trkpt lat="45.99856" lon="4.83673">
        <ele>256</ele>
        <time>2018-02-28T10:24:56Z</time>
      </trkpt>
      <trkpt lat="45.99858" lon="4.8368">
        <ele>256</ele>
        <time>2018-02-28T10:24:57Z</time>
      </trkpt>
      <trkpt lat="45.9986" lon="4.83688">
        <ele>256</ele>
        <time>2018-02-28T10:24:58Z</time>
      </trkpt>
      <trkpt lat="45.99862" lon="4.83696">
        <ele>256</ele>
        <time>2018-02-28T10:24:59Z</time>
      </trkpt>
      <trkpt lat="45.99864" lon="4.83704">
        <ele>256</ele>
        <time>2018-02-28T10:25:00Z</time>
      </trkpt>
      <trkpt lat="45.99866" lon="4.83712">
        <ele>256</ele>
        <time>2018-02-28T10:25:01Z</time>
      </trkpt>
      <trkpt lat="45.99868" lon="4.8372">
        <ele>256</ele>
        <time>2018-02-28T10:25:02Z</time>
      </trkpt>
      <trkpt lat="45.99871" lon="4.83728">
        <ele>256</ele>
        <time>2018-02-28T10:25:03Z</time>
      </trkpt>
      <trkpt lat="45.99874" lon="4.83735">
        <ele>256</ele>
        <time>2018-02-28T10:25:04Z</time>
      </trkpt>
      <trkpt lat="45.99876" lon="4.83743">
        <ele>256</ele>
        <time>2018-02-28T10:25:05Z</time>
      </trkpt>
      <trkpt lat="45.99878" lon="4.83751">
        <ele>256</ele>
        <time>2018-02-28T10:25:06Z</time>
      </trkpt>
      <trkpt lat="45.99881" lon="4.83759">
        <ele>256</ele>
        <time>2018-02-28T10:25:07Z</time>
      </trkpt>
      <trkpt lat="45.99882" lon="4.83766">
        <ele>256</ele>
        <time>2018-02-28T10:25:08Z</time>
      </trkpt>
      <trkpt lat="45.99884" lon="4.83774">
        <ele>257</ele>
        <time>2018-02-28T10:25:09Z</time>
      </trkpt>
      <trkpt lat="45.99886" lon="4.8378">
        <ele>257</ele>
        <time>2018-02-28T10:25:10Z</time>
      </trkpt>
      <trkpt lat="45.99888" lon="4.83787">
        <ele>257</ele>
        <time>2018-02-28T10:25:11Z</time>
      </trkpt>
      <trkpt lat="45.9989" lon="4.83794">
        <ele>257</ele>
        <time>2018-02-28T10:25:12Z</time>
      </trkpt>
      <trkpt lat="45.99892" lon="4.83801">
        <ele>257</ele>
        <time>2018-02-28T10:25:13Z</time>
      </trkpt>
      <trkpt lat="45.99894" lon="4.83808">
        <ele>257</ele>
        <time>2018-02-28T10:25:14Z</time>
      </trkpt>
      <trkpt lat="45.99896" lon="4.83815">
        <ele>257</ele>
        <time>2018-02-28T10:25:15Z</time>
      </trkpt>
      <trkpt lat="45.99898" lon="4.83821">
        <ele>257</ele>
        <time>2018-02-28T10:25:16Z</time>
      </trkpt>
      <trkpt lat="45.999" lon="4.83828">
        <ele>257</ele>
        <time>2018-02-28T10:25:17Z</time>
      </trkpt>
      <trkpt lat="45.99902" lon="4.83834">
        <ele>258</ele>
        <time>2018-02-28T10:25:18Z</time>
      </trkpt>
      <trkpt lat="45.99904" lon="4.83841">
        <ele>258</ele>
        <time>2018-02-28T10:25:19Z</time>
      </trkpt>
      <trkpt lat="45.99906" lon="4.83848">
        <ele>258</ele>
        <time>2018-02-28T10:25:20Z</time>
      </trkpt>
      <trkpt lat="45.99908" lon="4.83854">
        <ele>258</ele>
        <time>2018-02-28T10:25:21Z</time>
      </trkpt>
      <trkpt lat="45.99909" lon="4.83861">
        <ele>258</ele>
        <time>2018-02-28T10:25:22Z</time>
      </trkpt>
      <trkpt lat="45.99911" lon="4.83867">
        <ele>258</ele>
        <time>2018-02-28T10:25:23Z</time>
      </trkpt>
      <trkpt lat="45.99913" lon="4.83873">
        <ele>258</ele>
        <time>2018-02-28T10:25:24Z</time>
      </trkpt>
      <trkpt lat="45.99914" lon="4.8388">
        <ele>258</ele>
        <time>2018-02-28T10:25:25Z</time>
      </trkpt>
      <trkpt lat="45.99917" lon="4.83886">
        <ele>259</ele>
        <time>2018-02-28T10:25:26Z</time>
      </trkpt>
      <trkpt lat="45.99919" lon="4.83893">
        <ele>259</ele>
        <time>2018-02-28T10:25:27Z</time>
      </trkpt>
      <trkpt lat="45.99921" lon="4.83899">
        <ele>259</ele>
        <time>2018-02-28T10:25:28Z</time>
      </trkpt>
      <trkpt lat="45.99923" lon="4.83905">
        <ele>259</ele>
        <time>2018-02-28T10:25:29Z</time>
      </trkpt>
      <trkpt lat="45.99924" lon="4.83912">
        <ele>259</ele>
        <time>2018-02-28T10:25:30Z</time>
      </trkpt>
      <trkpt lat="45.99925" lon="4.83918">
        <ele>259</ele>
        <time>2018-02-28T10:25:31Z</time>
      </trkpt>
      <trkpt lat="45.99927" lon="4.83925">
        <ele>259</ele>
        <time>2018-02-28T10:25:32Z</time>
      </trkpt>
      <trkpt lat="45.99928" lon="4.83931">
        <ele>259</ele>
        <time>2018-02-28T10:25:33Z</time>
      </trkpt>
      <trkpt lat="45.9993" lon="4.83937">
        <ele>259</ele>
        <time>2018-02-28T10:25:34Z</time>
      </trkpt>
      <trkpt lat="45.99932" lon="4.83944">
        <ele>259</ele>
        <time>2018-02-28T10:25:35Z</time>
      </trkpt>
      <trkpt lat="45.99934" lon="4.83951">
        <ele>259</ele>
        <time>2018-02-28T10:25:36Z</time>
      </trkpt>
      <trkpt lat="45.99935" lon="4.83957">
        <ele>259</ele>
        <time>2018-02-28T10:25:37Z</time>
      </trkpt>
      <trkpt lat="45.99937" lon="4.83962">
        <ele>259</ele>
        <time>2018-02-28T10:25:38Z</time>
      </trkpt>
      <trkpt lat="45.99939" lon="4.83969">
        <ele>259</ele>
        <time>2018-02-28T10:25:39Z</time>
      </trkpt>
      <trkpt lat="45.99942" lon="4.83975">
        <ele>259</ele>
        <time>2018-02-28T10:25:40Z</time>
      </trkpt>
      <trkpt lat="45.99944" lon="4.83981">
        <ele>259</ele>
        <time>2018-02-28T10:25:41Z</time>
      </trkpt>
      <trkpt lat="45.99946" lon="4.83988">
        <ele>259</ele>
        <time>2018-02-28T10:25:42Z</time>
      </trkpt>
      <trkpt lat="45.99948" lon="4.83996">
        <ele>259</ele>
        <time>2018-02-28T10:25:43Z</time>
      </trkpt>
      <trkpt lat="45.9995" lon="4.84002">
        <ele>259</ele>
        <time>2018-02-28T10:25:44Z</time>
      </trkpt>
      <trkpt lat="45.99951" lon="4.84008">
        <ele>259</ele>
        <time>2018-02-28T10:25:45Z</time>
      </trkpt>
      <trkpt lat="45.99953" lon="4.84015">
        <ele>259</ele>
        <time>2018-02-28T10:25:46Z</time>
      </trkpt>
      <trkpt lat="45.99955" lon="4.84022">
        <ele>259</ele>
        <time>2018-02-28T10:25:47Z</time>
      </trkpt>
      <trkpt lat="45.99957" lon="4.8403">
        <ele>259</ele>
        <time>2018-02-28T10:25:48Z</time>
      </trkpt>
      <trkpt lat="45.99958" lon="4.84037">
        <ele>259</ele>
        <time>2018-02-28T10:25:49Z</time>
      </trkpt>
      <trkpt lat="45.9996" lon="4.84044">
        <ele>259</ele>
        <time>2018-02-28T10:25:50Z</time>
      </trkpt>
      <trkpt lat="45.99962" lon="4.84052">
        <ele>258</ele>
        <time>2018-02-28T10:25:51Z</time>
      </trkpt>
      <trkpt lat="45.99964" lon="4.84059">
        <ele>258</ele>
        <time>2018-02-28T10:25:52Z</time>
      </trkpt>
      <trkpt lat="45.99967" lon="4.84067">
        <ele>258</ele>
        <time>2018-02-28T10:25:53Z</time>
      </trkpt>
      <trkpt lat="45.99969" lon="4.84074">
        <ele>259</ele>
        <time>2018-02-28T10:25:54Z</time>
      </trkpt>
      <trkpt lat="45.99972" lon="4.8408">
        <ele>259</ele>
        <time>2018-02-28T10:25:55Z</time>
      </trkpt>
      <trkpt lat="45.99974" lon="4.84088">
        <ele>258</ele>
        <time>2018-02-28T10:25:56Z</time>
      </trkpt>
      <trkpt lat="45.99977" lon="4.84094">
        <ele>258</ele>
        <time>2018-02-28T10:25:57Z</time>
      </trkpt>
      <trkpt lat="45.99978" lon="4.841">
        <ele>258</ele>
        <time>2018-02-28T10:25:58Z</time>
      </trkpt>
      <trkpt lat="45.99981" lon="4.84107">
        <ele>258</ele>
        <time>2018-02-28T10:25:59Z</time>
      </trkpt>
      <trkpt lat="45.99983" lon="4.84114">
        <ele>258</ele>
        <time>2018-02-28T10:26:00Z</time>
      </trkpt>
      <trkpt lat="45.99984" lon="4.84121">
        <ele>258</ele>
        <time>2018-02-28T10:26:01Z</time>
      </trkpt>
      <trkpt lat="45.99986" lon="4.84127">
        <ele>257</ele>
        <time>2018-02-28T10:26:02Z</time>
      </trkpt>
      <trkpt lat="45.99989" lon="4.84135">
        <ele>257</ele>
        <time>2018-02-28T10:26:03Z</time>
      </trkpt>
      <trkpt lat="45.99991" lon="4.84142">
        <ele>257</ele>
        <time>2018-02-28T10:26:04Z</time>
      </trkpt>
      <trkpt lat="45.99993" lon="4.84148">
        <ele>257</ele>
        <time>2018-02-28T10:26:05Z</time>
      </trkpt>
      <trkpt lat="45.99995" lon="4.84154">
        <ele>257</ele>
        <time>2018-02-28T10:26:06Z</time>
      </trkpt>
      <trkpt lat="45.99996" lon="4.84161">
        <ele>257</ele>
        <time>2018-02-28T10:26:07Z</time>
      </trkpt>
      <trkpt lat="45.99998" lon="4.84168">
        <ele>257</ele>
        <time>2018-02-28T10:26:08Z</time>
      </trkpt>
      <trkpt lat="46" lon="4.84176">
        <ele>258</ele>
        <time>2018-02-28T10:26:09Z</time>
      </trkpt>
      <trkpt lat="46.00002" lon="4.84183">
        <ele>258</ele>
        <time>2018-02-28T10:26:10Z</time>
      </trkpt>
      <trkpt lat="46.00003" lon="4.84191">
        <ele>258</ele>
        <time>2018-02-28T10:26:11Z</time>
      </trkpt>
      <trkpt lat="46.00005" lon="4.84198">
        <ele>258</ele>
        <time>2018-02-28T10:26:12Z</time>
      </trkpt>
      <trkpt lat="46.00007" lon="4.84205">
        <ele>259</ele>
        <time>2018-02-28T10:26:13Z</time>
      </trkpt>
      <trkpt lat="46.00009" lon="4.84211">
        <ele>259</ele>
        <time>2018-02-28T10:26:14Z</time>
      </trkpt>
      <trkpt lat="46.00011" lon="4.84218">
        <ele>259</ele>
        <time>2018-02-28T10:26:15Z</time>
      </trkpt>
      <trkpt lat="46.00015" lon="4.84229">
        <ele>259</ele>
        <time>2018-02-28T10:26:17Z</time>
      </trkpt>
      <trkpt lat="46.00016" lon="4.84235">
        <ele>259</ele>
        <time>2018-02-28T10:26:18Z</time>
      </trkpt>
      <trkpt lat="46.00017" lon="4.84241">
        <ele>259</ele>
        <time>2018-02-28T10:26:19Z</time>
      </trkpt>
      <trkpt lat="46.00018" lon="4.84248">
        <ele>259</ele>
        <time>2018-02-28T10:26:20Z</time>
      </trkpt>
      <trkpt lat="46.00021" lon="4.84259">
        <ele>260</ele>
        <time>2018-02-28T10:26:22Z</time>
      </trkpt>
      <trkpt lat="46.00022" lon="4.84264">
        <ele>260</ele>
        <time>2018-02-28T10:26:23Z</time>
      </trkpt>
      <trkpt lat="46.00026" lon="4.84274">
        <ele>260</ele>
        <time>2018-02-28T10:26:25Z</time>
      </trkpt>
      <trkpt lat="46.00028" lon="4.84279">
        <ele>260</ele>
        <time>2018-02-28T10:26:26Z</time>
      </trkpt>
      <trkpt lat="46.00031" lon="4.84291">
        <ele>260</ele>
        <time>2018-02-28T10:26:28Z</time>
      </trkpt>
      <trkpt lat="46.00032" lon="4.84296">
        <ele>259</ele>
        <time>2018-02-28T10:26:29Z</time>
      </trkpt>
      <trkpt lat="46.00034" lon="4.84308">
        <ele>259</ele>
        <time>2018-02-28T10:26:31Z</time>
      </trkpt>
      <trkpt lat="46.00036" lon="4.84315">
        <ele>259</ele>
        <time>2018-02-28T10:26:32Z</time>
      </trkpt>
      <trkpt lat="46.00038" lon="4.8432">
        <ele>259</ele>
        <time>2018-02-28T10:26:33Z</time>
      </trkpt>
      <trkpt lat="46.0004" lon="4.84327">
        <ele>259</ele>
        <time>2018-02-28T10:26:34Z</time>
      </trkpt>
      <trkpt lat="46.00041" lon="4.84333">
        <ele>259</ele>
        <time>2018-02-28T10:26:35Z</time>
      </trkpt>
      <trkpt lat="46.00042" lon="4.84341">
        <ele>259</ele>
        <time>2018-02-28T10:26:36Z</time>
      </trkpt>
      <trkpt lat="46.00044" lon="4.84347">
        <ele>259</ele>
        <time>2018-02-28T10:26:37Z</time>
      </trkpt>
      <trkpt lat="46.00045" lon="4.84353">
        <ele>259</ele>
        <time>2018-02-28T10:26:38Z</time>
      </trkpt>
      <trkpt lat="46.00046" lon="4.84361">
        <ele>259</ele>
        <time>2018-02-28T10:26:39Z</time>
      </trkpt>
      <trkpt lat="46.00048" lon="4.84367">
        <ele>259</ele>
        <time>2018-02-28T10:26:40Z</time>
      </trkpt>
      <trkpt lat="46.00049" lon="4.84373">
        <ele>259</ele>
        <time>2018-02-28T10:26:41Z</time>
      </trkpt>
      <trkpt lat="46.00051" lon="4.84379">
        <ele>259</ele>
        <time>2018-02-28T10:26:42Z</time>
      </trkpt>
      <trkpt lat="46.00052" lon="4.84385">
        <ele>259</ele>
        <time>2018-02-28T10:26:43Z</time>
      </trkpt>
      <trkpt lat="46.00054" lon="4.84392">
        <ele>259</ele>
        <time>2018-02-28T10:26:44Z</time>
      </trkpt>
      <trkpt lat="46.00055" lon="4.84399">
        <ele>259</ele>
        <time>2018-02-28T10:26:45Z</time>
      </trkpt>
      <trkpt lat="46.00056" lon="4.84405">
        <ele>259</ele>
        <time>2018-02-28T10:26:46Z</time>
      </trkpt>
      <trkpt lat="46.00057" lon="4.84412">
        <ele>259</ele>
        <time>2018-02-28T10:26:47Z</time>
      </trkpt>
      <trkpt lat="46.00058" lon="4.84419">
        <ele>258</ele>
        <time>2018-02-28T10:26:48Z</time>
      </trkpt>
      <trkpt lat="46.00059" lon="4.84426">
        <ele>258</ele>
        <time>2018-02-28T10:26:49Z</time>
      </trkpt>
      <trkpt lat="46.0006" lon="4.84433">
        <ele>258</ele>
        <time>2018-02-28T10:26:50Z</time>
      </trkpt>
      <trkpt lat="46.00061" lon="4.8444">
        <ele>258</ele>
        <time>2018-02-28T10:26:51Z</time>
      </trkpt>
      <trkpt lat="46.00061" lon="4.84447">
        <ele>258</ele>
        <time>2018-02-28T10:26:52Z</time>
      </trkpt>
      <trkpt lat="46.00063" lon="4.84454">
        <ele>258</ele>
        <time>2018-02-28T10:26:53Z</time>
      </trkpt>
      <trkpt lat="46.00064" lon="4.8446">
        <ele>258</ele>
        <time>2018-02-28T10:26:54Z</time>
      </trkpt>
      <trkpt lat="46.00065" lon="4.84467">
        <ele>258</ele>
        <time>2018-02-28T10:26:55Z</time>
      </trkpt>
      <trkpt lat="46.00067" lon="4.84473">
        <ele>258</ele>
        <time>2018-02-28T10:26:56Z</time>
      </trkpt>
      <trkpt lat="46.00068" lon="4.8448">
        <ele>258</ele>
        <time>2018-02-28T10:26:57Z</time>
      </trkpt>
      <trkpt lat="46.00069" lon="4.84487">
        <ele>258</ele>
        <time>2018-02-28T10:26:58Z</time>
      </trkpt>
      <trkpt lat="46.00071" lon="4.84495">
        <ele>259</ele>
        <time>2018-02-28T10:26:59Z</time>
      </trkpt>
      <trkpt lat="46.00071" lon="4.84502">
        <ele>258</ele>
        <time>2018-02-28T10:27:00Z</time>
      </trkpt>
      <trkpt lat="46.00073" lon="4.84508">
        <ele>258</ele>
        <time>2018-02-28T10:27:01Z</time>
      </trkpt>
      <trkpt lat="46.00074" lon="4.84515">
        <ele>258</ele>
        <time>2018-02-28T10:27:02Z</time>
      </trkpt>
      <trkpt lat="46.00075" lon="4.84522">
        <ele>258</ele>
        <time>2018-02-28T10:27:03Z</time>
      </trkpt>
      <trkpt lat="46.00076" lon="4.84529">
        <ele>257</ele>
        <time>2018-02-28T10:27:04Z</time>
      </trkpt>
      <trkpt lat="46.00077" lon="4.84536">
        <ele>257</ele>
        <time>2018-02-28T10:27:05Z</time>
      </trkpt>
      <trkpt lat="46.00078" lon="4.84544">
        <ele>257</ele>
        <time>2018-02-28T10:27:06Z</time>
      </trkpt>
      <trkpt lat="46.00079" lon="4.84552">
        <ele>257</ele>
        <time>2018-02-28T10:27:07Z</time>
      </trkpt>
      <trkpt lat="46.00078" lon="4.84559">
        <ele>257</ele>
        <time>2018-02-28T10:27:08Z</time>
      </trkpt>
      <trkpt lat="46.00078" lon="4.84567">
        <ele>257</ele>
        <time>2018-02-28T10:27:09Z</time>
      </trkpt>
      <trkpt lat="46.00078" lon="4.84575">
        <ele>257</ele>
        <time>2018-02-28T10:27:10Z</time>
      </trkpt>
      <trkpt lat="46.00078" lon="4.84581">
        <ele>257</ele>
        <time>2018-02-28T10:27:11Z</time>
      </trkpt>
      <trkpt lat="46.00078" lon="4.84589">
        <ele>257</ele>
        <time>2018-02-28T10:27:12Z</time>
      </trkpt>
      <trkpt lat="46.0008" lon="4.84601">
        <ele>256</ele>
        <time>2018-02-28T10:27:14Z</time>
      </trkpt>
      <trkpt lat="46.00079" lon="4.84608">
        <ele>256</ele>
        <time>2018-02-28T10:27:15Z</time>
      </trkpt>
      <trkpt lat="46.0008" lon="4.8462">
        <ele>256</ele>
        <time>2018-02-28T10:27:17Z</time>
      </trkpt>
      <trkpt lat="46.0008" lon="4.84627">
        <ele>256</ele>
        <time>2018-02-28T10:27:18Z</time>
      </trkpt>
      <trkpt lat="46.0008" lon="4.84633">
        <ele>256</ele>
        <time>2018-02-28T10:27:19Z</time>
      </trkpt>
      <trkpt lat="46.0008" lon="4.84641">
        <ele>256</ele>
        <time>2018-02-28T10:27:20Z</time>
      </trkpt>
      <trkpt lat="46.00081" lon="4.84648">
        <ele>256</ele>
        <time>2018-02-28T10:27:21Z</time>
      </trkpt>
      <trkpt lat="46.00081" lon="4.84654">
        <ele>256</ele>
        <time>2018-02-28T10:27:22Z</time>
      </trkpt>
      <trkpt lat="46.00081" lon="4.84665">
        <ele>256</ele>
        <time>2018-02-28T10:27:24Z</time>
      </trkpt>
      <trkpt lat="46.00081" lon="4.84671">
        <ele>256</ele>
        <time>2018-02-28T10:27:25Z</time>
      </trkpt>
      <trkpt lat="46.00082" lon="4.84683">
        <ele>256</ele>
        <time>2018-02-28T10:27:27Z</time>
      </trkpt>
      <trkpt lat="46.00082" lon="4.84685">
        <ele>256</ele>
        <time>2018-02-28T10:27:28Z</time>
      </trkpt>
      <trkpt lat="46.00082" lon="4.84698">
        <ele>257</ele>
        <time>2018-02-28T10:27:30Z</time>
      </trkpt>
      <trkpt lat="46.00082" lon="4.84701">
        <ele>257</ele>
        <time>2018-02-28T10:27:31Z</time>
      </trkpt>
      <trkpt lat="46.00086" lon="4.84708">
        <ele>257</ele>
        <time>2018-02-28T10:27:34Z</time>
      </trkpt>
      <trkpt lat="46.00089" lon="4.8471">
        <ele>257</ele>
        <time>2018-02-28T10:27:35Z</time>
      </trkpt>
      <trkpt lat="46.00095" lon="4.84711">
        <ele>257</ele>
        <time>2018-02-28T10:27:37Z</time>
      </trkpt>
      <trkpt lat="46.00098" lon="4.84711">
        <ele>257</ele>
        <time>2018-02-28T10:27:38Z</time>
      </trkpt>
      <trkpt lat="46.00107" lon="4.84711">
        <ele>257</ele>
        <time>2018-02-28T10:27:39Z</time>
      </trkpt>
      <trkpt lat="46.00116" lon="4.84712">
        <ele>257</ele>
        <time>2018-02-28T10:27:43Z</time>
      </trkpt>
      <trkpt lat="46.00123" lon="4.84714">
        <ele>258</ele>
        <time>2018-02-28T10:27:44Z</time>
      </trkpt>
      <trkpt lat="46.00131" lon="4.84716">
        <ele>258</ele>
        <time>2018-02-28T10:27:46Z</time>
      </trkpt>
      <trkpt lat="46.00136" lon="4.84716">
        <ele>258</ele>
        <time>2018-02-28T10:27:47Z</time>
      </trkpt>
      <trkpt lat="46.00141" lon="4.84716">
        <ele>258</ele>
        <time>2018-02-28T10:27:49Z</time>
      </trkpt>
      <trkpt lat="46.00147" lon="4.84716">
        <ele>258</ele>
        <time>2018-02-28T10:27:50Z</time>
      </trkpt>
      <trkpt lat="46.00155" lon="4.84719">
        <ele>258</ele>
        <time>2018-02-28T10:27:54Z</time>
      </trkpt>
      <trkpt lat="46.00157" lon="4.84721">
        <ele>258</ele>
        <time>2018-02-28T10:27:55Z</time>
      </trkpt>
      <trkpt lat="46.00159" lon="4.84732">
        <ele>258</ele>
        <time>2018-02-28T10:27:59Z</time>
      </trkpt>
      <trkpt lat="46.00158" lon="4.84735">
        <ele>258</ele>
        <time>2018-02-28T10:28:00Z</time>
      </trkpt>
      <trkpt lat="46.00156" lon="4.84747">
        <ele>258</ele>
        <time>2018-02-28T10:28:03Z</time>
      </trkpt>
      <trkpt lat="46.00155" lon="4.84751">
        <ele>259</ele>
        <time>2018-02-28T10:28:04Z</time>
      </trkpt>
      <trkpt lat="46.00157" lon="4.84762">
        <ele>259</ele>
        <time>2018-02-28T10:28:07Z</time>
      </trkpt>
      <trkpt lat="46.00157" lon="4.84765">
        <ele>259</ele>
        <time>2018-02-28T10:28:08Z</time>
      </trkpt>
      <trkpt lat="46.00159" lon="4.84777">
        <ele>259</ele>
        <time>2018-02-28T10:28:11Z</time>
      </trkpt>
      <trkpt lat="46.0016" lon="4.8478">
        <ele>259</ele>
        <time>2018-02-28T10:28:12Z</time>
      </trkpt>
      <trkpt lat="46.00161" lon="4.84791">
        <ele>260</ele>
        <time>2018-02-28T10:28:15Z</time>
      </trkpt>
      <trkpt lat="46.00161" lon="4.84795">
        <ele>260</ele>
        <time>2018-02-28T10:28:16Z</time>
      </trkpt>
      <trkpt lat="46.00162" lon="4.84807">
        <ele>260</ele>
        <time>2018-02-28T10:28:19Z</time>
      </trkpt>
      <trkpt lat="46.00162" lon="4.84812">
        <ele>260</ele>
        <time>2018-02-28T10:28:20Z</time>
      </trkpt>
      <trkpt lat="46.00162" lon="4.84816">
        <ele>260</ele>
        <time>2018-02-28T10:28:21Z</time>
      </trkpt>
      <trkpt lat="46.00163" lon="4.84828">
        <ele>261</ele>
        <time>2018-02-28T10:28:22Z</time>
      </trkpt>
      <trkpt lat="46.00165" lon="4.84841">
        <ele>262</ele>
        <time>2018-02-28T10:28:28Z</time>
      </trkpt>
      <trkpt lat="46.00165" lon="4.84843">
        <ele>262</ele>
        <time>2018-02-28T10:28:29Z</time>
      </trkpt>
      <trkpt lat="46.00158" lon="4.84848">
        <ele>262</ele>
        <time>2018-02-28T10:28:33Z</time>
      </trkpt>
      <trkpt lat="46.00156" lon="4.84849">
        <ele>262</ele>
        <time>2018-02-28T10:28:34Z</time>
      </trkpt>
      <trkpt lat="46.00152" lon="4.84859">
        <ele>263</ele>
        <time>2018-02-28T10:32:46Z</time>
      </trkpt>
      <trkpt lat="46.00151" lon="4.84859">
        <ele>263</ele>
        <time>2018-02-28T10:32:47Z</time>
      </trkpt>
      <trkpt lat="46.00146" lon="4.84849">
        <ele>262</ele>
        <time>2018-02-28T10:39:16Z</time>
      </trkpt>
      <trkpt lat="46.00144" lon="4.84847">
        <ele>262</ele>
        <time>2018-02-28T10:39:17Z</time>
      </trkpt>
      <trkpt lat="46.00136" lon="4.84845">
        <ele>262</ele>
        <time>2018-02-28T10:39:20Z</time>
      </trkpt>
      <trkpt lat="46.00134" lon="4.84845">
        <ele>262</ele>
        <time>2018-02-28T10:39:21Z</time>
      </trkpt>
      <trkpt lat="46.00126" lon="4.84846">
        <ele>263</ele>
        <time>2018-02-28T10:39:25Z</time>
      </trkpt>
      <trkpt lat="46.00123" lon="4.84846">
        <ele>263</ele>
        <time>2018-02-28T10:39:26Z</time>
      </trkpt>
      <trkpt lat="46.00116" lon="4.84848">
        <ele>263</ele>
        <time>2018-02-28T10:39:29Z</time>
      </trkpt>
      <trkpt lat="46.00113" lon="4.84848">
        <ele>263</ele>
        <time>2018-02-28T10:39:30Z</time>
      </trkpt>
      <trkpt lat="46.00104" lon="4.84851">
        <ele>263</ele>
        <time>2018-02-28T10:39:31Z</time>
      </trkpt>
      <trkpt lat="46.00096" lon="4.84853">
        <ele>263</ele>
        <time>2018-02-28T10:39:33Z</time>
      </trkpt>
      <trkpt lat="46.00092" lon="4.84854">
        <ele>263</ele>
        <time>2018-02-28T10:39:34Z</time>
      </trkpt>
      <trkpt lat="46.00084" lon="4.84854">
        <ele>263</ele>
        <time>2018-02-28T10:39:37Z</time>
      </trkpt>
      <trkpt lat="46.00082" lon="4.84854">
        <ele>262</ele>
        <time>2018-02-28T10:39:38Z</time>
      </trkpt>
      <trkpt lat="46.00076" lon="4.8485">
        <ele>262</ele>
        <time>2018-02-28T10:39:42Z</time>
      </trkpt>
      <trkpt lat="46.00073" lon="4.84839">
        <ele>262</ele>
        <time>2018-02-28T10:39:43Z</time>
      </trkpt>
      <trkpt lat="46.00075" lon="4.84831">
        <ele>261</ele>
        <time>2018-02-28T10:39:44Z</time>
      </trkpt>
      <trkpt lat="46.00076" lon="4.84824">
        <ele>261</ele>
        <time>2018-02-28T10:39:45Z</time>
      </trkpt>
      <trkpt lat="46.00079" lon="4.84812">
        <ele>260</ele>
        <time>2018-02-28T10:39:47Z</time>
      </trkpt>
      <trkpt lat="46.00079" lon="4.84805">
        <ele>260</ele>
        <time>2018-02-28T10:39:48Z</time>
      </trkpt>
      <trkpt lat="46.0008" lon="4.84798">
        <ele>260</ele>
        <time>2018-02-28T10:39:49Z</time>
      </trkpt>
      <trkpt lat="46.0008" lon="4.8479">
        <ele>259</ele>
        <time>2018-02-28T10:39:50Z</time>
      </trkpt>
      <trkpt lat="46.00081" lon="4.84782">
        <ele>259</ele>
        <time>2018-02-28T10:39:51Z</time>
      </trkpt>
      <trkpt lat="46.00082" lon="4.84775">
        <ele>259</ele>
        <time>2018-02-28T10:39:52Z</time>
      </trkpt>
      <trkpt lat="46.00082" lon="4.84767">
        <ele>259</ele>
        <time>2018-02-28T10:39:53Z</time>
      </trkpt>
      <trkpt lat="46.00081" lon="4.8476">
        <ele>258</ele>
        <time>2018-02-28T10:39:54Z</time>
      </trkpt>
      <trkpt lat="46.00081" lon="4.84752">
        <ele>258</ele>
        <time>2018-02-28T10:39:55Z</time>
      </trkpt>
      <trkpt lat="46.00082" lon="4.84745">
        <ele>258</ele>
        <time>2018-02-28T10:39:56Z</time>
      </trkpt>
      <trkpt lat="46.00082" lon="4.84738">
        <ele>257</ele>
        <time>2018-02-28T10:39:57Z</time>
      </trkpt>
      <trkpt lat="46.00083" lon="4.84731">
        <ele>257</ele>
        <time>2018-02-28T10:39:58Z</time>
      </trkpt>
      <trkpt lat="46.00083" lon="4.84724">
        <ele>258</ele>
        <time>2018-02-28T10:39:59Z</time>
      </trkpt>
      <trkpt lat="46.00084" lon="4.84718">
        <ele>257</ele>
        <time>2018-02-28T10:40:00Z</time>
      </trkpt>
      <trkpt lat="46.00083" lon="4.84712">
        <ele>257</ele>
        <time>2018-02-28T10:40:01Z</time>
      </trkpt>
      <trkpt lat="46.00083" lon="4.84705">
        <ele>257</ele>
        <time>2018-02-28T10:40:02Z</time>
      </trkpt>
      <trkpt lat="46.00082" lon="4.84694">
        <ele>256</ele>
        <time>2018-02-28T10:40:04Z</time>
      </trkpt>
      <trkpt lat="46.00079" lon="4.8469">
        <ele>256</ele>
        <time>2018-02-28T10:40:05Z</time>
      </trkpt>
      <trkpt lat="46.0007" lon="4.8469">
        <ele>256</ele>
        <time>2018-02-28T10:40:07Z</time>
      </trkpt>
      <trkpt lat="46.00066" lon="4.84691">
        <ele>256</ele>
        <time>2018-02-28T10:40:08Z</time>
      </trkpt>
      <trkpt lat="46.0006" lon="4.84691">
        <ele>256</ele>
        <time>2018-02-28T10:40:09Z</time>
      </trkpt>
      <trkpt lat="46.00055" lon="4.84692">
        <ele>256</ele>
        <time>2018-02-28T10:40:10Z</time>
      </trkpt>
      <trkpt lat="46.0005" lon="4.84691">
        <ele>256</ele>
        <time>2018-02-28T10:40:11Z</time>
      </trkpt>
      <trkpt lat="46.00045" lon="4.84691">
        <ele>256</ele>
        <time>2018-02-28T10:40:12Z</time>
      </trkpt>
      <trkpt lat="46.00039" lon="4.84689">
        <ele>256</ele>
        <time>2018-02-28T10:40:13Z</time>
      </trkpt>
      <trkpt lat="46.00035" lon="4.84688">
        <ele>256</ele>
        <time>2018-02-28T10:40:14Z</time>
      </trkpt>
      <trkpt lat="46.00029" lon="4.84686">
        <ele>256</ele>
        <time>2018-02-28T10:40:15Z</time>
      </trkpt>
      <trkpt lat="46.00023" lon="4.84685">
        <ele>256</ele>
        <time>2018-02-28T10:40:16Z</time>
      </trkpt>
      <trkpt lat="46.00017" lon="4.84684">
        <ele>256</ele>
        <time>2018-02-28T10:40:17Z</time>
      </trkpt>
      <trkpt lat="46.00011" lon="4.84683">
        <ele>256</ele>
        <time>2018-02-28T10:40:18Z</time>
      </trkpt>
      <trkpt lat="46.00006" lon="4.84683">
        <ele>256</ele>
        <time>2018-02-28T10:40:19Z</time>
      </trkpt>
      <trkpt lat="46" lon="4.84683">
        <ele>255</ele>
        <time>2018-02-28T10:40:20Z</time>
      </trkpt>
      <trkpt lat="45.99995" lon="4.84681">
        <ele>255</ele>
        <time>2018-02-28T10:40:21Z</time>
      </trkpt>
      <trkpt lat="45.9999" lon="4.84679">
        <ele>255</ele>
        <time>2018-02-28T10:40:22Z</time>
      </trkpt>
      <trkpt lat="45.99986" lon="4.84678">
        <ele>255</ele>
        <time>2018-02-28T10:40:23Z</time>
      </trkpt>
      <trkpt lat="45.99981" lon="4.84676">
        <ele>255</ele>
        <time>2018-02-28T10:40:24Z</time>
      </trkpt>
      <trkpt lat="45.99976" lon="4.84675">
        <ele>255</ele>
        <time>2018-02-28T10:40:25Z</time>
      </trkpt>
      <trkpt lat="45.9997" lon="4.84673">
        <ele>255</ele>
        <time>2018-02-28T10:40:26Z</time>
      </trkpt>
      <trkpt lat="45.99965" lon="4.84671">
        <ele>255</ele>
        <time>2018-02-28T10:40:27Z</time>
      </trkpt>
      <trkpt lat="45.99959" lon="4.8467">
        <ele>255</ele>
        <time>2018-02-28T10:40:28Z</time>
      </trkpt>
      <trkpt lat="45.99953" lon="4.84668">
        <ele>255</ele>
        <time>2018-02-28T10:40:29Z</time>
      </trkpt>
      <trkpt lat="45.99948" lon="4.84667">
        <ele>254</ele>
        <time>2018-02-28T10:40:30Z</time>
      </trkpt>
      <trkpt lat="45.99943" lon="4.84665">
        <ele>254</ele>
        <time>2018-02-28T10:40:31Z</time>
      </trkpt>
      <trkpt lat="45.99937" lon="4.84664">
        <ele>254</ele>
        <time>2018-02-28T10:40:32Z</time>
      </trkpt>
      <trkpt lat="45.99932" lon="4.84662">
        <ele>254</ele>
        <time>2018-02-28T10:40:33Z</time>
      </trkpt>
      <trkpt lat="45.99928" lon="4.8466">
        <ele>254</ele>
        <time>2018-02-28T10:40:34Z</time>
      </trkpt>
      <trkpt lat="45.99922" lon="4.84659">
        <ele>254</ele>
        <time>2018-02-28T10:40:35Z</time>
      </trkpt>
      <trkpt lat="45.99917" lon="4.84658">
        <ele>254</ele>
        <time>2018-02-28T10:40:36Z</time>
      </trkpt>
      <trkpt lat="45.99913" lon="4.84656">
        <ele>254</ele>
        <time>2018-02-28T10:40:37Z</time>
      </trkpt>
      <trkpt lat="45.99908" lon="4.84655">
        <ele>254</ele>
        <time>2018-02-28T10:40:38Z</time>
      </trkpt>
      <trkpt lat="45.99903" lon="4.84654">
        <ele>254</ele>
        <time>2018-02-28T10:40:39Z</time>
      </trkpt>
      <trkpt lat="45.99898" lon="4.84653">
        <ele>254</ele>
        <time>2018-02-28T10:40:40Z</time>
      </trkpt>
      <trkpt lat="45.99894" lon="4.84652">
        <ele>254</ele>
        <time>2018-02-28T10:40:41Z</time>
      </trkpt>
      <trkpt lat="45.99889" lon="4.84649">
        <ele>254</ele>
        <time>2018-02-28T10:40:42Z</time>
      </trkpt>
      <trkpt lat="45.99884" lon="4.84648">
        <ele>254</ele>
        <time>2018-02-28T10:40:43Z</time>
      </trkpt>
      <trkpt lat="45.99878" lon="4.84646">
        <ele>254</ele>
        <time>2018-02-28T10:40:44Z</time>
      </trkpt>
      <trkpt lat="45.99873" lon="4.84645">
        <ele>254</ele>
        <time>2018-02-28T10:40:45Z</time>
      </trkpt>
      <trkpt lat="45.99868" lon="4.84643">
        <ele>254</ele>
        <time>2018-02-28T10:40:46Z</time>
      </trkpt>
      <trkpt lat="45.99862" lon="4.84641">
        <ele>254</ele>
        <time>2018-02-28T10:40:47Z</time>
      </trkpt>
      <trkpt lat="45.99857" lon="4.8464">
        <ele>254</ele>
        <time>2018-02-28T10:40:48Z</time>
      </trkpt>
      <trkpt lat="45.99851" lon="4.84638">
        <ele>254</ele>
        <time>2018-02-28T10:40:49Z</time>
      </trkpt>
      <trkpt lat="45.99846" lon="4.84636">
        <ele>254</ele>
        <time>2018-02-28T10:40:50Z</time>
      </trkpt>
      <trkpt lat="45.9984" lon="4.84635">
        <ele>254</ele>
        <time>2018-02-28T10:40:51Z</time>
      </trkpt>
      <trkpt lat="45.99835" lon="4.84633">
        <ele>254</ele>
        <time>2018-02-28T10:40:52Z</time>
      </trkpt>
      <trkpt lat="45.99829" lon="4.84633">
        <ele>254</ele>
        <time>2018-02-28T10:40:53Z</time>
      </trkpt>
      <trkpt lat="45.99823" lon="4.84631">
        <ele>254</ele>
        <time>2018-02-28T10:40:54Z</time>
      </trkpt>
      <trkpt lat="45.99817" lon="4.8463">
        <ele>254</ele>
        <time>2018-02-28T10:40:55Z</time>
      </trkpt>
      <trkpt lat="45.99812" lon="4.84629">
        <ele>254</ele>
        <time>2018-02-28T10:40:56Z</time>
      </trkpt>
      <trkpt lat="45.99808" lon="4.84628">
        <ele>254</ele>
        <time>2018-02-28T10:40:57Z</time>
      </trkpt>
      <trkpt lat="45.99803" lon="4.84627">
        <ele>254</ele>
        <time>2018-02-28T10:40:58Z</time>
      </trkpt>
      <trkpt lat="45.99797" lon="4.84625">
        <ele>254</ele>
        <time>2018-02-28T10:40:59Z</time>
      </trkpt>
      <trkpt lat="45.99794" lon="4.84624">
        <ele>254</ele>
        <time>2018-02-28T10:41:00Z</time>
      </trkpt>
      <trkpt lat="45.99789" lon="4.84623">
        <ele>254</ele>
        <time>2018-02-28T10:41:01Z</time>
      </trkpt>
      <trkpt lat="45.99783" lon="4.84622">
        <ele>254</ele>
        <time>2018-02-28T10:41:02Z</time>
      </trkpt>
      <trkpt lat="45.99778" lon="4.84621">
        <ele>254</ele>
        <time>2018-02-28T10:41:03Z</time>
      </trkpt>
      <trkpt lat="45.99773" lon="4.84621">
        <ele>254</ele>
        <time>2018-02-28T10:41:04Z</time>
      </trkpt>
      <trkpt lat="45.99768" lon="4.8462">
        <ele>254</ele>
        <time>2018-02-28T10:41:05Z</time>
      </trkpt>
      <trkpt lat="45.99763" lon="4.84619">
        <ele>254</ele>
        <time>2018-02-28T10:41:06Z</time>
      </trkpt>
      <trkpt lat="45.99756" lon="4.8462">
        <ele>254</ele>
        <time>2018-02-28T10:41:07Z</time>
      </trkpt>
      <trkpt lat="45.9975" lon="4.8462">
        <ele>254</ele>
        <time>2018-02-28T10:41:08Z</time>
      </trkpt>
      <trkpt lat="45.99745" lon="4.84619">
        <ele>253</ele>
        <time>2018-02-28T10:41:09Z</time>
      </trkpt>
      <trkpt lat="45.9974" lon="4.8462">
        <ele>253</ele>
        <time>2018-02-28T10:41:10Z</time>
      </trkpt>
      <trkpt lat="45.99734" lon="4.84621">
        <ele>252</ele>
        <time>2018-02-28T10:41:11Z</time>
      </trkpt>
      <trkpt lat="45.99727" lon="4.84623">
        <ele>252</ele>
        <time>2018-02-28T10:41:12Z</time>
      </trkpt>
      <trkpt lat="45.99721" lon="4.84625">
        <ele>252</ele>
        <time>2018-02-28T10:41:13Z</time>
      </trkpt>
      <trkpt lat="45.99715" lon="4.84625">
        <ele>252</ele>
        <time>2018-02-28T10:41:14Z</time>
      </trkpt>
      <trkpt lat="45.99709" lon="4.84627">
        <ele>252</ele>
        <time>2018-02-28T10:41:15Z</time>
      </trkpt>
      <trkpt lat="45.99701" lon="4.84629">
        <ele>252</ele>
        <time>2018-02-28T10:41:16Z</time>
      </trkpt>
      <trkpt lat="45.99695" lon="4.8463">
        <ele>252</ele>
        <time>2018-02-28T10:41:17Z</time>
      </trkpt>
      <trkpt lat="45.99688" lon="4.84631">
        <ele>252</ele>
        <time>2018-02-28T10:41:18Z</time>
      </trkpt>
      <trkpt lat="45.99682" lon="4.84632">
        <ele>252</ele>
        <time>2018-02-28T10:41:19Z</time>
      </trkpt>
      <trkpt lat="45.99675" lon="4.84633">
        <ele>252</ele>
        <time>2018-02-28T10:41:20Z</time>
      </trkpt>
      <trkpt lat="45.99668" lon="4.84634">
        <ele>251</ele>
        <time>2018-02-28T10:41:21Z</time>
      </trkpt>
      <trkpt lat="45.99662" lon="4.84634">
        <ele>250</ele>
        <time>2018-02-28T10:41:22Z</time>
      </trkpt>
      <trkpt lat="45.99655" lon="4.84635">
        <ele>250</ele>
        <time>2018-02-28T10:41:23Z</time>
      </trkpt>
      <trkpt lat="45.99648" lon="4.84636">
        <ele>250</ele>
        <time>2018-02-28T10:41:24Z</time>
      </trkpt>
      <trkpt lat="45.99641" lon="4.84638">
        <ele>250</ele>
        <time>2018-02-28T10:41:25Z</time>
      </trkpt>
      <trkpt lat="45.99634" lon="4.8464">
        <ele>250</ele>
        <time>2018-02-28T10:41:26Z</time>
      </trkpt>
      <trkpt lat="45.99627" lon="4.84641">
        <ele>250</ele>
        <time>2018-02-28T10:41:27Z</time>
      </trkpt>
      <trkpt lat="45.99621" lon="4.84644">
        <ele>250</ele>
        <time>2018-02-28T10:41:28Z</time>
      </trkpt>
      <trkpt lat="45.99614" lon="4.84646">
        <ele>250</ele>
        <time>2018-02-28T10:41:29Z</time>
      </trkpt>
      <trkpt lat="45.99607" lon="4.84647">
        <ele>250</ele>
        <time>2018-02-28T10:41:30Z</time>
      </trkpt>
      <trkpt lat="45.996" lon="4.84648">
        <ele>250</ele>
        <time>2018-02-28T10:41:31Z</time>
      </trkpt>
      <trkpt lat="45.99594" lon="4.84648">
        <ele>250</ele>
        <time>2018-02-28T10:41:32Z</time>
      </trkpt>
      <trkpt lat="45.99589" lon="4.84649">
        <ele>250</ele>
        <time>2018-02-28T10:41:33Z</time>
      </trkpt>
      <trkpt lat="45.99583" lon="4.84651">
        <ele>250</ele>
        <time>2018-02-28T10:41:34Z</time>
      </trkpt>
      <trkpt lat="45.99577" lon="4.84651">
        <ele>250</ele>
        <time>2018-02-28T10:41:35Z</time>
      </trkpt>
      <trkpt lat="45.9957" lon="4.84652">
        <ele>250</ele>
        <time>2018-02-28T10:41:36Z</time>
      </trkpt>
      <trkpt lat="45.99564" lon="4.84654">
        <ele>250</ele>
        <time>2018-02-28T10:41:37Z</time>
      </trkpt>
      <trkpt lat="45.99558" lon="4.84654">
        <ele>250</ele>
        <time>2018-02-28T10:41:38Z</time>
      </trkpt>
      <trkpt lat="45.99552" lon="4.84654">
        <ele>250</ele>
        <time>2018-02-28T10:41:39Z</time>
      </trkpt>
      <trkpt lat="45.99546" lon="4.84656">
        <ele>250</ele>
        <time>2018-02-28T10:41:40Z</time>
      </trkpt>
      <trkpt lat="45.9954" lon="4.84657">
        <ele>250</ele>
        <time>2018-02-28T10:41:41Z</time>
      </trkpt>
      <trkpt lat="45.99533" lon="4.84658">
        <ele>250</ele>
        <time>2018-02-28T10:41:42Z</time>
      </trkpt>
      <trkpt lat="45.99527" lon="4.84659">
        <ele>250</ele>
        <time>2018-02-28T10:41:43Z</time>
      </trkpt>
      <trkpt lat="45.99522" lon="4.84661">
        <ele>250</ele>
        <time>2018-02-28T10:41:44Z</time>
      </trkpt>
      <trkpt lat="45.99516" lon="4.84662">
        <ele>250</ele>
        <time>2018-02-28T10:41:45Z</time>
      </trkpt>
      <trkpt lat="45.9951" lon="4.84664">
        <ele>250</ele>
        <time>2018-02-28T10:41:46Z</time>
      </trkpt>
      <trkpt lat="45.99504" lon="4.84666">
        <ele>251</ele>
        <time>2018-02-28T10:41:47Z</time>
      </trkpt>
      <trkpt lat="45.99496" lon="4.84667">
        <ele>251</ele>
        <time>2018-02-28T10:41:48Z</time>
      </trkpt>
      <trkpt lat="45.9949" lon="4.84669">
        <ele>251</ele>
        <time>2018-02-28T10:41:49Z</time>
      </trkpt>
      <trkpt lat="45.99484" lon="4.84672">
        <ele>250</ele>
        <time>2018-02-28T10:41:50Z</time>
      </trkpt>
      <trkpt lat="45.99477" lon="4.84674">
        <ele>250</ele>
        <time>2018-02-28T10:41:51Z</time>
      </trkpt>
      <trkpt lat="45.99471" lon="4.84676">
        <ele>250</ele>
        <time>2018-02-28T10:41:52Z</time>
      </trkpt>
      <trkpt lat="45.99465" lon="4.84679">
        <ele>250</ele>
        <time>2018-02-28T10:41:53Z</time>
      </trkpt>
      <trkpt lat="45.99459" lon="4.84682">
        <ele>250</ele>
        <time>2018-02-28T10:41:54Z</time>
      </trkpt>
      <trkpt lat="45.99453" lon="4.84685">
        <ele>250</ele>
        <time>2018-02-28T10:41:55Z</time>
      </trkpt>
      <trkpt lat="45.99448" lon="4.84688">
        <ele>249</ele>
        <time>2018-02-28T10:41:56Z</time>
      </trkpt>
      <trkpt lat="45.99442" lon="4.84691">
        <ele>249</ele>
        <time>2018-02-28T10:41:57Z</time>
      </trkpt>
      <trkpt lat="45.99437" lon="4.84693">
        <ele>249</ele>
        <time>2018-02-28T10:41:58Z</time>
      </trkpt>
      <trkpt lat="45.99431" lon="4.84696">
        <ele>249</ele>
        <time>2018-02-28T10:41:59Z</time>
      </trkpt>
      <trkpt lat="45.99426" lon="4.84699">
        <ele>249</ele>
        <time>2018-02-28T10:42:00Z</time>
      </trkpt>
      <trkpt lat="45.9942" lon="4.84702">
        <ele>249</ele>
        <time>2018-02-28T10:42:01Z</time>
      </trkpt>
      <trkpt lat="45.99414" lon="4.84706">
        <ele>249</ele>
        <time>2018-02-28T10:42:02Z</time>
      </trkpt>
      <trkpt lat="45.99409" lon="4.84708">
        <ele>249</ele>
        <time>2018-02-28T10:42:03Z</time>
      </trkpt>
      <trkpt lat="45.99404" lon="4.84711">
        <ele>249</ele>
        <time>2018-02-28T10:42:04Z</time>
      </trkpt>
      <trkpt lat="45.99398" lon="4.84715">
        <ele>249</ele>
        <time>2018-02-28T10:42:05Z</time>
      </trkpt>
      <trkpt lat="45.99394" lon="4.84717">
        <ele>249</ele>
        <time>2018-02-28T10:42:06Z</time>
      </trkpt>
      <trkpt lat="45.99389" lon="4.84721">
        <ele>249</ele>
        <time>2018-02-28T10:42:07Z</time>
      </trkpt>
      <trkpt lat="45.99384" lon="4.84723">
        <ele>249</ele>
        <time>2018-02-28T10:42:08Z</time>
      </trkpt>
      <trkpt lat="45.99379" lon="4.84726">
        <ele>250</ele>
        <time>2018-02-28T10:42:09Z</time>
      </trkpt>
      <trkpt lat="45.99374" lon="4.84728">
        <ele>250</ele>
        <time>2018-02-28T10:42:10Z</time>
      </trkpt>
      <trkpt lat="45.9937" lon="4.8473">
        <ele>250</ele>
        <time>2018-02-28T10:42:11Z</time>
      </trkpt>
      <trkpt lat="45.99366" lon="4.84733">
        <ele>250</ele>
        <time>2018-02-28T10:42:12Z</time>
      </trkpt>
      <trkpt lat="45.99362" lon="4.84735">
        <ele>250</ele>
        <time>2018-02-28T10:42:13Z</time>
      </trkpt>
      <trkpt lat="45.99357" lon="4.84737">
        <ele>250</ele>
        <time>2018-02-28T10:42:14Z</time>
      </trkpt>
      <trkpt lat="45.99353" lon="4.84739">
        <ele>250</ele>
        <time>2018-02-28T10:42:15Z</time>
      </trkpt>
      <trkpt lat="45.99349" lon="4.84742">
        <ele>250</ele>
        <time>2018-02-28T10:42:16Z</time>
      </trkpt>
      <trkpt lat="45.9934" lon="4.84746">
        <ele>251</ele>
        <time>2018-02-28T10:42:18Z</time>
      </trkpt>
      <trkpt lat="45.99336" lon="4.84748">
        <ele>251</ele>
        <time>2018-02-28T10:42:19Z</time>
      </trkpt>
      <trkpt lat="45.99331" lon="4.8475">
        <ele>251</ele>
        <time>2018-02-28T10:42:20Z</time>
      </trkpt>
      <trkpt lat="45.99327" lon="4.84753">
        <ele>252</ele>
        <time>2018-02-28T10:42:21Z</time>
      </trkpt>
      <trkpt lat="45.99322" lon="4.84755">
        <ele>252</ele>
        <time>2018-02-28T10:42:22Z</time>
      </trkpt>
      <trkpt lat="45.99318" lon="4.84758">
        <ele>252</ele>
        <time>2018-02-28T10:42:23Z</time>
      </trkpt>
      <trkpt lat="45.99313" lon="4.84761">
        <ele>252</ele>
        <time>2018-02-28T10:42:24Z</time>
      </trkpt>
      <trkpt lat="45.99309" lon="4.84762">
        <ele>252</ele>
        <time>2018-02-28T10:42:25Z</time>
      </trkpt>
      <trkpt lat="45.99305" lon="4.84765">
        <ele>253</ele>
        <time>2018-02-28T10:42:26Z</time>
      </trkpt>
      <trkpt lat="45.993" lon="4.84767">
        <ele>253</ele>
        <time>2018-02-28T10:42:27Z</time>
      </trkpt>
      <trkpt lat="45.99292" lon="4.84772">
        <ele>253</ele>
        <time>2018-02-28T10:42:29Z</time>
      </trkpt>
      <trkpt lat="45.99289" lon="4.84773">
        <ele>253</ele>
        <time>2018-02-28T10:42:30Z</time>
      </trkpt>
      <trkpt lat="45.99282" lon="4.84776">
        <ele>253</ele>
        <time>2018-02-28T10:42:32Z</time>
      </trkpt>
      <trkpt lat="45.9928" lon="4.84776">
        <ele>253</ele>
        <time>2018-02-28T10:42:33Z</time>
      </trkpt>
      <trkpt lat="45.99272" lon="4.8478">
        <ele>253</ele>
        <time>2018-02-28T10:42:35Z</time>
      </trkpt>
      <trkpt lat="45.9927" lon="4.84781">
        <ele>253</ele>
        <time>2018-02-28T10:42:36Z</time>
      </trkpt>
      <trkpt lat="45.99263" lon="4.84786">
        <ele>253</ele>
        <time>2018-02-28T10:42:39Z</time>
      </trkpt>
      <trkpt lat="45.99261" lon="4.84788">
        <ele>254</ele>
        <time>2018-02-28T10:42:40Z</time>
      </trkpt>
      <trkpt lat="45.99255" lon="4.8479">
        <ele>254</ele>
        <time>2018-02-28T10:42:42Z</time>
      </trkpt>
      <trkpt lat="45.99252" lon="4.84791">
        <ele>254</ele>
        <time>2018-02-28T10:42:43Z</time>
      </trkpt>
      <trkpt lat="45.99246" lon="4.84794">
        <ele>256</ele>
        <time>2018-02-28T10:42:45Z</time>
      </trkpt>
      <trkpt lat="45.99243" lon="4.84796">
        <ele>256</ele>
        <time>2018-02-28T10:42:46Z</time>
      </trkpt>
      <trkpt lat="45.99237" lon="4.848">
        <ele>256</ele>
        <time>2018-02-28T10:42:48Z</time>
      </trkpt>
      <trkpt lat="45.99234" lon="4.84803">
        <ele>256</ele>
        <time>2018-02-28T10:42:49Z</time>
      </trkpt>
      <trkpt lat="45.99229" lon="4.84807">
        <ele>257</ele>
        <time>2018-02-28T10:42:51Z</time>
      </trkpt>
      <trkpt lat="45.99225" lon="4.84809">
        <ele>257</ele>
        <time>2018-02-28T10:42:52Z</time>
      </trkpt>
      <trkpt lat="45.99219" lon="4.84811">
        <ele>257</ele>
        <time>2018-02-28T10:42:54Z</time>
      </trkpt>
      <trkpt lat="45.9921" lon="4.84814">
        <ele>257</ele>
        <time>2018-02-28T10:42:55Z</time>
      </trkpt>
      <trkpt lat="45.99201" lon="4.84818">
        <ele>257</ele>
        <time>2018-02-28T10:42:59Z</time>
      </trkpt>
      <trkpt lat="45.99199" lon="4.84819">
        <ele>258</ele>
        <time>2018-02-28T10:43:00Z</time>
      </trkpt>
      <trkpt lat="45.99191" lon="4.84823">
        <ele>258</ele>
        <time>2018-02-28T10:43:03Z</time>
      </trkpt>
      <trkpt lat="45.99188" lon="4.84825">
        <ele>258</ele>
        <time>2018-02-28T10:43:04Z</time>
      </trkpt>
      <trkpt lat="45.9918" lon="4.84829">
        <ele>258</ele>
        <time>2018-02-28T10:43:07Z</time>
      </trkpt>
      <trkpt lat="45.99177" lon="4.8483">
        <ele>258</ele>
        <time>2018-02-28T10:43:08Z</time>
      </trkpt>
      <trkpt lat="45.99172" lon="4.84834">
        <ele>258</ele>
        <time>2018-02-28T10:43:10Z</time>
      </trkpt>
      <trkpt lat="45.99169" lon="4.84836">
        <ele>259</ele>
        <time>2018-02-28T10:43:11Z</time>
      </trkpt>
      <trkpt lat="45.9916" lon="4.8484">
        <ele>259</ele>
        <time>2018-02-28T10:43:14Z</time>
      </trkpt>
      <trkpt lat="45.99157" lon="4.84842">
        <ele>259</ele>
        <time>2018-02-28T10:43:15Z</time>
      </trkpt>
      <trkpt lat="45.99152" lon="4.84846">
        <ele>260</ele>
        <time>2018-02-28T10:43:17Z</time>
      </trkpt>
      <trkpt lat="45.99149" lon="4.84848">
        <ele>260</ele>
        <time>2018-02-28T10:43:18Z</time>
      </trkpt>
      <trkpt lat="45.99143" lon="4.84851">
        <ele>260</ele>
        <time>2018-02-28T10:43:20Z</time>
      </trkpt>
      <trkpt lat="45.9914" lon="4.84853">
        <ele>260</ele>
        <time>2018-02-28T10:43:21Z</time>
      </trkpt>
      <trkpt lat="45.99135" lon="4.84856">
        <ele>260</ele>
        <time>2018-02-28T10:43:23Z</time>
      </trkpt>
      <trkpt lat="45.99132" lon="4.84858">
        <ele>260</ele>
        <time>2018-02-28T10:43:24Z</time>
      </trkpt>
      <trkpt lat="45.99126" lon="4.84862">
        <ele>260</ele>
        <time>2018-02-28T10:43:26Z</time>
      </trkpt>
      <trkpt lat="45.99123" lon="4.84863">
        <ele>260</ele>
        <time>2018-02-28T10:43:27Z</time>
      </trkpt>
      <trkpt lat="45.99117" lon="4.84867">
        <ele>260</ele>
        <time>2018-02-28T10:43:29Z</time>
      </trkpt>
      <trkpt lat="45.99114" lon="4.84868">
        <ele>260</ele>
        <time>2018-02-28T10:43:30Z</time>
      </trkpt>
      <trkpt lat="45.99106" lon="4.84872">
        <ele>261</ele>
        <time>2018-02-28T10:43:33Z</time>
      </trkpt>
      <trkpt lat="45.99104" lon="4.84874">
        <ele>261</ele>
        <time>2018-02-28T10:43:34Z</time>
      </trkpt>
      <trkpt lat="45.99098" lon="4.84877">
        <ele>261</ele>
        <time>2018-02-28T10:43:36Z</time>
      </trkpt>
      <trkpt lat="45.99095" lon="4.84879">
        <ele>261</ele>
        <time>2018-02-28T10:43:37Z</time>
      </trkpt>
      <trkpt lat="45.99089" lon="4.84882">
        <ele>261</ele>
        <time>2018-02-28T10:43:39Z</time>
      </trkpt>
      <trkpt lat="45.99086" lon="4.84884">
        <ele>261</ele>
        <time>2018-02-28T10:43:40Z</time>
      </trkpt>
      <trkpt lat="45.9908" lon="4.84887">
        <ele>263</ele>
        <time>2018-02-28T10:43:42Z</time>
      </trkpt>
      <trkpt lat="45.99076" lon="4.84888">
        <ele>263</ele>
        <time>2018-02-28T10:43:43Z</time>
      </trkpt>
      <trkpt lat="45.99067" lon="4.84893">
        <ele>263</ele>
        <time>2018-02-28T10:43:44Z</time>
      </trkpt>
      <trkpt lat="45.99061" lon="4.84897">
        <ele>263</ele>
        <time>2018-02-28T10:43:46Z</time>
      </trkpt>
      <trkpt lat="45.99057" lon="4.84899">
        <ele>263</ele>
        <time>2018-02-28T10:43:47Z</time>
      </trkpt>
      <trkpt lat="45.9905" lon="4.84903">
        <ele>264</ele>
        <time>2018-02-28T10:43:49Z</time>
      </trkpt>
      <trkpt lat="45.99048" lon="4.84904">
        <ele>264</ele>
        <time>2018-02-28T10:43:50Z</time>
      </trkpt>
      <trkpt lat="45.99043" lon="4.84907">
        <ele>264</ele>
        <time>2018-02-28T10:43:51Z</time>
      </trkpt>
      <trkpt lat="45.9904" lon="4.84909">
        <ele>264</ele>
        <time>2018-02-28T10:43:52Z</time>
      </trkpt>
      <trkpt lat="45.99033" lon="4.84912">
        <ele>264</ele>
        <time>2018-02-28T10:43:55Z</time>
      </trkpt>
      <trkpt lat="45.99031" lon="4.84913">
        <ele>264</ele>
        <time>2018-02-28T10:43:56Z</time>
      </trkpt>
      <trkpt lat="45.99022" lon="4.84918">
        <ele>264</ele>
        <time>2018-02-28T10:43:59Z</time>
      </trkpt>
      <trkpt lat="45.99019" lon="4.84919">
        <ele>265</ele>
        <time>2018-02-28T10:44:00Z</time>
      </trkpt>
      <trkpt lat="45.99013" lon="4.84922">
        <ele>265</ele>
        <time>2018-02-28T10:44:02Z</time>
      </trkpt>
      <trkpt lat="45.9901" lon="4.84924">
        <ele>265</ele>
        <time>2018-02-28T10:44:03Z</time>
      </trkpt>
      <trkpt lat="45.99004" lon="4.84927">
        <ele>265</ele>
        <time>2018-02-28T10:44:05Z</time>
      </trkpt>
      <trkpt lat="45.99001" lon="4.84928">
        <ele>265</ele>
        <time>2018-02-28T10:44:06Z</time>
      </trkpt>
      <trkpt lat="45.98991" lon="4.84933">
        <ele>266</ele>
        <time>2018-02-28T10:44:07Z</time>
      </trkpt>
      <trkpt lat="45.98984" lon="4.84937">
        <ele>266</ele>
        <time>2018-02-28T10:44:09Z</time>
      </trkpt>
      <trkpt lat="45.98981" lon="4.8494">
        <ele>266</ele>
        <time>2018-02-28T10:44:10Z</time>
      </trkpt>
      <trkpt lat="45.98973" lon="4.84944">
        <ele>266</ele>
        <time>2018-02-28T10:44:12Z</time>
      </trkpt>
      <trkpt lat="45.9897" lon="4.84946">
        <ele>266</ele>
        <time>2018-02-28T10:44:13Z</time>
      </trkpt>
      <trkpt lat="45.98962" lon="4.84949">
        <ele>266</ele>
        <time>2018-02-28T10:44:15Z</time>
      </trkpt>
      <trkpt lat="45.98959" lon="4.84951">
        <ele>266</ele>
        <time>2018-02-28T10:44:16Z</time>
      </trkpt>
      <trkpt lat="45.98951" lon="4.84955">
        <ele>266</ele>
        <time>2018-02-28T10:44:18Z</time>
      </trkpt>
      <trkpt lat="45.98947" lon="4.84957">
        <ele>266</ele>
        <time>2018-02-28T10:44:19Z</time>
      </trkpt>
      <trkpt lat="45.98939" lon="4.8496">
        <ele>266</ele>
        <time>2018-02-28T10:44:21Z</time>
      </trkpt>
      <trkpt lat="45.98938" lon="4.84961">
        <ele>266</ele>
        <time>2018-02-28T10:44:22Z</time>
      </trkpt>
      <trkpt lat="45.98933" lon="4.84964">
        <ele>266</ele>
        <time>2018-02-28T10:44:24Z</time>
      </trkpt>
      <trkpt lat="45.98927" lon="4.84968">
        <ele>267</ele>
        <time>2018-02-28T10:44:25Z</time>
      </trkpt>
      <trkpt lat="45.98919" lon="4.84971">
        <ele>267</ele>
        <time>2018-02-28T10:44:27Z</time>
      </trkpt>
      <trkpt lat="45.98916" lon="4.84973">
        <ele>267</ele>
        <time>2018-02-28T10:44:28Z</time>
      </trkpt>
      <trkpt lat="45.98909" lon="4.84978">
        <ele>267</ele>
        <time>2018-02-28T10:44:30Z</time>
      </trkpt>
      <trkpt lat="45.98905" lon="4.8498">
        <ele>267</ele>
        <time>2018-02-28T10:44:31Z</time>
      </trkpt>
      <trkpt lat="45.98897" lon="4.84983">
        <ele>267</ele>
        <time>2018-02-28T10:44:33Z</time>
      </trkpt>
      <trkpt lat="45.98893" lon="4.84985">
        <ele>267</ele>
        <time>2018-02-28T10:44:34Z</time>
      </trkpt>
      <trkpt lat="45.98885" lon="4.84989">
        <ele>267</ele>
        <time>2018-02-28T10:44:36Z</time>
      </trkpt>
      <trkpt lat="45.98881" lon="4.84991">
        <ele>267</ele>
        <time>2018-02-28T10:44:37Z</time>
      </trkpt>
      <trkpt lat="45.98873" lon="4.84995">
        <ele>267</ele>
        <time>2018-02-28T10:44:39Z</time>
      </trkpt>
      <trkpt lat="45.98869" lon="4.84997">
        <ele>267</ele>
        <time>2018-02-28T10:44:40Z</time>
      </trkpt>
      <trkpt lat="45.98861" lon="4.85001">
        <ele>267</ele>
        <time>2018-02-28T10:44:42Z</time>
      </trkpt>
      <trkpt lat="45.98858" lon="4.85003">
        <ele>267</ele>
        <time>2018-02-28T10:44:43Z</time>
      </trkpt>
      <trkpt lat="45.9885" lon="4.85006">
        <ele>267</ele>
        <time>2018-02-28T10:44:45Z</time>
      </trkpt>
      <trkpt lat="45.98846" lon="4.85009">
        <ele>267</ele>
        <time>2018-02-28T10:44:46Z</time>
      </trkpt>
      <trkpt lat="45.98839" lon="4.85013">
        <ele>267</ele>
        <time>2018-02-28T10:44:48Z</time>
      </trkpt>
      <trkpt lat="45.98835" lon="4.85014">
        <ele>267</ele>
        <time>2018-02-28T10:44:49Z</time>
      </trkpt>
      <trkpt lat="45.98827" lon="4.85017">
        <ele>267</ele>
        <time>2018-02-28T10:44:51Z</time>
      </trkpt>
      <trkpt lat="45.98823" lon="4.85019">
        <ele>267</ele>
        <time>2018-02-28T10:44:52Z</time>
      </trkpt>
      <trkpt lat="45.98816" lon="4.85023">
        <ele>267</ele>
        <time>2018-02-28T10:44:54Z</time>
      </trkpt>
      <trkpt lat="45.98812" lon="4.85025">
        <ele>267</ele>
        <time>2018-02-28T10:44:55Z</time>
      </trkpt>
      <trkpt lat="45.98804" lon="4.85029">
        <ele>267</ele>
        <time>2018-02-28T10:44:57Z</time>
      </trkpt>
      <trkpt lat="45.988" lon="4.85031">
        <ele>267</ele>
        <time>2018-02-28T10:44:58Z</time>
      </trkpt>
      <trkpt lat="45.98793" lon="4.85035">
        <ele>267</ele>
        <time>2018-02-28T10:45:00Z</time>
      </trkpt>
      <trkpt lat="45.98789" lon="4.85037">
        <ele>267</ele>
        <time>2018-02-28T10:45:01Z</time>
      </trkpt>
      <trkpt lat="45.9878" lon="4.85041">
        <ele>267</ele>
        <time>2018-02-28T10:45:03Z</time>
      </trkpt>
      <trkpt lat="45.98775" lon="4.85042">
        <ele>267</ele>
        <time>2018-02-28T10:45:04Z</time>
      </trkpt>
      <trkpt lat="45.98768" lon="4.85047">
        <ele>268</ele>
        <time>2018-02-28T10:45:06Z</time>
      </trkpt>
      <trkpt lat="45.98765" lon="4.8505">
        <ele>268</ele>
        <time>2018-02-28T10:45:07Z</time>
      </trkpt>
      <trkpt lat="45.98756" lon="4.85052">
        <ele>268</ele>
        <time>2018-02-28T10:45:09Z</time>
      </trkpt>
      <trkpt lat="45.98752" lon="4.85055">
        <ele>268</ele>
        <time>2018-02-28T10:45:10Z</time>
      </trkpt>
      <trkpt lat="45.98747" lon="4.85058">
        <ele>269</ele>
        <time>2018-02-28T10:45:11Z</time>
      </trkpt>
      <trkpt lat="45.98742" lon="4.85061">
        <ele>269</ele>
        <time>2018-02-28T10:45:12Z</time>
      </trkpt>
      <trkpt lat="45.98737" lon="4.85063">
        <ele>269</ele>
        <time>2018-02-28T10:45:13Z</time>
      </trkpt>
      <trkpt lat="45.98733" lon="4.85064">
        <ele>269</ele>
        <time>2018-02-28T10:45:14Z</time>
      </trkpt>
      <trkpt lat="45.98728" lon="4.85067">
        <ele>270</ele>
        <time>2018-02-28T10:45:15Z</time>
      </trkpt>
      <trkpt lat="45.98724" lon="4.85068">
        <ele>270</ele>
        <time>2018-02-28T10:45:16Z</time>
      </trkpt>
      <trkpt lat="45.98719" lon="4.8507">
        <ele>270</ele>
        <time>2018-02-28T10:45:17Z</time>
      </trkpt>
      <trkpt lat="45.98715" lon="4.85073">
        <ele>270</ele>
        <time>2018-02-28T10:45:18Z</time>
      </trkpt>
      <trkpt lat="45.9871" lon="4.85076">
        <ele>270</ele>
        <time>2018-02-28T10:45:19Z</time>
      </trkpt>
      <trkpt lat="45.98705" lon="4.85077">
        <ele>270</ele>
        <time>2018-02-28T10:45:20Z</time>
      </trkpt>
      <trkpt lat="45.98697" lon="4.85081">
        <ele>270</ele>
        <time>2018-02-28T10:45:22Z</time>
      </trkpt>
      <trkpt lat="45.98692" lon="4.85084">
        <ele>270</ele>
        <time>2018-02-28T10:45:23Z</time>
      </trkpt>
      <trkpt lat="45.98684" lon="4.85087">
        <ele>270</ele>
        <time>2018-02-28T10:45:25Z</time>
      </trkpt>
      <trkpt lat="45.98679" lon="4.85089">
        <ele>270</ele>
        <time>2018-02-28T10:45:26Z</time>
      </trkpt>
      <trkpt lat="45.98672" lon="4.85094">
        <ele>271</ele>
        <time>2018-02-28T10:45:28Z</time>
      </trkpt>
      <trkpt lat="45.98667" lon="4.85097">
        <ele>270</ele>
        <time>2018-02-28T10:45:29Z</time>
      </trkpt>
      <trkpt lat="45.98662" lon="4.85098">
        <ele>271</ele>
        <time>2018-02-28T10:45:30Z</time>
      </trkpt>
      <trkpt lat="45.98658" lon="4.851">
        <ele>271</ele>
        <time>2018-02-28T10:45:31Z</time>
      </trkpt>
      <trkpt lat="45.98649" lon="4.85104">
        <ele>272</ele>
        <time>2018-02-28T10:45:33Z</time>
      </trkpt>
      <trkpt lat="45.98644" lon="4.85107">
        <ele>272</ele>
        <time>2018-02-28T10:45:34Z</time>
      </trkpt>
      <trkpt lat="45.9864" lon="4.8511">
        <ele>272</ele>
        <time>2018-02-28T10:45:35Z</time>
      </trkpt>
      <trkpt lat="45.98636" lon="4.85112">
        <ele>272</ele>
        <time>2018-02-28T10:45:36Z</time>
      </trkpt>
      <trkpt lat="45.98628" lon="4.85115">
        <ele>272</ele>
        <time>2018-02-28T10:45:38Z</time>
      </trkpt>
      <trkpt lat="45.98623" lon="4.85117">
        <ele>272</ele>
        <time>2018-02-28T10:45:39Z</time>
      </trkpt>
      <trkpt lat="45.98615" lon="4.85122">
        <ele>272</ele>
        <time>2018-02-28T10:45:41Z</time>
      </trkpt>
      <trkpt lat="45.9861" lon="4.85125">
        <ele>272</ele>
        <time>2018-02-28T10:45:42Z</time>
      </trkpt>
      <trkpt lat="45.98602" lon="4.85129">
        <ele>272</ele>
        <time>2018-02-28T10:45:44Z</time>
      </trkpt>
      <trkpt lat="45.98598" lon="4.85131">
        <ele>272</ele>
        <time>2018-02-28T10:45:45Z</time>
      </trkpt>
      <trkpt lat="45.98592" lon="4.85134">
        <ele>272</ele>
        <time>2018-02-28T10:45:46Z</time>
      </trkpt>
      <trkpt lat="45.98588" lon="4.85136">
        <ele>272</ele>
        <time>2018-02-28T10:45:47Z</time>
      </trkpt>
      <trkpt lat="45.98579" lon="4.85139">
        <ele>274</ele>
        <time>2018-02-28T10:45:49Z</time>
      </trkpt>
      <trkpt lat="45.98576" lon="4.85141">
        <ele>274</ele>
        <time>2018-02-28T10:45:50Z</time>
      </trkpt>
      <trkpt lat="45.98568" lon="4.85145">
        <ele>274</ele>
        <time>2018-02-28T10:45:52Z</time>
      </trkpt>
      <trkpt lat="45.98563" lon="4.85147">
        <ele>274</ele>
        <time>2018-02-28T10:45:53Z</time>
      </trkpt>
      <trkpt lat="45.98555" lon="4.85151">
        <ele>274</ele>
        <time>2018-02-28T10:45:55Z</time>
      </trkpt>
      <trkpt lat="45.98551" lon="4.85152">
        <ele>274</ele>
        <time>2018-02-28T10:45:56Z</time>
      </trkpt>
      <trkpt lat="45.98543" lon="4.85155">
        <ele>274</ele>
        <time>2018-02-28T10:45:58Z</time>
      </trkpt>
      <trkpt lat="45.98539" lon="4.85157">
        <ele>274</ele>
        <time>2018-02-28T10:45:59Z</time>
      </trkpt>
      <trkpt lat="45.98531" lon="4.8516">
        <ele>274</ele>
        <time>2018-02-28T10:46:01Z</time>
      </trkpt>
      <trkpt lat="45.98527" lon="4.85162">
        <ele>274</ele>
        <time>2018-02-28T10:46:02Z</time>
      </trkpt>
      <trkpt lat="45.98519" lon="4.85164">
        <ele>275</ele>
        <time>2018-02-28T10:46:04Z</time>
      </trkpt>
      <trkpt lat="45.98514" lon="4.85165">
        <ele>275</ele>
        <time>2018-02-28T10:46:05Z</time>
      </trkpt>
      <trkpt lat="45.98506" lon="4.85168">
        <ele>274</ele>
        <time>2018-02-28T10:46:07Z</time>
      </trkpt>
      <trkpt lat="45.98501" lon="4.85169">
        <ele>275</ele>
        <time>2018-02-28T10:46:08Z</time>
      </trkpt>
      <trkpt lat="45.98496" lon="4.8517">
        <ele>275</ele>
        <time>2018-02-28T10:46:09Z</time>
      </trkpt>
      <trkpt lat="45.98492" lon="4.8517">
        <ele>275</ele>
        <time>2018-02-28T10:46:10Z</time>
      </trkpt>
      <trkpt lat="45.98483" lon="4.85171">
        <ele>275</ele>
        <time>2018-02-28T10:46:12Z</time>
      </trkpt>
      <trkpt lat="45.9848" lon="4.85171">
        <ele>275</ele>
        <time>2018-02-28T10:46:13Z</time>
      </trkpt>
      <trkpt lat="45.98473" lon="4.85172">
        <ele>275</ele>
        <time>2018-02-28T10:46:15Z</time>
      </trkpt>
      <trkpt lat="45.98469" lon="4.85174">
        <ele>275</ele>
        <time>2018-02-28T10:46:16Z</time>
      </trkpt>
      <trkpt lat="45.98461" lon="4.85174">
        <ele>275</ele>
        <time>2018-02-28T10:46:18Z</time>
      </trkpt>
      <trkpt lat="45.98455" lon="4.85174">
        <ele>275</ele>
        <time>2018-02-28T10:46:19Z</time>
      </trkpt>
      <trkpt lat="45.98447" lon="4.85173">
        <ele>275</ele>
        <time>2018-02-28T10:46:21Z</time>
      </trkpt>
      <trkpt lat="45.98443" lon="4.85172">
        <ele>275</ele>
        <time>2018-02-28T10:46:22Z</time>
      </trkpt>
      <trkpt lat="45.98438" lon="4.85173">
        <ele>275</ele>
        <time>2018-02-28T10:46:23Z</time>
      </trkpt>
      <trkpt lat="45.98433" lon="4.85174">
        <ele>275</ele>
        <time>2018-02-28T10:46:24Z</time>
      </trkpt>
      <trkpt lat="45.98428" lon="4.85176">
        <ele>275</ele>
        <time>2018-02-28T10:46:25Z</time>
      </trkpt>
      <trkpt lat="45.98423" lon="4.85176">
        <ele>275</ele>
        <time>2018-02-28T10:46:26Z</time>
      </trkpt>
      <trkpt lat="45.98415" lon="4.85177">
        <ele>276</ele>
        <time>2018-02-28T10:46:28Z</time>
      </trkpt>
      <trkpt lat="45.98411" lon="4.85177">
        <ele>276</ele>
        <time>2018-02-28T10:46:29Z</time>
      </trkpt>
      <trkpt lat="45.98409" lon="4.85177">
        <ele>276</ele>
        <time>2018-02-28T10:46:30Z</time>
      </trkpt>
      <trkpt lat="45.98401" lon="4.85178">
        <ele>275</ele>
        <time>2018-02-28T10:46:31Z</time>
      </trkpt>
      <trkpt lat="45.98393" lon="4.85178">
        <ele>275</ele>
        <time>2018-02-28T10:46:33Z</time>
      </trkpt>
      <trkpt lat="45.98389" lon="4.85178">
        <ele>275</ele>
        <time>2018-02-28T10:46:34Z</time>
      </trkpt>
      <trkpt lat="45.9838" lon="4.85179">
        <ele>275</ele>
        <time>2018-02-28T10:46:36Z</time>
      </trkpt>
      <trkpt lat="45.98376" lon="4.85179">
        <ele>275</ele>
        <time>2018-02-28T10:46:37Z</time>
      </trkpt>
      <trkpt lat="45.98367" lon="4.8518">
        <ele>275</ele>
        <time>2018-02-28T10:46:39Z</time>
      </trkpt>
      <trkpt lat="45.98363" lon="4.8518">
        <ele>275</ele>
        <time>2018-02-28T10:46:40Z</time>
      </trkpt>
      <trkpt lat="45.98354" lon="4.85181">
        <ele>275</ele>
        <time>2018-02-28T10:46:42Z</time>
      </trkpt>
      <trkpt lat="45.9835" lon="4.85182">
        <ele>275</ele>
        <time>2018-02-28T10:46:43Z</time>
      </trkpt>
      <trkpt lat="45.98345" lon="4.85183">
        <ele>275</ele>
        <time>2018-02-28T10:46:44Z</time>
      </trkpt>
      <trkpt lat="45.9834" lon="4.85184">
        <ele>275</ele>
        <time>2018-02-28T10:46:45Z</time>
      </trkpt>
      <trkpt lat="45.98335" lon="4.85184">
        <ele>275</ele>
        <time>2018-02-28T10:46:46Z</time>
      </trkpt>
      <trkpt lat="45.9833" lon="4.85185">
        <ele>274</ele>
        <time>2018-02-28T10:46:47Z</time>
      </trkpt>
      <trkpt lat="45.98324" lon="4.85185">
        <ele>274</ele>
        <time>2018-02-28T10:46:48Z</time>
      </trkpt>
      <trkpt lat="45.98319" lon="4.85185">
        <ele>274</ele>
        <time>2018-02-28T10:46:49Z</time>
      </trkpt>
      <trkpt lat="45.98315" lon="4.85186">
        <ele>274</ele>
        <time>2018-02-28T10:46:50Z</time>
      </trkpt>
      <trkpt lat="45.9831" lon="4.85187">
        <ele>274</ele>
        <time>2018-02-28T10:46:51Z</time>
      </trkpt>
      <trkpt lat="45.98302" lon="4.85187">
        <ele>274</ele>
        <time>2018-02-28T10:46:53Z</time>
      </trkpt>
      <trkpt lat="45.98297" lon="4.85188">
        <ele>274</ele>
        <time>2018-02-28T10:46:54Z</time>
      </trkpt>
      <trkpt lat="45.98288" lon="4.85189">
        <ele>274</ele>
        <time>2018-02-28T10:46:56Z</time>
      </trkpt>
      <trkpt lat="45.98283" lon="4.85189">
        <ele>274</ele>
        <time>2018-02-28T10:46:57Z</time>
      </trkpt>
      <trkpt lat="45.98279" lon="4.85189">
        <ele>274</ele>
        <time>2018-02-28T10:46:58Z</time>
      </trkpt>
      <trkpt lat="45.98274" lon="4.85189">
        <ele>274</ele>
        <time>2018-02-28T10:46:59Z</time>
      </trkpt>
      <trkpt lat="45.98265" lon="4.8519">
        <ele>274</ele>
        <time>2018-02-28T10:47:01Z</time>
      </trkpt>
      <trkpt lat="45.9826" lon="4.8519">
        <ele>274</ele>
        <time>2018-02-28T10:47:02Z</time>
      </trkpt>
      <trkpt lat="45.98255" lon="4.8519">
        <ele>274</ele>
        <time>2018-02-28T10:47:03Z</time>
      </trkpt>
      <trkpt lat="45.9825" lon="4.8519">
        <ele>274</ele>
        <time>2018-02-28T10:47:04Z</time>
      </trkpt>
      <trkpt lat="45.98241" lon="4.8519">
        <ele>274</ele>
        <time>2018-02-28T10:47:06Z</time>
      </trkpt>
      <trkpt lat="45.98237" lon="4.85191">
        <ele>274</ele>
        <time>2018-02-28T10:47:07Z</time>
      </trkpt>
      <trkpt lat="45.98233" lon="4.85192">
        <ele>274</ele>
        <time>2018-02-28T10:47:08Z</time>
      </trkpt>
      <trkpt lat="45.98227" lon="4.85192">
        <ele>274</ele>
        <time>2018-02-28T10:47:09Z</time>
      </trkpt>
      <trkpt lat="45.98222" lon="4.85192">
        <ele>274</ele>
        <time>2018-02-28T10:47:10Z</time>
      </trkpt>
      <trkpt lat="45.98216" lon="4.85193">
        <ele>274</ele>
        <time>2018-02-28T10:47:11Z</time>
      </trkpt>
      <trkpt lat="45.98212" lon="4.85193">
        <ele>274</ele>
        <time>2018-02-28T10:47:12Z</time>
      </trkpt>
      <trkpt lat="45.98207" lon="4.85194">
        <ele>274</ele>
        <time>2018-02-28T10:47:13Z</time>
      </trkpt>
      <trkpt lat="45.98198" lon="4.85194">
        <ele>274</ele>
        <time>2018-02-28T10:47:15Z</time>
      </trkpt>
      <trkpt lat="45.98193" lon="4.85195">
        <ele>274</ele>
        <time>2018-02-28T10:47:16Z</time>
      </trkpt>
      <trkpt lat="45.98189" lon="4.85196">
        <ele>274</ele>
        <time>2018-02-28T10:47:17Z</time>
      </trkpt>
      <trkpt lat="45.98184" lon="4.85197">
        <ele>274</ele>
        <time>2018-02-28T10:47:18Z</time>
      </trkpt>
      <trkpt lat="45.98179" lon="4.85197">
        <ele>274</ele>
        <time>2018-02-28T10:47:19Z</time>
      </trkpt>
      <trkpt lat="45.98175" lon="4.85197">
        <ele>274</ele>
        <time>2018-02-28T10:47:20Z</time>
      </trkpt>
      <trkpt lat="45.98166" lon="4.85199">
        <ele>274</ele>
        <time>2018-02-28T10:47:22Z</time>
      </trkpt>
      <trkpt lat="45.98161" lon="4.85198">
        <ele>274</ele>
        <time>2018-02-28T10:47:23Z</time>
      </trkpt>
      <trkpt lat="45.98157" lon="4.85199">
        <ele>274</ele>
        <time>2018-02-28T10:47:24Z</time>
      </trkpt>
      <trkpt lat="45.98152" lon="4.852">
        <ele>275</ele>
        <time>2018-02-28T10:47:25Z</time>
      </trkpt>
      <trkpt lat="45.98144" lon="4.85201">
        <ele>275</ele>
        <time>2018-02-28T10:47:27Z</time>
      </trkpt>
      <trkpt lat="45.98139" lon="4.85202">
        <ele>275</ele>
        <time>2018-02-28T10:47:28Z</time>
      </trkpt>
      <trkpt lat="45.98131" lon="4.85202">
        <ele>275</ele>
        <time>2018-02-28T10:47:30Z</time>
      </trkpt>
      <trkpt lat="45.98126" lon="4.85203">
        <ele>275</ele>
        <time>2018-02-28T10:47:31Z</time>
      </trkpt>
      <trkpt lat="45.98121" lon="4.85203">
        <ele>275</ele>
        <time>2018-02-28T10:47:32Z</time>
      </trkpt>
      <trkpt lat="45.98116" lon="4.85204">
        <ele>275</ele>
        <time>2018-02-28T10:47:33Z</time>
      </trkpt>
      <trkpt lat="45.98111" lon="4.85205">
        <ele>275</ele>
        <time>2018-02-28T10:47:34Z</time>
      </trkpt>
      <trkpt lat="45.98106" lon="4.85204">
        <ele>275</ele>
        <time>2018-02-28T10:47:35Z</time>
      </trkpt>
      <trkpt lat="45.98101" lon="4.85204">
        <ele>275</ele>
        <time>2018-02-28T10:47:36Z</time>
      </trkpt>
      <trkpt lat="45.98096" lon="4.85205">
        <ele>275</ele>
        <time>2018-02-28T10:47:37Z</time>
      </trkpt>
      <trkpt lat="45.98091" lon="4.85206">
        <ele>275</ele>
        <time>2018-02-28T10:47:38Z</time>
      </trkpt>
      <trkpt lat="45.98087" lon="4.85206">
        <ele>275</ele>
        <time>2018-02-28T10:47:39Z</time>
      </trkpt>
      <trkpt lat="45.98081" lon="4.85206">
        <ele>276</ele>
        <time>2018-02-28T10:47:40Z</time>
      </trkpt>
      <trkpt lat="45.98077" lon="4.85207">
        <ele>276</ele>
        <time>2018-02-28T10:47:41Z</time>
      </trkpt>
      <trkpt lat="45.98072" lon="4.85207">
        <ele>276</ele>
        <time>2018-02-28T10:47:42Z</time>
      </trkpt>
      <trkpt lat="45.98066" lon="4.85207">
        <ele>276</ele>
        <time>2018-02-28T10:47:43Z</time>
      </trkpt>
      <trkpt lat="45.98061" lon="4.85207">
        <ele>276</ele>
        <time>2018-02-28T10:47:44Z</time>
      </trkpt>
      <trkpt lat="45.98056" lon="4.85208">
        <ele>276</ele>
        <time>2018-02-28T10:47:45Z</time>
      </trkpt>
      <trkpt lat="45.98052" lon="4.8521">
        <ele>276</ele>
        <time>2018-02-28T10:47:46Z</time>
      </trkpt>
      <trkpt lat="45.98047" lon="4.85211">
        <ele>276</ele>
        <time>2018-02-28T10:47:47Z</time>
      </trkpt>
      <trkpt lat="45.98041" lon="4.85211">
        <ele>276</ele>
        <time>2018-02-28T10:47:48Z</time>
      </trkpt>
      <trkpt lat="45.98037" lon="4.85212">
        <ele>276</ele>
        <time>2018-02-28T10:47:49Z</time>
      </trkpt>
      <trkpt lat="45.98029" lon="4.85211">
        <ele>276</ele>
        <time>2018-02-28T10:47:51Z</time>
      </trkpt>
      <trkpt lat="45.98025" lon="4.85211">
        <ele>276</ele>
        <time>2018-02-28T10:47:52Z</time>
      </trkpt>
      <trkpt lat="45.98021" lon="4.85213">
        <ele>276</ele>
        <time>2018-02-28T10:47:53Z</time>
      </trkpt>
      <trkpt lat="45.98015" lon="4.85214">
        <ele>276</ele>
        <time>2018-02-28T10:47:54Z</time>
      </trkpt>
      <trkpt lat="45.9801" lon="4.85213">
        <ele>276</ele>
        <time>2018-02-28T10:47:55Z</time>
      </trkpt>
      <trkpt lat="45.98005" lon="4.85213">
        <ele>276</ele>
        <time>2018-02-28T10:47:56Z</time>
      </trkpt>
      <trkpt lat="45.98" lon="4.85214">
        <ele>276</ele>
        <time>2018-02-28T10:47:57Z</time>
      </trkpt>
      <trkpt lat="45.97995" lon="4.85214">
        <ele>276</ele>
        <time>2018-02-28T10:47:58Z</time>
      </trkpt>
      <trkpt lat="45.97989" lon="4.85215">
        <ele>276</ele>
        <time>2018-02-28T10:47:59Z</time>
      </trkpt>
      <trkpt lat="45.97984" lon="4.85215">
        <ele>276</ele>
        <time>2018-02-28T10:48:00Z</time>
      </trkpt>
      <trkpt lat="45.97979" lon="4.85216">
        <ele>276</ele>
        <time>2018-02-28T10:48:01Z</time>
      </trkpt>
      <trkpt lat="45.97974" lon="4.85217">
        <ele>276</ele>
        <time>2018-02-28T10:48:02Z</time>
      </trkpt>
      <trkpt lat="45.9797" lon="4.85217">
        <ele>276</ele>
        <time>2018-02-28T10:48:03Z</time>
      </trkpt>
      <trkpt lat="45.97965" lon="4.85219">
        <ele>276</ele>
        <time>2018-02-28T10:48:04Z</time>
      </trkpt>
      <trkpt lat="45.9796" lon="4.85219">
        <ele>276</ele>
        <time>2018-02-28T10:48:05Z</time>
      </trkpt>
      <trkpt lat="45.97955" lon="4.85219">
        <ele>276</ele>
        <time>2018-02-28T10:48:06Z</time>
      </trkpt>
      <trkpt lat="45.9795" lon="4.85219">
        <ele>276</ele>
        <time>2018-02-28T10:48:07Z</time>
      </trkpt>
      <trkpt lat="45.97945" lon="4.8522">
        <ele>276</ele>
        <time>2018-02-28T10:48:08Z</time>
      </trkpt>
      <trkpt lat="45.9794" lon="4.8522">
        <ele>276</ele>
        <time>2018-02-28T10:48:09Z</time>
      </trkpt>
      <trkpt lat="45.97935" lon="4.85221">
        <ele>276</ele>
        <time>2018-02-28T10:48:10Z</time>
      </trkpt>
      <trkpt lat="45.97931" lon="4.85222">
        <ele>276</ele>
        <time>2018-02-28T10:48:11Z</time>
      </trkpt>
      <trkpt lat="45.97925" lon="4.85222">
        <ele>276</ele>
        <time>2018-02-28T10:48:12Z</time>
      </trkpt>
      <trkpt lat="45.9792" lon="4.85223">
        <ele>276</ele>
        <time>2018-02-28T10:48:13Z</time>
      </trkpt>
      <trkpt lat="45.97915" lon="4.85223">
        <ele>275</ele>
        <time>2018-02-28T10:48:14Z</time>
      </trkpt>
      <trkpt lat="45.9791" lon="4.85224">
        <ele>275</ele>
        <time>2018-02-28T10:48:15Z</time>
      </trkpt>
      <trkpt lat="45.97904" lon="4.85224">
        <ele>275</ele>
        <time>2018-02-28T10:48:16Z</time>
      </trkpt>
      <trkpt lat="45.97895" lon="4.85225">
        <ele>275</ele>
        <time>2018-02-28T10:48:18Z</time>
      </trkpt>
      <trkpt lat="45.97892" lon="4.85225">
        <ele>275</ele>
        <time>2018-02-28T10:48:19Z</time>
      </trkpt>
      <trkpt lat="45.97887" lon="4.85225">
        <ele>275</ele>
        <time>2018-02-28T10:48:20Z</time>
      </trkpt>
      <trkpt lat="45.97882" lon="4.85226">
        <ele>275</ele>
        <time>2018-02-28T10:48:21Z</time>
      </trkpt>
      <trkpt lat="45.97877" lon="4.85227">
        <ele>275</ele>
        <time>2018-02-28T10:48:22Z</time>
      </trkpt>
      <trkpt lat="45.97871" lon="4.85228">
        <ele>275</ele>
        <time>2018-02-28T10:48:23Z</time>
      </trkpt>
      <trkpt lat="45.97863" lon="4.85228">
        <ele>275</ele>
        <time>2018-02-28T10:48:24Z</time>
      </trkpt>
      <trkpt lat="45.97859" lon="4.85228">
        <ele>275</ele>
        <time>2018-02-28T10:48:25Z</time>
      </trkpt>
      <trkpt lat="45.9785" lon="4.8523">
        <ele>275</ele>
        <time>2018-02-28T10:48:27Z</time>
      </trkpt>
      <trkpt lat="45.97845" lon="4.85229">
        <ele>275</ele>
        <time>2018-02-28T10:48:28Z</time>
      </trkpt>
      <trkpt lat="45.9784" lon="4.8523">
        <ele>275</ele>
        <time>2018-02-28T10:48:29Z</time>
      </trkpt>
      <trkpt lat="45.97834" lon="4.8523">
        <ele>275</ele>
        <time>2018-02-28T10:48:30Z</time>
      </trkpt>
      <trkpt lat="45.97828" lon="4.85231">
        <ele>275</ele>
        <time>2018-02-28T10:48:31Z</time>
      </trkpt>
      <trkpt lat="45.97823" lon="4.85233">
        <ele>275</ele>
        <time>2018-02-28T10:48:32Z</time>
      </trkpt>
      <trkpt lat="45.97814" lon="4.85234">
        <ele>274</ele>
        <time>2018-02-28T10:48:34Z</time>
      </trkpt>
      <trkpt lat="45.97809" lon="4.85234">
        <ele>274</ele>
        <time>2018-02-28T10:48:35Z</time>
      </trkpt>
      <trkpt lat="45.97805" lon="4.85235">
        <ele>274</ele>
        <time>2018-02-28T10:48:36Z</time>
      </trkpt>
      <trkpt lat="45.978" lon="4.85236">
        <ele>274</ele>
        <time>2018-02-28T10:48:37Z</time>
      </trkpt>
      <trkpt lat="45.97791" lon="4.85238">
        <ele>274</ele>
        <time>2018-02-28T10:48:39Z</time>
      </trkpt>
      <trkpt lat="45.97787" lon="4.85237">
        <ele>274</ele>
        <time>2018-02-28T10:48:40Z</time>
      </trkpt>
      <trkpt lat="45.97783" lon="4.85238">
        <ele>274</ele>
        <time>2018-02-28T10:48:41Z</time>
      </trkpt>
      <trkpt lat="45.97778" lon="4.85238">
        <ele>274</ele>
        <time>2018-02-28T10:48:42Z</time>
      </trkpt>
      <trkpt lat="45.97769" lon="4.85239">
        <ele>274</ele>
        <time>2018-02-28T10:48:44Z</time>
      </trkpt>
      <trkpt lat="45.97765" lon="4.85239">
        <ele>274</ele>
        <time>2018-02-28T10:48:45Z</time>
      </trkpt>
      <trkpt lat="45.9776" lon="4.8524">
        <ele>274</ele>
        <time>2018-02-28T10:48:46Z</time>
      </trkpt>
      <trkpt lat="45.97755" lon="4.8524">
        <ele>274</ele>
        <time>2018-02-28T10:48:47Z</time>
      </trkpt>
      <trkpt lat="45.9775" lon="4.85241">
        <ele>274</ele>
        <time>2018-02-28T10:48:48Z</time>
      </trkpt>
      <trkpt lat="45.97745" lon="4.85242">
        <ele>274</ele>
        <time>2018-02-28T10:48:49Z</time>
      </trkpt>
      <trkpt lat="45.9774" lon="4.85243">
        <ele>274</ele>
        <time>2018-02-28T10:48:50Z</time>
      </trkpt>
      <trkpt lat="45.97735" lon="4.85244">
        <ele>275</ele>
        <time>2018-02-28T10:48:51Z</time>
      </trkpt>
      <trkpt lat="45.9773" lon="4.85244">
        <ele>275</ele>
        <time>2018-02-28T10:48:52Z</time>
      </trkpt>
      <trkpt lat="45.97724" lon="4.85245">
        <ele>275</ele>
        <time>2018-02-28T10:48:53Z</time>
      </trkpt>
      <trkpt lat="45.97719" lon="4.85245">
        <ele>275</ele>
        <time>2018-02-28T10:48:54Z</time>
      </trkpt>
      <trkpt lat="45.97714" lon="4.85246">
        <ele>275</ele>
        <time>2018-02-28T10:48:55Z</time>
      </trkpt>
      <trkpt lat="45.97709" lon="4.85246">
        <ele>275</ele>
        <time>2018-02-28T10:48:56Z</time>
      </trkpt>
      <trkpt lat="45.97704" lon="4.85246">
        <ele>275</ele>
        <time>2018-02-28T10:48:57Z</time>
      </trkpt>
      <trkpt lat="45.97696" lon="4.85247">
        <ele>275</ele>
        <time>2018-02-28T10:48:59Z</time>
      </trkpt>
      <trkpt lat="45.97691" lon="4.85248">
        <ele>275</ele>
        <time>2018-02-28T10:49:00Z</time>
      </trkpt>
      <trkpt lat="45.97686" lon="4.85248">
        <ele>276</ele>
        <time>2018-02-28T10:49:01Z</time>
      </trkpt>
      <trkpt lat="45.97682" lon="4.85248">
        <ele>276</ele>
        <time>2018-02-28T10:49:02Z</time>
      </trkpt>
      <trkpt lat="45.97678" lon="4.85248">
        <ele>276</ele>
        <time>2018-02-28T10:49:03Z</time>
      </trkpt>
      <trkpt lat="45.97673" lon="4.8525">
        <ele>276</ele>
        <time>2018-02-28T10:49:04Z</time>
      </trkpt>
      <trkpt lat="45.97665" lon="4.85251">
        <ele>276</ele>
        <time>2018-02-28T10:49:06Z</time>
      </trkpt>
      <trkpt lat="45.9766" lon="4.85251">
        <ele>277</ele>
        <time>2018-02-28T10:49:07Z</time>
      </trkpt>
      <trkpt lat="45.97656" lon="4.85251">
        <ele>277</ele>
        <time>2018-02-28T10:49:08Z</time>
      </trkpt>
      <trkpt lat="45.97651" lon="4.85252">
        <ele>277</ele>
        <time>2018-02-28T10:49:09Z</time>
      </trkpt>
      <trkpt lat="45.97644" lon="4.85252">
        <ele>277</ele>
        <time>2018-02-28T10:49:10Z</time>
      </trkpt>
      <trkpt lat="45.97639" lon="4.85253">
        <ele>278</ele>
        <time>2018-02-28T10:49:11Z</time>
      </trkpt>
      <trkpt lat="45.97633" lon="4.85254">
        <ele>278</ele>
        <time>2018-02-28T10:49:12Z</time>
      </trkpt>
      <trkpt lat="45.97629" lon="4.85255">
        <ele>278</ele>
        <time>2018-02-28T10:49:13Z</time>
      </trkpt>
      <trkpt lat="45.97625" lon="4.85254">
        <ele>278</ele>
        <time>2018-02-28T10:49:14Z</time>
      </trkpt>
      <trkpt lat="45.9762" lon="4.85255">
        <ele>279</ele>
        <time>2018-02-28T10:49:15Z</time>
      </trkpt>
      <trkpt lat="45.97611" lon="4.85257">
        <ele>279</ele>
        <time>2018-02-28T10:49:17Z</time>
      </trkpt>
      <trkpt lat="45.97607" lon="4.85259">
        <ele>279</ele>
        <time>2018-02-28T10:49:18Z</time>
      </trkpt>
      <trkpt lat="45.97601" lon="4.85259">
        <ele>280</ele>
        <time>2018-02-28T10:49:19Z</time>
      </trkpt>
      <trkpt lat="45.97597" lon="4.85257">
        <ele>280</ele>
        <time>2018-02-28T10:49:20Z</time>
      </trkpt>
      <trkpt lat="45.97588" lon="4.85257">
        <ele>281</ele>
        <time>2018-02-28T10:49:22Z</time>
      </trkpt>
      <trkpt lat="45.97584" lon="4.85257">
        <ele>281</ele>
        <time>2018-02-28T10:49:23Z</time>
      </trkpt>
      <trkpt lat="45.97575" lon="4.85258">
        <ele>281</ele>
        <time>2018-02-28T10:49:25Z</time>
      </trkpt>
      <trkpt lat="45.97573" lon="4.85259">
        <ele>281</ele>
        <time>2018-02-28T10:49:26Z</time>
      </trkpt>
      <trkpt lat="45.97568" lon="4.8526">
        <ele>281</ele>
        <time>2018-02-28T10:49:27Z</time>
      </trkpt>
      <trkpt lat="45.97563" lon="4.85261">
        <ele>281</ele>
        <time>2018-02-28T10:49:28Z</time>
      </trkpt>
      <trkpt lat="45.97557" lon="4.85261">
        <ele>281</ele>
        <time>2018-02-28T10:49:29Z</time>
      </trkpt>
      <trkpt lat="45.97552" lon="4.85261">
        <ele>281</ele>
        <time>2018-02-28T10:49:30Z</time>
      </trkpt>
      <trkpt lat="45.97547" lon="4.85262">
        <ele>281</ele>
        <time>2018-02-28T10:49:31Z</time>
      </trkpt>
      <trkpt lat="45.97543" lon="4.85262">
        <ele>281</ele>
        <time>2018-02-28T10:49:32Z</time>
      </trkpt>
      <trkpt lat="45.97537" lon="4.85262">
        <ele>281</ele>
        <time>2018-02-28T10:49:33Z</time>
      </trkpt>
      <trkpt lat="45.97533" lon="4.85262">
        <ele>281</ele>
        <time>2018-02-28T10:49:34Z</time>
      </trkpt>
      <trkpt lat="45.97527" lon="4.85264">
        <ele>281</ele>
        <time>2018-02-28T10:49:35Z</time>
      </trkpt>
      <trkpt lat="45.9752" lon="4.85263">
        <ele>281</ele>
        <time>2018-02-28T10:49:36Z</time>
      </trkpt>
      <trkpt lat="45.97515" lon="4.85264">
        <ele>281</ele>
        <time>2018-02-28T10:49:37Z</time>
      </trkpt>
      <trkpt lat="45.97511" lon="4.85265">
        <ele>282</ele>
        <time>2018-02-28T10:49:38Z</time>
      </trkpt>
      <trkpt lat="45.97503" lon="4.85264">
        <ele>282</ele>
        <time>2018-02-28T10:49:40Z</time>
      </trkpt>
      <trkpt lat="45.97498" lon="4.85264">
        <ele>283</ele>
        <time>2018-02-28T10:49:41Z</time>
      </trkpt>
      <trkpt lat="45.97489" lon="4.85264">
        <ele>283</ele>
        <time>2018-02-28T10:49:43Z</time>
      </trkpt>
      <trkpt lat="45.97483" lon="4.85265">
        <ele>284</ele>
        <time>2018-02-28T10:49:44Z</time>
      </trkpt>
      <trkpt lat="45.97474" lon="4.85268">
        <ele>284</ele>
        <time>2018-02-28T10:49:46Z</time>
      </trkpt>
      <trkpt lat="45.97472" lon="4.85268">
        <ele>284</ele>
        <time>2018-02-28T10:49:47Z</time>
      </trkpt>
      <trkpt lat="45.97466" lon="4.85268">
        <ele>284</ele>
        <time>2018-02-28T10:49:48Z</time>
      </trkpt>
      <trkpt lat="45.9746" lon="4.85268">
        <ele>284</ele>
        <time>2018-02-28T10:49:49Z</time>
      </trkpt>
      <trkpt lat="45.97455" lon="4.85268">
        <ele>284</ele>
        <time>2018-02-28T10:49:50Z</time>
      </trkpt>
      <trkpt lat="45.97449" lon="4.85267">
        <ele>285</ele>
        <time>2018-02-28T10:49:51Z</time>
      </trkpt>
      <trkpt lat="45.97445" lon="4.85266">
        <ele>285</ele>
        <time>2018-02-28T10:49:52Z</time>
      </trkpt>
      <trkpt lat="45.97439" lon="4.85265">
        <ele>285</ele>
        <time>2018-02-28T10:49:53Z</time>
      </trkpt>
      <trkpt lat="45.97434" lon="4.85265">
        <ele>285</ele>
        <time>2018-02-28T10:49:54Z</time>
      </trkpt>
      <trkpt lat="45.97429" lon="4.85265">
        <ele>285</ele>
        <time>2018-02-28T10:49:55Z</time>
      </trkpt>
      <trkpt lat="45.9742" lon="4.85265">
        <ele>285</ele>
        <time>2018-02-28T10:49:57Z</time>
      </trkpt>
      <trkpt lat="45.97415" lon="4.85266">
        <ele>286</ele>
        <time>2018-02-28T10:49:58Z</time>
      </trkpt>
      <trkpt lat="45.97409" lon="4.85265">
        <ele>286</ele>
        <time>2018-02-28T10:49:59Z</time>
      </trkpt>
      <trkpt lat="45.97405" lon="4.85265">
        <ele>286</ele>
        <time>2018-02-28T10:50:00Z</time>
      </trkpt>
      <trkpt lat="45.97399" lon="4.85263">
        <ele>286</ele>
        <time>2018-02-28T10:50:01Z</time>
      </trkpt>
      <trkpt lat="45.97396" lon="4.8526">
        <ele>286</ele>
        <time>2018-02-28T10:50:02Z</time>
      </trkpt>
      <trkpt lat="45.97391" lon="4.85261">
        <ele>285</ele>
        <time>2018-02-28T10:50:03Z</time>
      </trkpt>
      <trkpt lat="45.97386" lon="4.85261">
        <ele>285</ele>
        <time>2018-02-28T10:50:04Z</time>
      </trkpt>
      <trkpt lat="45.9738" lon="4.85261">
        <ele>285</ele>
        <time>2018-02-28T10:50:06Z</time>
      </trkpt>
      <trkpt lat="45.97376" lon="4.8526">
        <ele>285</ele>
        <time>2018-02-28T10:50:07Z</time>
      </trkpt>
      <trkpt lat="45.97371" lon="4.85261">
        <ele>285</ele>
        <time>2018-02-28T10:50:08Z</time>
      </trkpt>
      <trkpt lat="45.97365" lon="4.8526">
        <ele>284</ele>
        <time>2018-02-28T10:50:09Z</time>
      </trkpt>
      <trkpt lat="45.97359" lon="4.8526">
        <ele>284</ele>
        <time>2018-02-28T10:50:10Z</time>
      </trkpt>
      <trkpt lat="45.97354" lon="4.85261">
        <ele>284</ele>
        <time>2018-02-28T10:50:11Z</time>
      </trkpt>
      <trkpt lat="45.97349" lon="4.8526">
        <ele>283</ele>
        <time>2018-02-28T10:50:12Z</time>
      </trkpt>
      <trkpt lat="45.97344" lon="4.85259">
        <ele>283</ele>
        <time>2018-02-28T10:50:13Z</time>
      </trkpt>
      <trkpt lat="45.97335" lon="4.85262">
        <ele>283</ele>
        <time>2018-02-28T10:50:15Z</time>
      </trkpt>
      <trkpt lat="45.97331" lon="4.85261">
        <ele>281</ele>
        <time>2018-02-28T10:50:16Z</time>
      </trkpt>
      <trkpt lat="45.97326" lon="4.85262">
        <ele>281</ele>
        <time>2018-02-28T10:50:17Z</time>
      </trkpt>
      <trkpt lat="45.97321" lon="4.85263">
        <ele>282</ele>
        <time>2018-02-28T10:50:18Z</time>
      </trkpt>
      <trkpt lat="45.97316" lon="4.85262">
        <ele>282</ele>
        <time>2018-02-28T10:50:19Z</time>
      </trkpt>
      <trkpt lat="45.9731" lon="4.85262">
        <ele>282</ele>
        <time>2018-02-28T10:50:20Z</time>
      </trkpt>
      <trkpt lat="45.97305" lon="4.85263">
        <ele>282</ele>
        <time>2018-02-28T10:50:21Z</time>
      </trkpt>
      <trkpt lat="45.97299" lon="4.85263">
        <ele>282</ele>
        <time>2018-02-28T10:50:22Z</time>
      </trkpt>
      <trkpt lat="45.97295" lon="4.85263">
        <ele>281</ele>
        <time>2018-02-28T10:50:23Z</time>
      </trkpt>
      <trkpt lat="45.97289" lon="4.85264">
        <ele>281</ele>
        <time>2018-02-28T10:50:24Z</time>
      </trkpt>
      <trkpt lat="45.97284" lon="4.85264">
        <ele>281</ele>
        <time>2018-02-28T10:50:25Z</time>
      </trkpt>
      <trkpt lat="45.97279" lon="4.85266">
        <ele>281</ele>
        <time>2018-02-28T10:50:26Z</time>
      </trkpt>
      <trkpt lat="45.97272" lon="4.85266">
        <ele>281</ele>
        <time>2018-02-28T10:50:27Z</time>
      </trkpt>
      <trkpt lat="45.97268" lon="4.85266">
        <ele>281</ele>
        <time>2018-02-28T10:50:28Z</time>
      </trkpt>
      <trkpt lat="45.97263" lon="4.85266">
        <ele>281</ele>
        <time>2018-02-28T10:50:29Z</time>
      </trkpt>
      <trkpt lat="45.97258" lon="4.85267">
        <ele>281</ele>
        <time>2018-02-28T10:50:30Z</time>
      </trkpt>
      <trkpt lat="45.97253" lon="4.85267">
        <ele>280</ele>
        <time>2018-02-28T10:50:31Z</time>
      </trkpt>
      <trkpt lat="45.97247" lon="4.85268">
        <ele>279</ele>
        <time>2018-02-28T10:50:32Z</time>
      </trkpt>
      <trkpt lat="45.97242" lon="4.85268">
        <ele>279</ele>
        <time>2018-02-28T10:50:33Z</time>
      </trkpt>
      <trkpt lat="45.97237" lon="4.85268">
        <ele>279</ele>
        <time>2018-02-28T10:50:34Z</time>
      </trkpt>
      <trkpt lat="45.97231" lon="4.85268">
        <ele>279</ele>
        <time>2018-02-28T10:50:35Z</time>
      </trkpt>
      <trkpt lat="45.97226" lon="4.85269">
        <ele>279</ele>
        <time>2018-02-28T10:50:36Z</time>
      </trkpt>
      <trkpt lat="45.97221" lon="4.8527">
        <ele>279</ele>
        <time>2018-02-28T10:50:37Z</time>
      </trkpt>
      <trkpt lat="45.97216" lon="4.8527">
        <ele>279</ele>
        <time>2018-02-28T10:50:38Z</time>
      </trkpt>
      <trkpt lat="45.9721" lon="4.8527">
        <ele>279</ele>
        <time>2018-02-28T10:50:39Z</time>
      </trkpt>
      <trkpt lat="45.97205" lon="4.85269">
        <ele>279</ele>
        <time>2018-02-28T10:50:40Z</time>
      </trkpt>
      <trkpt lat="45.97199" lon="4.85269">
        <ele>279</ele>
        <time>2018-02-28T10:50:41Z</time>
      </trkpt>
      <trkpt lat="45.97194" lon="4.8527">
        <ele>279</ele>
        <time>2018-02-28T10:50:42Z</time>
      </trkpt>
      <trkpt lat="45.9719" lon="4.8527">
        <ele>279</ele>
        <time>2018-02-28T10:50:43Z</time>
      </trkpt>
      <trkpt lat="45.97182" lon="4.8527">
        <ele>279</ele>
        <time>2018-02-28T10:50:44Z</time>
      </trkpt>
      <trkpt lat="45.97174" lon="4.85271">
        <ele>279</ele>
        <time>2018-02-28T10:50:46Z</time>
      </trkpt>
      <trkpt lat="45.9717" lon="4.8527">
        <ele>279</ele>
        <time>2018-02-28T10:50:47Z</time>
      </trkpt>
      <trkpt lat="45.97161" lon="4.85271">
        <ele>279</ele>
        <time>2018-02-28T10:50:49Z</time>
      </trkpt>
      <trkpt lat="45.97157" lon="4.85271">
        <ele>279</ele>
        <time>2018-02-28T10:50:50Z</time>
      </trkpt>
      <trkpt lat="45.97149" lon="4.85271">
        <ele>279</ele>
        <time>2018-02-28T10:50:52Z</time>
      </trkpt>
      <trkpt lat="45.97145" lon="4.85271">
        <ele>279</ele>
        <time>2018-02-28T10:50:53Z</time>
      </trkpt>
      <trkpt lat="45.97138" lon="4.85271">
        <ele>279</ele>
        <time>2018-02-28T10:50:55Z</time>
      </trkpt>
      <trkpt lat="45.97133" lon="4.85272">
        <ele>279</ele>
        <time>2018-02-28T10:50:56Z</time>
      </trkpt>
      <trkpt lat="45.97128" lon="4.85272">
        <ele>279</ele>
        <time>2018-02-28T10:50:57Z</time>
      </trkpt>
      <trkpt lat="45.97124" lon="4.85272">
        <ele>280</ele>
        <time>2018-02-28T10:50:58Z</time>
      </trkpt>
      <trkpt lat="45.97119" lon="4.85272">
        <ele>280</ele>
        <time>2018-02-28T10:50:59Z</time>
      </trkpt>
      <trkpt lat="45.97115" lon="4.85273">
        <ele>280</ele>
        <time>2018-02-28T10:51:00Z</time>
      </trkpt>
      <trkpt lat="45.97106" lon="4.85275">
        <ele>280</ele>
        <time>2018-02-28T10:51:02Z</time>
      </trkpt>
      <trkpt lat="45.97102" lon="4.85276">
        <ele>280</ele>
        <time>2018-02-28T10:51:03Z</time>
      </trkpt>
      <trkpt lat="45.97094" lon="4.85275">
        <ele>280</ele>
        <time>2018-02-28T10:51:05Z</time>
      </trkpt>
      <trkpt lat="45.9709" lon="4.85275">
        <ele>280</ele>
        <time>2018-02-28T10:51:06Z</time>
      </trkpt>
      <trkpt lat="45.97081" lon="4.85275">
        <ele>281</ele>
        <time>2018-02-28T10:51:08Z</time>
      </trkpt>
      <trkpt lat="45.97077" lon="4.85275">
        <ele>281</ele>
        <time>2018-02-28T10:51:09Z</time>
      </trkpt>
      <trkpt lat="45.97069" lon="4.85276">
        <ele>282</ele>
        <time>2018-02-28T10:51:11Z</time>
      </trkpt>
      <trkpt lat="45.97064" lon="4.85277">
        <ele>282</ele>
        <time>2018-02-28T10:51:12Z</time>
      </trkpt>
      <trkpt lat="45.97056" lon="4.85278">
        <ele>282</ele>
        <time>2018-02-28T10:51:14Z</time>
      </trkpt>
      <trkpt lat="45.97052" lon="4.85278">
        <ele>282</ele>
        <time>2018-02-28T10:51:15Z</time>
      </trkpt>
      <trkpt lat="45.97044" lon="4.85279">
        <ele>282</ele>
        <time>2018-02-28T10:51:17Z</time>
      </trkpt>
      <trkpt lat="45.97039" lon="4.8528">
        <ele>282</ele>
        <time>2018-02-28T10:51:18Z</time>
      </trkpt>
      <trkpt lat="45.97031" lon="4.85282">
        <ele>282</ele>
        <time>2018-02-28T10:51:20Z</time>
      </trkpt>
      <trkpt lat="45.97027" lon="4.85282">
        <ele>282</ele>
        <time>2018-02-28T10:51:21Z</time>
      </trkpt>
      <trkpt lat="45.97019" lon="4.85282">
        <ele>282</ele>
        <time>2018-02-28T10:51:23Z</time>
      </trkpt>
      <trkpt lat="45.97015" lon="4.85282">
        <ele>282</ele>
        <time>2018-02-28T10:51:24Z</time>
      </trkpt>
      <trkpt lat="45.97007" lon="4.85283">
        <ele>282</ele>
        <time>2018-02-28T10:51:26Z</time>
      </trkpt>
      <trkpt lat="45.97003" lon="4.85285">
        <ele>282</ele>
        <time>2018-02-28T10:51:27Z</time>
      </trkpt>
      <trkpt lat="45.96996" lon="4.85286">
        <ele>283</ele>
        <time>2018-02-28T10:51:29Z</time>
      </trkpt>
      <trkpt lat="45.96992" lon="4.85286">
        <ele>284</ele>
        <time>2018-02-28T10:51:30Z</time>
      </trkpt>
      <trkpt lat="45.96984" lon="4.85287">
        <ele>284</ele>
        <time>2018-02-28T10:51:32Z</time>
      </trkpt>
      <trkpt lat="45.96981" lon="4.85288">
        <ele>284</ele>
        <time>2018-02-28T10:51:33Z</time>
      </trkpt>
      <trkpt lat="45.96973" lon="4.85288">
        <ele>284</ele>
        <time>2018-02-28T10:51:35Z</time>
      </trkpt>
      <trkpt lat="45.96969" lon="4.85288">
        <ele>284</ele>
        <time>2018-02-28T10:51:36Z</time>
      </trkpt>
      <trkpt lat="45.96962" lon="4.85289">
        <ele>284</ele>
        <time>2018-02-28T10:51:38Z</time>
      </trkpt>
      <trkpt lat="45.96958" lon="4.8529">
        <ele>284</ele>
        <time>2018-02-28T10:51:39Z</time>
      </trkpt>
      <trkpt lat="45.9695" lon="4.85292">
        <ele>284</ele>
        <time>2018-02-28T10:51:41Z</time>
      </trkpt>
      <trkpt lat="45.96946" lon="4.85292">
        <ele>284</ele>
        <time>2018-02-28T10:51:42Z</time>
      </trkpt>
      <trkpt lat="45.96937" lon="4.85294">
        <ele>284</ele>
        <time>2018-02-28T10:51:44Z</time>
      </trkpt>
      <trkpt lat="45.96933" lon="4.85295">
        <ele>284</ele>
        <time>2018-02-28T10:51:45Z</time>
      </trkpt>
      <trkpt lat="45.96925" lon="4.85297">
        <ele>284</ele>
        <time>2018-02-28T10:51:47Z</time>
      </trkpt>
      <trkpt lat="45.9692" lon="4.85298">
        <ele>285</ele>
        <time>2018-02-28T10:51:48Z</time>
      </trkpt>
      <trkpt lat="45.96915" lon="4.85299">
        <ele>284</ele>
        <time>2018-02-28T10:51:49Z</time>
      </trkpt>
      <trkpt lat="45.9691" lon="4.853">
        <ele>284</ele>
        <time>2018-02-28T10:51:50Z</time>
      </trkpt>
      <trkpt lat="45.96905" lon="4.85302">
        <ele>284</ele>
        <time>2018-02-28T10:51:51Z</time>
      </trkpt>
      <trkpt lat="45.96899" lon="4.85303">
        <ele>283</ele>
        <time>2018-02-28T10:51:52Z</time>
      </trkpt>
      <trkpt lat="45.96893" lon="4.85304">
        <ele>283</ele>
        <time>2018-02-28T10:51:53Z</time>
      </trkpt>
      <trkpt lat="45.96887" lon="4.85306">
        <ele>283</ele>
        <time>2018-02-28T10:51:54Z</time>
      </trkpt>
      <trkpt lat="45.96881" lon="4.85309">
        <ele>283</ele>
        <time>2018-02-28T10:51:55Z</time>
      </trkpt>
      <trkpt lat="45.96875" lon="4.85312">
        <ele>283</ele>
        <time>2018-02-28T10:51:56Z</time>
      </trkpt>
      <trkpt lat="45.96869" lon="4.85314">
        <ele>282</ele>
        <time>2018-02-28T10:51:57Z</time>
      </trkpt>
      <trkpt lat="45.96863" lon="4.85317">
        <ele>282</ele>
        <time>2018-02-28T10:51:58Z</time>
      </trkpt>
      <trkpt lat="45.96855" lon="4.85319">
        <ele>282</ele>
        <time>2018-02-28T10:51:59Z</time>
      </trkpt>
      <trkpt lat="45.96849" lon="4.85323">
        <ele>281</ele>
        <time>2018-02-28T10:52:00Z</time>
      </trkpt>
      <trkpt lat="45.96841" lon="4.85325">
        <ele>281</ele>
        <time>2018-02-28T10:52:01Z</time>
      </trkpt>
      <trkpt lat="45.96833" lon="4.85328">
        <ele>280</ele>
        <time>2018-02-28T10:52:02Z</time>
      </trkpt>
      <trkpt lat="45.96825" lon="4.8533">
        <ele>279</ele>
        <time>2018-02-28T10:52:03Z</time>
      </trkpt>
      <trkpt lat="45.96817" lon="4.85333">
        <ele>279</ele>
        <time>2018-02-28T10:52:04Z</time>
      </trkpt>
      <trkpt lat="45.9681" lon="4.85337">
        <ele>279</ele>
        <time>2018-02-28T10:52:05Z</time>
      </trkpt>
      <trkpt lat="45.96803" lon="4.8534">
        <ele>279</ele>
        <time>2018-02-28T10:52:06Z</time>
      </trkpt>
      <trkpt lat="45.96793" lon="4.85346">
        <ele>279</ele>
        <time>2018-02-28T10:52:07Z</time>
      </trkpt>
      <trkpt lat="45.96786" lon="4.85351">
        <ele>278</ele>
        <time>2018-02-28T10:52:08Z</time>
      </trkpt>
      <trkpt lat="45.9678" lon="4.85357">
        <ele>278</ele>
        <time>2018-02-28T10:52:09Z</time>
      </trkpt>
      <trkpt lat="45.96773" lon="4.85362">
        <ele>278</ele>
        <time>2018-02-28T10:52:10Z</time>
      </trkpt>
      <trkpt lat="45.96767" lon="4.85366">
        <ele>278</ele>
        <time>2018-02-28T10:52:11Z</time>
      </trkpt>
      <trkpt lat="45.96762" lon="4.85373">
        <ele>278</ele>
        <time>2018-02-28T10:52:12Z</time>
      </trkpt>
      <trkpt lat="45.96756" lon="4.85378">
        <ele>278</ele>
        <time>2018-02-28T10:52:13Z</time>
      </trkpt>
      <trkpt lat="45.96749" lon="4.85384">
        <ele>277</ele>
        <time>2018-02-28T10:52:14Z</time>
      </trkpt>
      <trkpt lat="45.96742" lon="4.8539">
        <ele>277</ele>
        <time>2018-02-28T10:52:15Z</time>
      </trkpt>
      <trkpt lat="45.96735" lon="4.85394">
        <ele>277</ele>
        <time>2018-02-28T10:52:16Z</time>
      </trkpt>
      <trkpt lat="45.96729" lon="4.85399">
        <ele>277</ele>
        <time>2018-02-28T10:52:17Z</time>
      </trkpt>
      <trkpt lat="45.96723" lon="4.85404">
        <ele>276</ele>
        <time>2018-02-28T10:52:18Z</time>
      </trkpt>
      <trkpt lat="45.96718" lon="4.85408">
        <ele>276</ele>
        <time>2018-02-28T10:52:19Z</time>
      </trkpt>
      <trkpt lat="45.96712" lon="4.85412">
        <ele>276</ele>
        <time>2018-02-28T10:52:20Z</time>
      </trkpt>
      <trkpt lat="45.96705" lon="4.85416">
        <ele>276</ele>
        <time>2018-02-28T10:52:21Z</time>
      </trkpt>
      <trkpt lat="45.967" lon="4.85417">
        <ele>276</ele>
        <time>2018-02-28T10:52:22Z</time>
      </trkpt>
      <trkpt lat="45.96693" lon="4.85418">
        <ele>276</ele>
        <time>2018-02-28T10:52:23Z</time>
      </trkpt>
      <trkpt lat="45.96687" lon="4.85421">
        <ele>276</ele>
        <time>2018-02-28T10:52:24Z</time>
      </trkpt>
      <trkpt lat="45.96678" lon="4.85424">
        <ele>276</ele>
        <time>2018-02-28T10:52:25Z</time>
      </trkpt>
      <trkpt lat="45.96672" lon="4.85427">
        <ele>276</ele>
        <time>2018-02-28T10:52:26Z</time>
      </trkpt>
      <trkpt lat="45.96665" lon="4.85429">
        <ele>276</ele>
        <time>2018-02-28T10:52:27Z</time>
      </trkpt>
      <trkpt lat="45.96658" lon="4.85431">
        <ele>276</ele>
        <time>2018-02-28T10:52:28Z</time>
      </trkpt>
      <trkpt lat="45.96652" lon="4.85433">
        <ele>276</ele>
        <time>2018-02-28T10:52:29Z</time>
      </trkpt>
      <trkpt lat="45.96646" lon="4.85435">
        <ele>276</ele>
        <time>2018-02-28T10:52:30Z</time>
      </trkpt>
      <trkpt lat="45.9664" lon="4.85436">
        <ele>276</ele>
        <time>2018-02-28T10:52:31Z</time>
      </trkpt>
      <trkpt lat="45.96634" lon="4.85437">
        <ele>276</ele>
        <time>2018-02-28T10:52:32Z</time>
      </trkpt>
      <trkpt lat="45.96628" lon="4.85439">
        <ele>276</ele>
        <time>2018-02-28T10:52:33Z</time>
      </trkpt>
      <trkpt lat="45.96623" lon="4.85441">
        <ele>276</ele>
        <time>2018-02-28T10:52:34Z</time>
      </trkpt>
      <trkpt lat="45.96617" lon="4.85443">
        <ele>276</ele>
        <time>2018-02-28T10:52:35Z</time>
      </trkpt>
      <trkpt lat="45.96611" lon="4.85445">
        <ele>276</ele>
        <time>2018-02-28T10:52:36Z</time>
      </trkpt>
      <trkpt lat="45.96605" lon="4.85446">
        <ele>276</ele>
        <time>2018-02-28T10:52:37Z</time>
      </trkpt>
      <trkpt lat="45.96596" lon="4.85448">
        <ele>276</ele>
        <time>2018-02-28T10:52:39Z</time>
      </trkpt>
      <trkpt lat="45.96591" lon="4.85449">
        <ele>276</ele>
        <time>2018-02-28T10:52:40Z</time>
      </trkpt>
      <trkpt lat="45.96586" lon="4.85451">
        <ele>276</ele>
        <time>2018-02-28T10:52:41Z</time>
      </trkpt>
      <trkpt lat="45.9658" lon="4.85453">
        <ele>275</ele>
        <time>2018-02-28T10:52:42Z</time>
      </trkpt>
      <trkpt lat="45.96575" lon="4.85454">
        <ele>275</ele>
        <time>2018-02-28T10:52:43Z</time>
      </trkpt>
      <trkpt lat="45.9657" lon="4.85456">
        <ele>275</ele>
        <time>2018-02-28T10:52:44Z</time>
      </trkpt>
      <trkpt lat="45.96565" lon="4.85458">
        <ele>275</ele>
        <time>2018-02-28T10:52:45Z</time>
      </trkpt>
      <trkpt lat="45.9656" lon="4.8546">
        <ele>275</ele>
        <time>2018-02-28T10:52:46Z</time>
      </trkpt>
      <trkpt lat="45.96554" lon="4.85462">
        <ele>275</ele>
        <time>2018-02-28T10:52:47Z</time>
      </trkpt>
      <trkpt lat="45.96549" lon="4.85464">
        <ele>275</ele>
        <time>2018-02-28T10:52:48Z</time>
      </trkpt>
      <trkpt lat="45.96543" lon="4.85465">
        <ele>275</ele>
        <time>2018-02-28T10:52:49Z</time>
      </trkpt>
      <trkpt lat="45.96538" lon="4.85466">
        <ele>275</ele>
        <time>2018-02-28T10:52:50Z</time>
      </trkpt>
      <trkpt lat="45.96531" lon="4.85467">
        <ele>275</ele>
        <time>2018-02-28T10:52:51Z</time>
      </trkpt>
      <trkpt lat="45.96524" lon="4.85468">
        <ele>275</ele>
        <time>2018-02-28T10:52:52Z</time>
      </trkpt>
      <trkpt lat="45.96517" lon="4.85469">
        <ele>275</ele>
        <time>2018-02-28T10:52:53Z</time>
      </trkpt>
      <trkpt lat="45.96509" lon="4.8547">
        <ele>275</ele>
        <time>2018-02-28T10:52:54Z</time>
      </trkpt>
      <trkpt lat="45.96504" lon="4.85471">
        <ele>275</ele>
        <time>2018-02-28T10:52:55Z</time>
      </trkpt>
      <trkpt lat="45.96498" lon="4.85472">
        <ele>273</ele>
        <time>2018-02-28T10:52:56Z</time>
      </trkpt>
      <trkpt lat="45.96492" lon="4.85473">
        <ele>273</ele>
        <time>2018-02-28T10:52:57Z</time>
      </trkpt>
      <trkpt lat="45.96487" lon="4.85474">
        <ele>273</ele>
        <time>2018-02-28T10:52:58Z</time>
      </trkpt>
      <trkpt lat="45.96478" lon="4.85474">
        <ele>273</ele>
        <time>2018-02-28T10:53:01Z</time>
      </trkpt>
      <trkpt lat="45.96475" lon="4.85474">
        <ele>272</ele>
        <time>2018-02-28T10:53:02Z</time>
      </trkpt>
      <trkpt lat="45.96469" lon="4.85474">
        <ele>272</ele>
        <time>2018-02-28T10:53:04Z</time>
      </trkpt>
      <trkpt lat="45.9646" lon="4.85474">
        <ele>272</ele>
        <time>2018-02-28T10:53:05Z</time>
      </trkpt>
      <trkpt lat="45.96456" lon="4.85475">
        <ele>272</ele>
        <time>2018-02-28T10:53:06Z</time>
      </trkpt>
      <trkpt lat="45.9645" lon="4.85474">
        <ele>272</ele>
        <time>2018-02-28T10:53:07Z</time>
      </trkpt>
      <trkpt lat="45.96444" lon="4.85474">
        <ele>272</ele>
        <time>2018-02-28T10:53:08Z</time>
      </trkpt>
      <trkpt lat="45.96439" lon="4.85473">
        <ele>271</ele>
        <time>2018-02-28T10:53:09Z</time>
      </trkpt>
      <trkpt lat="45.96433" lon="4.85474">
        <ele>271</ele>
        <time>2018-02-28T10:53:10Z</time>
      </trkpt>
      <trkpt lat="45.96427" lon="4.85475">
        <ele>271</ele>
        <time>2018-02-28T10:53:11Z</time>
      </trkpt>
      <trkpt lat="45.96422" lon="4.85475">
        <ele>271</ele>
        <time>2018-02-28T10:53:12Z</time>
      </trkpt>
      <trkpt lat="45.96417" lon="4.85476">
        <ele>271</ele>
        <time>2018-02-28T10:53:13Z</time>
      </trkpt>
      <trkpt lat="45.9641" lon="4.85474">
        <ele>269</ele>
        <time>2018-02-28T10:53:14Z</time>
      </trkpt>
      <trkpt lat="45.96404" lon="4.85474">
        <ele>269</ele>
        <time>2018-02-28T10:53:15Z</time>
      </trkpt>
      <trkpt lat="45.964" lon="4.85475">
        <ele>269</ele>
        <time>2018-02-28T10:53:16Z</time>
      </trkpt>
      <trkpt lat="45.96393" lon="4.85475">
        <ele>269</ele>
        <time>2018-02-28T10:53:17Z</time>
      </trkpt>
      <trkpt lat="45.96387" lon="4.85474">
        <ele>269</ele>
        <time>2018-02-28T10:53:18Z</time>
      </trkpt>
      <trkpt lat="45.9638" lon="4.85472">
        <ele>268</ele>
        <time>2018-02-28T10:53:19Z</time>
      </trkpt>
      <trkpt lat="45.96374" lon="4.85471">
        <ele>268</ele>
        <time>2018-02-28T10:53:20Z</time>
      </trkpt>
      <trkpt lat="45.96367" lon="4.8547">
        <ele>268</ele>
        <time>2018-02-28T10:53:21Z</time>
      </trkpt>
      <trkpt lat="45.9636" lon="4.8547">
        <ele>268</ele>
        <time>2018-02-28T10:53:22Z</time>
      </trkpt>
      <trkpt lat="45.96353" lon="4.85468">
        <ele>268</ele>
        <time>2018-02-28T10:53:23Z</time>
      </trkpt>
      <trkpt lat="45.96346" lon="4.85467">
        <ele>268</ele>
        <time>2018-02-28T10:53:24Z</time>
      </trkpt>
      <trkpt lat="45.96338" lon="4.85467">
        <ele>268</ele>
        <time>2018-02-28T10:53:25Z</time>
      </trkpt>
      <trkpt lat="45.96331" lon="4.85466">
        <ele>265</ele>
        <time>2018-02-28T10:53:26Z</time>
      </trkpt>
      <trkpt lat="45.96324" lon="4.85465">
        <ele>265</ele>
        <time>2018-02-28T10:53:27Z</time>
      </trkpt>
      <trkpt lat="45.96316" lon="4.85465">
        <ele>265</ele>
        <time>2018-02-28T10:53:28Z</time>
      </trkpt>
      <trkpt lat="45.9631" lon="4.85464">
        <ele>265</ele>
        <time>2018-02-28T10:53:29Z</time>
      </trkpt>
      <trkpt lat="45.96302" lon="4.85463">
        <ele>265</ele>
        <time>2018-02-28T10:53:30Z</time>
      </trkpt>
      <trkpt lat="45.96294" lon="4.8546">
        <ele>265</ele>
        <time>2018-02-28T10:53:31Z</time>
      </trkpt>
      <trkpt lat="45.96287" lon="4.85459">
        <ele>265</ele>
        <time>2018-02-28T10:53:32Z</time>
      </trkpt>
      <trkpt lat="45.9628" lon="4.85457">
        <ele>264</ele>
        <time>2018-02-28T10:53:33Z</time>
      </trkpt>
      <trkpt lat="45.96273" lon="4.85454">
        <ele>264</ele>
        <time>2018-02-28T10:53:34Z</time>
      </trkpt>
      <trkpt lat="45.96265" lon="4.85451">
        <ele>264</ele>
        <time>2018-02-28T10:53:35Z</time>
      </trkpt>
      <trkpt lat="45.96259" lon="4.85448">
        <ele>264</ele>
        <time>2018-02-28T10:53:36Z</time>
      </trkpt>
      <trkpt lat="45.96251" lon="4.85446">
        <ele>264</ele>
        <time>2018-02-28T10:53:37Z</time>
      </trkpt>
      <trkpt lat="45.96243" lon="4.85443">
        <ele>261</ele>
        <time>2018-02-28T10:53:38Z</time>
      </trkpt>
      <trkpt lat="45.96236" lon="4.8544">
        <ele>261</ele>
        <time>2018-02-28T10:53:39Z</time>
      </trkpt>
      <trkpt lat="45.96227" lon="4.85436">
        <ele>261</ele>
        <time>2018-02-28T10:53:40Z</time>
      </trkpt>
      <trkpt lat="45.96219" lon="4.85432">
        <ele>261</ele>
        <time>2018-02-28T10:53:41Z</time>
      </trkpt>
      <trkpt lat="45.96212" lon="4.85427">
        <ele>261</ele>
        <time>2018-02-28T10:53:42Z</time>
      </trkpt>
      <trkpt lat="45.96205" lon="4.85422">
        <ele>260</ele>
        <time>2018-02-28T10:53:43Z</time>
      </trkpt>
      <trkpt lat="45.96197" lon="4.85414">
        <ele>258</ele>
        <time>2018-02-28T10:53:44Z</time>
      </trkpt>
      <trkpt lat="45.9619" lon="4.85409">
        <ele>258</ele>
        <time>2018-02-28T10:53:45Z</time>
      </trkpt>
      <trkpt lat="45.96182" lon="4.85403">
        <ele>258</ele>
        <time>2018-02-28T10:53:46Z</time>
      </trkpt>
      <trkpt lat="45.96175" lon="4.85397">
        <ele>258</ele>
        <time>2018-02-28T10:53:47Z</time>
      </trkpt>
      <trkpt lat="45.96168" lon="4.85391">
        <ele>258</ele>
        <time>2018-02-28T10:53:48Z</time>
      </trkpt>
      <trkpt lat="45.9616" lon="4.85386">
        <ele>258</ele>
        <time>2018-02-28T10:53:49Z</time>
      </trkpt>
      <trkpt lat="45.96152" lon="4.85383">
        <ele>258</ele>
        <time>2018-02-28T10:53:50Z</time>
      </trkpt>
      <trkpt lat="45.96145" lon="4.85379">
        <ele>258</ele>
        <time>2018-02-28T10:53:51Z</time>
      </trkpt>
      <trkpt lat="45.96137" lon="4.85376">
        <ele>258</ele>
        <time>2018-02-28T10:53:52Z</time>
      </trkpt>
      <trkpt lat="45.96129" lon="4.85372">
        <ele>258</ele>
        <time>2018-02-28T10:53:53Z</time>
      </trkpt>
      <trkpt lat="45.96123" lon="4.85368">
        <ele>258</ele>
        <time>2018-02-28T10:53:54Z</time>
      </trkpt>
      <trkpt lat="45.96116" lon="4.85365">
        <ele>258</ele>
        <time>2018-02-28T10:53:55Z</time>
      </trkpt>
      <trkpt lat="45.96111" lon="4.85362">
        <ele>259</ele>
        <time>2018-02-28T10:53:56Z</time>
      </trkpt>
      <trkpt lat="45.96106" lon="4.8536">
        <ele>259</ele>
        <time>2018-02-28T10:53:57Z</time>
      </trkpt>
      <trkpt lat="45.96101" lon="4.85359">
        <ele>259</ele>
        <time>2018-02-28T10:53:58Z</time>
      </trkpt>
      <trkpt lat="45.96096" lon="4.85357">
        <ele>259</ele>
        <time>2018-02-28T10:53:59Z</time>
      </trkpt>
      <trkpt lat="45.96091" lon="4.85355">
        <ele>259</ele>
        <time>2018-02-28T10:54:00Z</time>
      </trkpt>
      <trkpt lat="45.96082" lon="4.85353">
        <ele>262</ele>
        <time>2018-02-28T10:54:02Z</time>
      </trkpt>
      <trkpt lat="45.96078" lon="4.85351">
        <ele>262</ele>
        <time>2018-02-28T10:54:03Z</time>
      </trkpt>
      <trkpt lat="45.96074" lon="4.8535">
        <ele>262</ele>
        <time>2018-02-28T10:54:04Z</time>
      </trkpt>
      <trkpt lat="45.96068" lon="4.8535">
        <ele>262</ele>
        <time>2018-02-28T10:54:05Z</time>
      </trkpt>
      <trkpt lat="45.9606" lon="4.85347">
        <ele>262</ele>
        <time>2018-02-28T10:54:07Z</time>
      </trkpt>
      <trkpt lat="45.96055" lon="4.85346">
        <ele>262</ele>
        <time>2018-02-28T10:54:08Z</time>
      </trkpt>
      <trkpt lat="45.96051" lon="4.85346">
        <ele>262</ele>
        <time>2018-02-28T10:54:09Z</time>
      </trkpt>
      <trkpt lat="45.96046" lon="4.85348">
        <ele>262</ele>
        <time>2018-02-28T10:54:10Z</time>
      </trkpt>
      <trkpt lat="45.96039" lon="4.8535">
        <ele>263</ele>
        <time>2018-02-28T10:54:12Z</time>
      </trkpt>
      <trkpt lat="45.96035" lon="4.8535">
        <ele>263</ele>
        <time>2018-02-28T10:54:13Z</time>
      </trkpt>
      <trkpt lat="45.96029" lon="4.85349">
        <ele>263</ele>
        <time>2018-02-28T10:54:16Z</time>
      </trkpt>
      <trkpt lat="45.96021" lon="4.85347">
        <ele>263</ele>
        <time>2018-02-28T10:54:17Z</time>
      </trkpt>
      <trkpt lat="45.96014" lon="4.85347">
        <ele>264</ele>
        <time>2018-02-28T10:54:19Z</time>
      </trkpt>
      <trkpt lat="45.9601" lon="4.85348">
        <ele>264</ele>
        <time>2018-02-28T10:54:20Z</time>
      </trkpt>
      <trkpt lat="45.96003" lon="4.85348">
        <ele>264</ele>
        <time>2018-02-28T10:54:22Z</time>
      </trkpt>
      <trkpt lat="45.96" lon="4.85347">
        <ele>265</ele>
        <time>2018-02-28T10:54:23Z</time>
      </trkpt>
      <trkpt lat="45.95991" lon="4.85347">
        <ele>265</ele>
        <time>2018-02-28T10:54:27Z</time>
      </trkpt>
      <trkpt lat="45.95989" lon="4.85347">
        <ele>265</ele>
        <time>2018-02-28T10:54:28Z</time>
      </trkpt>
      <trkpt lat="45.95981" lon="4.85346">
        <ele>265</ele>
        <time>2018-02-28T10:54:31Z</time>
      </trkpt>
      <trkpt lat="45.95978" lon="4.85345">
        <ele>265</ele>
        <time>2018-02-28T10:54:32Z</time>
      </trkpt>
      <trkpt lat="45.95972" lon="4.85345">
        <ele>265</ele>
        <time>2018-02-28T10:54:34Z</time>
      </trkpt>
      <trkpt lat="45.95969" lon="4.85346">
        <ele>265</ele>
        <time>2018-02-28T10:54:35Z</time>
      </trkpt>
      <trkpt lat="45.9596" lon="4.85346">
        <ele>265</ele>
        <time>2018-02-28T10:54:38Z</time>
      </trkpt>
      <trkpt lat="45.95957" lon="4.85346">
        <ele>266</ele>
        <time>2018-02-28T10:54:39Z</time>
      </trkpt>
      <trkpt lat="45.95949" lon="4.85344">
        <ele>266</ele>
        <time>2018-02-28T10:54:42Z</time>
      </trkpt>
      <trkpt lat="45.95946" lon="4.85344">
        <ele>266</ele>
        <time>2018-02-28T10:54:43Z</time>
      </trkpt>
      <trkpt lat="45.95938" lon="4.85345">
        <ele>266</ele>
        <time>2018-02-28T10:54:46Z</time>
      </trkpt>
      <trkpt lat="45.95935" lon="4.85345">
        <ele>266</ele>
        <time>2018-02-28T10:54:47Z</time>
      </trkpt>
      <trkpt lat="45.95926" lon="4.85342">
        <ele>266</ele>
        <time>2018-02-28T10:54:50Z</time>
      </trkpt>
      <trkpt lat="45.95924" lon="4.8534">
        <ele>266</ele>
        <time>2018-02-28T10:54:51Z</time>
      </trkpt>
      <trkpt lat="45.95918" lon="4.85337">
        <ele>267</ele>
        <time>2018-02-28T10:54:53Z</time>
      </trkpt>
      <trkpt lat="45.95915" lon="4.85336">
        <ele>267</ele>
        <time>2018-02-28T10:54:54Z</time>
      </trkpt>
      <trkpt lat="45.95909" lon="4.85333">
        <ele>268</ele>
        <time>2018-02-28T10:54:56Z</time>
      </trkpt>
      <trkpt lat="45.95905" lon="4.85331">
        <ele>268</ele>
        <time>2018-02-28T10:54:57Z</time>
      </trkpt>
      <trkpt lat="45.95899" lon="4.85328">
        <ele>268</ele>
        <time>2018-02-28T10:54:59Z</time>
      </trkpt>
      <trkpt lat="45.95896" lon="4.85326">
        <ele>268</ele>
        <time>2018-02-28T10:55:00Z</time>
      </trkpt>
      <trkpt lat="45.9589" lon="4.85321">
        <ele>269</ele>
        <time>2018-02-28T10:55:02Z</time>
      </trkpt>
      <trkpt lat="45.95887" lon="4.85318">
        <ele>269</ele>
        <time>2018-02-28T10:55:03Z</time>
      </trkpt>
      <trkpt lat="45.95879" lon="4.85309">
        <ele>269</ele>
        <time>2018-02-28T10:55:04Z</time>
      </trkpt>
      <trkpt lat="45.95874" lon="4.85302">
        <ele>269</ele>
        <time>2018-02-28T10:55:07Z</time>
      </trkpt>
      <trkpt lat="45.95873" lon="4.853">
        <ele>269</ele>
        <time>2018-02-28T10:55:08Z</time>
      </trkpt>
      <trkpt lat="45.95867" lon="4.8529">
        <ele>269</ele>
        <time>2018-02-28T10:55:11Z</time>
      </trkpt>
      <trkpt lat="45.95865" lon="4.85287">
        <ele>270</ele>
        <time>2018-02-28T10:55:12Z</time>
      </trkpt>
      <trkpt lat="45.95859" lon="4.85277">
        <ele>270</ele>
        <time>2018-02-28T10:55:15Z</time>
      </trkpt>
      <trkpt lat="45.95858" lon="4.85273">
        <ele>270</ele>
        <time>2018-02-28T10:55:16Z</time>
      </trkpt>
      <trkpt lat="45.95853" lon="4.85261">
        <ele>270</ele>
        <time>2018-02-28T10:55:17Z</time>
      </trkpt>
      <trkpt lat="45.95847" lon="4.85252">
        <ele>271</ele>
        <time>2018-02-28T10:55:21Z</time>
      </trkpt>
      <trkpt lat="45.95846" lon="4.85249">
        <ele>271</ele>
        <time>2018-02-28T10:55:22Z</time>
      </trkpt>
      <trkpt lat="45.95842" lon="4.85242">
        <ele>271</ele>
        <time>2018-02-28T10:55:24Z</time>
      </trkpt>
      <trkpt lat="45.95841" lon="4.85238">
        <ele>271</ele>
        <time>2018-02-28T10:55:25Z</time>
      </trkpt>
      <trkpt lat="45.95837" lon="4.85231">
        <ele>270</ele>
        <time>2018-02-28T10:55:27Z</time>
      </trkpt>
      <trkpt lat="45.95831" lon="4.8522">
        <ele>274</ele>
        <time>2018-02-28T10:55:28Z</time>
      </trkpt>
      <trkpt lat="45.95827" lon="4.85213">
        <ele>274</ele>
        <time>2018-02-28T10:55:31Z</time>
      </trkpt>
      <trkpt lat="45.95825" lon="4.8521">
        <ele>274</ele>
        <time>2018-02-28T10:55:32Z</time>
      </trkpt>
      <trkpt lat="45.95819" lon="4.85201">
        <ele>275</ele>
        <time>2018-02-28T10:55:35Z</time>
      </trkpt>
      <trkpt lat="45.95817" lon="4.85199">
        <ele>275</ele>
        <time>2018-02-28T10:55:36Z</time>
      </trkpt>
      <trkpt lat="45.95812" lon="4.85193">
        <ele>275</ele>
        <time>2018-02-28T10:55:38Z</time>
      </trkpt>
      <trkpt lat="45.9581" lon="4.8519">
        <ele>275</ele>
        <time>2018-02-28T10:55:39Z</time>
      </trkpt>
      <trkpt lat="45.95805" lon="4.85185">
        <ele>275</ele>
        <time>2018-02-28T10:55:41Z</time>
      </trkpt>
      <trkpt lat="45.95802" lon="4.85182">
        <ele>275</ele>
        <time>2018-02-28T10:55:42Z</time>
      </trkpt>
      <trkpt lat="45.95794" lon="4.85176">
        <ele>275</ele>
        <time>2018-02-28T10:55:45Z</time>
      </trkpt>
      <trkpt lat="45.95785" lon="4.85171">
        <ele>276</ele>
        <time>2018-02-28T10:55:46Z</time>
      </trkpt>
      <trkpt lat="45.95777" lon="4.85168">
        <ele>277</ele>
        <time>2018-02-28T10:55:50Z</time>
      </trkpt>
      <trkpt lat="45.95774" lon="4.85167">
        <ele>276</ele>
        <time>2018-02-28T10:55:51Z</time>
      </trkpt>
      <trkpt lat="45.95768" lon="4.85159">
        <ele>277</ele>
        <time>2018-02-28T10:55:54Z</time>
      </trkpt>
      <trkpt lat="45.95761" lon="4.8515">
        <ele>277</ele>
        <time>2018-02-28T10:55:55Z</time>
      </trkpt>
      <trkpt lat="45.95755" lon="4.85143">
        <ele>277</ele>
        <time>2018-02-28T10:55:57Z</time>
      </trkpt>
      <trkpt lat="45.95753" lon="4.85141">
        <ele>276</ele>
        <time>2018-02-28T10:55:58Z</time>
      </trkpt>
      <trkpt lat="45.95748" lon="4.85134">
        <ele>279</ele>
        <time>2018-02-28T10:56:00Z</time>
      </trkpt>
      <trkpt lat="45.95746" lon="4.85132">
        <ele>279</ele>
        <time>2018-02-28T10:56:01Z</time>
      </trkpt>
      <trkpt lat="45.9574" lon="4.85126">
        <ele>279</ele>
        <time>2018-02-28T10:56:04Z</time>
      </trkpt>
      <trkpt lat="45.95735" lon="4.85117">
        <ele>279</ele>
        <time>2018-02-28T10:56:05Z</time>
      </trkpt>
      <trkpt lat="45.95731" lon="4.85108">
        <ele>279</ele>
        <time>2018-02-28T10:56:09Z</time>
      </trkpt>
      <trkpt lat="45.95727" lon="4.851">
        <ele>279</ele>
        <time>2018-02-28T10:56:10Z</time>
      </trkpt>
      <trkpt lat="45.95723" lon="4.85091">
        <ele>279</ele>
        <time>2018-02-28T10:56:12Z</time>
      </trkpt>
      <trkpt lat="45.9572" lon="4.85086">
        <ele>279</ele>
        <time>2018-02-28T10:56:13Z</time>
      </trkpt>
      <trkpt lat="45.95715" lon="4.85076">
        <ele>277</ele>
        <time>2018-02-28T10:56:15Z</time>
      </trkpt>
      <trkpt lat="45.95712" lon="4.85071">
        <ele>277</ele>
        <time>2018-02-28T10:56:16Z</time>
      </trkpt>
      <trkpt lat="45.95708" lon="4.8506">
        <ele>277</ele>
        <time>2018-02-28T10:56:17Z</time>
      </trkpt>
      <trkpt lat="45.95704" lon="4.85055">
        <ele>276</ele>
        <time>2018-02-28T10:56:18Z</time>
      </trkpt>
      <trkpt lat="45.95701" lon="4.85049">
        <ele>276</ele>
        <time>2018-02-28T10:56:19Z</time>
      </trkpt>
      <trkpt lat="45.95698" lon="4.85044">
        <ele>276</ele>
        <time>2018-02-28T10:56:20Z</time>
      </trkpt>
      <trkpt lat="45.95694" lon="4.85038">
        <ele>276</ele>
        <time>2018-02-28T10:56:21Z</time>
      </trkpt>
      <trkpt lat="45.95692" lon="4.85032">
        <ele>276</ele>
        <time>2018-02-28T10:56:22Z</time>
      </trkpt>
      <trkpt lat="45.95688" lon="4.85025">
        <ele>276</ele>
        <time>2018-02-28T10:56:23Z</time>
      </trkpt>
      <trkpt lat="45.95685" lon="4.85018">
        <ele>275</ele>
        <time>2018-02-28T10:56:24Z</time>
      </trkpt>
      <trkpt lat="45.95682" lon="4.85012">
        <ele>275</ele>
        <time>2018-02-28T10:56:25Z</time>
      </trkpt>
      <trkpt lat="45.95678" lon="4.85007">
        <ele>274</ele>
        <time>2018-02-28T10:56:26Z</time>
      </trkpt>
      <trkpt lat="45.95674" lon="4.85">
        <ele>274</ele>
        <time>2018-02-28T10:56:27Z</time>
      </trkpt>
      <trkpt lat="45.95669" lon="4.84994">
        <ele>273</ele>
        <time>2018-02-28T10:56:28Z</time>
      </trkpt>
      <trkpt lat="45.95666" lon="4.84988">
        <ele>272</ele>
        <time>2018-02-28T10:56:29Z</time>
      </trkpt>
      <trkpt lat="45.95661" lon="4.84982">
        <ele>272</ele>
        <time>2018-02-28T10:56:30Z</time>
      </trkpt>
      <trkpt lat="45.95656" lon="4.84977">
        <ele>272</ele>
        <time>2018-02-28T10:56:31Z</time>
      </trkpt>
      <trkpt lat="45.95651" lon="4.84973">
        <ele>271</ele>
        <time>2018-02-28T10:56:32Z</time>
      </trkpt>
      <trkpt lat="45.95646" lon="4.84967">
        <ele>271</ele>
        <time>2018-02-28T10:56:33Z</time>
      </trkpt>
      <trkpt lat="45.95641" lon="4.84962">
        <ele>271</ele>
        <time>2018-02-28T10:56:34Z</time>
      </trkpt>
      <trkpt lat="45.95635" lon="4.84956">
        <ele>271</ele>
        <time>2018-02-28T10:56:35Z</time>
      </trkpt>
      <trkpt lat="45.9563" lon="4.84951">
        <ele>271</ele>
        <time>2018-02-28T10:56:36Z</time>
      </trkpt>
      <trkpt lat="45.95625" lon="4.84946">
        <ele>271</ele>
        <time>2018-02-28T10:56:37Z</time>
      </trkpt>
      <trkpt lat="45.9562" lon="4.84942">
        <ele>270</ele>
        <time>2018-02-28T10:56:38Z</time>
      </trkpt>
      <trkpt lat="45.95615" lon="4.84937">
        <ele>270</ele>
        <time>2018-02-28T10:56:39Z</time>
      </trkpt>
      <trkpt lat="45.9561" lon="4.84934">
        <ele>270</ele>
        <time>2018-02-28T10:56:40Z</time>
      </trkpt>
      <trkpt lat="45.95604" lon="4.8493">
        <ele>270</ele>
        <time>2018-02-28T10:56:41Z</time>
      </trkpt>
      <trkpt lat="45.95599" lon="4.84926">
        <ele>270</ele>
        <time>2018-02-28T10:56:42Z</time>
      </trkpt>
      <trkpt lat="45.95594" lon="4.84923">
        <ele>270</ele>
        <time>2018-02-28T10:56:43Z</time>
      </trkpt>
      <trkpt lat="45.95589" lon="4.84918">
        <ele>269</ele>
        <time>2018-02-28T10:56:44Z</time>
      </trkpt>
      <trkpt lat="45.95583" lon="4.84914">
        <ele>269</ele>
        <time>2018-02-28T10:56:45Z</time>
      </trkpt>
      <trkpt lat="45.95577" lon="4.8491">
        <ele>269</ele>
        <time>2018-02-28T10:56:46Z</time>
      </trkpt>
      <trkpt lat="45.95571" lon="4.84906">
        <ele>269</ele>
        <time>2018-02-28T10:56:47Z</time>
      </trkpt>
      <trkpt lat="45.95565" lon="4.84902">
        <ele>268</ele>
        <time>2018-02-28T10:56:48Z</time>
      </trkpt>
      <trkpt lat="45.9556" lon="4.84898">
        <ele>268</ele>
        <time>2018-02-28T10:56:49Z</time>
      </trkpt>
      <trkpt lat="45.95553" lon="4.84894">
        <ele>268</ele>
        <time>2018-02-28T10:56:50Z</time>
      </trkpt>
      <trkpt lat="45.95548" lon="4.84889">
        <ele>268</ele>
        <time>2018-02-28T10:56:51Z</time>
      </trkpt>
      <trkpt lat="45.95542" lon="4.84885">
        <ele>268</ele>
        <time>2018-02-28T10:56:52Z</time>
      </trkpt>
      <trkpt lat="45.95537" lon="4.8488">
        <ele>268</ele>
        <time>2018-02-28T10:56:53Z</time>
      </trkpt>
      <trkpt lat="45.95532" lon="4.84875">
        <ele>268</ele>
        <time>2018-02-28T10:56:54Z</time>
      </trkpt>
      <trkpt lat="45.95528" lon="4.8487">
        <ele>268</ele>
        <time>2018-02-28T10:56:55Z</time>
      </trkpt>
      <trkpt lat="45.95523" lon="4.84865">
        <ele>268</ele>
        <time>2018-02-28T10:56:56Z</time>
      </trkpt>
      <trkpt lat="45.95518" lon="4.8486">
        <ele>268</ele>
        <time>2018-02-28T10:56:57Z</time>
      </trkpt>
      <trkpt lat="45.95514" lon="4.84856">
        <ele>268</ele>
        <time>2018-02-28T10:56:58Z</time>
      </trkpt>
      <trkpt lat="45.95509" lon="4.84851">
        <ele>268</ele>
        <time>2018-02-28T10:56:59Z</time>
      </trkpt>
      <trkpt lat="45.95505" lon="4.84845">
        <ele>267</ele>
        <time>2018-02-28T10:57:00Z</time>
      </trkpt>
      <trkpt lat="45.955" lon="4.8484">
        <ele>267</ele>
        <time>2018-02-28T10:57:01Z</time>
      </trkpt>
      <trkpt lat="45.95496" lon="4.84834">
        <ele>267</ele>
        <time>2018-02-28T10:57:02Z</time>
      </trkpt>
      <trkpt lat="45.95492" lon="4.84829">
        <ele>267</ele>
        <time>2018-02-28T10:57:03Z</time>
      </trkpt>
      <trkpt lat="45.95487" lon="4.84823">
        <ele>267</ele>
        <time>2018-02-28T10:57:04Z</time>
      </trkpt>
      <trkpt lat="45.95483" lon="4.84818">
        <ele>267</ele>
        <time>2018-02-28T10:57:05Z</time>
      </trkpt>
      <trkpt lat="45.95478" lon="4.84812">
        <ele>267</ele>
        <time>2018-02-28T10:57:06Z</time>
      </trkpt>
      <trkpt lat="45.95473" lon="4.84807">
        <ele>267</ele>
        <time>2018-02-28T10:57:07Z</time>
      </trkpt>
      <trkpt lat="45.95467" lon="4.84801">
        <ele>267</ele>
        <time>2018-02-28T10:57:08Z</time>
      </trkpt>
      <trkpt lat="45.95462" lon="4.84796">
        <ele>267</ele>
        <time>2018-02-28T10:57:09Z</time>
      </trkpt>
      <trkpt lat="45.95458" lon="4.84791">
        <ele>267</ele>
        <time>2018-02-28T10:57:10Z</time>
      </trkpt>
      <trkpt lat="45.95453" lon="4.84784">
        <ele>267</ele>
        <time>2018-02-28T10:57:11Z</time>
      </trkpt>
      <trkpt lat="45.95448" lon="4.84779">
        <ele>267</ele>
        <time>2018-02-28T10:57:12Z</time>
      </trkpt>
      <trkpt lat="45.95443" lon="4.84773">
        <ele>267</ele>
        <time>2018-02-28T10:57:13Z</time>
      </trkpt>
      <trkpt lat="45.95438" lon="4.84767">
        <ele>267</ele>
        <time>2018-02-28T10:57:14Z</time>
      </trkpt>
      <trkpt lat="45.95433" lon="4.84762">
        <ele>267</ele>
        <time>2018-02-28T10:57:15Z</time>
      </trkpt>
      <trkpt lat="45.95428" lon="4.84757">
        <ele>267</ele>
        <time>2018-02-28T10:57:16Z</time>
      </trkpt>
      <trkpt lat="45.95423" lon="4.84752">
        <ele>267</ele>
        <time>2018-02-28T10:57:17Z</time>
      </trkpt>
      <trkpt lat="45.95417" lon="4.84747">
        <ele>267</ele>
        <time>2018-02-28T10:57:18Z</time>
      </trkpt>
      <trkpt lat="45.95413" lon="4.84742">
        <ele>267</ele>
        <time>2018-02-28T10:57:19Z</time>
      </trkpt>
      <trkpt lat="45.95407" lon="4.84737">
        <ele>267</ele>
        <time>2018-02-28T10:57:20Z</time>
      </trkpt>
      <trkpt lat="45.95402" lon="4.84732">
        <ele>266</ele>
        <time>2018-02-28T10:57:21Z</time>
      </trkpt>
      <trkpt lat="45.95397" lon="4.84729">
        <ele>266</ele>
        <time>2018-02-28T10:57:22Z</time>
      </trkpt>
      <trkpt lat="45.95391" lon="4.84725">
        <ele>266</ele>
        <time>2018-02-28T10:57:23Z</time>
      </trkpt>
      <trkpt lat="45.95386" lon="4.8472">
        <ele>266</ele>
        <time>2018-02-28T10:57:24Z</time>
      </trkpt>
      <trkpt lat="45.9538" lon="4.84715">
        <ele>266</ele>
        <time>2018-02-28T10:57:25Z</time>
      </trkpt>
      <trkpt lat="45.95375" lon="4.8471">
        <ele>266</ele>
        <time>2018-02-28T10:57:26Z</time>
      </trkpt>
      <trkpt lat="45.95369" lon="4.84706">
        <ele>266</ele>
        <time>2018-02-28T10:57:27Z</time>
      </trkpt>
      <trkpt lat="45.95364" lon="4.84701">
        <ele>266</ele>
        <time>2018-02-28T10:57:28Z</time>
      </trkpt>
      <trkpt lat="45.95358" lon="4.84695">
        <ele>266</ele>
        <time>2018-02-28T10:57:29Z</time>
      </trkpt>
      <trkpt lat="45.95352" lon="4.8469">
        <ele>266</ele>
        <time>2018-02-28T10:57:30Z</time>
      </trkpt>
      <trkpt lat="45.95346" lon="4.84686">
        <ele>266</ele>
        <time>2018-02-28T10:57:31Z</time>
      </trkpt>
      <trkpt lat="45.9534" lon="4.84681">
        <ele>265</ele>
        <time>2018-02-28T10:57:32Z</time>
      </trkpt>
      <trkpt lat="45.95334" lon="4.84676">
        <ele>265</ele>
        <time>2018-02-28T10:57:33Z</time>
      </trkpt>
      <trkpt lat="45.95327" lon="4.84671">
        <ele>265</ele>
        <time>2018-02-28T10:57:34Z</time>
      </trkpt>
      <trkpt lat="45.95322" lon="4.84666">
        <ele>265</ele>
        <time>2018-02-28T10:57:35Z</time>
      </trkpt>
      <trkpt lat="45.95315" lon="4.84661">
        <ele>265</ele>
        <time>2018-02-28T10:57:36Z</time>
      </trkpt>
      <trkpt lat="45.95309" lon="4.84655">
        <ele>265</ele>
        <time>2018-02-28T10:57:37Z</time>
      </trkpt>
      <trkpt lat="45.95302" lon="4.84649">
        <ele>264</ele>
        <time>2018-02-28T10:57:38Z</time>
      </trkpt>
      <trkpt lat="45.95297" lon="4.84643">
        <ele>264</ele>
        <time>2018-02-28T10:57:39Z</time>
      </trkpt>
      <trkpt lat="45.95291" lon="4.84638">
        <ele>264</ele>
        <time>2018-02-28T10:57:40Z</time>
      </trkpt>
      <trkpt lat="45.95286" lon="4.84632">
        <ele>264</ele>
        <time>2018-02-28T10:57:41Z</time>
      </trkpt>
      <trkpt lat="45.95281" lon="4.84627">
        <ele>264</ele>
        <time>2018-02-28T10:57:42Z</time>
      </trkpt>
      <trkpt lat="45.95275" lon="4.84623">
        <ele>264</ele>
        <time>2018-02-28T10:57:43Z</time>
      </trkpt>
      <trkpt lat="45.9527" lon="4.84619">
        <ele>264</ele>
        <time>2018-02-28T10:57:44Z</time>
      </trkpt>
      <trkpt lat="45.95266" lon="4.84613">
        <ele>264</ele>
        <time>2018-02-28T10:57:45Z</time>
      </trkpt>
      <trkpt lat="45.95262" lon="4.84608">
        <ele>264</ele>
        <time>2018-02-28T10:57:46Z</time>
      </trkpt>
      <trkpt lat="45.95258" lon="4.84602">
        <ele>264</ele>
        <time>2018-02-28T10:57:47Z</time>
      </trkpt>
      <trkpt lat="45.95253" lon="4.84596">
        <ele>264</ele>
        <time>2018-02-28T10:57:48Z</time>
      </trkpt>
      <trkpt lat="45.95249" lon="4.84591">
        <ele>264</ele>
        <time>2018-02-28T10:57:49Z</time>
      </trkpt>
      <trkpt lat="45.95245" lon="4.84586">
        <ele>264</ele>
        <time>2018-02-28T10:57:50Z</time>
      </trkpt>
      <trkpt lat="45.95239" lon="4.8458">
        <ele>264</ele>
        <time>2018-02-28T10:57:51Z</time>
      </trkpt>
      <trkpt lat="45.95235" lon="4.84575">
        <ele>264</ele>
        <time>2018-02-28T10:57:52Z</time>
      </trkpt>
      <trkpt lat="45.95231" lon="4.8457">
        <ele>264</ele>
        <time>2018-02-28T10:57:53Z</time>
      </trkpt>
      <trkpt lat="45.95227" lon="4.84565">
        <ele>264</ele>
        <time>2018-02-28T10:57:54Z</time>
      </trkpt>
      <trkpt lat="45.95222" lon="4.8456">
        <ele>264</ele>
        <time>2018-02-28T10:57:55Z</time>
      </trkpt>
      <trkpt lat="45.95218" lon="4.84555">
        <ele>264</ele>
        <time>2018-02-28T10:57:56Z</time>
      </trkpt>
      <trkpt lat="45.95213" lon="4.84549">
        <ele>264</ele>
        <time>2018-02-28T10:57:57Z</time>
      </trkpt>
      <trkpt lat="45.95209" lon="4.84542">
        <ele>264</ele>
        <time>2018-02-28T10:57:58Z</time>
      </trkpt>
      <trkpt lat="45.95205" lon="4.84537">
        <ele>265</ele>
        <time>2018-02-28T10:57:59Z</time>
      </trkpt>
      <trkpt lat="45.95201" lon="4.84532">
        <ele>265</ele>
        <time>2018-02-28T10:58:00Z</time>
      </trkpt>
      <trkpt lat="45.95197" lon="4.84527">
        <ele>265</ele>
        <time>2018-02-28T10:58:01Z</time>
      </trkpt>
      <trkpt lat="45.95192" lon="4.84522">
        <ele>265</ele>
        <time>2018-02-28T10:58:02Z</time>
      </trkpt>
      <trkpt lat="45.95187" lon="4.84516">
        <ele>265</ele>
        <time>2018-02-28T10:58:03Z</time>
      </trkpt>
      <trkpt lat="45.95184" lon="4.84509">
        <ele>265</ele>
        <time>2018-02-28T10:58:04Z</time>
      </trkpt>
      <trkpt lat="45.9518" lon="4.84504">
        <ele>265</ele>
        <time>2018-02-28T10:58:05Z</time>
      </trkpt>
      <trkpt lat="45.95175" lon="4.84499">
        <ele>266</ele>
        <time>2018-02-28T10:58:06Z</time>
      </trkpt>
      <trkpt lat="45.95171" lon="4.84494">
        <ele>266</ele>
        <time>2018-02-28T10:58:07Z</time>
      </trkpt>
      <trkpt lat="45.95167" lon="4.84489">
        <ele>266</ele>
        <time>2018-02-28T10:58:08Z</time>
      </trkpt>
      <trkpt lat="45.95162" lon="4.84484">
        <ele>266</ele>
        <time>2018-02-28T10:58:09Z</time>
      </trkpt>
      <trkpt lat="45.95157" lon="4.84479">
        <ele>266</ele>
        <time>2018-02-28T10:58:10Z</time>
      </trkpt>
      <trkpt lat="45.95153" lon="4.84474">
        <ele>266</ele>
        <time>2018-02-28T10:58:11Z</time>
      </trkpt>
      <trkpt lat="45.95149" lon="4.84469">
        <ele>266</ele>
        <time>2018-02-28T10:58:12Z</time>
      </trkpt>
      <trkpt lat="45.95145" lon="4.84463">
        <ele>266</ele>
        <time>2018-02-28T10:58:13Z</time>
      </trkpt>
      <trkpt lat="45.95141" lon="4.84458">
        <ele>267</ele>
        <time>2018-02-28T10:58:14Z</time>
      </trkpt>
      <trkpt lat="45.95136" lon="4.84453">
        <ele>267</ele>
        <time>2018-02-28T10:58:15Z</time>
      </trkpt>
      <trkpt lat="45.95132" lon="4.84449">
        <ele>267</ele>
        <time>2018-02-28T10:58:16Z</time>
      </trkpt>
      <trkpt lat="45.95127" lon="4.84444">
        <ele>267</ele>
        <time>2018-02-28T10:58:17Z</time>
      </trkpt>
      <trkpt lat="45.95123" lon="4.84439">
        <ele>267</ele>
        <time>2018-02-28T10:58:18Z</time>
      </trkpt>
      <trkpt lat="45.95118" lon="4.84435">
        <ele>267</ele>
        <time>2018-02-28T10:58:19Z</time>
      </trkpt>
      <trkpt lat="45.95113" lon="4.84431">
        <ele>267</ele>
        <time>2018-02-28T10:58:20Z</time>
      </trkpt>
      <trkpt lat="45.95108" lon="4.84427">
        <ele>267</ele>
        <time>2018-02-28T10:58:21Z</time>
      </trkpt>
      <trkpt lat="45.95103" lon="4.84422">
        <ele>267</ele>
        <time>2018-02-28T10:58:22Z</time>
      </trkpt>
      <trkpt lat="45.95099" lon="4.84417">
        <ele>267</ele>
        <time>2018-02-28T10:58:23Z</time>
      </trkpt>
      <trkpt lat="45.95095" lon="4.84413">
        <ele>267</ele>
        <time>2018-02-28T10:58:24Z</time>
      </trkpt>
      <trkpt lat="45.9509" lon="4.84407">
        <ele>267</ele>
        <time>2018-02-28T10:58:25Z</time>
      </trkpt>
      <trkpt lat="45.95085" lon="4.84403">
        <ele>267</ele>
        <time>2018-02-28T10:58:26Z</time>
      </trkpt>
      <trkpt lat="45.95081" lon="4.84398">
        <ele>267</ele>
        <time>2018-02-28T10:58:27Z</time>
      </trkpt>
      <trkpt lat="45.95076" lon="4.84393">
        <ele>267</ele>
        <time>2018-02-28T10:58:28Z</time>
      </trkpt>
      <trkpt lat="45.95071" lon="4.84388">
        <ele>267</ele>
        <time>2018-02-28T10:58:29Z</time>
      </trkpt>
      <trkpt lat="45.95067" lon="4.84383">
        <ele>267</ele>
        <time>2018-02-28T10:58:30Z</time>
      </trkpt>
      <trkpt lat="45.95063" lon="4.84378">
        <ele>267</ele>
        <time>2018-02-28T10:58:31Z</time>
      </trkpt>
      <trkpt lat="45.95059" lon="4.84372">
        <ele>267</ele>
        <time>2018-02-28T10:58:32Z</time>
      </trkpt>
      <trkpt lat="45.95054" lon="4.84367">
        <ele>267</ele>
        <time>2018-02-28T10:58:33Z</time>
      </trkpt>
      <trkpt lat="45.9505" lon="4.84362">
        <ele>267</ele>
        <time>2018-02-28T10:58:34Z</time>
      </trkpt>
      <trkpt lat="45.95046" lon="4.84357">
        <ele>267</ele>
        <time>2018-02-28T10:58:35Z</time>
      </trkpt>
      <trkpt lat="45.95043" lon="4.84352">
        <ele>267</ele>
        <time>2018-02-28T10:58:36Z</time>
      </trkpt>
      <trkpt lat="45.95039" lon="4.84346">
        <ele>267</ele>
        <time>2018-02-28T10:58:37Z</time>
      </trkpt>
      <trkpt lat="45.95036" lon="4.8434">
        <ele>267</ele>
        <time>2018-02-28T10:58:38Z</time>
      </trkpt>
      <trkpt lat="45.95033" lon="4.84335">
        <ele>267</ele>
        <time>2018-02-28T10:58:39Z</time>
      </trkpt>
      <trkpt lat="45.95029" lon="4.84329">
        <ele>267</ele>
        <time>2018-02-28T10:58:40Z</time>
      </trkpt>
      <trkpt lat="45.95025" lon="4.84323">
        <ele>267</ele>
        <time>2018-02-28T10:58:41Z</time>
      </trkpt>
      <trkpt lat="45.95023" lon="4.84317">
        <ele>267</ele>
        <time>2018-02-28T10:58:42Z</time>
      </trkpt>
      <trkpt lat="45.95019" lon="4.84312">
        <ele>267</ele>
        <time>2018-02-28T10:58:43Z</time>
      </trkpt>
      <trkpt lat="45.95016" lon="4.84306">
        <ele>267</ele>
        <time>2018-02-28T10:58:44Z</time>
      </trkpt>
      <trkpt lat="45.95013" lon="4.84301">
        <ele>267</ele>
        <time>2018-02-28T10:58:45Z</time>
      </trkpt>
      <trkpt lat="45.95009" lon="4.84295">
        <ele>267</ele>
        <time>2018-02-28T10:58:46Z</time>
      </trkpt>
      <trkpt lat="45.95005" lon="4.84289">
        <ele>267</ele>
        <time>2018-02-28T10:58:47Z</time>
      </trkpt>
      <trkpt lat="45.95002" lon="4.84283">
        <ele>267</ele>
        <time>2018-02-28T10:58:48Z</time>
      </trkpt>
      <trkpt lat="45.94999" lon="4.84278">
        <ele>267</ele>
        <time>2018-02-28T10:58:49Z</time>
      </trkpt>
      <trkpt lat="45.94996" lon="4.84273">
        <ele>267</ele>
        <time>2018-02-28T10:58:50Z</time>
      </trkpt>
      <trkpt lat="45.94993" lon="4.84268">
        <ele>267</ele>
        <time>2018-02-28T10:58:51Z</time>
      </trkpt>
      <trkpt lat="45.9499" lon="4.84263">
        <ele>267</ele>
        <time>2018-02-28T10:58:52Z</time>
      </trkpt>
      <trkpt lat="45.94986" lon="4.84258">
        <ele>267</ele>
        <time>2018-02-28T10:58:53Z</time>
      </trkpt>
      <trkpt lat="45.94984" lon="4.84252">
        <ele>267</ele>
        <time>2018-02-28T10:58:54Z</time>
      </trkpt>
      <trkpt lat="45.94981" lon="4.84248">
        <ele>267</ele>
        <time>2018-02-28T10:58:55Z</time>
      </trkpt>
      <trkpt lat="45.94978" lon="4.84242">
        <ele>267</ele>
        <time>2018-02-28T10:58:56Z</time>
      </trkpt>
      <trkpt lat="45.94974" lon="4.84237">
        <ele>267</ele>
        <time>2018-02-28T10:58:57Z</time>
      </trkpt>
      <trkpt lat="45.94971" lon="4.84231">
        <ele>267</ele>
        <time>2018-02-28T10:58:58Z</time>
      </trkpt>
      <trkpt lat="45.94967" lon="4.84226">
        <ele>267</ele>
        <time>2018-02-28T10:58:59Z</time>
      </trkpt>
      <trkpt lat="45.94963" lon="4.84221">
        <ele>267</ele>
        <time>2018-02-28T10:59:00Z</time>
      </trkpt>
      <trkpt lat="45.94959" lon="4.84215">
        <ele>267</ele>
        <time>2018-02-28T10:59:01Z</time>
      </trkpt>
      <trkpt lat="45.94956" lon="4.8421">
        <ele>267</ele>
        <time>2018-02-28T10:59:02Z</time>
      </trkpt>
      <trkpt lat="45.94952" lon="4.84205">
        <ele>267</ele>
        <time>2018-02-28T10:59:03Z</time>
      </trkpt>
      <trkpt lat="45.94949" lon="4.84199">
        <ele>267</ele>
        <time>2018-02-28T10:59:04Z</time>
      </trkpt>
      <trkpt lat="45.94945" lon="4.84192">
        <ele>267</ele>
        <time>2018-02-28T10:59:05Z</time>
      </trkpt>
      <trkpt lat="45.94941" lon="4.84187">
        <ele>267</ele>
        <time>2018-02-28T10:59:06Z</time>
      </trkpt>
      <trkpt lat="45.94937" lon="4.84181">
        <ele>267</ele>
        <time>2018-02-28T10:59:07Z</time>
      </trkpt>
      <trkpt lat="45.94933" lon="4.84174">
        <ele>267</ele>
        <time>2018-02-28T10:59:08Z</time>
      </trkpt>
      <trkpt lat="45.9493" lon="4.84169">
        <ele>268</ele>
        <time>2018-02-28T10:59:09Z</time>
      </trkpt>
      <trkpt lat="45.94927" lon="4.84163">
        <ele>268</ele>
        <time>2018-02-28T10:59:10Z</time>
      </trkpt>
      <trkpt lat="45.94923" lon="4.84158">
        <ele>268</ele>
        <time>2018-02-28T10:59:11Z</time>
      </trkpt>
      <trkpt lat="45.94919" lon="4.84153">
        <ele>268</ele>
        <time>2018-02-28T10:59:12Z</time>
      </trkpt>
      <trkpt lat="45.94916" lon="4.84148">
        <ele>268</ele>
        <time>2018-02-28T10:59:13Z</time>
      </trkpt>
      <trkpt lat="45.94912" lon="4.84142">
        <ele>268</ele>
        <time>2018-02-28T10:59:14Z</time>
      </trkpt>
      <trkpt lat="45.94908" lon="4.84136">
        <ele>268</ele>
        <time>2018-02-28T10:59:15Z</time>
      </trkpt>
      <trkpt lat="45.94905" lon="4.8413">
        <ele>267</ele>
        <time>2018-02-28T10:59:16Z</time>
      </trkpt>
      <trkpt lat="45.94902" lon="4.84124">
        <ele>267</ele>
        <time>2018-02-28T10:59:17Z</time>
      </trkpt>
      <trkpt lat="45.94899" lon="4.84117">
        <ele>267</ele>
        <time>2018-02-28T10:59:18Z</time>
      </trkpt>
      <trkpt lat="45.94896" lon="4.84111">
        <ele>267</ele>
        <time>2018-02-28T10:59:19Z</time>
      </trkpt>
      <trkpt lat="45.94893" lon="4.84104">
        <ele>267</ele>
        <time>2018-02-28T10:59:20Z</time>
      </trkpt>
      <trkpt lat="45.9489" lon="4.84099">
        <ele>267</ele>
        <time>2018-02-28T10:59:21Z</time>
      </trkpt>
      <trkpt lat="45.94888" lon="4.84092">
        <ele>267</ele>
        <time>2018-02-28T10:59:22Z</time>
      </trkpt>
      <trkpt lat="45.94886" lon="4.84086">
        <ele>267</ele>
        <time>2018-02-28T10:59:23Z</time>
      </trkpt>
      <trkpt lat="45.94883" lon="4.8408">
        <ele>267</ele>
        <time>2018-02-28T10:59:24Z</time>
      </trkpt>
      <trkpt lat="45.94882" lon="4.84073">
        <ele>267</ele>
        <time>2018-02-28T10:59:25Z</time>
      </trkpt>
      <trkpt lat="45.94878" lon="4.84067">
        <ele>267</ele>
        <time>2018-02-28T10:59:26Z</time>
      </trkpt>
      <trkpt lat="45.94876" lon="4.84061">
        <ele>267</ele>
        <time>2018-02-28T10:59:27Z</time>
      </trkpt>
      <trkpt lat="45.94873" lon="4.84054">
        <ele>267</ele>
        <time>2018-02-28T10:59:28Z</time>
      </trkpt>
      <trkpt lat="45.94871" lon="4.84047">
        <ele>267</ele>
        <time>2018-02-28T10:59:29Z</time>
      </trkpt>
      <trkpt lat="45.94867" lon="4.8404">
        <ele>266</ele>
        <time>2018-02-28T10:59:30Z</time>
      </trkpt>
      <trkpt lat="45.94865" lon="4.84032">
        <ele>266</ele>
        <time>2018-02-28T10:59:31Z</time>
      </trkpt>
      <trkpt lat="45.94863" lon="4.84025">
        <ele>266</ele>
        <time>2018-02-28T10:59:32Z</time>
      </trkpt>
      <trkpt lat="45.94861" lon="4.84018">
        <ele>266</ele>
        <time>2018-02-28T10:59:33Z</time>
      </trkpt>
      <trkpt lat="45.94858" lon="4.84011">
        <ele>266</ele>
        <time>2018-02-28T10:59:34Z</time>
      </trkpt>
      <trkpt lat="45.94856" lon="4.84004">
        <ele>266</ele>
        <time>2018-02-28T10:59:35Z</time>
      </trkpt>
      <trkpt lat="45.94853" lon="4.83997">
        <ele>265</ele>
        <time>2018-02-28T10:59:36Z</time>
      </trkpt>
      <trkpt lat="45.94851" lon="4.83991">
        <ele>265</ele>
        <time>2018-02-28T10:59:37Z</time>
      </trkpt>
      <trkpt lat="45.94848" lon="4.83984">
        <ele>265</ele>
        <time>2018-02-28T10:59:38Z</time>
      </trkpt>
      <trkpt lat="45.94845" lon="4.83978">
        <ele>265</ele>
        <time>2018-02-28T10:59:39Z</time>
      </trkpt>
      <trkpt lat="45.94842" lon="4.83972">
        <ele>265</ele>
        <time>2018-02-28T10:59:40Z</time>
      </trkpt>
      <trkpt lat="45.9484" lon="4.83966">
        <ele>265</ele>
        <time>2018-02-28T10:59:41Z</time>
      </trkpt>
      <trkpt lat="45.94837" lon="4.83961">
        <ele>265</ele>
        <time>2018-02-28T10:59:42Z</time>
      </trkpt>
      <trkpt lat="45.94835" lon="4.83955">
        <ele>265</ele>
        <time>2018-02-28T10:59:43Z</time>
      </trkpt>
      <trkpt lat="45.94831" lon="4.83949">
        <ele>266</ele>
        <time>2018-02-28T10:59:44Z</time>
      </trkpt>
      <trkpt lat="45.94828" lon="4.83943">
        <ele>266</ele>
        <time>2018-02-28T10:59:45Z</time>
      </trkpt>
      <trkpt lat="45.94825" lon="4.83937">
        <ele>266</ele>
        <time>2018-02-28T10:59:46Z</time>
      </trkpt>
      <trkpt lat="45.94822" lon="4.83931">
        <ele>266</ele>
        <time>2018-02-28T10:59:47Z</time>
      </trkpt>
      <trkpt lat="45.94818" lon="4.83925">
        <ele>266</ele>
        <time>2018-02-28T10:59:48Z</time>
      </trkpt>
      <trkpt lat="45.94815" lon="4.83919">
        <ele>266</ele>
        <time>2018-02-28T10:59:49Z</time>
      </trkpt>
      <trkpt lat="45.9481" lon="4.83914">
        <ele>265</ele>
        <time>2018-02-28T10:59:50Z</time>
      </trkpt>
      <trkpt lat="45.94807" lon="4.83908">
        <ele>265</ele>
        <time>2018-02-28T10:59:51Z</time>
      </trkpt>
      <trkpt lat="45.94804" lon="4.83901">
        <ele>265</ele>
        <time>2018-02-28T10:59:52Z</time>
      </trkpt>
      <trkpt lat="45.94801" lon="4.83895">
        <ele>266</ele>
        <time>2018-02-28T10:59:53Z</time>
      </trkpt>
      <trkpt lat="45.94798" lon="4.83889">
        <ele>266</ele>
        <time>2018-02-28T10:59:54Z</time>
      </trkpt>
      <trkpt lat="45.94795" lon="4.83883">
        <ele>266</ele>
        <time>2018-02-28T10:59:55Z</time>
      </trkpt>
      <trkpt lat="45.94792" lon="4.83878">
        <ele>266</ele>
        <time>2018-02-28T10:59:56Z</time>
      </trkpt>
      <trkpt lat="45.94789" lon="4.83872">
        <ele>265</ele>
        <time>2018-02-28T10:59:57Z</time>
      </trkpt>
      <trkpt lat="45.94785" lon="4.83866">
        <ele>265</ele>
        <time>2018-02-28T10:59:58Z</time>
      </trkpt>
      <trkpt lat="45.94778" lon="4.83856">
        <ele>265</ele>
        <time>2018-02-28T11:00:00Z</time>
      </trkpt>
      <trkpt lat="45.94775" lon="4.8385">
        <ele>265</ele>
        <time>2018-02-28T11:00:01Z</time>
      </trkpt>
      <trkpt lat="45.94771" lon="4.83843">
        <ele>265</ele>
        <time>2018-02-28T11:00:02Z</time>
      </trkpt>
      <trkpt lat="45.94768" lon="4.83837">
        <ele>265</ele>
        <time>2018-02-28T11:00:03Z</time>
      </trkpt>
      <trkpt lat="45.94764" lon="4.83832">
        <ele>264</ele>
        <time>2018-02-28T11:00:04Z</time>
      </trkpt>
      <trkpt lat="45.9476" lon="4.83827">
        <ele>264</ele>
        <time>2018-02-28T11:00:05Z</time>
      </trkpt>
      <trkpt lat="45.94756" lon="4.83821">
        <ele>264</ele>
        <time>2018-02-28T11:00:06Z</time>
      </trkpt>
      <trkpt lat="45.94752" lon="4.83816">
        <ele>264</ele>
        <time>2018-02-28T11:00:07Z</time>
      </trkpt>
      <trkpt lat="45.94748" lon="4.8381">
        <ele>264</ele>
        <time>2018-02-28T11:00:08Z</time>
      </trkpt>
      <trkpt lat="45.94742" lon="4.83804">
        <ele>264</ele>
        <time>2018-02-28T11:00:09Z</time>
      </trkpt>
      <trkpt lat="45.94738" lon="4.83797">
        <ele>264</ele>
        <time>2018-02-28T11:00:10Z</time>
      </trkpt>
      <trkpt lat="45.94733" lon="4.83792">
        <ele>264</ele>
        <time>2018-02-28T11:00:11Z</time>
      </trkpt>
      <trkpt lat="45.94729" lon="4.83786">
        <ele>263</ele>
        <time>2018-02-28T11:00:12Z</time>
      </trkpt>
      <trkpt lat="45.94724" lon="4.83781">
        <ele>263</ele>
        <time>2018-02-28T11:00:13Z</time>
      </trkpt>
      <trkpt lat="45.94719" lon="4.83776">
        <ele>263</ele>
        <time>2018-02-28T11:00:14Z</time>
      </trkpt>
      <trkpt lat="45.94714" lon="4.83769">
        <ele>263</ele>
        <time>2018-02-28T11:00:15Z</time>
      </trkpt>
      <trkpt lat="45.9471" lon="4.83761">
        <ele>263</ele>
        <time>2018-02-28T11:00:16Z</time>
      </trkpt>
      <trkpt lat="45.94704" lon="4.83755">
        <ele>263</ele>
        <time>2018-02-28T11:00:17Z</time>
      </trkpt>
      <trkpt lat="45.94699" lon="4.83749">
        <ele>262</ele>
        <time>2018-02-28T11:00:18Z</time>
      </trkpt>
      <trkpt lat="45.94693" lon="4.83742">
        <ele>262</ele>
        <time>2018-02-28T11:00:19Z</time>
      </trkpt>
      <trkpt lat="45.94688" lon="4.83737">
        <ele>262</ele>
        <time>2018-02-28T11:00:20Z</time>
      </trkpt>
      <trkpt lat="45.94682" lon="4.83731">
        <ele>261</ele>
        <time>2018-02-28T11:00:21Z</time>
      </trkpt>
      <trkpt lat="45.94677" lon="4.83726">
        <ele>261</ele>
        <time>2018-02-28T11:00:22Z</time>
      </trkpt>
      <trkpt lat="45.94672" lon="4.8372">
        <ele>261</ele>
        <time>2018-02-28T11:00:23Z</time>
      </trkpt>
      <trkpt lat="45.94666" lon="4.83715">
        <ele>261</ele>
        <time>2018-02-28T11:00:24Z</time>
      </trkpt>
      <trkpt lat="45.9466" lon="4.83709">
        <ele>261</ele>
        <time>2018-02-28T11:00:25Z</time>
      </trkpt>
      <trkpt lat="45.94655" lon="4.83703">
        <ele>261</ele>
        <time>2018-02-28T11:00:26Z</time>
      </trkpt>
      <trkpt lat="45.9465" lon="4.83698">
        <ele>261</ele>
        <time>2018-02-28T11:00:27Z</time>
      </trkpt>
      <trkpt lat="45.94645" lon="4.83694">
        <ele>261</ele>
        <time>2018-02-28T11:00:28Z</time>
      </trkpt>
      <trkpt lat="45.94641" lon="4.83688">
        <ele>261</ele>
        <time>2018-02-28T11:00:29Z</time>
      </trkpt>
      <trkpt lat="45.94637" lon="4.83683">
        <ele>261</ele>
        <time>2018-02-28T11:00:30Z</time>
      </trkpt>
      <trkpt lat="45.94633" lon="4.83679">
        <ele>261</ele>
        <time>2018-02-28T11:00:31Z</time>
      </trkpt>
      <trkpt lat="45.94628" lon="4.83674">
        <ele>261</ele>
        <time>2018-02-28T11:00:32Z</time>
      </trkpt>
      <trkpt lat="45.94623" lon="4.83669">
        <ele>261</ele>
        <time>2018-02-28T11:00:33Z</time>
      </trkpt>
      <trkpt lat="45.94618" lon="4.83664">
        <ele>260</ele>
        <time>2018-02-28T11:00:34Z</time>
      </trkpt>
      <trkpt lat="45.94612" lon="4.83659">
        <ele>260</ele>
        <time>2018-02-28T11:00:35Z</time>
      </trkpt>
      <trkpt lat="45.94606" lon="4.83655">
        <ele>260</ele>
        <time>2018-02-28T11:00:36Z</time>
      </trkpt>
      <trkpt lat="45.94602" lon="4.8365">
        <ele>260</ele>
        <time>2018-02-28T11:00:37Z</time>
      </trkpt>
      <trkpt lat="45.94596" lon="4.83645">
        <ele>260</ele>
        <time>2018-02-28T11:00:38Z</time>
      </trkpt>
      <trkpt lat="45.94591" lon="4.8364">
        <ele>260</ele>
        <time>2018-02-28T11:00:39Z</time>
      </trkpt>
      <trkpt lat="45.94586" lon="4.83636">
        <ele>260</ele>
        <time>2018-02-28T11:00:40Z</time>
      </trkpt>
      <trkpt lat="45.94581" lon="4.83632">
        <ele>261</ele>
        <time>2018-02-28T11:00:41Z</time>
      </trkpt>
      <trkpt lat="45.94577" lon="4.83627">
        <ele>261</ele>
        <time>2018-02-28T11:00:42Z</time>
      </trkpt>
      <trkpt lat="45.94573" lon="4.83623">
        <ele>261</ele>
        <time>2018-02-28T11:00:43Z</time>
      </trkpt>
      <trkpt lat="45.94569" lon="4.83618">
        <ele>261</ele>
        <time>2018-02-28T11:00:44Z</time>
      </trkpt>
      <trkpt lat="45.94565" lon="4.83615">
        <ele>261</ele>
        <time>2018-02-28T11:00:45Z</time>
      </trkpt>
      <trkpt lat="45.9456" lon="4.83611">
        <ele>261</ele>
        <time>2018-02-28T11:00:46Z</time>
      </trkpt>
      <trkpt lat="45.94555" lon="4.83607">
        <ele>261</ele>
        <time>2018-02-28T11:00:47Z</time>
      </trkpt>
      <trkpt lat="45.94551" lon="4.83604">
        <ele>261</ele>
        <time>2018-02-28T11:00:48Z</time>
      </trkpt>
      <trkpt lat="45.94547" lon="4.83598">
        <ele>261</ele>
        <time>2018-02-28T11:00:49Z</time>
      </trkpt>
      <trkpt lat="45.94542" lon="4.83594">
        <ele>261</ele>
        <time>2018-02-28T11:00:50Z</time>
      </trkpt>
      <trkpt lat="45.94539" lon="4.83589">
        <ele>261</ele>
        <time>2018-02-28T11:00:51Z</time>
      </trkpt>
      <trkpt lat="45.94536" lon="4.83584">
        <ele>261</ele>
        <time>2018-02-28T11:00:52Z</time>
      </trkpt>
      <trkpt lat="45.94533" lon="4.83579">
        <ele>261</ele>
        <time>2018-02-28T11:00:53Z</time>
      </trkpt>
      <trkpt lat="45.94529" lon="4.83575">
        <ele>261</ele>
        <time>2018-02-28T11:00:54Z</time>
      </trkpt>
      <trkpt lat="45.94524" lon="4.83566">
        <ele>261</ele>
        <time>2018-02-28T11:00:56Z</time>
      </trkpt>
      <trkpt lat="45.94521" lon="4.83561">
        <ele>261</ele>
        <time>2018-02-28T11:00:57Z</time>
      </trkpt>
      <trkpt lat="45.94517" lon="4.83556">
        <ele>261</ele>
        <time>2018-02-28T11:00:58Z</time>
      </trkpt>
      <trkpt lat="45.94515" lon="4.8355">
        <ele>261</ele>
        <time>2018-02-28T11:00:59Z</time>
      </trkpt>
      <trkpt lat="45.94512" lon="4.83545">
        <ele>261</ele>
        <time>2018-02-28T11:01:00Z</time>
      </trkpt>
      <trkpt lat="45.94509" lon="4.8354">
        <ele>262</ele>
        <time>2018-02-28T11:01:01Z</time>
      </trkpt>
      <trkpt lat="45.94506" lon="4.83534">
        <ele>262</ele>
        <time>2018-02-28T11:01:02Z</time>
      </trkpt>
      <trkpt lat="45.94504" lon="4.83529">
        <ele>262</ele>
        <time>2018-02-28T11:01:03Z</time>
      </trkpt>
      <trkpt lat="45.945" lon="4.83522">
        <ele>262</ele>
        <time>2018-02-28T11:01:04Z</time>
      </trkpt>
      <trkpt lat="45.94497" lon="4.83518">
        <ele>262</ele>
        <time>2018-02-28T11:01:05Z</time>
      </trkpt>
      <trkpt lat="45.94494" lon="4.83513">
        <ele>262</ele>
        <time>2018-02-28T11:01:06Z</time>
      </trkpt>
      <trkpt lat="45.94491" lon="4.83508">
        <ele>262</ele>
        <time>2018-02-28T11:01:07Z</time>
      </trkpt>
      <trkpt lat="45.94487" lon="4.83503">
        <ele>262</ele>
        <time>2018-02-28T11:01:08Z</time>
      </trkpt>
      <trkpt lat="45.94484" lon="4.83498">
        <ele>263</ele>
        <time>2018-02-28T11:01:09Z</time>
      </trkpt>
      <trkpt lat="45.94481" lon="4.83493">
        <ele>263</ele>
        <time>2018-02-28T11:01:10Z</time>
      </trkpt>
      <trkpt lat="45.94478" lon="4.83489">
        <ele>263</ele>
        <time>2018-02-28T11:01:11Z</time>
      </trkpt>
      <trkpt lat="45.94474" lon="4.83483">
        <ele>263</ele>
        <time>2018-02-28T11:01:12Z</time>
      </trkpt>
      <trkpt lat="45.94471" lon="4.83477">
        <ele>263</ele>
        <time>2018-02-28T11:01:13Z</time>
      </trkpt>
      <trkpt lat="45.94468" lon="4.83473">
        <ele>263</ele>
        <time>2018-02-28T11:01:14Z</time>
      </trkpt>
      <trkpt lat="45.94465" lon="4.83468">
        <ele>263</ele>
        <time>2018-02-28T11:01:15Z</time>
      </trkpt>
      <trkpt lat="45.9446" lon="4.83457">
        <ele>263</ele>
        <time>2018-02-28T11:01:17Z</time>
      </trkpt>
      <trkpt lat="45.94457" lon="4.83451">
        <ele>263</ele>
        <time>2018-02-28T11:01:18Z</time>
      </trkpt>
      <trkpt lat="45.94454" lon="4.83446">
        <ele>263</ele>
        <time>2018-02-28T11:01:19Z</time>
      </trkpt>
      <trkpt lat="45.94451" lon="4.83441">
        <ele>263</ele>
        <time>2018-02-28T11:01:20Z</time>
      </trkpt>
      <trkpt lat="45.94446" lon="4.8343">
        <ele>263</ele>
        <time>2018-02-28T11:01:22Z</time>
      </trkpt>
      <trkpt lat="45.94443" lon="4.83424">
        <ele>264</ele>
        <time>2018-02-28T11:01:23Z</time>
      </trkpt>
      <trkpt lat="45.9444" lon="4.83419">
        <ele>264</ele>
        <time>2018-02-28T11:01:24Z</time>
      </trkpt>
      <trkpt lat="45.94436" lon="4.83413">
        <ele>264</ele>
        <time>2018-02-28T11:01:25Z</time>
      </trkpt>
      <trkpt lat="45.94433" lon="4.83407">
        <ele>264</ele>
        <time>2018-02-28T11:01:26Z</time>
      </trkpt>
      <trkpt lat="45.9443" lon="4.83401">
        <ele>264</ele>
        <time>2018-02-28T11:01:27Z</time>
      </trkpt>
      <trkpt lat="45.94427" lon="4.83394">
        <ele>264</ele>
        <time>2018-02-28T11:01:28Z</time>
      </trkpt>
      <trkpt lat="45.94424" lon="4.83387">
        <ele>264</ele>
        <time>2018-02-28T11:01:29Z</time>
      </trkpt>
      <trkpt lat="45.94421" lon="4.83381">
        <ele>264</ele>
        <time>2018-02-28T11:01:30Z</time>
      </trkpt>
      <trkpt lat="45.94418" lon="4.83374">
        <ele>264</ele>
        <time>2018-02-28T11:01:31Z</time>
      </trkpt>
      <trkpt lat="45.94415" lon="4.83367">
        <ele>264</ele>
        <time>2018-02-28T11:01:32Z</time>
      </trkpt>
      <trkpt lat="45.94412" lon="4.8336">
        <ele>264</ele>
        <time>2018-02-28T11:01:33Z</time>
      </trkpt>
      <trkpt lat="45.94409" lon="4.83354">
        <ele>263</ele>
        <time>2018-02-28T11:01:34Z</time>
      </trkpt>
      <trkpt lat="45.94406" lon="4.83346">
        <ele>263</ele>
        <time>2018-02-28T11:01:35Z</time>
      </trkpt>
      <trkpt lat="45.94403" lon="4.83339">
        <ele>263</ele>
        <time>2018-02-28T11:01:36Z</time>
      </trkpt>
      <trkpt lat="45.94401" lon="4.83332">
        <ele>264</ele>
        <time>2018-02-28T11:01:37Z</time>
      </trkpt>
      <trkpt lat="45.94397" lon="4.83324">
        <ele>264</ele>
        <time>2018-02-28T11:01:38Z</time>
      </trkpt>
      <trkpt lat="45.94394" lon="4.83318">
        <ele>264</ele>
        <time>2018-02-28T11:01:39Z</time>
      </trkpt>
      <trkpt lat="45.94392" lon="4.83311">
        <ele>264</ele>
        <time>2018-02-28T11:01:40Z</time>
      </trkpt>
      <trkpt lat="45.94389" lon="4.83303">
        <ele>264</ele>
        <time>2018-02-28T11:01:41Z</time>
      </trkpt>
      <trkpt lat="45.94386" lon="4.83296">
        <ele>264</ele>
        <time>2018-02-28T11:01:42Z</time>
      </trkpt>
      <trkpt lat="45.94384" lon="4.83288">
        <ele>264</ele>
        <time>2018-02-28T11:01:43Z</time>
      </trkpt>
      <trkpt lat="45.94382" lon="4.83281">
        <ele>264</ele>
        <time>2018-02-28T11:01:44Z</time>
      </trkpt>
      <trkpt lat="45.94379" lon="4.83274">
        <ele>264</ele>
        <time>2018-02-28T11:01:45Z</time>
      </trkpt>
      <trkpt lat="45.94377" lon="4.83266">
        <ele>264</ele>
        <time>2018-02-28T11:01:46Z</time>
      </trkpt>
      <trkpt lat="45.94374" lon="4.83259">
        <ele>265</ele>
        <time>2018-02-28T11:01:47Z</time>
      </trkpt>
      <trkpt lat="45.94372" lon="4.83252">
        <ele>265</ele>
        <time>2018-02-28T11:01:48Z</time>
      </trkpt>
      <trkpt lat="45.9437" lon="4.83245">
        <ele>265</ele>
        <time>2018-02-28T11:01:49Z</time>
      </trkpt>
      <trkpt lat="45.94366" lon="4.83238">
        <ele>265</ele>
        <time>2018-02-28T11:01:50Z</time>
      </trkpt>
      <trkpt lat="45.94364" lon="4.83231">
        <ele>266</ele>
        <time>2018-02-28T11:01:51Z</time>
      </trkpt>
      <trkpt lat="45.94362" lon="4.83224">
        <ele>266</ele>
        <time>2018-02-28T11:01:52Z</time>
      </trkpt>
      <trkpt lat="45.9436" lon="4.83216">
        <ele>266</ele>
        <time>2018-02-28T11:01:53Z</time>
      </trkpt>
      <trkpt lat="45.94358" lon="4.83209">
        <ele>266</ele>
        <time>2018-02-28T11:01:54Z</time>
      </trkpt>
      <trkpt lat="45.94356" lon="4.83203">
        <ele>266</ele>
        <time>2018-02-28T11:01:55Z</time>
      </trkpt>
      <trkpt lat="45.94355" lon="4.83196">
        <ele>266</ele>
        <time>2018-02-28T11:01:56Z</time>
      </trkpt>
      <trkpt lat="45.94352" lon="4.83189">
        <ele>266</ele>
        <time>2018-02-28T11:01:57Z</time>
      </trkpt>
      <trkpt lat="45.94349" lon="4.83183">
        <ele>266</ele>
        <time>2018-02-28T11:01:58Z</time>
      </trkpt>
      <trkpt lat="45.94347" lon="4.83178">
        <ele>266</ele>
        <time>2018-02-28T11:01:59Z</time>
      </trkpt>
      <trkpt lat="45.94345" lon="4.83171">
        <ele>266</ele>
        <time>2018-02-28T11:02:00Z</time>
      </trkpt>
      <trkpt lat="45.94342" lon="4.83165">
        <ele>266</ele>
        <time>2018-02-28T11:02:01Z</time>
      </trkpt>
      <trkpt lat="45.94339" lon="4.83158">
        <ele>266</ele>
        <time>2018-02-28T11:02:02Z</time>
      </trkpt>
      <trkpt lat="45.94337" lon="4.83151">
        <ele>266</ele>
        <time>2018-02-28T11:02:03Z</time>
      </trkpt>
      <trkpt lat="45.94335" lon="4.83144">
        <ele>266</ele>
        <time>2018-02-28T11:02:04Z</time>
      </trkpt>
      <trkpt lat="45.94333" lon="4.83137">
        <ele>266</ele>
        <time>2018-02-28T11:02:05Z</time>
      </trkpt>
      <trkpt lat="45.94331" lon="4.83131">
        <ele>266</ele>
        <time>2018-02-28T11:02:06Z</time>
      </trkpt>
      <trkpt lat="45.94329" lon="4.83125">
        <ele>266</ele>
        <time>2018-02-28T11:02:07Z</time>
      </trkpt>
      <trkpt lat="45.94324" lon="4.83114">
        <ele>266</ele>
        <time>2018-02-28T11:02:09Z</time>
      </trkpt>
      <trkpt lat="45.94322" lon="4.83107">
        <ele>266</ele>
        <time>2018-02-28T11:02:10Z</time>
      </trkpt>
      <trkpt lat="45.94318" lon="4.83096">
        <ele>266</ele>
        <time>2018-02-28T11:02:12Z</time>
      </trkpt>
      <trkpt lat="45.94316" lon="4.8309">
        <ele>266</ele>
        <time>2018-02-28T11:02:13Z</time>
      </trkpt>
      <trkpt lat="45.94315" lon="4.83083">
        <ele>266</ele>
        <time>2018-02-28T11:02:14Z</time>
      </trkpt>
      <trkpt lat="45.94313" lon="4.83077">
        <ele>266</ele>
        <time>2018-02-28T11:02:15Z</time>
      </trkpt>
      <trkpt lat="45.9431" lon="4.83065">
        <ele>266</ele>
        <time>2018-02-28T11:02:17Z</time>
      </trkpt>
      <trkpt lat="45.94309" lon="4.83058">
        <ele>266</ele>
        <time>2018-02-28T11:02:18Z</time>
      </trkpt>
      <trkpt lat="45.94306" lon="4.83046">
        <ele>266</ele>
        <time>2018-02-28T11:02:20Z</time>
      </trkpt>
      <trkpt lat="45.94304" lon="4.8304">
        <ele>266</ele>
        <time>2018-02-28T11:02:21Z</time>
      </trkpt>
      <trkpt lat="45.943" lon="4.8303">
        <ele>266</ele>
        <time>2018-02-28T11:02:23Z</time>
      </trkpt>
      <trkpt lat="45.94297" lon="4.83025">
        <ele>266</ele>
        <time>2018-02-28T11:02:24Z</time>
      </trkpt>
      <trkpt lat="45.94295" lon="4.83013">
        <ele>266</ele>
        <time>2018-02-28T11:02:26Z</time>
      </trkpt>
      <trkpt lat="45.94294" lon="4.83005">
        <ele>266</ele>
        <time>2018-02-28T11:02:27Z</time>
      </trkpt>
      <trkpt lat="45.94291" lon="4.82993">
        <ele>265</ele>
        <time>2018-02-28T11:02:29Z</time>
      </trkpt>
      <trkpt lat="45.94289" lon="4.82987">
        <ele>265</ele>
        <time>2018-02-28T11:02:30Z</time>
      </trkpt>
      <trkpt lat="45.94287" lon="4.82974">
        <ele>265</ele>
        <time>2018-02-28T11:02:33Z</time>
      </trkpt>
      <trkpt lat="45.94286" lon="4.82971">
        <ele>265</ele>
        <time>2018-02-28T11:02:34Z</time>
      </trkpt>
      <trkpt lat="45.94282" lon="4.82962">
        <ele>265</ele>
        <time>2018-02-28T11:02:37Z</time>
      </trkpt>
      <trkpt lat="45.94281" lon="4.82959">
        <ele>265</ele>
        <time>2018-02-28T11:02:38Z</time>
      </trkpt>
      <trkpt lat="45.94281" lon="4.82948">
        <ele>265</ele>
        <time>2018-02-28T11:02:41Z</time>
      </trkpt>
      <trkpt lat="45.94283" lon="4.82936">
        <ele>265</ele>
        <time>2018-02-28T11:02:42Z</time>
      </trkpt>
      <trkpt lat="45.94284" lon="4.82925">
        <ele>265</ele>
        <time>2018-02-28T11:02:44Z</time>
      </trkpt>
      <trkpt lat="45.94285" lon="4.8292">
        <ele>265</ele>
        <time>2018-02-28T11:02:45Z</time>
      </trkpt>
      <trkpt lat="45.94287" lon="4.82908">
        <ele>265</ele>
        <time>2018-02-28T11:02:47Z</time>
      </trkpt>
      <trkpt lat="45.94288" lon="4.82901">
        <ele>265</ele>
        <time>2018-02-28T11:02:48Z</time>
      </trkpt>
      <trkpt lat="45.94288" lon="4.82894">
        <ele>265</ele>
        <time>2018-02-28T11:02:49Z</time>
      </trkpt>
      <trkpt lat="45.9429" lon="4.82887">
        <ele>265</ele>
        <time>2018-02-28T11:02:50Z</time>
      </trkpt>
      <trkpt lat="45.9429" lon="4.8288">
        <ele>265</ele>
        <time>2018-02-28T11:02:51Z</time>
      </trkpt>
      <trkpt lat="45.94291" lon="4.82873">
        <ele>265</ele>
        <time>2018-02-28T11:02:52Z</time>
      </trkpt>
      <trkpt lat="45.94291" lon="4.82866">
        <ele>265</ele>
        <time>2018-02-28T11:02:53Z</time>
      </trkpt>
      <trkpt lat="45.94292" lon="4.82858">
        <ele>265</ele>
        <time>2018-02-28T11:02:54Z</time>
      </trkpt>
      <trkpt lat="45.94291" lon="4.8285">
        <ele>265</ele>
        <time>2018-02-28T11:02:55Z</time>
      </trkpt>
      <trkpt lat="45.94292" lon="4.82842">
        <ele>265</ele>
        <time>2018-02-28T11:02:56Z</time>
      </trkpt>
      <trkpt lat="45.94291" lon="4.82835">
        <ele>265</ele>
        <time>2018-02-28T11:02:57Z</time>
      </trkpt>
      <trkpt lat="45.94292" lon="4.82826">
        <ele>265</ele>
        <time>2018-02-28T11:02:58Z</time>
      </trkpt>
      <trkpt lat="45.94292" lon="4.82819">
        <ele>265</ele>
        <time>2018-02-28T11:02:59Z</time>
      </trkpt>
      <trkpt lat="45.94292" lon="4.82811">
        <ele>265</ele>
        <time>2018-02-28T11:03:00Z</time>
      </trkpt>
      <trkpt lat="45.94292" lon="4.82803">
        <ele>265</ele>
        <time>2018-02-28T11:03:01Z</time>
      </trkpt>
      <trkpt lat="45.94293" lon="4.82795">
        <ele>265</ele>
        <time>2018-02-28T11:03:02Z</time>
      </trkpt>
      <trkpt lat="45.94294" lon="4.82787">
        <ele>265</ele>
        <time>2018-02-28T11:03:03Z</time>
      </trkpt>
      <trkpt lat="45.94294" lon="4.8278">
        <ele>265</ele>
        <time>2018-02-28T11:03:04Z</time>
      </trkpt>
      <trkpt lat="45.94295" lon="4.82773">
        <ele>265</ele>
        <time>2018-02-28T11:03:05Z</time>
      </trkpt>
      <trkpt lat="45.94296" lon="4.82764">
        <ele>265</ele>
        <time>2018-02-28T11:03:06Z</time>
      </trkpt>
      <trkpt lat="45.94296" lon="4.82757">
        <ele>265</ele>
        <time>2018-02-28T11:03:07Z</time>
      </trkpt>
      <trkpt lat="45.94295" lon="4.82749">
        <ele>265</ele>
        <time>2018-02-28T11:03:08Z</time>
      </trkpt>
      <trkpt lat="45.94295" lon="4.82741">
        <ele>265</ele>
        <time>2018-02-28T11:03:09Z</time>
      </trkpt>
      <trkpt lat="45.94296" lon="4.82733">
        <ele>265</ele>
        <time>2018-02-28T11:03:10Z</time>
      </trkpt>
      <trkpt lat="45.94295" lon="4.82725">
        <ele>265</ele>
        <time>2018-02-28T11:03:11Z</time>
      </trkpt>
      <trkpt lat="45.94295" lon="4.82717">
        <ele>265</ele>
        <time>2018-02-28T11:03:12Z</time>
      </trkpt>
      <trkpt lat="45.94296" lon="4.82708">
        <ele>265</ele>
        <time>2018-02-28T11:03:13Z</time>
      </trkpt>
      <trkpt lat="45.94296" lon="4.82699">
        <ele>265</ele>
        <time>2018-02-28T11:03:14Z</time>
      </trkpt>
      <trkpt lat="45.94295" lon="4.82691">
        <ele>265</ele>
        <time>2018-02-28T11:03:15Z</time>
      </trkpt>
      <trkpt lat="45.94295" lon="4.82684">
        <ele>265</ele>
        <time>2018-02-28T11:03:16Z</time>
      </trkpt>
      <trkpt lat="45.94295" lon="4.82677">
        <ele>265</ele>
        <time>2018-02-28T11:03:17Z</time>
      </trkpt>
      <trkpt lat="45.94296" lon="4.8267">
        <ele>265</ele>
        <time>2018-02-28T11:03:18Z</time>
      </trkpt>
      <trkpt lat="45.94297" lon="4.82663">
        <ele>265</ele>
        <time>2018-02-28T11:03:19Z</time>
      </trkpt>
      <trkpt lat="45.94297" lon="4.82657">
        <ele>265</ele>
        <time>2018-02-28T11:03:20Z</time>
      </trkpt>
      <trkpt lat="45.94296" lon="4.82649">
        <ele>265</ele>
        <time>2018-02-28T11:03:21Z</time>
      </trkpt>
      <trkpt lat="45.94296" lon="4.82642">
        <ele>265</ele>
        <time>2018-02-28T11:03:22Z</time>
      </trkpt>
      <trkpt lat="45.94296" lon="4.82634">
        <ele>265</ele>
        <time>2018-02-28T11:03:23Z</time>
      </trkpt>
      <trkpt lat="45.94296" lon="4.82626">
        <ele>265</ele>
        <time>2018-02-28T11:03:24Z</time>
      </trkpt>
      <trkpt lat="45.94297" lon="4.82618">
        <ele>265</ele>
        <time>2018-02-28T11:03:25Z</time>
      </trkpt>
      <trkpt lat="45.94297" lon="4.8261">
        <ele>265</ele>
        <time>2018-02-28T11:03:26Z</time>
      </trkpt>
      <trkpt lat="45.94297" lon="4.82603">
        <ele>265</ele>
        <time>2018-02-28T11:03:27Z</time>
      </trkpt>
      <trkpt lat="45.94298" lon="4.82594">
        <ele>265</ele>
        <time>2018-02-28T11:03:28Z</time>
      </trkpt>
      <trkpt lat="45.94298" lon="4.82586">
        <ele>265</ele>
        <time>2018-02-28T11:03:29Z</time>
      </trkpt>
      <trkpt lat="45.94298" lon="4.82577">
        <ele>264</ele>
        <time>2018-02-28T11:03:30Z</time>
      </trkpt>
      <trkpt lat="45.94299" lon="4.82568">
        <ele>264</ele>
        <time>2018-02-28T11:03:31Z</time>
      </trkpt>
      <trkpt lat="45.94299" lon="4.82559">
        <ele>264</ele>
        <time>2018-02-28T11:03:32Z</time>
      </trkpt>
      <trkpt lat="45.94299" lon="4.8255">
        <ele>264</ele>
        <time>2018-02-28T11:03:33Z</time>
      </trkpt>
      <trkpt lat="45.94298" lon="4.82541">
        <ele>264</ele>
        <time>2018-02-28T11:03:34Z</time>
      </trkpt>
      <trkpt lat="45.94298" lon="4.82532">
        <ele>264</ele>
        <time>2018-02-28T11:03:35Z</time>
      </trkpt>
      <trkpt lat="45.94299" lon="4.82522">
        <ele>264</ele>
        <time>2018-02-28T11:03:36Z</time>
      </trkpt>
      <trkpt lat="45.94298" lon="4.82515">
        <ele>264</ele>
        <time>2018-02-28T11:03:37Z</time>
      </trkpt>
      <trkpt lat="45.94298" lon="4.82506">
        <ele>264</ele>
        <time>2018-02-28T11:03:38Z</time>
      </trkpt>
      <trkpt lat="45.94298" lon="4.82498">
        <ele>264</ele>
        <time>2018-02-28T11:03:39Z</time>
      </trkpt>
      <trkpt lat="45.94298" lon="4.82489">
        <ele>264</ele>
        <time>2018-02-28T11:03:40Z</time>
      </trkpt>
      <trkpt lat="45.94298" lon="4.8248">
        <ele>264</ele>
        <time>2018-02-28T11:03:41Z</time>
      </trkpt>
      <trkpt lat="45.94297" lon="4.82471">
        <ele>264</ele>
        <time>2018-02-28T11:03:42Z</time>
      </trkpt>
      <trkpt lat="45.94297" lon="4.82463">
        <ele>264</ele>
        <time>2018-02-28T11:03:43Z</time>
      </trkpt>
      <trkpt lat="45.94297" lon="4.82455">
        <ele>264</ele>
        <time>2018-02-28T11:03:44Z</time>
      </trkpt>
      <trkpt lat="45.94297" lon="4.82446">
        <ele>264</ele>
        <time>2018-02-28T11:03:45Z</time>
      </trkpt>
      <trkpt lat="45.94296" lon="4.82437">
        <ele>264</ele>
        <time>2018-02-28T11:03:46Z</time>
      </trkpt>
      <trkpt lat="45.94295" lon="4.82428">
        <ele>264</ele>
        <time>2018-02-28T11:03:47Z</time>
      </trkpt>
      <trkpt lat="45.94295" lon="4.82419">
        <ele>264</ele>
        <time>2018-02-28T11:03:48Z</time>
      </trkpt>
      <trkpt lat="45.94294" lon="4.8241">
        <ele>264</ele>
        <time>2018-02-28T11:03:49Z</time>
      </trkpt>
      <trkpt lat="45.94294" lon="4.82401">
        <ele>264</ele>
        <time>2018-02-28T11:03:50Z</time>
      </trkpt>
      <trkpt lat="45.94293" lon="4.82393">
        <ele>264</ele>
        <time>2018-02-28T11:03:51Z</time>
      </trkpt>
      <trkpt lat="45.94293" lon="4.82383">
        <ele>264</ele>
        <time>2018-02-28T11:03:52Z</time>
      </trkpt>
      <trkpt lat="45.94293" lon="4.82374">
        <ele>264</ele>
        <time>2018-02-28T11:03:53Z</time>
      </trkpt>
      <trkpt lat="45.94292" lon="4.82364">
        <ele>264</ele>
        <time>2018-02-28T11:03:54Z</time>
      </trkpt>
      <trkpt lat="45.94292" lon="4.82355">
        <ele>264</ele>
        <time>2018-02-28T11:03:55Z</time>
      </trkpt>
      <trkpt lat="45.94291" lon="4.82346">
        <ele>264</ele>
        <time>2018-02-28T11:03:56Z</time>
      </trkpt>
      <trkpt lat="45.94291" lon="4.82337">
        <ele>264</ele>
        <time>2018-02-28T11:03:57Z</time>
      </trkpt>
      <trkpt lat="45.94291" lon="4.82328">
        <ele>265</ele>
        <time>2018-02-28T11:03:58Z</time>
      </trkpt>
      <trkpt lat="45.9429" lon="4.82319">
        <ele>265</ele>
        <time>2018-02-28T11:03:59Z</time>
      </trkpt>
      <trkpt lat="45.9429" lon="4.8231">
        <ele>265</ele>
        <time>2018-02-28T11:04:00Z</time>
      </trkpt>
      <trkpt lat="45.94288" lon="4.82301">
        <ele>265</ele>
        <time>2018-02-28T11:04:01Z</time>
      </trkpt>
      <trkpt lat="45.94288" lon="4.82291">
        <ele>265</ele>
        <time>2018-02-28T11:04:02Z</time>
      </trkpt>
      <trkpt lat="45.94287" lon="4.82282">
        <ele>265</ele>
        <time>2018-02-28T11:04:03Z</time>
      </trkpt>
      <trkpt lat="45.94287" lon="4.82272">
        <ele>265</ele>
        <time>2018-02-28T11:04:04Z</time>
      </trkpt>
      <trkpt lat="45.94287" lon="4.82264">
        <ele>265</ele>
        <time>2018-02-28T11:04:05Z</time>
      </trkpt>
      <trkpt lat="45.94287" lon="4.82256">
        <ele>265</ele>
        <time>2018-02-28T11:04:06Z</time>
      </trkpt>
      <trkpt lat="45.94286" lon="4.82248">
        <ele>264</ele>
        <time>2018-02-28T11:04:07Z</time>
      </trkpt>
      <trkpt lat="45.94286" lon="4.8224">
        <ele>264</ele>
        <time>2018-02-28T11:04:08Z</time>
      </trkpt>
      <trkpt lat="45.94285" lon="4.82232">
        <ele>264</ele>
        <time>2018-02-28T11:04:09Z</time>
      </trkpt>
      <trkpt lat="45.94285" lon="4.82224">
        <ele>264</ele>
        <time>2018-02-28T11:04:10Z</time>
      </trkpt>
      <trkpt lat="45.94285" lon="4.82217">
        <ele>264</ele>
        <time>2018-02-28T11:04:11Z</time>
      </trkpt>
      <trkpt lat="45.94283" lon="4.82209">
        <ele>264</ele>
        <time>2018-02-28T11:04:12Z</time>
      </trkpt>
      <trkpt lat="45.94282" lon="4.82201">
        <ele>264</ele>
        <time>2018-02-28T11:04:13Z</time>
      </trkpt>
      <trkpt lat="45.94281" lon="4.82194">
        <ele>264</ele>
        <time>2018-02-28T11:04:14Z</time>
      </trkpt>
      <trkpt lat="45.9428" lon="4.82187">
        <ele>264</ele>
        <time>2018-02-28T11:04:15Z</time>
      </trkpt>
      <trkpt lat="45.94279" lon="4.82178">
        <ele>264</ele>
        <time>2018-02-28T11:04:16Z</time>
      </trkpt>
      <trkpt lat="45.94278" lon="4.8217">
        <ele>264</ele>
        <time>2018-02-28T11:04:17Z</time>
      </trkpt>
      <trkpt lat="45.94277" lon="4.82162">
        <ele>263</ele>
        <time>2018-02-28T11:04:18Z</time>
      </trkpt>
      <trkpt lat="45.94275" lon="4.82154">
        <ele>263</ele>
        <time>2018-02-28T11:04:19Z</time>
      </trkpt>
      <trkpt lat="45.94273" lon="4.82146">
        <ele>263</ele>
        <time>2018-02-28T11:04:20Z</time>
      </trkpt>
      <trkpt lat="45.94271" lon="4.82137">
        <ele>263</ele>
        <time>2018-02-28T11:04:21Z</time>
      </trkpt>
      <trkpt lat="45.9427" lon="4.82129">
        <ele>263</ele>
        <time>2018-02-28T11:04:22Z</time>
      </trkpt>
      <trkpt lat="45.94268" lon="4.82122">
        <ele>263</ele>
        <time>2018-02-28T11:04:23Z</time>
      </trkpt>
      <trkpt lat="45.94266" lon="4.82114">
        <ele>263</ele>
        <time>2018-02-28T11:04:24Z</time>
      </trkpt>
      <trkpt lat="45.94264" lon="4.82106">
        <ele>263</ele>
        <time>2018-02-28T11:04:25Z</time>
      </trkpt>
      <trkpt lat="45.94262" lon="4.82098">
        <ele>262</ele>
        <time>2018-02-28T11:04:26Z</time>
      </trkpt>
      <trkpt lat="45.94261" lon="4.82089">
        <ele>262</ele>
        <time>2018-02-28T11:04:27Z</time>
      </trkpt>
      <trkpt lat="45.9426" lon="4.82082">
        <ele>262</ele>
        <time>2018-02-28T11:04:28Z</time>
      </trkpt>
      <trkpt lat="45.94259" lon="4.82074">
        <ele>262</ele>
        <time>2018-02-28T11:04:29Z</time>
      </trkpt>
      <trkpt lat="45.94258" lon="4.82066">
        <ele>262</ele>
        <time>2018-02-28T11:04:30Z</time>
      </trkpt>
      <trkpt lat="45.94256" lon="4.82059">
        <ele>262</ele>
        <time>2018-02-28T11:04:31Z</time>
      </trkpt>
      <trkpt lat="45.94254" lon="4.82051">
        <ele>262</ele>
        <time>2018-02-28T11:04:32Z</time>
      </trkpt>
      <trkpt lat="45.94252" lon="4.82044">
        <ele>262</ele>
        <time>2018-02-28T11:04:33Z</time>
      </trkpt>
      <trkpt lat="45.9425" lon="4.82036">
        <ele>262</ele>
        <time>2018-02-28T11:04:34Z</time>
      </trkpt>
      <trkpt lat="45.94249" lon="4.82028">
        <ele>263</ele>
        <time>2018-02-28T11:04:35Z</time>
      </trkpt>
      <trkpt lat="45.94247" lon="4.8202">
        <ele>263</ele>
        <time>2018-02-28T11:04:36Z</time>
      </trkpt>
      <trkpt lat="45.94245" lon="4.82012">
        <ele>263</ele>
        <time>2018-02-28T11:04:37Z</time>
      </trkpt>
      <trkpt lat="45.94244" lon="4.82003">
        <ele>263</ele>
        <time>2018-02-28T11:04:38Z</time>
      </trkpt>
      <trkpt lat="45.94242" lon="4.81996">
        <ele>263</ele>
        <time>2018-02-28T11:04:39Z</time>
      </trkpt>
      <trkpt lat="45.9424" lon="4.81988">
        <ele>263</ele>
        <time>2018-02-28T11:04:40Z</time>
      </trkpt>
      <trkpt lat="45.94238" lon="4.8198">
        <ele>263</ele>
        <time>2018-02-28T11:04:41Z</time>
      </trkpt>
      <trkpt lat="45.94236" lon="4.81971">
        <ele>263</ele>
        <time>2018-02-28T11:04:42Z</time>
      </trkpt>
      <trkpt lat="45.94234" lon="4.81962">
        <ele>264</ele>
        <time>2018-02-28T11:04:43Z</time>
      </trkpt>
      <trkpt lat="45.94232" lon="4.81952">
        <ele>264</ele>
        <time>2018-02-28T11:04:44Z</time>
      </trkpt>
      <trkpt lat="45.9423" lon="4.81945">
        <ele>264</ele>
        <time>2018-02-28T11:04:45Z</time>
      </trkpt>
      <trkpt lat="45.94229" lon="4.81937">
        <ele>264</ele>
        <time>2018-02-28T11:04:46Z</time>
      </trkpt>
      <trkpt lat="45.94227" lon="4.81928">
        <ele>264</ele>
        <time>2018-02-28T11:04:47Z</time>
      </trkpt>
      <trkpt lat="45.94225" lon="4.81919">
        <ele>264</ele>
        <time>2018-02-28T11:04:48Z</time>
      </trkpt>
      <trkpt lat="45.94224" lon="4.8191">
        <ele>264</ele>
        <time>2018-02-28T11:04:49Z</time>
      </trkpt>
      <trkpt lat="45.94222" lon="4.81901">
        <ele>264</ele>
        <time>2018-02-28T11:04:50Z</time>
      </trkpt>
      <trkpt lat="45.9422" lon="4.81893">
        <ele>265</ele>
        <time>2018-02-28T11:04:51Z</time>
      </trkpt>
      <trkpt lat="45.94219" lon="4.81884">
        <ele>265</ele>
        <time>2018-02-28T11:04:52Z</time>
      </trkpt>
      <trkpt lat="45.94216" lon="4.81877">
        <ele>265</ele>
        <time>2018-02-28T11:04:53Z</time>
      </trkpt>
      <trkpt lat="45.94215" lon="4.81869">
        <ele>265</ele>
        <time>2018-02-28T11:04:54Z</time>
      </trkpt>
      <trkpt lat="45.94213" lon="4.81861">
        <ele>265</ele>
        <time>2018-02-28T11:04:55Z</time>
      </trkpt>
      <trkpt lat="45.94211" lon="4.81854">
        <ele>265</ele>
        <time>2018-02-28T11:04:56Z</time>
      </trkpt>
      <trkpt lat="45.9421" lon="4.81846">
        <ele>265</ele>
        <time>2018-02-28T11:04:57Z</time>
      </trkpt>
      <trkpt lat="45.94207" lon="4.81839">
        <ele>266</ele>
        <time>2018-02-28T11:04:58Z</time>
      </trkpt>
      <trkpt lat="45.94205" lon="4.81832">
        <ele>266</ele>
        <time>2018-02-28T11:04:59Z</time>
      </trkpt>
      <trkpt lat="45.94204" lon="4.81823">
        <ele>266</ele>
        <time>2018-02-28T11:05:00Z</time>
      </trkpt>
      <trkpt lat="45.94203" lon="4.81816">
        <ele>266</ele>
        <time>2018-02-28T11:05:01Z</time>
      </trkpt>
      <trkpt lat="45.94202" lon="4.81808">
        <ele>266</ele>
        <time>2018-02-28T11:05:02Z</time>
      </trkpt>
      <trkpt lat="45.94202" lon="4.81799">
        <ele>266</ele>
        <time>2018-02-28T11:05:03Z</time>
      </trkpt>
      <trkpt lat="45.94203" lon="4.81792">
        <ele>266</ele>
        <time>2018-02-28T11:05:04Z</time>
      </trkpt>
      <trkpt lat="45.94205" lon="4.81784">
        <ele>266</ele>
        <time>2018-02-28T11:05:05Z</time>
      </trkpt>
      <trkpt lat="45.94208" lon="4.81776">
        <ele>265</ele>
        <time>2018-02-28T11:05:06Z</time>
      </trkpt>
      <trkpt lat="45.9421" lon="4.81769">
        <ele>265</ele>
        <time>2018-02-28T11:05:07Z</time>
      </trkpt>
      <trkpt lat="45.94214" lon="4.81761">
        <ele>265</ele>
        <time>2018-02-28T11:05:08Z</time>
      </trkpt>
      <trkpt lat="45.94217" lon="4.81755">
        <ele>265</ele>
        <time>2018-02-28T11:05:09Z</time>
      </trkpt>
      <trkpt lat="45.9422" lon="4.81748">
        <ele>265</ele>
        <time>2018-02-28T11:05:10Z</time>
      </trkpt>
      <trkpt lat="45.94222" lon="4.81741">
        <ele>265</ele>
        <time>2018-02-28T11:05:11Z</time>
      </trkpt>
      <trkpt lat="45.94224" lon="4.81733">
        <ele>265</ele>
        <time>2018-02-28T11:05:12Z</time>
      </trkpt>
      <trkpt lat="45.94224" lon="4.81725">
        <ele>265</ele>
        <time>2018-02-28T11:05:13Z</time>
      </trkpt>
      <trkpt lat="45.94223" lon="4.81718">
        <ele>266</ele>
        <time>2018-02-28T11:05:14Z</time>
      </trkpt>
      <trkpt lat="45.94219" lon="4.81713">
        <ele>266</ele>
        <time>2018-02-28T11:05:15Z</time>
      </trkpt>
      <trkpt lat="45.94217" lon="4.81707">
        <ele>266</ele>
        <time>2018-02-28T11:05:16Z</time>
      </trkpt>
      <trkpt lat="45.94212" lon="4.81704">
        <ele>266</ele>
        <time>2018-02-28T11:05:17Z</time>
      </trkpt>
      <trkpt lat="45.94207" lon="4.81702">
        <ele>266</ele>
        <time>2018-02-28T11:05:18Z</time>
      </trkpt>
      <trkpt lat="45.94202" lon="4.817">
        <ele>267</ele>
        <time>2018-02-28T11:05:19Z</time>
      </trkpt>
      <trkpt lat="45.94197" lon="4.81697">
        <ele>267</ele>
        <time>2018-02-28T11:05:20Z</time>
      </trkpt>
      <trkpt lat="45.94192" lon="4.81694">
        <ele>267</ele>
        <time>2018-02-28T11:05:21Z</time>
      </trkpt>
      <trkpt lat="45.94188" lon="4.81688">
        <ele>267</ele>
        <time>2018-02-28T11:05:22Z</time>
      </trkpt>
      <trkpt lat="45.94184" lon="4.81682">
        <ele>267</ele>
        <time>2018-02-28T11:05:23Z</time>
      </trkpt>
      <trkpt lat="45.9418" lon="4.81674">
        <ele>268</ele>
        <time>2018-02-28T11:05:24Z</time>
      </trkpt>
      <trkpt lat="45.94178" lon="4.81663">
        <ele>268</ele>
        <time>2018-02-28T11:05:25Z</time>
      </trkpt>
      <trkpt lat="45.94177" lon="4.81653">
        <ele>268</ele>
        <time>2018-02-28T11:05:26Z</time>
      </trkpt>
      <trkpt lat="45.94175" lon="4.81643">
        <ele>268</ele>
        <time>2018-02-28T11:05:27Z</time>
      </trkpt>
      <trkpt lat="45.94173" lon="4.81633">
        <ele>267</ele>
        <time>2018-02-28T11:05:28Z</time>
      </trkpt>
      <trkpt lat="45.94171" lon="4.81623">
        <ele>267</ele>
        <time>2018-02-28T11:05:29Z</time>
      </trkpt>
      <trkpt lat="45.94169" lon="4.81612">
        <ele>267</ele>
        <time>2018-02-28T11:05:30Z</time>
      </trkpt>
      <trkpt lat="45.94167" lon="4.81601">
        <ele>267</ele>
        <time>2018-02-28T11:05:31Z</time>
      </trkpt>
      <trkpt lat="45.94165" lon="4.8159">
        <ele>267</ele>
        <time>2018-02-28T11:05:32Z</time>
      </trkpt>
      <trkpt lat="45.94164" lon="4.81579">
        <ele>266</ele>
        <time>2018-02-28T11:05:33Z</time>
      </trkpt>
      <trkpt lat="45.94162" lon="4.81569">
        <ele>266</ele>
        <time>2018-02-28T11:05:34Z</time>
      </trkpt>
      <trkpt lat="45.94161" lon="4.81559">
        <ele>265</ele>
        <time>2018-02-28T11:05:35Z</time>
      </trkpt>
      <trkpt lat="45.9416" lon="4.81548">
        <ele>264</ele>
        <time>2018-02-28T11:05:36Z</time>
      </trkpt>
      <trkpt lat="45.94157" lon="4.81538">
        <ele>264</ele>
        <time>2018-02-28T11:05:37Z</time>
      </trkpt>
      <trkpt lat="45.94156" lon="4.81527">
        <ele>263</ele>
        <time>2018-02-28T11:05:38Z</time>
      </trkpt>
      <trkpt lat="45.94156" lon="4.81514">
        <ele>263</ele>
        <time>2018-02-28T11:05:39Z</time>
      </trkpt>
      <trkpt lat="45.94156" lon="4.81501">
        <ele>263</ele>
        <time>2018-02-28T11:05:40Z</time>
      </trkpt>
      <trkpt lat="45.94158" lon="4.81488">
        <ele>260</ele>
        <time>2018-02-28T11:05:41Z</time>
      </trkpt>
      <trkpt lat="45.94161" lon="4.81474">
        <ele>259</ele>
        <time>2018-02-28T11:05:42Z</time>
      </trkpt>
      <trkpt lat="45.9416" lon="4.81459">
        <ele>257</ele>
        <time>2018-02-28T11:05:43Z</time>
      </trkpt>
      <trkpt lat="45.9416" lon="4.81446">
        <ele>257</ele>
        <time>2018-02-28T11:05:44Z</time>
      </trkpt>
      <trkpt lat="45.94162" lon="4.81433">
        <ele>256</ele>
        <time>2018-02-28T11:05:45Z</time>
      </trkpt>
      <trkpt lat="45.94163" lon="4.81419">
        <ele>256</ele>
        <time>2018-02-28T11:05:46Z</time>
      </trkpt>
      <trkpt lat="45.94165" lon="4.81407">
        <ele>254</ele>
        <time>2018-02-28T11:05:47Z</time>
      </trkpt>
      <trkpt lat="45.94168" lon="4.81395">
        <ele>258</ele>
        <time>2018-02-28T11:05:48Z</time>
      </trkpt>
      <trkpt lat="45.9417" lon="4.81382">
        <ele>258</ele>
        <time>2018-02-28T11:05:49Z</time>
      </trkpt>
      <trkpt lat="45.94171" lon="4.8137">
        <ele>257</ele>
        <time>2018-02-28T11:05:50Z</time>
      </trkpt>
      <trkpt lat="45.94172" lon="4.81357">
        <ele>257</ele>
        <time>2018-02-28T11:05:51Z</time>
      </trkpt>
      <trkpt lat="45.94172" lon="4.81344">
        <ele>255</ele>
        <time>2018-02-28T11:05:52Z</time>
      </trkpt>
      <trkpt lat="45.94173" lon="4.81331">
        <ele>253</ele>
        <time>2018-02-28T11:05:53Z</time>
      </trkpt>
      <trkpt lat="45.94173" lon="4.81318">
        <ele>255</ele>
        <time>2018-02-28T11:05:54Z</time>
      </trkpt>
      <trkpt lat="45.94173" lon="4.81305">
        <ele>255</ele>
        <time>2018-02-28T11:05:55Z</time>
      </trkpt>
      <trkpt lat="45.94172" lon="4.81291">
        <ele>256</ele>
        <time>2018-02-28T11:05:56Z</time>
      </trkpt>
      <trkpt lat="45.94171" lon="4.81277">
        <ele>255</ele>
        <time>2018-02-28T11:05:57Z</time>
      </trkpt>
      <trkpt lat="45.94168" lon="4.81262">
        <ele>253</ele>
        <time>2018-02-28T11:05:58Z</time>
      </trkpt>
      <trkpt lat="45.94166" lon="4.81248">
        <ele>249</ele>
        <time>2018-02-28T11:05:59Z</time>
      </trkpt>
      <trkpt lat="45.94164" lon="4.81234">
        <ele>247</ele>
        <time>2018-02-28T11:06:00Z</time>
      </trkpt>
      <trkpt lat="45.94161" lon="4.8122">
        <ele>245</ele>
        <time>2018-02-28T11:06:01Z</time>
      </trkpt>
      <trkpt lat="45.94158" lon="4.81206">
        <ele>245</ele>
        <time>2018-02-28T11:06:02Z</time>
      </trkpt>
      <trkpt lat="45.94153" lon="4.81191">
        <ele>245</ele>
        <time>2018-02-28T11:06:03Z</time>
      </trkpt>
      <trkpt lat="45.94146" lon="4.81176">
        <ele>244</ele>
        <time>2018-02-28T11:06:04Z</time>
      </trkpt>
      <trkpt lat="45.94141" lon="4.81162">
        <ele>244</ele>
        <time>2018-02-28T11:06:05Z</time>
      </trkpt>
      <trkpt lat="45.94135" lon="4.81149">
        <ele>244</ele>
        <time>2018-02-28T11:06:06Z</time>
      </trkpt>
      <trkpt lat="45.94128" lon="4.81135">
        <ele>243</ele>
        <time>2018-02-28T11:06:07Z</time>
      </trkpt>
      <trkpt lat="45.94121" lon="4.81122">
        <ele>243</ele>
        <time>2018-02-28T11:06:08Z</time>
      </trkpt>
      <trkpt lat="45.94114" lon="4.81109">
        <ele>243</ele>
        <time>2018-02-28T11:06:09Z</time>
      </trkpt>
      <trkpt lat="45.94107" lon="4.81095">
        <ele>242</ele>
        <time>2018-02-28T11:06:10Z</time>
      </trkpt>
      <trkpt lat="45.941" lon="4.81083">
        <ele>242</ele>
        <time>2018-02-28T11:06:11Z</time>
      </trkpt>
      <trkpt lat="45.94094" lon="4.81068">
        <ele>242</ele>
        <time>2018-02-28T11:06:12Z</time>
      </trkpt>
      <trkpt lat="45.94088" lon="4.81054">
        <ele>243</ele>
        <time>2018-02-28T11:06:13Z</time>
      </trkpt>
      <trkpt lat="45.94083" lon="4.8104">
        <ele>234</ele>
        <time>2018-02-28T11:06:14Z</time>
      </trkpt>
      <trkpt lat="45.94079" lon="4.81026">
        <ele>234</ele>
        <time>2018-02-28T11:06:15Z</time>
      </trkpt>
      <trkpt lat="45.94076" lon="4.81011">
        <ele>236</ele>
        <time>2018-02-28T11:06:16Z</time>
      </trkpt>
      <trkpt lat="45.94073" lon="4.80996">
        <ele>236</ele>
        <time>2018-02-28T11:06:17Z</time>
      </trkpt>
      <trkpt lat="45.9407" lon="4.8098">
        <ele>234</ele>
        <time>2018-02-28T11:06:18Z</time>
      </trkpt>
      <trkpt lat="45.94069" lon="4.80963">
        <ele>233</ele>
        <time>2018-02-28T11:06:19Z</time>
      </trkpt>
      <trkpt lat="45.94065" lon="4.80947">
        <ele>232</ele>
        <time>2018-02-28T11:06:20Z</time>
      </trkpt>
      <trkpt lat="45.94064" lon="4.8093">
        <ele>233</ele>
        <time>2018-02-28T11:06:21Z</time>
      </trkpt>
      <trkpt lat="45.94062" lon="4.80914">
        <ele>233</ele>
        <time>2018-02-28T11:06:22Z</time>
      </trkpt>
      <trkpt lat="45.9406" lon="4.80896">
        <ele>231</ele>
        <time>2018-02-28T11:06:23Z</time>
      </trkpt>
      <trkpt lat="45.94058" lon="4.8088">
        <ele>231</ele>
        <time>2018-02-28T11:06:24Z</time>
      </trkpt>
      <trkpt lat="45.94057" lon="4.80862">
        <ele>231</ele>
        <time>2018-02-28T11:06:25Z</time>
      </trkpt>
      <trkpt lat="45.94055" lon="4.80844">
        <ele>231</ele>
        <time>2018-02-28T11:06:26Z</time>
      </trkpt>
      <trkpt lat="45.94054" lon="4.80826">
        <ele>231</ele>
        <time>2018-02-28T11:06:27Z</time>
      </trkpt>
      <trkpt lat="45.94051" lon="4.8081">
        <ele>230</ele>
        <time>2018-02-28T11:06:28Z</time>
      </trkpt>
      <trkpt lat="45.94049" lon="4.80795">
        <ele>229</ele>
        <time>2018-02-28T11:06:29Z</time>
      </trkpt>
      <trkpt lat="45.94048" lon="4.8078">
        <ele>229</ele>
        <time>2018-02-28T11:06:30Z</time>
      </trkpt>
      <trkpt lat="45.94046" lon="4.80764">
        <ele>228</ele>
        <time>2018-02-28T11:06:31Z</time>
      </trkpt>
      <trkpt lat="45.94043" lon="4.80751">
        <ele>228</ele>
        <time>2018-02-28T11:06:32Z</time>
      </trkpt>
      <trkpt lat="45.94042" lon="4.80735">
        <ele>227</ele>
        <time>2018-02-28T11:06:33Z</time>
      </trkpt>
      <trkpt lat="45.94039" lon="4.80721">
        <ele>227</ele>
        <time>2018-02-28T11:06:34Z</time>
      </trkpt>
      <trkpt lat="45.94037" lon="4.80706">
        <ele>226</ele>
        <time>2018-02-28T11:06:35Z</time>
      </trkpt>
      <trkpt lat="45.94036" lon="4.80692">
        <ele>226</ele>
        <time>2018-02-28T11:06:36Z</time>
      </trkpt>
      <trkpt lat="45.94034" lon="4.80677">
        <ele>225</ele>
        <time>2018-02-28T11:06:37Z</time>
      </trkpt>
      <trkpt lat="45.94032" lon="4.80662">
        <ele>225</ele>
        <time>2018-02-28T11:06:38Z</time>
      </trkpt>
      <trkpt lat="45.9403" lon="4.80647">
        <ele>225</ele>
        <time>2018-02-28T11:06:39Z</time>
      </trkpt>
      <trkpt lat="45.9403" lon="4.80632">
        <ele>225</ele>
        <time>2018-02-28T11:06:40Z</time>
      </trkpt>
      <trkpt lat="45.94029" lon="4.80618">
        <ele>225</ele>
        <time>2018-02-28T11:06:41Z</time>
      </trkpt>
      <trkpt lat="45.94028" lon="4.80604">
        <ele>225</ele>
        <time>2018-02-28T11:06:42Z</time>
      </trkpt>
      <trkpt lat="45.94027" lon="4.8059">
        <ele>224</ele>
        <time>2018-02-28T11:06:43Z</time>
      </trkpt>
      <trkpt lat="45.94026" lon="4.80576">
        <ele>224</ele>
        <time>2018-02-28T11:06:44Z</time>
      </trkpt>
      <trkpt lat="45.94026" lon="4.80562">
        <ele>225</ele>
        <time>2018-02-28T11:06:45Z</time>
      </trkpt>
      <trkpt lat="45.94025" lon="4.80549">
        <ele>225</ele>
        <time>2018-02-28T11:06:46Z</time>
      </trkpt>
      <trkpt lat="45.94025" lon="4.80536">
        <ele>225</ele>
        <time>2018-02-28T11:06:47Z</time>
      </trkpt>
      <trkpt lat="45.94026" lon="4.80522">
        <ele>225</ele>
        <time>2018-02-28T11:06:48Z</time>
      </trkpt>
      <trkpt lat="45.94026" lon="4.80508">
        <ele>224</ele>
        <time>2018-02-28T11:06:49Z</time>
      </trkpt>
      <trkpt lat="45.94026" lon="4.80494">
        <ele>223</ele>
        <time>2018-02-28T11:06:50Z</time>
      </trkpt>
      <trkpt lat="45.94028" lon="4.80477">
        <ele>224</ele>
        <time>2018-02-28T11:06:51Z</time>
      </trkpt>
      <trkpt lat="45.94028" lon="4.80463">
        <ele>224</ele>
        <time>2018-02-28T11:06:52Z</time>
      </trkpt>
      <trkpt lat="45.94026" lon="4.80448">
        <ele>224</ele>
        <time>2018-02-28T11:06:53Z</time>
      </trkpt>
      <trkpt lat="45.94024" lon="4.80435">
        <ele>223</ele>
        <time>2018-02-28T11:06:54Z</time>
      </trkpt>
      <trkpt lat="45.94021" lon="4.80421">
        <ele>222</ele>
        <time>2018-02-28T11:06:55Z</time>
      </trkpt>
      <trkpt lat="45.94017" lon="4.80407">
        <ele>218</ele>
        <time>2018-02-28T11:06:56Z</time>
      </trkpt>
      <trkpt lat="45.94014" lon="4.80395">
        <ele>217</ele>
        <time>2018-02-28T11:06:57Z</time>
      </trkpt>
      <trkpt lat="45.94011" lon="4.80381">
        <ele>217</ele>
        <time>2018-02-28T11:06:58Z</time>
      </trkpt>
      <trkpt lat="45.94007" lon="4.80367">
        <ele>215</ele>
        <time>2018-02-28T11:06:59Z</time>
      </trkpt>
      <trkpt lat="45.94003" lon="4.80354">
        <ele>213</ele>
        <time>2018-02-28T11:07:00Z</time>
      </trkpt>
      <trkpt lat="45.93999" lon="4.80341">
        <ele>206</ele>
        <time>2018-02-28T11:07:01Z</time>
      </trkpt>
      <trkpt lat="45.93994" lon="4.80328">
        <ele>205</ele>
        <time>2018-02-28T11:07:02Z</time>
      </trkpt>
      <trkpt lat="45.9399" lon="4.80314">
        <ele>204</ele>
        <time>2018-02-28T11:07:03Z</time>
      </trkpt>
      <trkpt lat="45.93987" lon="4.80299">
        <ele>203</ele>
        <time>2018-02-28T11:07:04Z</time>
      </trkpt>
      <trkpt lat="45.93983" lon="4.80286">
        <ele>203</ele>
        <time>2018-02-28T11:07:05Z</time>
      </trkpt>
      <trkpt lat="45.9398" lon="4.80273">
        <ele>203</ele>
        <time>2018-02-28T11:07:06Z</time>
      </trkpt>
      <trkpt lat="45.93976" lon="4.80263">
        <ele>203</ele>
        <time>2018-02-28T11:07:07Z</time>
      </trkpt>
      <trkpt lat="45.93972" lon="4.80251">
        <ele>203</ele>
        <time>2018-02-28T11:07:08Z</time>
      </trkpt>
      <trkpt lat="45.93968" lon="4.80237">
        <ele>205</ele>
        <time>2018-02-28T11:07:09Z</time>
      </trkpt>
      <trkpt lat="45.93965" lon="4.80225">
        <ele>205</ele>
        <time>2018-02-28T11:07:10Z</time>
      </trkpt>
      <trkpt lat="45.93961" lon="4.80213">
        <ele>205</ele>
        <time>2018-02-28T11:07:11Z</time>
      </trkpt>
      <trkpt lat="45.93959" lon="4.80203">
        <ele>205</ele>
        <time>2018-02-28T11:07:12Z</time>
      </trkpt>
      <trkpt lat="45.93957" lon="4.80191">
        <ele>206</ele>
        <time>2018-02-28T11:07:13Z</time>
      </trkpt>
      <trkpt lat="45.93955" lon="4.8018">
        <ele>206</ele>
        <time>2018-02-28T11:07:14Z</time>
      </trkpt>
      <trkpt lat="45.93954" lon="4.80169">
        <ele>206</ele>
        <time>2018-02-28T11:07:15Z</time>
      </trkpt>
      <trkpt lat="45.93951" lon="4.80158">
        <ele>209</ele>
        <time>2018-02-28T11:07:16Z</time>
      </trkpt>
      <trkpt lat="45.9395" lon="4.80146">
        <ele>209</ele>
        <time>2018-02-28T11:07:17Z</time>
      </trkpt>
      <trkpt lat="45.93947" lon="4.80135">
        <ele>209</ele>
        <time>2018-02-28T11:07:18Z</time>
      </trkpt>
      <trkpt lat="45.93946" lon="4.80124">
        <ele>209</ele>
        <time>2018-02-28T11:07:19Z</time>
      </trkpt>
      <trkpt lat="45.93945" lon="4.80114">
        <ele>209</ele>
        <time>2018-02-28T11:07:20Z</time>
      </trkpt>
      <trkpt lat="45.93944" lon="4.80104">
        <ele>209</ele>
        <time>2018-02-28T11:07:21Z</time>
      </trkpt>
      <trkpt lat="45.93943" lon="4.80095">
        <ele>208</ele>
        <time>2018-02-28T11:07:22Z</time>
      </trkpt>
      <trkpt lat="45.93942" lon="4.80085">
        <ele>208</ele>
        <time>2018-02-28T11:07:23Z</time>
      </trkpt>
      <trkpt lat="45.93941" lon="4.80077">
        <ele>208</ele>
        <time>2018-02-28T11:07:24Z</time>
      </trkpt>
      <trkpt lat="45.93941" lon="4.80068">
        <ele>208</ele>
        <time>2018-02-28T11:07:25Z</time>
      </trkpt>
      <trkpt lat="45.93942" lon="4.80059">
        <ele>208</ele>
        <time>2018-02-28T11:07:26Z</time>
      </trkpt>
      <trkpt lat="45.93942" lon="4.8005">
        <ele>207</ele>
        <time>2018-02-28T11:07:27Z</time>
      </trkpt>
      <trkpt lat="45.93943" lon="4.80041">
        <ele>207</ele>
        <time>2018-02-28T11:07:28Z</time>
      </trkpt>
      <trkpt lat="45.93944" lon="4.80032">
        <ele>207</ele>
        <time>2018-02-28T11:07:29Z</time>
      </trkpt>
      <trkpt lat="45.93946" lon="4.80022">
        <ele>207</ele>
        <time>2018-02-28T11:07:30Z</time>
      </trkpt>
      <trkpt lat="45.93948" lon="4.80014">
        <ele>207</ele>
        <time>2018-02-28T11:07:31Z</time>
      </trkpt>
      <trkpt lat="45.93948" lon="4.80004">
        <ele>206</ele>
        <time>2018-02-28T11:07:32Z</time>
      </trkpt>
      <trkpt lat="45.9395" lon="4.79995">
        <ele>205</ele>
        <time>2018-02-28T11:07:33Z</time>
      </trkpt>
      <trkpt lat="45.93951" lon="4.79986">
        <ele>205</ele>
        <time>2018-02-28T11:07:34Z</time>
      </trkpt>
      <trkpt lat="45.93952" lon="4.79977">
        <ele>205</ele>
        <time>2018-02-28T11:07:35Z</time>
      </trkpt>
      <trkpt lat="45.93953" lon="4.79968">
        <ele>205</ele>
        <time>2018-02-28T11:07:36Z</time>
      </trkpt>
      <trkpt lat="45.93954" lon="4.79959">
        <ele>205</ele>
        <time>2018-02-28T11:07:37Z</time>
      </trkpt>
      <trkpt lat="45.93955" lon="4.79952">
        <ele>205</ele>
        <time>2018-02-28T11:07:38Z</time>
      </trkpt>
      <trkpt lat="45.93956" lon="4.79943">
        <ele>205</ele>
        <time>2018-02-28T11:07:39Z</time>
      </trkpt>
      <trkpt lat="45.93957" lon="4.79934">
        <ele>205</ele>
        <time>2018-02-28T11:07:40Z</time>
      </trkpt>
      <trkpt lat="45.93958" lon="4.79926">
        <ele>205</ele>
        <time>2018-02-28T11:07:41Z</time>
      </trkpt>
      <trkpt lat="45.9396" lon="4.79918">
        <ele>205</ele>
        <time>2018-02-28T11:07:42Z</time>
      </trkpt>
      <trkpt lat="45.93961" lon="4.79909">
        <ele>206</ele>
        <time>2018-02-28T11:07:43Z</time>
      </trkpt>
      <trkpt lat="45.93963" lon="4.799">
        <ele>206</ele>
        <time>2018-02-28T11:07:44Z</time>
      </trkpt>
      <trkpt lat="45.93964" lon="4.79892">
        <ele>206</ele>
        <time>2018-02-28T11:07:45Z</time>
      </trkpt>
      <trkpt lat="45.93966" lon="4.79883">
        <ele>206</ele>
        <time>2018-02-28T11:07:46Z</time>
      </trkpt>
      <trkpt lat="45.93966" lon="4.79874">
        <ele>206</ele>
        <time>2018-02-28T11:07:47Z</time>
      </trkpt>
      <trkpt lat="45.93967" lon="4.79866">
        <ele>206</ele>
        <time>2018-02-28T11:07:48Z</time>
      </trkpt>
      <trkpt lat="45.93968" lon="4.79857">
        <ele>206</ele>
        <time>2018-02-28T11:07:49Z</time>
      </trkpt>
      <trkpt lat="45.93969" lon="4.79848">
        <ele>206</ele>
        <time>2018-02-28T11:07:50Z</time>
      </trkpt>
      <trkpt lat="45.9397" lon="4.7984">
        <ele>207</ele>
        <time>2018-02-28T11:07:51Z</time>
      </trkpt>
      <trkpt lat="45.9397" lon="4.79831">
        <ele>207</ele>
        <time>2018-02-28T11:07:52Z</time>
      </trkpt>
      <trkpt lat="45.93971" lon="4.79823">
        <ele>207</ele>
        <time>2018-02-28T11:07:53Z</time>
      </trkpt>
      <trkpt lat="45.93972" lon="4.79815">
        <ele>207</ele>
        <time>2018-02-28T11:07:54Z</time>
      </trkpt>
      <trkpt lat="45.93973" lon="4.79808">
        <ele>207</ele>
        <time>2018-02-28T11:07:55Z</time>
      </trkpt>
      <trkpt lat="45.93974" lon="4.79799">
        <ele>207</ele>
        <time>2018-02-28T11:07:56Z</time>
      </trkpt>
      <trkpt lat="45.93974" lon="4.7979">
        <ele>206</ele>
        <time>2018-02-28T11:07:57Z</time>
      </trkpt>
      <trkpt lat="45.93975" lon="4.79782">
        <ele>206</ele>
        <time>2018-02-28T11:07:58Z</time>
      </trkpt>
      <trkpt lat="45.93975" lon="4.79772">
        <ele>206</ele>
        <time>2018-02-28T11:07:59Z</time>
      </trkpt>
      <trkpt lat="45.93975" lon="4.79764">
        <ele>206</ele>
        <time>2018-02-28T11:08:00Z</time>
      </trkpt>
      <trkpt lat="45.93974" lon="4.79755">
        <ele>206</ele>
        <time>2018-02-28T11:08:01Z</time>
      </trkpt>
      <trkpt lat="45.93973" lon="4.79747">
        <ele>207</ele>
        <time>2018-02-28T11:08:02Z</time>
      </trkpt>
      <trkpt lat="45.93973" lon="4.79738">
        <ele>207</ele>
        <time>2018-02-28T11:08:03Z</time>
      </trkpt>
      <trkpt lat="45.93972" lon="4.7973">
        <ele>207</ele>
        <time>2018-02-28T11:08:04Z</time>
      </trkpt>
      <trkpt lat="45.93971" lon="4.79721">
        <ele>207</ele>
        <time>2018-02-28T11:08:05Z</time>
      </trkpt>
      <trkpt lat="45.93971" lon="4.79712">
        <ele>207</ele>
        <time>2018-02-28T11:08:06Z</time>
      </trkpt>
      <trkpt lat="45.9397" lon="4.79702">
        <ele>207</ele>
        <time>2018-02-28T11:08:07Z</time>
      </trkpt>
      <trkpt lat="45.93969" lon="4.79693">
        <ele>207</ele>
        <time>2018-02-28T11:08:08Z</time>
      </trkpt>
      <trkpt lat="45.93969" lon="4.79684">
        <ele>207</ele>
        <time>2018-02-28T11:08:09Z</time>
      </trkpt>
      <trkpt lat="45.93968" lon="4.79675">
        <ele>207</ele>
        <time>2018-02-28T11:08:10Z</time>
      </trkpt>
      <trkpt lat="45.93967" lon="4.79668">
        <ele>207</ele>
        <time>2018-02-28T11:08:11Z</time>
      </trkpt>
      <trkpt lat="45.93966" lon="4.79659">
        <ele>207</ele>
        <time>2018-02-28T11:08:12Z</time>
      </trkpt>
      <trkpt lat="45.93965" lon="4.79651">
        <ele>207</ele>
        <time>2018-02-28T11:08:13Z</time>
      </trkpt>
      <trkpt lat="45.93965" lon="4.79643">
        <ele>207</ele>
        <time>2018-02-28T11:08:14Z</time>
      </trkpt>
      <trkpt lat="45.93964" lon="4.79635">
        <ele>207</ele>
        <time>2018-02-28T11:08:15Z</time>
      </trkpt>
      <trkpt lat="45.93964" lon="4.79626">
        <ele>207</ele>
        <time>2018-02-28T11:08:16Z</time>
      </trkpt>
      <trkpt lat="45.93963" lon="4.79618">
        <ele>207</ele>
        <time>2018-02-28T11:08:17Z</time>
      </trkpt>
      <trkpt lat="45.93963" lon="4.7961">
        <ele>207</ele>
        <time>2018-02-28T11:08:18Z</time>
      </trkpt>
      <trkpt lat="45.93963" lon="4.79603">
        <ele>207</ele>
        <time>2018-02-28T11:08:19Z</time>
      </trkpt>
      <trkpt lat="45.93962" lon="4.79595">
        <ele>207</ele>
        <time>2018-02-28T11:08:20Z</time>
      </trkpt>
      <trkpt lat="45.93961" lon="4.79586">
        <ele>207</ele>
        <time>2018-02-28T11:08:21Z</time>
      </trkpt>
      <trkpt lat="45.93958" lon="4.7958">
        <ele>206</ele>
        <time>2018-02-28T11:08:22Z</time>
      </trkpt>
      <trkpt lat="45.93958" lon="4.79571">
        <ele>205</ele>
        <time>2018-02-28T11:08:23Z</time>
      </trkpt>
      <trkpt lat="45.93957" lon="4.79562">
        <ele>205</ele>
        <time>2018-02-28T11:08:24Z</time>
      </trkpt>
      <trkpt lat="45.93957" lon="4.79552">
        <ele>205</ele>
        <time>2018-02-28T11:08:25Z</time>
      </trkpt>
      <trkpt lat="45.93957" lon="4.79543">
        <ele>205</ele>
        <time>2018-02-28T11:08:26Z</time>
      </trkpt>
      <trkpt lat="45.93956" lon="4.79533">
        <ele>205</ele>
        <time>2018-02-28T11:08:27Z</time>
      </trkpt>
      <trkpt lat="45.93956" lon="4.79523">
        <ele>204</ele>
        <time>2018-02-28T11:08:28Z</time>
      </trkpt>
      <trkpt lat="45.93953" lon="4.79513">
        <ele>204</ele>
        <time>2018-02-28T11:08:29Z</time>
      </trkpt>
      <trkpt lat="45.93953" lon="4.79502">
        <ele>204</ele>
        <time>2018-02-28T11:08:30Z</time>
      </trkpt>
      <trkpt lat="45.93953" lon="4.79492">
        <ele>203</ele>
        <time>2018-02-28T11:08:31Z</time>
      </trkpt>
      <trkpt lat="45.93953" lon="4.79481">
        <ele>203</ele>
        <time>2018-02-28T11:08:32Z</time>
      </trkpt>
      <trkpt lat="45.93954" lon="4.79471">
        <ele>203</ele>
        <time>2018-02-28T11:08:33Z</time>
      </trkpt>
      <trkpt lat="45.93955" lon="4.79461">
        <ele>203</ele>
        <time>2018-02-28T11:08:34Z</time>
      </trkpt>
      <trkpt lat="45.93956" lon="4.79452">
        <ele>203</ele>
        <time>2018-02-28T11:08:35Z</time>
      </trkpt>
      <trkpt lat="45.93956" lon="4.79442">
        <ele>203</ele>
        <time>2018-02-28T11:08:36Z</time>
      </trkpt>
      <trkpt lat="45.93957" lon="4.79432">
        <ele>203</ele>
        <time>2018-02-28T11:08:37Z</time>
      </trkpt>
      <trkpt lat="45.93957" lon="4.79422">
        <ele>203</ele>
        <time>2018-02-28T11:08:38Z</time>
      </trkpt>
      <trkpt lat="45.93959" lon="4.79415">
        <ele>202</ele>
        <time>2018-02-28T11:08:39Z</time>
      </trkpt>
      <trkpt lat="45.93957" lon="4.79405">
        <ele>202</ele>
        <time>2018-02-28T11:08:40Z</time>
      </trkpt>
      <trkpt lat="45.93957" lon="4.79397">
        <ele>201</ele>
        <time>2018-02-28T11:08:41Z</time>
      </trkpt>
      <trkpt lat="45.93956" lon="4.79389">
        <ele>201</ele>
        <time>2018-02-28T11:08:42Z</time>
      </trkpt>
      <trkpt lat="45.93957" lon="4.79378">
        <ele>201</ele>
        <time>2018-02-28T11:08:43Z</time>
      </trkpt>
      <trkpt lat="45.93957" lon="4.79369">
        <ele>201</ele>
        <time>2018-02-28T11:08:44Z</time>
      </trkpt>
      <trkpt lat="45.93957" lon="4.7936">
        <ele>201</ele>
        <time>2018-02-28T11:08:45Z</time>
      </trkpt>
      <trkpt lat="45.93957" lon="4.79349">
        <ele>201</ele>
        <time>2018-02-28T11:08:46Z</time>
      </trkpt>
      <trkpt lat="45.93956" lon="4.79338">
        <ele>201</ele>
        <time>2018-02-28T11:08:47Z</time>
      </trkpt>
      <trkpt lat="45.93956" lon="4.79329">
        <ele>199</ele>
        <time>2018-02-28T11:08:48Z</time>
      </trkpt>
      <trkpt lat="45.93956" lon="4.79319">
        <ele>199</ele>
        <time>2018-02-28T11:08:49Z</time>
      </trkpt>
      <trkpt lat="45.93956" lon="4.79309">
        <ele>199</ele>
        <time>2018-02-28T11:08:50Z</time>
      </trkpt>
      <trkpt lat="45.93955" lon="4.79299">
        <ele>199</ele>
        <time>2018-02-28T11:08:51Z</time>
      </trkpt>
      <trkpt lat="45.93955" lon="4.7929">
        <ele>199</ele>
        <time>2018-02-28T11:08:52Z</time>
      </trkpt>
      <trkpt lat="45.93955" lon="4.7928">
        <ele>198</ele>
        <time>2018-02-28T11:08:53Z</time>
      </trkpt>
      <trkpt lat="45.93954" lon="4.7927">
        <ele>198</ele>
        <time>2018-02-28T11:08:54Z</time>
      </trkpt>
      <trkpt lat="45.93954" lon="4.7926">
        <ele>198</ele>
        <time>2018-02-28T11:08:55Z</time>
      </trkpt>
      <trkpt lat="45.93953" lon="4.79249">
        <ele>197</ele>
        <time>2018-02-28T11:08:56Z</time>
      </trkpt>
      <trkpt lat="45.93953" lon="4.79238">
        <ele>197</ele>
        <time>2018-02-28T11:08:57Z</time>
      </trkpt>
      <trkpt lat="45.93954" lon="4.79229">
        <ele>197</ele>
        <time>2018-02-28T11:08:58Z</time>
      </trkpt>
      <trkpt lat="45.93954" lon="4.7922">
        <ele>197</ele>
        <time>2018-02-28T11:08:59Z</time>
      </trkpt>
      <trkpt lat="45.93954" lon="4.79211">
        <ele>197</ele>
        <time>2018-02-28T11:09:00Z</time>
      </trkpt>
      <trkpt lat="45.93954" lon="4.79202">
        <ele>197</ele>
        <time>2018-02-28T11:09:01Z</time>
      </trkpt>
      <trkpt lat="45.93954" lon="4.79192">
        <ele>197</ele>
        <time>2018-02-28T11:09:02Z</time>
      </trkpt>
      <trkpt lat="45.93953" lon="4.79182">
        <ele>197</ele>
        <time>2018-02-28T11:09:03Z</time>
      </trkpt>
      <trkpt lat="45.93953" lon="4.79173">
        <ele>197</ele>
        <time>2018-02-28T11:09:04Z</time>
      </trkpt>
      <trkpt lat="45.93951" lon="4.79164">
        <ele>197</ele>
        <time>2018-02-28T11:09:05Z</time>
      </trkpt>
      <trkpt lat="45.93951" lon="4.79154">
        <ele>197</ele>
        <time>2018-02-28T11:09:06Z</time>
      </trkpt>
      <trkpt lat="45.93951" lon="4.79144">
        <ele>197</ele>
        <time>2018-02-28T11:09:07Z</time>
      </trkpt>
      <trkpt lat="45.93951" lon="4.79135">
        <ele>197</ele>
        <time>2018-02-28T11:09:08Z</time>
      </trkpt>
      <trkpt lat="45.93952" lon="4.79125">
        <ele>197</ele>
        <time>2018-02-28T11:09:09Z</time>
      </trkpt>
      <trkpt lat="45.93952" lon="4.79115">
        <ele>197</ele>
        <time>2018-02-28T11:09:10Z</time>
      </trkpt>
      <trkpt lat="45.93951" lon="4.79105">
        <ele>197</ele>
        <time>2018-02-28T11:09:11Z</time>
      </trkpt>
      <trkpt lat="45.93951" lon="4.79095">
        <ele>197</ele>
        <time>2018-02-28T11:09:12Z</time>
      </trkpt>
      <trkpt lat="45.9395" lon="4.79086">
        <ele>196</ele>
        <time>2018-02-28T11:09:13Z</time>
      </trkpt>
      <trkpt lat="45.9395" lon="4.79075">
        <ele>196</ele>
        <time>2018-02-28T11:09:14Z</time>
      </trkpt>
      <trkpt lat="45.93949" lon="4.79066">
        <ele>196</ele>
        <time>2018-02-28T11:09:15Z</time>
      </trkpt>
      <trkpt lat="45.93949" lon="4.79056">
        <ele>196</ele>
        <time>2018-02-28T11:09:16Z</time>
      </trkpt>
      <trkpt lat="45.93949" lon="4.79045">
        <ele>196</ele>
        <time>2018-02-28T11:09:17Z</time>
      </trkpt>
      <trkpt lat="45.93948" lon="4.79037">
        <ele>196</ele>
        <time>2018-02-28T11:09:18Z</time>
      </trkpt>
      <trkpt lat="45.93947" lon="4.79028">
        <ele>195</ele>
        <time>2018-02-28T11:09:19Z</time>
      </trkpt>
      <trkpt lat="45.93946" lon="4.79018">
        <ele>195</ele>
        <time>2018-02-28T11:09:20Z</time>
      </trkpt>
      <trkpt lat="45.93946" lon="4.7901">
        <ele>195</ele>
        <time>2018-02-28T11:09:21Z</time>
      </trkpt>
      <trkpt lat="45.93946" lon="4.79001">
        <ele>195</ele>
        <time>2018-02-28T11:09:22Z</time>
      </trkpt>
      <trkpt lat="45.93946" lon="4.78993">
        <ele>194</ele>
        <time>2018-02-28T11:09:23Z</time>
      </trkpt>
      <trkpt lat="45.93946" lon="4.78984">
        <ele>194</ele>
        <time>2018-02-28T11:09:24Z</time>
      </trkpt>
      <trkpt lat="45.93946" lon="4.78975">
        <ele>194</ele>
        <time>2018-02-28T11:09:25Z</time>
      </trkpt>
      <trkpt lat="45.93946" lon="4.78967">
        <ele>194</ele>
        <time>2018-02-28T11:09:26Z</time>
      </trkpt>
      <trkpt lat="45.93947" lon="4.78957">
        <ele>194</ele>
        <time>2018-02-28T11:09:27Z</time>
      </trkpt>
      <trkpt lat="45.93946" lon="4.78949">
        <ele>194</ele>
        <time>2018-02-28T11:09:28Z</time>
      </trkpt>
      <trkpt lat="45.93945" lon="4.78941">
        <ele>194</ele>
        <time>2018-02-28T11:09:29Z</time>
      </trkpt>
      <trkpt lat="45.93944" lon="4.78932">
        <ele>194</ele>
        <time>2018-02-28T11:09:30Z</time>
      </trkpt>
      <trkpt lat="45.93945" lon="4.78922">
        <ele>193</ele>
        <time>2018-02-28T11:09:31Z</time>
      </trkpt>
      <trkpt lat="45.93943" lon="4.78914">
        <ele>193</ele>
        <time>2018-02-28T11:09:32Z</time>
      </trkpt>
      <trkpt lat="45.93943" lon="4.78905">
        <ele>193</ele>
        <time>2018-02-28T11:09:33Z</time>
      </trkpt>
      <trkpt lat="45.93944" lon="4.78895">
        <ele>194</ele>
        <time>2018-02-28T11:09:34Z</time>
      </trkpt>
      <trkpt lat="45.93943" lon="4.78886">
        <ele>194</ele>
        <time>2018-02-28T11:09:35Z</time>
      </trkpt>
      <trkpt lat="45.93942" lon="4.78877">
        <ele>194</ele>
        <time>2018-02-28T11:09:36Z</time>
      </trkpt>
      <trkpt lat="45.93942" lon="4.78867">
        <ele>194</ele>
        <time>2018-02-28T11:09:37Z</time>
      </trkpt>
      <trkpt lat="45.93942" lon="4.78858">
        <ele>194</ele>
        <time>2018-02-28T11:09:38Z</time>
      </trkpt>
      <trkpt lat="45.93941" lon="4.78847">
        <ele>194</ele>
        <time>2018-02-28T11:09:39Z</time>
      </trkpt>
      <trkpt lat="45.9394" lon="4.78836">
        <ele>193</ele>
        <time>2018-02-28T11:09:40Z</time>
      </trkpt>
      <trkpt lat="45.93939" lon="4.78826">
        <ele>194</ele>
        <time>2018-02-28T11:09:41Z</time>
      </trkpt>
      <trkpt lat="45.93939" lon="4.78816">
        <ele>194</ele>
        <time>2018-02-28T11:09:42Z</time>
      </trkpt>
      <trkpt lat="45.93939" lon="4.78807">
        <ele>194</ele>
        <time>2018-02-28T11:09:43Z</time>
      </trkpt>
      <trkpt lat="45.9394" lon="4.78798">
        <ele>194</ele>
        <time>2018-02-28T11:09:44Z</time>
      </trkpt>
      <trkpt lat="45.93941" lon="4.7879">
        <ele>194</ele>
        <time>2018-02-28T11:09:45Z</time>
      </trkpt>
      <trkpt lat="45.93939" lon="4.78781">
        <ele>194</ele>
        <time>2018-02-28T11:09:46Z</time>
      </trkpt>
      <trkpt lat="45.93939" lon="4.78772">
        <ele>194</ele>
        <time>2018-02-28T11:09:47Z</time>
      </trkpt>
      <trkpt lat="45.93939" lon="4.78763">
        <ele>193</ele>
        <time>2018-02-28T11:09:48Z</time>
      </trkpt>
      <trkpt lat="45.93938" lon="4.78756">
        <ele>193</ele>
        <time>2018-02-28T11:09:49Z</time>
      </trkpt>
      <trkpt lat="45.93938" lon="4.78748">
        <ele>193</ele>
        <time>2018-02-28T11:09:50Z</time>
      </trkpt>
      <trkpt lat="45.93937" lon="4.78741">
        <ele>193</ele>
        <time>2018-02-28T11:09:51Z</time>
      </trkpt>
      <trkpt lat="45.93937" lon="4.78733">
        <ele>194</ele>
        <time>2018-02-28T11:09:52Z</time>
      </trkpt>
      <trkpt lat="45.93937" lon="4.78725">
        <ele>194</ele>
        <time>2018-02-28T11:09:53Z</time>
      </trkpt>
      <trkpt lat="45.93938" lon="4.78716">
        <ele>194</ele>
        <time>2018-02-28T11:09:54Z</time>
      </trkpt>
      <trkpt lat="45.93937" lon="4.78709">
        <ele>194</ele>
        <time>2018-02-28T11:09:55Z</time>
      </trkpt>
      <trkpt lat="45.93937" lon="4.78701">
        <ele>194</ele>
        <time>2018-02-28T11:09:56Z</time>
      </trkpt>
      <trkpt lat="45.93937" lon="4.78692">
        <ele>194</ele>
        <time>2018-02-28T11:09:57Z</time>
      </trkpt>
      <trkpt lat="45.93937" lon="4.78685">
        <ele>194</ele>
        <time>2018-02-28T11:09:58Z</time>
      </trkpt>
      <trkpt lat="45.93938" lon="4.78676">
        <ele>193</ele>
        <time>2018-02-28T11:09:59Z</time>
      </trkpt>
      <trkpt lat="45.93938" lon="4.78668">
        <ele>193</ele>
        <time>2018-02-28T11:10:00Z</time>
      </trkpt>
      <trkpt lat="45.93939" lon="4.7866">
        <ele>194</ele>
        <time>2018-02-28T11:10:01Z</time>
      </trkpt>
      <trkpt lat="45.93939" lon="4.78652">
        <ele>195</ele>
        <time>2018-02-28T11:10:02Z</time>
      </trkpt>
      <trkpt lat="45.93941" lon="4.78641">
        <ele>195</ele>
        <time>2018-02-28T11:10:03Z</time>
      </trkpt>
      <trkpt lat="45.93941" lon="4.78635">
        <ele>195</ele>
        <time>2018-02-28T11:10:04Z</time>
      </trkpt>
      <trkpt lat="45.93942" lon="4.78627">
        <ele>196</ele>
        <time>2018-02-28T11:10:05Z</time>
      </trkpt>
      <trkpt lat="45.93942" lon="4.78619">
        <ele>196</ele>
        <time>2018-02-28T11:10:06Z</time>
      </trkpt>
      <trkpt lat="45.93943" lon="4.78613">
        <ele>196</ele>
        <time>2018-02-28T11:10:07Z</time>
      </trkpt>
      <trkpt lat="45.93941" lon="4.78606">
        <ele>196</ele>
        <time>2018-02-28T11:10:08Z</time>
      </trkpt>
      <trkpt lat="45.93941" lon="4.78599">
        <ele>196</ele>
        <time>2018-02-28T11:10:09Z</time>
      </trkpt>
      <trkpt lat="45.93937" lon="4.7859">
        <ele>195</ele>
        <time>2018-02-28T11:10:11Z</time>
      </trkpt>
      <trkpt lat="45.93937" lon="4.78581">
        <ele>196</ele>
        <time>2018-02-28T11:10:12Z</time>
      </trkpt>
      <trkpt lat="45.93935" lon="4.78573">
        <ele>196</ele>
        <time>2018-02-28T11:10:14Z</time>
      </trkpt>
      <trkpt lat="45.93934" lon="4.78569">
        <ele>196</ele>
        <time>2018-02-28T11:10:15Z</time>
      </trkpt>
      <trkpt lat="45.93931" lon="4.78559">
        <ele>196</ele>
        <time>2018-02-28T11:10:16Z</time>
      </trkpt>
      <trkpt lat="45.93931" lon="4.78554">
        <ele>197</ele>
        <time>2018-02-28T11:10:17Z</time>
      </trkpt>
      <trkpt lat="45.93932" lon="4.78548">
        <ele>197</ele>
        <time>2018-02-28T11:10:18Z</time>
      </trkpt>
      <trkpt lat="45.93933" lon="4.78541">
        <ele>197</ele>
        <time>2018-02-28T11:10:19Z</time>
      </trkpt>
      <trkpt lat="45.93935" lon="4.78529">
        <ele>197</ele>
        <time>2018-02-28T11:10:21Z</time>
      </trkpt>
      <trkpt lat="45.93936" lon="4.78523">
        <ele>197</ele>
        <time>2018-02-28T11:10:22Z</time>
      </trkpt>
      <trkpt lat="45.93937" lon="4.78517">
        <ele>197</ele>
        <time>2018-02-28T11:10:23Z</time>
      </trkpt>
      <trkpt lat="45.93938" lon="4.7851">
        <ele>197</ele>
        <time>2018-02-28T11:10:24Z</time>
      </trkpt>
      <trkpt lat="45.93939" lon="4.78498">
        <ele>197</ele>
        <time>2018-02-28T11:10:26Z</time>
      </trkpt>
      <trkpt lat="45.9394" lon="4.78492">
        <ele>197</ele>
        <time>2018-02-28T11:10:27Z</time>
      </trkpt>
      <trkpt lat="45.93941" lon="4.78481">
        <ele>197</ele>
        <time>2018-02-28T11:10:29Z</time>
      </trkpt>
      <trkpt lat="45.93942" lon="4.78474">
        <ele>197</ele>
        <time>2018-02-28T11:10:30Z</time>
      </trkpt>
      <trkpt lat="45.93944" lon="4.78463">
        <ele>197</ele>
        <time>2018-02-28T11:10:32Z</time>
      </trkpt>
      <trkpt lat="45.93944" lon="4.78457">
        <ele>197</ele>
        <time>2018-02-28T11:10:33Z</time>
      </trkpt>
      <trkpt lat="45.93945" lon="4.78449">
        <ele>197</ele>
        <time>2018-02-28T11:10:34Z</time>
      </trkpt>
      <trkpt lat="45.93946" lon="4.78443">
        <ele>197</ele>
        <time>2018-02-28T11:10:35Z</time>
      </trkpt>
      <trkpt lat="45.93947" lon="4.78436">
        <ele>197</ele>
        <time>2018-02-28T11:10:36Z</time>
      </trkpt>
      <trkpt lat="45.93948" lon="4.78429">
        <ele>197</ele>
        <time>2018-02-28T11:10:37Z</time>
      </trkpt>
      <trkpt lat="45.93949" lon="4.78422">
        <ele>197</ele>
        <time>2018-02-28T11:10:38Z</time>
      </trkpt>
      <trkpt lat="45.9395" lon="4.78415">
        <ele>196</ele>
        <time>2018-02-28T11:10:39Z</time>
      </trkpt>
      <trkpt lat="45.93952" lon="4.78408">
        <ele>196</ele>
        <time>2018-02-28T11:10:40Z</time>
      </trkpt>
      <trkpt lat="45.93952" lon="4.78401">
        <ele>196</ele>
        <time>2018-02-28T11:10:41Z</time>
      </trkpt>
      <trkpt lat="45.93953" lon="4.78394">
        <ele>196</ele>
        <time>2018-02-28T11:10:42Z</time>
      </trkpt>
      <trkpt lat="45.93953" lon="4.78386">
        <ele>196</ele>
        <time>2018-02-28T11:10:43Z</time>
      </trkpt>
      <trkpt lat="45.93954" lon="4.7838">
        <ele>196</ele>
        <time>2018-02-28T11:10:44Z</time>
      </trkpt>
      <trkpt lat="45.93955" lon="4.78374">
        <ele>196</ele>
        <time>2018-02-28T11:10:45Z</time>
      </trkpt>
      <trkpt lat="45.93956" lon="4.78366">
        <ele>196</ele>
        <time>2018-02-28T11:10:46Z</time>
      </trkpt>
      <trkpt lat="45.93957" lon="4.78359">
        <ele>196</ele>
        <time>2018-02-28T11:10:47Z</time>
      </trkpt>
      <trkpt lat="45.93958" lon="4.78352">
        <ele>196</ele>
        <time>2018-02-28T11:10:48Z</time>
      </trkpt>
      <trkpt lat="45.93959" lon="4.78346">
        <ele>196</ele>
        <time>2018-02-28T11:10:49Z</time>
      </trkpt>
      <trkpt lat="45.9396" lon="4.78338">
        <ele>196</ele>
        <time>2018-02-28T11:10:50Z</time>
      </trkpt>
      <trkpt lat="45.93961" lon="4.78332">
        <ele>195</ele>
        <time>2018-02-28T11:10:51Z</time>
      </trkpt>
      <trkpt lat="45.93962" lon="4.7832">
        <ele>195</ele>
        <time>2018-02-28T11:10:53Z</time>
      </trkpt>
      <trkpt lat="45.93963" lon="4.78315">
        <ele>196</ele>
        <time>2018-02-28T11:10:54Z</time>
      </trkpt>
      <trkpt lat="45.93964" lon="4.78303">
        <ele>195</ele>
        <time>2018-02-28T11:10:56Z</time>
      </trkpt>
      <trkpt lat="45.93964" lon="4.78297">
        <ele>195</ele>
        <time>2018-02-28T11:10:57Z</time>
      </trkpt>
      <trkpt lat="45.93966" lon="4.78286">
        <ele>195</ele>
        <time>2018-02-28T11:10:59Z</time>
      </trkpt>
      <trkpt lat="45.93967" lon="4.7828">
        <ele>195</ele>
        <time>2018-02-28T11:11:00Z</time>
      </trkpt>
      <trkpt lat="45.93969" lon="4.78268">
        <ele>196</ele>
        <time>2018-02-28T11:11:02Z</time>
      </trkpt>
      <trkpt lat="45.9397" lon="4.78262">
        <ele>196</ele>
        <time>2018-02-28T11:11:03Z</time>
      </trkpt>
      <trkpt lat="45.93972" lon="4.78255">
        <ele>196</ele>
        <time>2018-02-28T11:11:04Z</time>
      </trkpt>
      <trkpt lat="45.93973" lon="4.78249">
        <ele>196</ele>
        <time>2018-02-28T11:11:05Z</time>
      </trkpt>
      <trkpt lat="45.93975" lon="4.78237">
        <ele>197</ele>
        <time>2018-02-28T11:11:07Z</time>
      </trkpt>
      <trkpt lat="45.93976" lon="4.78231">
        <ele>197</ele>
        <time>2018-02-28T11:11:08Z</time>
      </trkpt>
      <trkpt lat="45.93978" lon="4.78219">
        <ele>197</ele>
        <time>2018-02-28T11:11:10Z</time>
      </trkpt>
      <trkpt lat="45.93979" lon="4.78213">
        <ele>197</ele>
        <time>2018-02-28T11:11:11Z</time>
      </trkpt>
      <trkpt lat="45.93981" lon="4.78201">
        <ele>197</ele>
        <time>2018-02-28T11:11:14Z</time>
      </trkpt>
      <trkpt lat="45.93983" lon="4.78192">
        <ele>197</ele>
        <time>2018-02-28T11:11:15Z</time>
      </trkpt>
      <trkpt lat="45.93985" lon="4.78183">
        <ele>198</ele>
        <time>2018-02-28T11:11:18Z</time>
      </trkpt>
      <trkpt lat="45.93986" lon="4.78179">
        <ele>198</ele>
        <time>2018-02-28T11:11:19Z</time>
      </trkpt>
      <trkpt lat="45.93989" lon="4.78167">
        <ele>199</ele>
        <time>2018-02-28T11:11:22Z</time>
      </trkpt>
      <trkpt lat="45.9399" lon="4.78163">
        <ele>199</ele>
        <time>2018-02-28T11:11:23Z</time>
      </trkpt>
      <trkpt lat="45.93992" lon="4.78151">
        <ele>198</ele>
        <time>2018-02-28T11:11:24Z</time>
      </trkpt>
      <trkpt lat="45.93993" lon="4.78148">
        <ele>198</ele>
        <time>2018-02-28T11:11:25Z</time>
      </trkpt>
      <trkpt lat="45.93993" lon="4.78138">
        <ele>198</ele>
        <time>2018-02-28T11:11:27Z</time>
      </trkpt>
      <trkpt lat="45.93993" lon="4.78135">
        <ele>197</ele>
        <time>2018-02-28T11:11:28Z</time>
      </trkpt>
      <trkpt lat="45.93994" lon="4.78125">
        <ele>197</ele>
        <time>2018-02-28T11:11:29Z</time>
      </trkpt>
      <trkpt lat="45.93996" lon="4.7812">
        <ele>197</ele>
        <time>2018-02-28T11:11:30Z</time>
      </trkpt>
      <trkpt lat="45.93998" lon="4.78109">
        <ele>197</ele>
        <time>2018-02-28T11:11:32Z</time>
      </trkpt>
      <trkpt lat="45.94" lon="4.78103">
        <ele>198</ele>
        <time>2018-02-28T11:11:33Z</time>
      </trkpt>
      <trkpt lat="45.94" lon="4.78091">
        <ele>200</ele>
        <time>2018-02-28T11:11:35Z</time>
      </trkpt>
      <trkpt lat="45.94001" lon="4.78085">
        <ele>200</ele>
        <time>2018-02-28T11:11:36Z</time>
      </trkpt>
      <trkpt lat="45.94003" lon="4.78073">
        <ele>200</ele>
        <time>2018-02-28T11:11:38Z</time>
      </trkpt>
      <trkpt lat="45.94004" lon="4.7807">
        <ele>200</ele>
        <time>2018-02-28T11:11:39Z</time>
      </trkpt>
      <trkpt lat="45.94004" lon="4.78067">
        <ele>201</ele>
        <time>2018-02-28T11:11:40Z</time>
      </trkpt>
      <trkpt lat="45.94007" lon="4.78058">
        <ele>201</ele>
        <time>2018-02-28T11:11:41Z</time>
      </trkpt>
      <trkpt lat="45.94009" lon="4.78048">
        <ele>201</ele>
        <time>2018-02-28T11:11:43Z</time>
      </trkpt>
      <trkpt lat="45.94012" lon="4.78042">
        <ele>201</ele>
        <time>2018-02-28T11:11:44Z</time>
      </trkpt>
      <trkpt lat="45.94013" lon="4.78032">
        <ele>201</ele>
        <time>2018-02-28T11:11:46Z</time>
      </trkpt>
      <trkpt lat="45.94014" lon="4.78027">
        <ele>201</ele>
        <time>2018-02-28T11:11:47Z</time>
      </trkpt>
      <trkpt lat="45.94015" lon="4.78021">
        <ele>200</ele>
        <time>2018-02-28T11:11:48Z</time>
      </trkpt>
      <trkpt lat="45.94016" lon="4.78013">
        <ele>200</ele>
        <time>2018-02-28T11:11:49Z</time>
      </trkpt>
      <trkpt lat="45.94017" lon="4.78007">
        <ele>200</ele>
        <time>2018-02-28T11:11:50Z</time>
      </trkpt>
      <trkpt lat="45.94018" lon="4.77999">
        <ele>199</ele>
        <time>2018-02-28T11:11:51Z</time>
      </trkpt>
      <trkpt lat="45.9402" lon="4.77992">
        <ele>199</ele>
        <time>2018-02-28T11:11:52Z</time>
      </trkpt>
      <trkpt lat="45.94021" lon="4.77986">
        <ele>200</ele>
        <time>2018-02-28T11:11:53Z</time>
      </trkpt>
      <trkpt lat="45.94022" lon="4.77979">
        <ele>200</ele>
        <time>2018-02-28T11:11:54Z</time>
      </trkpt>
      <trkpt lat="45.94023" lon="4.77973">
        <ele>200</ele>
        <time>2018-02-28T11:11:55Z</time>
      </trkpt>
      <trkpt lat="45.94025" lon="4.77961">
        <ele>200</ele>
        <time>2018-02-28T11:11:57Z</time>
      </trkpt>
      <trkpt lat="45.94026" lon="4.77956">
        <ele>200</ele>
        <time>2018-02-28T11:11:58Z</time>
      </trkpt>
      <trkpt lat="45.94029" lon="4.77946">
        <ele>200</ele>
        <time>2018-02-28T11:12:00Z</time>
      </trkpt>
      <trkpt lat="45.9403" lon="4.77941">
        <ele>200</ele>
        <time>2018-02-28T11:12:01Z</time>
      </trkpt>
      <trkpt lat="45.94027" lon="4.7793">
        <ele>200</ele>
        <time>2018-02-28T11:12:03Z</time>
      </trkpt>
      <trkpt lat="45.94024" lon="4.77927">
        <ele>199</ele>
        <time>2018-02-28T11:12:04Z</time>
      </trkpt>
      <trkpt lat="45.94017" lon="4.77923">
        <ele>198</ele>
        <time>2018-02-28T11:12:06Z</time>
      </trkpt>
      <trkpt lat="45.94011" lon="4.77925">
        <ele>197</ele>
        <time>2018-02-28T11:12:07Z</time>
      </trkpt>
      <trkpt lat="45.94004" lon="4.77927">
        <ele>197</ele>
        <time>2018-02-28T11:12:08Z</time>
      </trkpt>
      <trkpt lat="45.93995" lon="4.77928">
        <ele>193</ele>
        <time>2018-02-28T11:12:09Z</time>
      </trkpt>
      <trkpt lat="45.93987" lon="4.77931">
        <ele>192</ele>
        <time>2018-02-28T11:12:10Z</time>
      </trkpt>
      <trkpt lat="45.9398" lon="4.77935">
        <ele>191</ele>
        <time>2018-02-28T11:12:11Z</time>
      </trkpt>
      <trkpt lat="45.93972" lon="4.77941">
        <ele>191</ele>
        <time>2018-02-28T11:12:12Z</time>
      </trkpt>
      <trkpt lat="45.93965" lon="4.77945">
        <ele>190</ele>
        <time>2018-02-28T11:12:13Z</time>
      </trkpt>
      <trkpt lat="45.93956" lon="4.7795">
        <ele>190</ele>
        <time>2018-02-28T11:12:14Z</time>
      </trkpt>
      <trkpt lat="45.93949" lon="4.77956">
        <ele>189</ele>
        <time>2018-02-28T11:12:15Z</time>
      </trkpt>
      <trkpt lat="45.93942" lon="4.77961">
        <ele>189</ele>
        <time>2018-02-28T11:12:16Z</time>
      </trkpt>
      <trkpt lat="45.93936" lon="4.77965">
        <ele>189</ele>
        <time>2018-02-28T11:12:17Z</time>
      </trkpt>
      <trkpt lat="45.93931" lon="4.77969">
        <ele>189</ele>
        <time>2018-02-28T11:12:18Z</time>
      </trkpt>
      <trkpt lat="45.93925" lon="4.77975">
        <ele>188</ele>
        <time>2018-02-28T11:12:19Z</time>
      </trkpt>
      <trkpt lat="45.93915" lon="4.7798">
        <ele>182</ele>
        <time>2018-02-28T11:12:20Z</time>
      </trkpt>
      <trkpt lat="45.93907" lon="4.77985">
        <ele>183</ele>
        <time>2018-02-28T11:12:21Z</time>
      </trkpt>
      <trkpt lat="45.93901" lon="4.77989">
        <ele>182</ele>
        <time>2018-02-28T11:12:22Z</time>
      </trkpt>
      <trkpt lat="45.93896" lon="4.77997">
        <ele>182</ele>
        <time>2018-02-28T11:12:23Z</time>
      </trkpt>
      <trkpt lat="45.9389" lon="4.78002">
        <ele>184</ele>
        <time>2018-02-28T11:12:24Z</time>
      </trkpt>
      <trkpt lat="45.93885" lon="4.78009">
        <ele>184</ele>
        <time>2018-02-28T11:12:25Z</time>
      </trkpt>
      <trkpt lat="45.93881" lon="4.78013">
        <ele>184</ele>
        <time>2018-02-28T11:12:26Z</time>
      </trkpt>
      <trkpt lat="45.93873" lon="4.78014">
        <ele>183</ele>
        <time>2018-02-28T11:12:28Z</time>
      </trkpt>
      <trkpt lat="45.93869" lon="4.78011">
        <ele>183</ele>
        <time>2018-02-28T11:12:29Z</time>
      </trkpt>
      <trkpt lat="45.93864" lon="4.78007">
        <ele>183</ele>
        <time>2018-02-28T11:12:30Z</time>
      </trkpt>
      <trkpt lat="45.9386" lon="4.78002">
        <ele>182</ele>
        <time>2018-02-28T11:12:31Z</time>
      </trkpt>
      <trkpt lat="45.93856" lon="4.77997">
        <ele>179</ele>
        <time>2018-02-28T11:12:33Z</time>
      </trkpt>
      <trkpt lat="45.93851" lon="4.77994">
        <ele>179</ele>
        <time>2018-02-28T11:12:34Z</time>
      </trkpt>
      <trkpt lat="45.93847" lon="4.77987">
        <ele>179</ele>
        <time>2018-02-28T11:12:35Z</time>
      </trkpt>
      <trkpt lat="45.93842" lon="4.77981">
        <ele>178</ele>
        <time>2018-02-28T11:12:36Z</time>
      </trkpt>
      <trkpt lat="45.93838" lon="4.77976">
        <ele>178</ele>
        <time>2018-02-28T11:12:37Z</time>
      </trkpt>
      <trkpt lat="45.93835" lon="4.77971">
        <ele>178</ele>
        <time>2018-02-28T11:12:38Z</time>
      </trkpt>
      <trkpt lat="45.9383" lon="4.77966">
        <ele>171</ele>
        <time>2018-02-28T11:12:39Z</time>
      </trkpt>
      <trkpt lat="45.93827" lon="4.77961">
        <ele>171</ele>
        <time>2018-02-28T11:12:40Z</time>
      </trkpt>
      <trkpt lat="45.93822" lon="4.77957">
        <ele>170</ele>
        <time>2018-02-28T11:12:41Z</time>
      </trkpt>
      <trkpt lat="45.93819" lon="4.77953">
        <ele>170</ele>
        <time>2018-02-28T11:12:42Z</time>
      </trkpt>
      <trkpt lat="45.93815" lon="4.77948">
        <ele>169</ele>
        <time>2018-02-28T11:12:43Z</time>
      </trkpt>
      <trkpt lat="45.93811" lon="4.77944">
        <ele>169</ele>
        <time>2018-02-28T11:12:44Z</time>
      </trkpt>
      <trkpt lat="45.93807" lon="4.77938">
        <ele>169</ele>
        <time>2018-02-28T11:12:45Z</time>
      </trkpt>
      <trkpt lat="45.93805" lon="4.77933">
        <ele>168</ele>
        <time>2018-02-28T11:12:46Z</time>
      </trkpt>
      <trkpt lat="45.93798" lon="4.77925">
        <ele>168</ele>
        <time>2018-02-28T11:12:48Z</time>
      </trkpt>
      <trkpt lat="45.93795" lon="4.77921">
        <ele>168</ele>
        <time>2018-02-28T11:12:49Z</time>
      </trkpt>
      <trkpt lat="45.93788" lon="4.77913">
        <ele>166</ele>
        <time>2018-02-28T11:12:51Z</time>
      </trkpt>
      <trkpt lat="45.93786" lon="4.77909">
        <ele>166</ele>
        <time>2018-02-28T11:12:52Z</time>
      </trkpt>
      <trkpt lat="45.93783" lon="4.77903">
        <ele>166</ele>
        <time>2018-02-28T11:12:53Z</time>
      </trkpt>
      <trkpt lat="45.93779" lon="4.77899">
        <ele>166</ele>
        <time>2018-02-28T11:12:54Z</time>
      </trkpt>
      <trkpt lat="45.93772" lon="4.77891">
        <ele>166</ele>
        <time>2018-02-28T11:12:56Z</time>
      </trkpt>
      <trkpt lat="45.9377" lon="4.77887">
        <ele>166</ele>
        <time>2018-02-28T11:12:57Z</time>
      </trkpt>
      <trkpt lat="45.93766" lon="4.77883">
        <ele>166</ele>
        <time>2018-02-28T11:12:58Z</time>
      </trkpt>
      <trkpt lat="45.93762" lon="4.77878">
        <ele>166</ele>
        <time>2018-02-28T11:12:59Z</time>
      </trkpt>
      <trkpt lat="45.93759" lon="4.77873">
        <ele>166</ele>
        <time>2018-02-28T11:13:00Z</time>
      </trkpt>
      <trkpt lat="45.93755" lon="4.77869">
        <ele>166</ele>
        <time>2018-02-28T11:13:01Z</time>
      </trkpt>
      <trkpt lat="45.93751" lon="4.77864">
        <ele>166</ele>
        <time>2018-02-28T11:13:02Z</time>
      </trkpt>
      <trkpt lat="45.93748" lon="4.77859">
        <ele>167</ele>
        <time>2018-02-28T11:13:03Z</time>
      </trkpt>
      <trkpt lat="45.93744" lon="4.77854">
        <ele>167</ele>
        <time>2018-02-28T11:13:04Z</time>
      </trkpt>
      <trkpt lat="45.93742" lon="4.77849">
        <ele>167</ele>
        <time>2018-02-28T11:13:05Z</time>
      </trkpt>
      <trkpt lat="45.93735" lon="4.77841">
        <ele>167</ele>
        <time>2018-02-28T11:13:07Z</time>
      </trkpt>
      <trkpt lat="45.93731" lon="4.77837">
        <ele>167</ele>
        <time>2018-02-28T11:13:08Z</time>
      </trkpt>
      <trkpt lat="45.93724" lon="4.77828">
        <ele>168</ele>
        <time>2018-02-28T11:13:10Z</time>
      </trkpt>
      <trkpt lat="45.93721" lon="4.77824">
        <ele>168</ele>
        <time>2018-02-28T11:13:11Z</time>
      </trkpt>
      <trkpt lat="45.93717" lon="4.77818">
        <ele>169</ele>
        <time>2018-02-28T11:13:12Z</time>
      </trkpt>
      <trkpt lat="45.93713" lon="4.77813">
        <ele>169</ele>
        <time>2018-02-28T11:13:13Z</time>
      </trkpt>
      <trkpt lat="45.9371" lon="4.77807">
        <ele>169</ele>
        <time>2018-02-28T11:13:14Z</time>
      </trkpt>
      <trkpt lat="45.93706" lon="4.77802">
        <ele>169</ele>
        <time>2018-02-28T11:13:15Z</time>
      </trkpt>
      <trkpt lat="45.93702" lon="4.77796">
        <ele>169</ele>
        <time>2018-02-28T11:13:16Z</time>
      </trkpt>
      <trkpt lat="45.93697" lon="4.77789">
        <ele>169</ele>
        <time>2018-02-28T11:13:17Z</time>
      </trkpt>
      <trkpt lat="45.93692" lon="4.77783">
        <ele>170</ele>
        <time>2018-02-28T11:13:18Z</time>
      </trkpt>
      <trkpt lat="45.93688" lon="4.77778">
        <ele>170</ele>
        <time>2018-02-28T11:13:19Z</time>
      </trkpt>
      <trkpt lat="45.93685" lon="4.77769">
        <ele>170</ele>
        <time>2018-02-28T11:13:20Z</time>
      </trkpt>
      <trkpt lat="45.9368" lon="4.77762">
        <ele>170</ele>
        <time>2018-02-28T11:13:21Z</time>
      </trkpt>
      <trkpt lat="45.93675" lon="4.77755">
        <ele>170</ele>
        <time>2018-02-28T11:13:22Z</time>
      </trkpt>
      <trkpt lat="45.93671" lon="4.77749">
        <ele>171</ele>
        <time>2018-02-28T11:13:23Z</time>
      </trkpt>
      <trkpt lat="45.93666" lon="4.77742">
        <ele>171</ele>
        <time>2018-02-28T11:13:24Z</time>
      </trkpt>
      <trkpt lat="45.93661" lon="4.77735">
        <ele>170</ele>
        <time>2018-02-28T11:13:25Z</time>
      </trkpt>
      <trkpt lat="45.93657" lon="4.77727">
        <ele>170</ele>
        <time>2018-02-28T11:13:26Z</time>
      </trkpt>
      <trkpt lat="45.93652" lon="4.7772">
        <ele>170</ele>
        <time>2018-02-28T11:13:27Z</time>
      </trkpt>
      <trkpt lat="45.93647" lon="4.77712">
        <ele>170</ele>
        <time>2018-02-28T11:13:28Z</time>
      </trkpt>
      <trkpt lat="45.93642" lon="4.77703">
        <ele>170</ele>
        <time>2018-02-28T11:13:29Z</time>
      </trkpt>
      <trkpt lat="45.93637" lon="4.77694">
        <ele>169</ele>
        <time>2018-02-28T11:13:30Z</time>
      </trkpt>
      <trkpt lat="45.93633" lon="4.77685">
        <ele>169</ele>
        <time>2018-02-28T11:13:31Z</time>
      </trkpt>
      <trkpt lat="45.93628" lon="4.77676">
        <ele>169</ele>
        <time>2018-02-28T11:13:32Z</time>
      </trkpt>
      <trkpt lat="45.93624" lon="4.77667">
        <ele>169</ele>
        <time>2018-02-28T11:13:33Z</time>
      </trkpt>
      <trkpt lat="45.9362" lon="4.77658">
        <ele>169</ele>
        <time>2018-02-28T11:13:34Z</time>
      </trkpt>
      <trkpt lat="45.93616" lon="4.77649">
        <ele>169</ele>
        <time>2018-02-28T11:13:35Z</time>
      </trkpt>
      <trkpt lat="45.93612" lon="4.77641">
        <ele>169</ele>
        <time>2018-02-28T11:13:36Z</time>
      </trkpt>
      <trkpt lat="45.93609" lon="4.77632">
        <ele>169</ele>
        <time>2018-02-28T11:13:37Z</time>
      </trkpt>
      <trkpt lat="45.93606" lon="4.77624">
        <ele>170</ele>
        <time>2018-02-28T11:13:38Z</time>
      </trkpt>
      <trkpt lat="45.93603" lon="4.77615">
        <ele>170</ele>
        <time>2018-02-28T11:13:39Z</time>
      </trkpt>
      <trkpt lat="45.936" lon="4.77606">
        <ele>170</ele>
        <time>2018-02-28T11:13:40Z</time>
      </trkpt>
      <trkpt lat="45.93598" lon="4.77597">
        <ele>170</ele>
        <time>2018-02-28T11:13:41Z</time>
      </trkpt>
      <trkpt lat="45.93594" lon="4.7759">
        <ele>170</ele>
        <time>2018-02-28T11:13:42Z</time>
      </trkpt>
      <trkpt lat="45.93591" lon="4.77582">
        <ele>170</ele>
        <time>2018-02-28T11:13:43Z</time>
      </trkpt>
      <trkpt lat="45.93589" lon="4.77575">
        <ele>170</ele>
        <time>2018-02-28T11:13:44Z</time>
      </trkpt>
      <trkpt lat="45.93587" lon="4.77567">
        <ele>170</ele>
        <time>2018-02-28T11:13:45Z</time>
      </trkpt>
      <trkpt lat="45.93584" lon="4.7756">
        <ele>170</ele>
        <time>2018-02-28T11:13:46Z</time>
      </trkpt>
      <trkpt lat="45.93582" lon="4.77553">
        <ele>169</ele>
        <time>2018-02-28T11:13:47Z</time>
      </trkpt>
      <trkpt lat="45.9358" lon="4.77545">
        <ele>169</ele>
        <time>2018-02-28T11:13:48Z</time>
      </trkpt>
      <trkpt lat="45.93578" lon="4.77537">
        <ele>169</ele>
        <time>2018-02-28T11:13:49Z</time>
      </trkpt>
      <trkpt lat="45.93575" lon="4.77529">
        <ele>169</ele>
        <time>2018-02-28T11:13:50Z</time>
      </trkpt>
      <trkpt lat="45.93573" lon="4.77521">
        <ele>169</ele>
        <time>2018-02-28T11:13:51Z</time>
      </trkpt>
      <trkpt lat="45.93571" lon="4.77513">
        <ele>169</ele>
        <time>2018-02-28T11:13:52Z</time>
      </trkpt>
      <trkpt lat="45.9357" lon="4.77506">
        <ele>169</ele>
        <time>2018-02-28T11:13:53Z</time>
      </trkpt>
      <trkpt lat="45.93569" lon="4.77498">
        <ele>169</ele>
        <time>2018-02-28T11:13:54Z</time>
      </trkpt>
      <trkpt lat="45.93566" lon="4.7749">
        <ele>169</ele>
        <time>2018-02-28T11:13:55Z</time>
      </trkpt>
      <trkpt lat="45.93566" lon="4.77483">
        <ele>169</ele>
        <time>2018-02-28T11:13:56Z</time>
      </trkpt>
      <trkpt lat="45.93565" lon="4.77475">
        <ele>169</ele>
        <time>2018-02-28T11:13:57Z</time>
      </trkpt>
      <trkpt lat="45.93564" lon="4.77467">
        <ele>169</ele>
        <time>2018-02-28T11:13:58Z</time>
      </trkpt>
      <trkpt lat="45.93562" lon="4.77459">
        <ele>169</ele>
        <time>2018-02-28T11:13:59Z</time>
      </trkpt>
      <trkpt lat="45.93561" lon="4.77452">
        <ele>169</ele>
        <time>2018-02-28T11:14:00Z</time>
      </trkpt>
      <trkpt lat="45.93559" lon="4.77445">
        <ele>169</ele>
        <time>2018-02-28T11:14:01Z</time>
      </trkpt>
      <trkpt lat="45.93556" lon="4.77439">
        <ele>169</ele>
        <time>2018-02-28T11:14:02Z</time>
      </trkpt>
      <trkpt lat="45.93554" lon="4.77432">
        <ele>170</ele>
        <time>2018-02-28T11:14:03Z</time>
      </trkpt>
      <trkpt lat="45.93553" lon="4.77425">
        <ele>170</ele>
        <time>2018-02-28T11:14:04Z</time>
      </trkpt>
      <trkpt lat="45.93552" lon="4.77417">
        <ele>170</ele>
        <time>2018-02-28T11:14:05Z</time>
      </trkpt>
      <trkpt lat="45.93551" lon="4.7741">
        <ele>170</ele>
        <time>2018-02-28T11:14:06Z</time>
      </trkpt>
      <trkpt lat="45.93548" lon="4.77403">
        <ele>170</ele>
        <time>2018-02-28T11:14:07Z</time>
      </trkpt>
      <trkpt lat="45.93546" lon="4.77396">
        <ele>170</ele>
        <time>2018-02-28T11:14:08Z</time>
      </trkpt>
      <trkpt lat="45.93545" lon="4.77388">
        <ele>170</ele>
        <time>2018-02-28T11:14:09Z</time>
      </trkpt>
      <trkpt lat="45.93542" lon="4.77381">
        <ele>170</ele>
        <time>2018-02-28T11:14:10Z</time>
      </trkpt>
      <trkpt lat="45.93541" lon="4.77374">
        <ele>170</ele>
        <time>2018-02-28T11:14:11Z</time>
      </trkpt>
      <trkpt lat="45.9354" lon="4.77367">
        <ele>170</ele>
        <time>2018-02-28T11:14:12Z</time>
      </trkpt>
      <trkpt lat="45.93539" lon="4.7736">
        <ele>170</ele>
        <time>2018-02-28T11:14:13Z</time>
      </trkpt>
      <trkpt lat="45.93537" lon="4.77353">
        <ele>170</ele>
        <time>2018-02-28T11:14:14Z</time>
      </trkpt>
      <trkpt lat="45.93535" lon="4.77347">
        <ele>170</ele>
        <time>2018-02-28T11:14:15Z</time>
      </trkpt>
      <trkpt lat="45.93533" lon="4.77341">
        <ele>170</ele>
        <time>2018-02-28T11:14:16Z</time>
      </trkpt>
      <trkpt lat="45.93532" lon="4.77334">
        <ele>170</ele>
        <time>2018-02-28T11:14:17Z</time>
      </trkpt>
      <trkpt lat="45.9353" lon="4.77327">
        <ele>170</ele>
        <time>2018-02-28T11:14:18Z</time>
      </trkpt>
      <trkpt lat="45.93529" lon="4.77319">
        <ele>170</ele>
        <time>2018-02-28T11:14:19Z</time>
      </trkpt>
      <trkpt lat="45.93527" lon="4.77312">
        <ele>170</ele>
        <time>2018-02-28T11:14:20Z</time>
      </trkpt>
      <trkpt lat="45.93526" lon="4.77305">
        <ele>170</ele>
        <time>2018-02-28T11:14:21Z</time>
      </trkpt>
      <trkpt lat="45.93524" lon="4.77298">
        <ele>170</ele>
        <time>2018-02-28T11:14:22Z</time>
      </trkpt>
      <trkpt lat="45.93522" lon="4.77292">
        <ele>170</ele>
        <time>2018-02-28T11:14:23Z</time>
      </trkpt>
      <trkpt lat="45.9352" lon="4.77285">
        <ele>170</ele>
        <time>2018-02-28T11:14:24Z</time>
      </trkpt>
      <trkpt lat="45.93518" lon="4.77278">
        <ele>170</ele>
        <time>2018-02-28T11:14:25Z</time>
      </trkpt>
      <trkpt lat="45.93516" lon="4.77271">
        <ele>170</ele>
        <time>2018-02-28T11:14:26Z</time>
      </trkpt>
      <trkpt lat="45.93514" lon="4.77264">
        <ele>170</ele>
        <time>2018-02-28T11:14:27Z</time>
      </trkpt>
      <trkpt lat="45.93511" lon="4.77257">
        <ele>170</ele>
        <time>2018-02-28T11:14:28Z</time>
      </trkpt>
      <trkpt lat="45.9351" lon="4.7725">
        <ele>170</ele>
        <time>2018-02-28T11:14:29Z</time>
      </trkpt>
      <trkpt lat="45.93509" lon="4.77243">
        <ele>169</ele>
        <time>2018-02-28T11:14:30Z</time>
      </trkpt>
      <trkpt lat="45.93507" lon="4.77236">
        <ele>169</ele>
        <time>2018-02-28T11:14:31Z</time>
      </trkpt>
      <trkpt lat="45.93506" lon="4.77229">
        <ele>169</ele>
        <time>2018-02-28T11:14:32Z</time>
      </trkpt>
      <trkpt lat="45.93504" lon="4.77222">
        <ele>169</ele>
        <time>2018-02-28T11:14:33Z</time>
      </trkpt>
      <trkpt lat="45.93502" lon="4.77214">
        <ele>169</ele>
        <time>2018-02-28T11:14:34Z</time>
      </trkpt>
      <trkpt lat="45.935" lon="4.77207">
        <ele>169</ele>
        <time>2018-02-28T11:14:35Z</time>
      </trkpt>
      <trkpt lat="45.93499" lon="4.77199">
        <ele>169</ele>
        <time>2018-02-28T11:14:36Z</time>
      </trkpt>
      <trkpt lat="45.93497" lon="4.77192">
        <ele>169</ele>
        <time>2018-02-28T11:14:37Z</time>
      </trkpt>
      <trkpt lat="45.93495" lon="4.77184">
        <ele>169</ele>
        <time>2018-02-28T11:14:38Z</time>
      </trkpt>
      <trkpt lat="45.93493" lon="4.77176">
        <ele>169</ele>
        <time>2018-02-28T11:14:39Z</time>
      </trkpt>
      <trkpt lat="45.93492" lon="4.77169">
        <ele>169</ele>
        <time>2018-02-28T11:14:40Z</time>
      </trkpt>
      <trkpt lat="45.93491" lon="4.77159">
        <ele>169</ele>
        <time>2018-02-28T11:14:41Z</time>
      </trkpt>
      <trkpt lat="45.9349" lon="4.77152">
        <ele>169</ele>
        <time>2018-02-28T11:14:42Z</time>
      </trkpt>
      <trkpt lat="45.93489" lon="4.77144">
        <ele>169</ele>
        <time>2018-02-28T11:14:43Z</time>
      </trkpt>
      <trkpt lat="45.93487" lon="4.77138">
        <ele>169</ele>
        <time>2018-02-28T11:14:44Z</time>
      </trkpt>
      <trkpt lat="45.93486" lon="4.77131">
        <ele>169</ele>
        <time>2018-02-28T11:14:45Z</time>
      </trkpt>
      <trkpt lat="45.93485" lon="4.77124">
        <ele>169</ele>
        <time>2018-02-28T11:14:46Z</time>
      </trkpt>
      <trkpt lat="45.93484" lon="4.77118">
        <ele>169</ele>
        <time>2018-02-28T11:14:47Z</time>
      </trkpt>
      <trkpt lat="45.93482" lon="4.77111">
        <ele>169</ele>
        <time>2018-02-28T11:14:48Z</time>
      </trkpt>
      <trkpt lat="45.93481" lon="4.77103">
        <ele>169</ele>
        <time>2018-02-28T11:14:49Z</time>
      </trkpt>
      <trkpt lat="45.9348" lon="4.77095">
        <ele>169</ele>
        <time>2018-02-28T11:14:50Z</time>
      </trkpt>
      <trkpt lat="45.93479" lon="4.77088">
        <ele>169</ele>
        <time>2018-02-28T11:14:51Z</time>
      </trkpt>
      <trkpt lat="45.93476" lon="4.77081">
        <ele>170</ele>
        <time>2018-02-28T11:14:52Z</time>
      </trkpt>
      <trkpt lat="45.93476" lon="4.77074">
        <ele>170</ele>
        <time>2018-02-28T11:14:53Z</time>
      </trkpt>
      <trkpt lat="45.93475" lon="4.77067">
        <ele>170</ele>
        <time>2018-02-28T11:14:54Z</time>
      </trkpt>
      <trkpt lat="45.93473" lon="4.7706">
        <ele>170</ele>
        <time>2018-02-28T11:14:55Z</time>
      </trkpt>
      <trkpt lat="45.93472" lon="4.77054">
        <ele>170</ele>
        <time>2018-02-28T11:14:56Z</time>
      </trkpt>
      <trkpt lat="45.93471" lon="4.77047">
        <ele>170</ele>
        <time>2018-02-28T11:14:57Z</time>
      </trkpt>
      <trkpt lat="45.9347" lon="4.7704">
        <ele>170</ele>
        <time>2018-02-28T11:14:58Z</time>
      </trkpt>
      <trkpt lat="45.93468" lon="4.77033">
        <ele>170</ele>
        <time>2018-02-28T11:14:59Z</time>
      </trkpt>
      <trkpt lat="45.93468" lon="4.77025">
        <ele>170</ele>
        <time>2018-02-28T11:15:00Z</time>
      </trkpt>
      <trkpt lat="45.93467" lon="4.77018">
        <ele>170</ele>
        <time>2018-02-28T11:15:01Z</time>
      </trkpt>
      <trkpt lat="45.93466" lon="4.77011">
        <ele>170</ele>
        <time>2018-02-28T11:15:02Z</time>
      </trkpt>
      <trkpt lat="45.93465" lon="4.77003">
        <ele>170</ele>
        <time>2018-02-28T11:15:03Z</time>
      </trkpt>
      <trkpt lat="45.93464" lon="4.7699">
        <ele>170</ele>
        <time>2018-02-28T11:15:05Z</time>
      </trkpt>
      <trkpt lat="45.93463" lon="4.76984">
        <ele>170</ele>
        <time>2018-02-28T11:15:06Z</time>
      </trkpt>
      <trkpt lat="45.93462" lon="4.76977">
        <ele>170</ele>
        <time>2018-02-28T11:15:07Z</time>
      </trkpt>
      <trkpt lat="45.93462" lon="4.76971">
        <ele>170</ele>
        <time>2018-02-28T11:15:08Z</time>
      </trkpt>
      <trkpt lat="45.93459" lon="4.7696">
        <ele>170</ele>
        <time>2018-02-28T11:15:10Z</time>
      </trkpt>
      <trkpt lat="45.93458" lon="4.76954">
        <ele>170</ele>
        <time>2018-02-28T11:15:11Z</time>
      </trkpt>
      <trkpt lat="45.93457" lon="4.76947">
        <ele>170</ele>
        <time>2018-02-28T11:15:12Z</time>
      </trkpt>
      <trkpt lat="45.93455" lon="4.76941">
        <ele>170</ele>
        <time>2018-02-28T11:15:13Z</time>
      </trkpt>
      <trkpt lat="45.93453" lon="4.76929">
        <ele>170</ele>
        <time>2018-02-28T11:15:15Z</time>
      </trkpt>
      <trkpt lat="45.93452" lon="4.76922">
        <ele>170</ele>
        <time>2018-02-28T11:15:16Z</time>
      </trkpt>
      <trkpt lat="45.9345" lon="4.76915">
        <ele>170</ele>
        <time>2018-02-28T11:15:17Z</time>
      </trkpt>
      <trkpt lat="45.93449" lon="4.76909">
        <ele>170</ele>
        <time>2018-02-28T11:15:18Z</time>
      </trkpt>
      <trkpt lat="45.93447" lon="4.76902">
        <ele>170</ele>
        <time>2018-02-28T11:15:19Z</time>
      </trkpt>
      <trkpt lat="45.93445" lon="4.76895">
        <ele>170</ele>
        <time>2018-02-28T11:15:20Z</time>
      </trkpt>
      <trkpt lat="45.93443" lon="4.76888">
        <ele>170</ele>
        <time>2018-02-28T11:15:21Z</time>
      </trkpt>
      <trkpt lat="45.93441" lon="4.76881">
        <ele>170</ele>
        <time>2018-02-28T11:15:22Z</time>
      </trkpt>
      <trkpt lat="45.93438" lon="4.76875">
        <ele>171</ele>
        <time>2018-02-28T11:15:23Z</time>
      </trkpt>
      <trkpt lat="45.93436" lon="4.76869">
        <ele>171</ele>
        <time>2018-02-28T11:15:24Z</time>
      </trkpt>
      <trkpt lat="45.93433" lon="4.76862">
        <ele>171</ele>
        <time>2018-02-28T11:15:25Z</time>
      </trkpt>
      <trkpt lat="45.9343" lon="4.76855">
        <ele>171</ele>
        <time>2018-02-28T11:15:26Z</time>
      </trkpt>
      <trkpt lat="45.93427" lon="4.76849">
        <ele>171</ele>
        <time>2018-02-28T11:15:27Z</time>
      </trkpt>
      <trkpt lat="45.93425" lon="4.76842">
        <ele>171</ele>
        <time>2018-02-28T11:15:28Z</time>
      </trkpt>
      <trkpt lat="45.93422" lon="4.76836">
        <ele>172</ele>
        <time>2018-02-28T11:15:29Z</time>
      </trkpt>
      <trkpt lat="45.9342" lon="4.7683">
        <ele>172</ele>
        <time>2018-02-28T11:15:30Z</time>
      </trkpt>
      <trkpt lat="45.93417" lon="4.76825">
        <ele>172</ele>
        <time>2018-02-28T11:15:31Z</time>
      </trkpt>
      <trkpt lat="45.93413" lon="4.76819">
        <ele>172</ele>
        <time>2018-02-28T11:15:32Z</time>
      </trkpt>
      <trkpt lat="45.9341" lon="4.76813">
        <ele>172</ele>
        <time>2018-02-28T11:15:33Z</time>
      </trkpt>
      <trkpt lat="45.93406" lon="4.76809">
        <ele>172</ele>
        <time>2018-02-28T11:15:34Z</time>
      </trkpt>
      <trkpt lat="45.93401" lon="4.76805">
        <ele>172</ele>
        <time>2018-02-28T11:15:35Z</time>
      </trkpt>
      <trkpt lat="45.93396" lon="4.768">
        <ele>172</ele>
        <time>2018-02-28T11:15:36Z</time>
      </trkpt>
      <trkpt lat="45.93392" lon="4.76795">
        <ele>172</ele>
        <time>2018-02-28T11:15:37Z</time>
      </trkpt>
      <trkpt lat="45.93389" lon="4.76789">
        <ele>172</ele>
        <time>2018-02-28T11:15:38Z</time>
      </trkpt>
      <trkpt lat="45.93385" lon="4.76783">
        <ele>172</ele>
        <time>2018-02-28T11:15:39Z</time>
      </trkpt>
      <trkpt lat="45.93381" lon="4.76779">
        <ele>172</ele>
        <time>2018-02-28T11:15:40Z</time>
      </trkpt>
      <trkpt lat="45.93377" lon="4.76774">
        <ele>172</ele>
        <time>2018-02-28T11:15:41Z</time>
      </trkpt>
      <trkpt lat="45.93373" lon="4.76769">
        <ele>172</ele>
        <time>2018-02-28T11:15:42Z</time>
      </trkpt>
      <trkpt lat="45.93368" lon="4.76764">
        <ele>172</ele>
        <time>2018-02-28T11:15:43Z</time>
      </trkpt>
      <trkpt lat="45.93364" lon="4.7676">
        <ele>172</ele>
        <time>2018-02-28T11:15:44Z</time>
      </trkpt>
      <trkpt lat="45.9336" lon="4.76756">
        <ele>172</ele>
        <time>2018-02-28T11:15:45Z</time>
      </trkpt>
      <trkpt lat="45.93355" lon="4.76752">
        <ele>172</ele>
        <time>2018-02-28T11:15:46Z</time>
      </trkpt>
      <trkpt lat="45.93351" lon="4.76748">
        <ele>172</ele>
        <time>2018-02-28T11:15:47Z</time>
      </trkpt>
      <trkpt lat="45.93347" lon="4.76744">
        <ele>172</ele>
        <time>2018-02-28T11:15:48Z</time>
      </trkpt>
      <trkpt lat="45.93343" lon="4.7674">
        <ele>172</ele>
        <time>2018-02-28T11:15:49Z</time>
      </trkpt>
      <trkpt lat="45.9334" lon="4.76735">
        <ele>172</ele>
        <time>2018-02-28T11:15:50Z</time>
      </trkpt>
      <trkpt lat="45.93337" lon="4.7673">
        <ele>172</ele>
        <time>2018-02-28T11:15:51Z</time>
      </trkpt>
      <trkpt lat="45.93333" lon="4.76726">
        <ele>172</ele>
        <time>2018-02-28T11:15:52Z</time>
      </trkpt>
      <trkpt lat="45.93328" lon="4.76722">
        <ele>172</ele>
        <time>2018-02-28T11:15:53Z</time>
      </trkpt>
      <trkpt lat="45.93325" lon="4.76717">
        <ele>172</ele>
        <time>2018-02-28T11:15:54Z</time>
      </trkpt>
      <trkpt lat="45.93321" lon="4.76713">
        <ele>172</ele>
        <time>2018-02-28T11:15:55Z</time>
      </trkpt>
      <trkpt lat="45.93316" lon="4.76709">
        <ele>172</ele>
        <time>2018-02-28T11:15:56Z</time>
      </trkpt>
      <trkpt lat="45.93312" lon="4.76704">
        <ele>172</ele>
        <time>2018-02-28T11:15:57Z</time>
      </trkpt>
      <trkpt lat="45.93308" lon="4.767">
        <ele>172</ele>
        <time>2018-02-28T11:15:58Z</time>
      </trkpt>
      <trkpt lat="45.93304" lon="4.76695">
        <ele>172</ele>
        <time>2018-02-28T11:15:59Z</time>
      </trkpt>
      <trkpt lat="45.933" lon="4.76691">
        <ele>172</ele>
        <time>2018-02-28T11:16:00Z</time>
      </trkpt>
      <trkpt lat="45.93295" lon="4.76687">
        <ele>172</ele>
        <time>2018-02-28T11:16:01Z</time>
      </trkpt>
      <trkpt lat="45.93292" lon="4.76684">
        <ele>172</ele>
        <time>2018-02-28T11:16:02Z</time>
      </trkpt>
      <trkpt lat="45.93287" lon="4.7668">
        <ele>172</ele>
        <time>2018-02-28T11:16:03Z</time>
      </trkpt>
      <trkpt lat="45.93282" lon="4.76676">
        <ele>172</ele>
        <time>2018-02-28T11:16:04Z</time>
      </trkpt>
      <trkpt lat="45.93278" lon="4.7667">
        <ele>172</ele>
        <time>2018-02-28T11:16:05Z</time>
      </trkpt>
      <trkpt lat="45.93275" lon="4.76665">
        <ele>171</ele>
        <time>2018-02-28T11:16:06Z</time>
      </trkpt>
      <trkpt lat="45.93271" lon="4.76661">
        <ele>171</ele>
        <time>2018-02-28T11:16:07Z</time>
      </trkpt>
      <trkpt lat="45.93266" lon="4.76657">
        <ele>171</ele>
        <time>2018-02-28T11:16:08Z</time>
      </trkpt>
      <trkpt lat="45.9326" lon="4.7665">
        <ele>171</ele>
        <time>2018-02-28T11:16:10Z</time>
      </trkpt>
      <trkpt lat="45.93256" lon="4.76645">
        <ele>170</ele>
        <time>2018-02-28T11:16:11Z</time>
      </trkpt>
      <trkpt lat="45.93249" lon="4.76638">
        <ele>171</ele>
        <time>2018-02-28T11:16:13Z</time>
      </trkpt>
      <trkpt lat="45.93245" lon="4.76635">
        <ele>171</ele>
        <time>2018-02-28T11:16:14Z</time>
      </trkpt>
      <trkpt lat="45.93241" lon="4.76632">
        <ele>170</ele>
        <time>2018-02-28T11:16:15Z</time>
      </trkpt>
      <trkpt lat="45.93237" lon="4.76628">
        <ele>170</ele>
        <time>2018-02-28T11:16:16Z</time>
      </trkpt>
      <trkpt lat="45.93232" lon="4.76624">
        <ele>170</ele>
        <time>2018-02-28T11:16:17Z</time>
      </trkpt>
      <trkpt lat="45.93228" lon="4.76619">
        <ele>170</ele>
        <time>2018-02-28T11:16:18Z</time>
      </trkpt>
      <trkpt lat="45.93224" lon="4.76615">
        <ele>170</ele>
        <time>2018-02-28T11:16:19Z</time>
      </trkpt>
      <trkpt lat="45.9322" lon="4.7661">
        <ele>170</ele>
        <time>2018-02-28T11:16:20Z</time>
      </trkpt>
      <trkpt lat="45.93215" lon="4.76607">
        <ele>170</ele>
        <time>2018-02-28T11:16:21Z</time>
      </trkpt>
      <trkpt lat="45.93211" lon="4.76603">
        <ele>170</ele>
        <time>2018-02-28T11:16:22Z</time>
      </trkpt>
      <trkpt lat="45.93207" lon="4.76599">
        <ele>170</ele>
        <time>2018-02-28T11:16:23Z</time>
      </trkpt>
      <trkpt lat="45.93203" lon="4.76596">
        <ele>170</ele>
        <time>2018-02-28T11:16:24Z</time>
      </trkpt>
      <trkpt lat="45.932" lon="4.7659">
        <ele>170</ele>
        <time>2018-02-28T11:16:25Z</time>
      </trkpt>
      <trkpt lat="45.93195" lon="4.76585">
        <ele>170</ele>
        <time>2018-02-28T11:16:26Z</time>
      </trkpt>
      <trkpt lat="45.93191" lon="4.7658">
        <ele>170</ele>
        <time>2018-02-28T11:16:27Z</time>
      </trkpt>
      <trkpt lat="45.93187" lon="4.76576">
        <ele>170</ele>
        <time>2018-02-28T11:16:28Z</time>
      </trkpt>
      <trkpt lat="45.93183" lon="4.76573">
        <ele>170</ele>
        <time>2018-02-28T11:16:29Z</time>
      </trkpt>
      <trkpt lat="45.93178" lon="4.76569">
        <ele>170</ele>
        <time>2018-02-28T11:16:30Z</time>
      </trkpt>
      <trkpt lat="45.93174" lon="4.76565">
        <ele>170</ele>
        <time>2018-02-28T11:16:31Z</time>
      </trkpt>
      <trkpt lat="45.9317" lon="4.76561">
        <ele>170</ele>
        <time>2018-02-28T11:16:32Z</time>
      </trkpt>
      <trkpt lat="45.93166" lon="4.76558">
        <ele>170</ele>
        <time>2018-02-28T11:16:33Z</time>
      </trkpt>
      <trkpt lat="45.93161" lon="4.76554">
        <ele>170</ele>
        <time>2018-02-28T11:16:34Z</time>
      </trkpt>
      <trkpt lat="45.93156" lon="4.76551">
        <ele>170</ele>
        <time>2018-02-28T11:16:35Z</time>
      </trkpt>
      <trkpt lat="45.93151" lon="4.76547">
        <ele>170</ele>
        <time>2018-02-28T11:16:36Z</time>
      </trkpt>
      <trkpt lat="45.93145" lon="4.76539">
        <ele>170</ele>
        <time>2018-02-28T11:16:38Z</time>
      </trkpt>
      <trkpt lat="45.93142" lon="4.76533">
        <ele>170</ele>
        <time>2018-02-28T11:16:39Z</time>
      </trkpt>
      <trkpt lat="45.93138" lon="4.76529">
        <ele>170</ele>
        <time>2018-02-28T11:16:40Z</time>
      </trkpt>
      <trkpt lat="45.93134" lon="4.76525">
        <ele>170</ele>
        <time>2018-02-28T11:16:41Z</time>
      </trkpt>
      <trkpt lat="45.93129" lon="4.76523">
        <ele>170</ele>
        <time>2018-02-28T11:16:42Z</time>
      </trkpt>
      <trkpt lat="45.93122" lon="4.76517">
        <ele>170</ele>
        <time>2018-02-28T11:16:43Z</time>
      </trkpt>
      <trkpt lat="45.93117" lon="4.76512">
        <ele>170</ele>
        <time>2018-02-28T11:16:44Z</time>
      </trkpt>
      <trkpt lat="45.93113" lon="4.76509">
        <ele>170</ele>
        <time>2018-02-28T11:16:45Z</time>
      </trkpt>
      <trkpt lat="45.93108" lon="4.76502">
        <ele>170</ele>
        <time>2018-02-28T11:16:47Z</time>
      </trkpt>
      <trkpt lat="45.93104" lon="4.76499">
        <ele>169</ele>
        <time>2018-02-28T11:16:48Z</time>
      </trkpt>
      <trkpt lat="45.93097" lon="4.76495">
        <ele>170</ele>
        <time>2018-02-28T11:16:49Z</time>
      </trkpt>
      <trkpt lat="45.93093" lon="4.76492">
        <ele>170</ele>
        <time>2018-02-28T11:16:50Z</time>
      </trkpt>
      <trkpt lat="45.93088" lon="4.76488">
        <ele>170</ele>
        <time>2018-02-28T11:16:51Z</time>
      </trkpt>
      <trkpt lat="45.93085" lon="4.76484">
        <ele>170</ele>
        <time>2018-02-28T11:16:52Z</time>
      </trkpt>
      <trkpt lat="45.93078" lon="4.76478">
        <ele>169</ele>
        <time>2018-02-28T11:16:54Z</time>
      </trkpt>
      <trkpt lat="45.93073" lon="4.76473">
        <ele>169</ele>
        <time>2018-02-28T11:16:55Z</time>
      </trkpt>
      <trkpt lat="45.93069" lon="4.76469">
        <ele>169</ele>
        <time>2018-02-28T11:16:56Z</time>
      </trkpt>
      <trkpt lat="45.93065" lon="4.76464">
        <ele>169</ele>
        <time>2018-02-28T11:16:57Z</time>
      </trkpt>
      <trkpt lat="45.93062" lon="4.7646">
        <ele>169</ele>
        <time>2018-02-28T11:16:58Z</time>
      </trkpt>
      <trkpt lat="45.93058" lon="4.76456">
        <ele>169</ele>
        <time>2018-02-28T11:16:59Z</time>
      </trkpt>
      <trkpt lat="45.93054" lon="4.76453">
        <ele>169</ele>
        <time>2018-02-28T11:17:00Z</time>
      </trkpt>
      <trkpt lat="45.9305" lon="4.7645">
        <ele>169</ele>
        <time>2018-02-28T11:17:01Z</time>
      </trkpt>
      <trkpt lat="45.93042" lon="4.76444">
        <ele>169</ele>
        <time>2018-02-28T11:17:03Z</time>
      </trkpt>
      <trkpt lat="45.93039" lon="4.7644">
        <ele>169</ele>
        <time>2018-02-28T11:17:04Z</time>
      </trkpt>
      <trkpt lat="45.93034" lon="4.76436">
        <ele>169</ele>
        <time>2018-02-28T11:17:05Z</time>
      </trkpt>
      <trkpt lat="45.9303" lon="4.76431">
        <ele>169</ele>
        <time>2018-02-28T11:17:06Z</time>
      </trkpt>
      <trkpt lat="45.93026" lon="4.76427">
        <ele>169</ele>
        <time>2018-02-28T11:17:07Z</time>
      </trkpt>
      <trkpt lat="45.93022" lon="4.76423">
        <ele>169</ele>
        <time>2018-02-28T11:17:08Z</time>
      </trkpt>
      <trkpt lat="45.93018" lon="4.7642">
        <ele>169</ele>
        <time>2018-02-28T11:17:09Z</time>
      </trkpt>
      <trkpt lat="45.93013" lon="4.76416">
        <ele>169</ele>
        <time>2018-02-28T11:17:10Z</time>
      </trkpt>
      <trkpt lat="45.93008" lon="4.76411">
        <ele>169</ele>
        <time>2018-02-28T11:17:11Z</time>
      </trkpt>
      <trkpt lat="45.93005" lon="4.76404">
        <ele>169</ele>
        <time>2018-02-28T11:17:12Z</time>
      </trkpt>
      <trkpt lat="45.93" lon="4.76401">
        <ele>169</ele>
        <time>2018-02-28T11:17:13Z</time>
      </trkpt>
      <trkpt lat="45.92996" lon="4.76398">
        <ele>169</ele>
        <time>2018-02-28T11:17:14Z</time>
      </trkpt>
      <trkpt lat="45.92992" lon="4.76395">
        <ele>169</ele>
        <time>2018-02-28T11:17:15Z</time>
      </trkpt>
      <trkpt lat="45.92989" lon="4.7639">
        <ele>169</ele>
        <time>2018-02-28T11:17:16Z</time>
      </trkpt>
      <trkpt lat="45.92982" lon="4.76382">
        <ele>169</ele>
        <time>2018-02-28T11:17:18Z</time>
      </trkpt>
      <trkpt lat="45.92979" lon="4.76379">
        <ele>169</ele>
        <time>2018-02-28T11:17:19Z</time>
      </trkpt>
      <trkpt lat="45.92976" lon="4.76374">
        <ele>169</ele>
        <time>2018-02-28T11:17:20Z</time>
      </trkpt>
      <trkpt lat="45.92971" lon="4.76371">
        <ele>169</ele>
        <time>2018-02-28T11:17:21Z</time>
      </trkpt>
      <trkpt lat="45.92967" lon="4.76366">
        <ele>169</ele>
        <time>2018-02-28T11:17:22Z</time>
      </trkpt>
      <trkpt lat="45.92963" lon="4.76363">
        <ele>169</ele>
        <time>2018-02-28T11:17:23Z</time>
      </trkpt>
      <trkpt lat="45.92959" lon="4.76361">
        <ele>169</ele>
        <time>2018-02-28T11:17:24Z</time>
      </trkpt>
      <trkpt lat="45.92956" lon="4.76354">
        <ele>169</ele>
        <time>2018-02-28T11:17:25Z</time>
      </trkpt>
      <trkpt lat="45.92952" lon="4.76351">
        <ele>169</ele>
        <time>2018-02-28T11:17:26Z</time>
      </trkpt>
      <trkpt lat="45.92948" lon="4.76346">
        <ele>169</ele>
        <time>2018-02-28T11:17:27Z</time>
      </trkpt>
      <trkpt lat="45.92944" lon="4.76341">
        <ele>169</ele>
        <time>2018-02-28T11:17:28Z</time>
      </trkpt>
      <trkpt lat="45.9294" lon="4.76337">
        <ele>169</ele>
        <time>2018-02-28T11:17:29Z</time>
      </trkpt>
      <trkpt lat="45.92936" lon="4.76332">
        <ele>169</ele>
        <time>2018-02-28T11:17:30Z</time>
      </trkpt>
      <trkpt lat="45.92932" lon="4.76327">
        <ele>169</ele>
        <time>2018-02-28T11:17:31Z</time>
      </trkpt>
      <trkpt lat="45.92927" lon="4.76324">
        <ele>169</ele>
        <time>2018-02-28T11:17:32Z</time>
      </trkpt>
      <trkpt lat="45.92922" lon="4.7632">
        <ele>169</ele>
        <time>2018-02-28T11:17:33Z</time>
      </trkpt>
      <trkpt lat="45.92918" lon="4.76315">
        <ele>169</ele>
        <time>2018-02-28T11:17:34Z</time>
      </trkpt>
      <trkpt lat="45.92913" lon="4.76311">
        <ele>169</ele>
        <time>2018-02-28T11:17:35Z</time>
      </trkpt>
      <trkpt lat="45.92909" lon="4.76308">
        <ele>169</ele>
        <time>2018-02-28T11:17:36Z</time>
      </trkpt>
      <trkpt lat="45.92905" lon="4.76305">
        <ele>169</ele>
        <time>2018-02-28T11:17:37Z</time>
      </trkpt>
      <trkpt lat="45.92898" lon="4.76298">
        <ele>169</ele>
        <time>2018-02-28T11:17:39Z</time>
      </trkpt>
      <trkpt lat="45.92893" lon="4.76293">
        <ele>169</ele>
        <time>2018-02-28T11:17:40Z</time>
      </trkpt>
      <trkpt lat="45.92888" lon="4.76289">
        <ele>169</ele>
        <time>2018-02-28T11:17:41Z</time>
      </trkpt>
      <trkpt lat="45.92884" lon="4.76285">
        <ele>169</ele>
        <time>2018-02-28T11:17:42Z</time>
      </trkpt>
      <trkpt lat="45.92879" lon="4.7628">
        <ele>169</ele>
        <time>2018-02-28T11:17:43Z</time>
      </trkpt>
      <trkpt lat="45.92875" lon="4.76275">
        <ele>169</ele>
        <time>2018-02-28T11:17:44Z</time>
      </trkpt>
      <trkpt lat="45.92871" lon="4.76271">
        <ele>169</ele>
        <time>2018-02-28T11:17:45Z</time>
      </trkpt>
      <trkpt lat="45.92867" lon="4.76267">
        <ele>169</ele>
        <time>2018-02-28T11:17:46Z</time>
      </trkpt>
      <trkpt lat="45.92863" lon="4.76263">
        <ele>169</ele>
        <time>2018-02-28T11:17:47Z</time>
      </trkpt>
      <trkpt lat="45.92858" lon="4.76259">
        <ele>169</ele>
        <time>2018-02-28T11:17:48Z</time>
      </trkpt>
      <trkpt lat="45.92854" lon="4.76255">
        <ele>169</ele>
        <time>2018-02-28T11:17:49Z</time>
      </trkpt>
      <trkpt lat="45.92849" lon="4.7625">
        <ele>169</ele>
        <time>2018-02-28T11:17:50Z</time>
      </trkpt>
      <trkpt lat="45.92845" lon="4.76246">
        <ele>169</ele>
        <time>2018-02-28T11:17:51Z</time>
      </trkpt>
      <trkpt lat="45.92841" lon="4.76242">
        <ele>169</ele>
        <time>2018-02-28T11:17:52Z</time>
      </trkpt>
      <trkpt lat="45.92837" lon="4.76239">
        <ele>169</ele>
        <time>2018-02-28T11:17:53Z</time>
      </trkpt>
      <trkpt lat="45.92833" lon="4.76235">
        <ele>168</ele>
        <time>2018-02-28T11:17:54Z</time>
      </trkpt>
      <trkpt lat="45.92828" lon="4.76232">
        <ele>168</ele>
        <time>2018-02-28T11:17:55Z</time>
      </trkpt>
      <trkpt lat="45.92824" lon="4.76227">
        <ele>168</ele>
        <time>2018-02-28T11:17:56Z</time>
      </trkpt>
      <trkpt lat="45.9282" lon="4.76224">
        <ele>168</ele>
        <time>2018-02-28T11:17:57Z</time>
      </trkpt>
      <trkpt lat="45.92816" lon="4.7622">
        <ele>168</ele>
        <time>2018-02-28T11:17:58Z</time>
      </trkpt>
      <trkpt lat="45.92812" lon="4.76216">
        <ele>168</ele>
        <time>2018-02-28T11:17:59Z</time>
      </trkpt>
      <trkpt lat="45.92808" lon="4.76212">
        <ele>168</ele>
        <time>2018-02-28T11:18:00Z</time>
      </trkpt>
      <trkpt lat="45.92804" lon="4.76208">
        <ele>168</ele>
        <time>2018-02-28T11:18:01Z</time>
      </trkpt>
      <trkpt lat="45.928" lon="4.76204">
        <ele>168</ele>
        <time>2018-02-28T11:18:02Z</time>
      </trkpt>
      <trkpt lat="45.92796" lon="4.76201">
        <ele>168</ele>
        <time>2018-02-28T11:18:03Z</time>
      </trkpt>
      <trkpt lat="45.92791" lon="4.76197">
        <ele>168</ele>
        <time>2018-02-28T11:18:04Z</time>
      </trkpt>
      <trkpt lat="45.92788" lon="4.76192">
        <ele>168</ele>
        <time>2018-02-28T11:18:05Z</time>
      </trkpt>
      <trkpt lat="45.92783" lon="4.76189">
        <ele>168</ele>
        <time>2018-02-28T11:18:06Z</time>
      </trkpt>
      <trkpt lat="45.92779" lon="4.76185">
        <ele>168</ele>
        <time>2018-02-28T11:18:07Z</time>
      </trkpt>
      <trkpt lat="45.92775" lon="4.76182">
        <ele>167</ele>
        <time>2018-02-28T11:18:08Z</time>
      </trkpt>
      <trkpt lat="45.9277" lon="4.76178">
        <ele>167</ele>
        <time>2018-02-28T11:18:09Z</time>
      </trkpt>
      <trkpt lat="45.92767" lon="4.76173">
        <ele>167</ele>
        <time>2018-02-28T11:18:10Z</time>
      </trkpt>
      <trkpt lat="45.92759" lon="4.76167">
        <ele>167</ele>
        <time>2018-02-28T11:18:12Z</time>
      </trkpt>
      <trkpt lat="45.92754" lon="4.76164">
        <ele>167</ele>
        <time>2018-02-28T11:18:13Z</time>
      </trkpt>
      <trkpt lat="45.9275" lon="4.76159">
        <ele>167</ele>
        <time>2018-02-28T11:18:14Z</time>
      </trkpt>
      <trkpt lat="45.92746" lon="4.76156">
        <ele>168</ele>
        <time>2018-02-28T11:18:15Z</time>
      </trkpt>
      <trkpt lat="45.92741" lon="4.76152">
        <ele>168</ele>
        <time>2018-02-28T11:18:16Z</time>
      </trkpt>
      <trkpt lat="45.92737" lon="4.76148">
        <ele>168</ele>
        <time>2018-02-28T11:18:17Z</time>
      </trkpt>
      <trkpt lat="45.92733" lon="4.76145">
        <ele>168</ele>
        <time>2018-02-28T11:18:18Z</time>
      </trkpt>
      <trkpt lat="45.92728" lon="4.76142">
        <ele>168</ele>
        <time>2018-02-28T11:18:19Z</time>
      </trkpt>
      <trkpt lat="45.92724" lon="4.76138">
        <ele>168</ele>
        <time>2018-02-28T11:18:20Z</time>
      </trkpt>
      <trkpt lat="45.92719" lon="4.76135">
        <ele>168</ele>
        <time>2018-02-28T11:18:21Z</time>
      </trkpt>
      <trkpt lat="45.92711" lon="4.7613">
        <ele>168</ele>
        <time>2018-02-28T11:18:23Z</time>
      </trkpt>
      <trkpt lat="45.92706" lon="4.76126">
        <ele>169</ele>
        <time>2018-02-28T11:18:24Z</time>
      </trkpt>
      <trkpt lat="45.92699" lon="4.76119">
        <ele>169</ele>
        <time>2018-02-28T11:18:26Z</time>
      </trkpt>
      <trkpt lat="45.92696" lon="4.76116">
        <ele>169</ele>
        <time>2018-02-28T11:18:27Z</time>
      </trkpt>
      <trkpt lat="45.92692" lon="4.76113">
        <ele>169</ele>
        <time>2018-02-28T11:18:28Z</time>
      </trkpt>
      <trkpt lat="45.92687" lon="4.76109">
        <ele>169</ele>
        <time>2018-02-28T11:18:29Z</time>
      </trkpt>
      <trkpt lat="45.92681" lon="4.76102">
        <ele>169</ele>
        <time>2018-02-28T11:18:31Z</time>
      </trkpt>
      <trkpt lat="45.92677" lon="4.761">
        <ele>169</ele>
        <time>2018-02-28T11:18:32Z</time>
      </trkpt>
      <trkpt lat="45.9267" lon="4.76094">
        <ele>169</ele>
        <time>2018-02-28T11:18:34Z</time>
      </trkpt>
      <trkpt lat="45.92668" lon="4.76092">
        <ele>170</ele>
        <time>2018-02-28T11:18:35Z</time>
      </trkpt>
      <trkpt lat="45.92661" lon="4.76087">
        <ele>170</ele>
        <time>2018-02-28T11:18:37Z</time>
      </trkpt>
      <trkpt lat="45.92659" lon="4.76085">
        <ele>170</ele>
        <time>2018-02-28T11:18:38Z</time>
      </trkpt>
      <trkpt lat="45.92653" lon="4.7608">
        <ele>170</ele>
        <time>2018-02-28T11:18:41Z</time>
      </trkpt>
      <trkpt lat="45.9265" lon="4.76078">
        <ele>170</ele>
        <time>2018-02-28T11:18:42Z</time>
      </trkpt>
      <trkpt lat="45.92642" lon="4.76072">
        <ele>170</ele>
        <time>2018-02-28T11:18:45Z</time>
      </trkpt>
      <trkpt lat="45.9264" lon="4.7607">
        <ele>170</ele>
        <time>2018-02-28T11:18:46Z</time>
      </trkpt>
      <trkpt lat="45.92633" lon="4.76066">
        <ele>170</ele>
        <time>2018-02-28T11:18:48Z</time>
      </trkpt>
      <trkpt lat="45.9263" lon="4.76064">
        <ele>170</ele>
        <time>2018-02-28T11:18:49Z</time>
      </trkpt>
      <trkpt lat="45.92624" lon="4.7606">
        <ele>171</ele>
        <time>2018-02-28T11:18:51Z</time>
      </trkpt>
      <trkpt lat="45.92622" lon="4.76058">
        <ele>171</ele>
        <time>2018-02-28T11:18:52Z</time>
      </trkpt>
      <trkpt lat="45.92616" lon="4.76054">
        <ele>171</ele>
        <time>2018-02-28T11:18:54Z</time>
      </trkpt>
      <trkpt lat="45.92613" lon="4.76051">
        <ele>171</ele>
        <time>2018-02-28T11:18:55Z</time>
      </trkpt>
      <trkpt lat="45.92607" lon="4.76047">
        <ele>171</ele>
        <time>2018-02-28T11:18:57Z</time>
      </trkpt>
      <trkpt lat="45.92604" lon="4.76045">
        <ele>171</ele>
        <time>2018-02-28T11:18:58Z</time>
      </trkpt>
      <trkpt lat="45.92598" lon="4.76041">
        <ele>171</ele>
        <time>2018-02-28T11:19:00Z</time>
      </trkpt>
      <trkpt lat="45.92596" lon="4.76039">
        <ele>171</ele>
        <time>2018-02-28T11:19:01Z</time>
      </trkpt>
      <trkpt lat="45.9259" lon="4.76036">
        <ele>171</ele>
        <time>2018-02-28T11:19:03Z</time>
      </trkpt>
      <trkpt lat="45.92587" lon="4.76034">
        <ele>171</ele>
        <time>2018-02-28T11:19:04Z</time>
      </trkpt>
      <trkpt lat="45.92581" lon="4.7603">
        <ele>172</ele>
        <time>2018-02-28T11:19:06Z</time>
      </trkpt>
      <trkpt lat="45.92579" lon="4.76028">
        <ele>172</ele>
        <time>2018-02-28T11:19:07Z</time>
      </trkpt>
      <trkpt lat="45.92573" lon="4.76023">
        <ele>172</ele>
        <time>2018-02-28T11:19:09Z</time>
      </trkpt>
      <trkpt lat="45.9257" lon="4.76021">
        <ele>172</ele>
        <time>2018-02-28T11:19:10Z</time>
      </trkpt>
      <trkpt lat="45.92565" lon="4.76016">
        <ele>172</ele>
        <time>2018-02-28T11:19:12Z</time>
      </trkpt>
      <trkpt lat="45.92562" lon="4.76014">
        <ele>172</ele>
        <time>2018-02-28T11:19:13Z</time>
      </trkpt>
      <trkpt lat="45.92554" lon="4.76008">
        <ele>172</ele>
        <time>2018-02-28T11:19:16Z</time>
      </trkpt>
      <trkpt lat="45.92546" lon="4.76002">
        <ele>172</ele>
        <time>2018-02-28T11:19:17Z</time>
      </trkpt>
      <trkpt lat="45.92542" lon="4.76">
        <ele>172</ele>
        <time>2018-02-28T11:19:19Z</time>
      </trkpt>
      <trkpt lat="45.92536" lon="4.75997">
        <ele>172</ele>
        <time>2018-02-28T11:19:20Z</time>
      </trkpt>
      <trkpt lat="45.9253" lon="4.75993">
        <ele>172</ele>
        <time>2018-02-28T11:19:22Z</time>
      </trkpt>
      <trkpt lat="45.92526" lon="4.75991">
        <ele>172</ele>
        <time>2018-02-28T11:19:23Z</time>
      </trkpt>
      <trkpt lat="45.92519" lon="4.75985">
        <ele>172</ele>
        <time>2018-02-28T11:19:25Z</time>
      </trkpt>
      <trkpt lat="45.92515" lon="4.75982">
        <ele>172</ele>
        <time>2018-02-28T11:19:26Z</time>
      </trkpt>
      <trkpt lat="45.92509" lon="4.75978">
        <ele>172</ele>
        <time>2018-02-28T11:19:27Z</time>
      </trkpt>
      <trkpt lat="45.92505" lon="4.75974">
        <ele>172</ele>
        <time>2018-02-28T11:19:28Z</time>
      </trkpt>
      <trkpt lat="45.92501" lon="4.75971">
        <ele>172</ele>
        <time>2018-02-28T11:19:29Z</time>
      </trkpt>
      <trkpt lat="45.92496" lon="4.75967">
        <ele>172</ele>
        <time>2018-02-28T11:19:30Z</time>
      </trkpt>
      <trkpt lat="45.92491" lon="4.75964">
        <ele>172</ele>
        <time>2018-02-28T11:19:31Z</time>
      </trkpt>
      <trkpt lat="45.92487" lon="4.75961">
        <ele>172</ele>
        <time>2018-02-28T11:19:32Z</time>
      </trkpt>
      <trkpt lat="45.92483" lon="4.75959">
        <ele>172</ele>
        <time>2018-02-28T11:19:33Z</time>
      </trkpt>
      <trkpt lat="45.92479" lon="4.75956">
        <ele>172</ele>
        <time>2018-02-28T11:19:34Z</time>
      </trkpt>
      <trkpt lat="45.92474" lon="4.75953">
        <ele>172</ele>
        <time>2018-02-28T11:19:35Z</time>
      </trkpt>
      <trkpt lat="45.9247" lon="4.7595">
        <ele>172</ele>
        <time>2018-02-28T11:19:36Z</time>
      </trkpt>
      <trkpt lat="45.92464" lon="4.75946">
        <ele>172</ele>
        <time>2018-02-28T11:19:37Z</time>
      </trkpt>
      <trkpt lat="45.92459" lon="4.75943">
        <ele>172</ele>
        <time>2018-02-28T11:19:38Z</time>
      </trkpt>
      <trkpt lat="45.92455" lon="4.75941">
        <ele>172</ele>
        <time>2018-02-28T11:19:39Z</time>
      </trkpt>
      <trkpt lat="45.92449" lon="4.75937">
        <ele>172</ele>
        <time>2018-02-28T11:19:40Z</time>
      </trkpt>
      <trkpt lat="45.92444" lon="4.75934">
        <ele>172</ele>
        <time>2018-02-28T11:19:41Z</time>
      </trkpt>
      <trkpt lat="45.92439" lon="4.7593">
        <ele>172</ele>
        <time>2018-02-28T11:19:42Z</time>
      </trkpt>
      <trkpt lat="45.92433" lon="4.75927">
        <ele>172</ele>
        <time>2018-02-28T11:19:43Z</time>
      </trkpt>
      <trkpt lat="45.92428" lon="4.75924">
        <ele>172</ele>
        <time>2018-02-28T11:19:44Z</time>
      </trkpt>
      <trkpt lat="45.92422" lon="4.7592">
        <ele>172</ele>
        <time>2018-02-28T11:19:45Z</time>
      </trkpt>
      <trkpt lat="45.92417" lon="4.75917">
        <ele>172</ele>
        <time>2018-02-28T11:19:46Z</time>
      </trkpt>
      <trkpt lat="45.92411" lon="4.75912">
        <ele>172</ele>
        <time>2018-02-28T11:19:47Z</time>
      </trkpt>
      <trkpt lat="45.92406" lon="4.75908">
        <ele>172</ele>
        <time>2018-02-28T11:19:48Z</time>
      </trkpt>
      <trkpt lat="45.924" lon="4.75904">
        <ele>173</ele>
        <time>2018-02-28T11:19:49Z</time>
      </trkpt>
      <trkpt lat="45.92396" lon="4.759">
        <ele>173</ele>
        <time>2018-02-28T11:19:50Z</time>
      </trkpt>
      <trkpt lat="45.92391" lon="4.75896">
        <ele>173</ele>
        <time>2018-02-28T11:19:51Z</time>
      </trkpt>
      <trkpt lat="45.92386" lon="4.75893">
        <ele>173</ele>
        <time>2018-02-28T11:19:52Z</time>
      </trkpt>
      <trkpt lat="45.9238" lon="4.7589">
        <ele>173</ele>
        <time>2018-02-28T11:19:53Z</time>
      </trkpt>
      <trkpt lat="45.92375" lon="4.75887">
        <ele>173</ele>
        <time>2018-02-28T11:19:54Z</time>
      </trkpt>
      <trkpt lat="45.9237" lon="4.75884">
        <ele>173</ele>
        <time>2018-02-28T11:19:55Z</time>
      </trkpt>
      <trkpt lat="45.92366" lon="4.7588">
        <ele>173</ele>
        <time>2018-02-28T11:19:56Z</time>
      </trkpt>
      <trkpt lat="45.92361" lon="4.75877">
        <ele>173</ele>
        <time>2018-02-28T11:19:57Z</time>
      </trkpt>
      <trkpt lat="45.92357" lon="4.75874">
        <ele>173</ele>
        <time>2018-02-28T11:19:58Z</time>
      </trkpt>
      <trkpt lat="45.92352" lon="4.75871">
        <ele>173</ele>
        <time>2018-02-28T11:19:59Z</time>
      </trkpt>
      <trkpt lat="45.92347" lon="4.75868">
        <ele>173</ele>
        <time>2018-02-28T11:20:00Z</time>
      </trkpt>
      <trkpt lat="45.92342" lon="4.75866">
        <ele>173</ele>
        <time>2018-02-28T11:20:01Z</time>
      </trkpt>
      <trkpt lat="45.92338" lon="4.75862">
        <ele>173</ele>
        <time>2018-02-28T11:20:02Z</time>
      </trkpt>
      <trkpt lat="45.92334" lon="4.75859">
        <ele>173</ele>
        <time>2018-02-28T11:20:03Z</time>
      </trkpt>
      <trkpt lat="45.9233" lon="4.75856">
        <ele>174</ele>
        <time>2018-02-28T11:20:04Z</time>
      </trkpt>
      <trkpt lat="45.92325" lon="4.75854">
        <ele>174</ele>
        <time>2018-02-28T11:20:05Z</time>
      </trkpt>
      <trkpt lat="45.92319" lon="4.7585">
        <ele>174</ele>
        <time>2018-02-28T11:20:06Z</time>
      </trkpt>
      <trkpt lat="45.92311" lon="4.75844">
        <ele>174</ele>
        <time>2018-02-28T11:20:08Z</time>
      </trkpt>
      <trkpt lat="45.92307" lon="4.75842">
        <ele>173</ele>
        <time>2018-02-28T11:20:09Z</time>
      </trkpt>
      <trkpt lat="45.92302" lon="4.75839">
        <ele>173</ele>
        <time>2018-02-28T11:20:10Z</time>
      </trkpt>
      <trkpt lat="45.92297" lon="4.75836">
        <ele>173</ele>
        <time>2018-02-28T11:20:11Z</time>
      </trkpt>
      <trkpt lat="45.92293" lon="4.75834">
        <ele>173</ele>
        <time>2018-02-28T11:20:12Z</time>
      </trkpt>
      <trkpt lat="45.92288" lon="4.75831">
        <ele>174</ele>
        <time>2018-02-28T11:20:13Z</time>
      </trkpt>
      <trkpt lat="45.92283" lon="4.75828">
        <ele>174</ele>
        <time>2018-02-28T11:20:14Z</time>
      </trkpt>
      <trkpt lat="45.92279" lon="4.75824">
        <ele>174</ele>
        <time>2018-02-28T11:20:15Z</time>
      </trkpt>
      <trkpt lat="45.92275" lon="4.7582">
        <ele>174</ele>
        <time>2018-02-28T11:20:16Z</time>
      </trkpt>
      <trkpt lat="45.92272" lon="4.75815">
        <ele>174</ele>
        <time>2018-02-28T11:20:17Z</time>
      </trkpt>
      <trkpt lat="45.92269" lon="4.7581">
        <ele>174</ele>
        <time>2018-02-28T11:20:18Z</time>
      </trkpt>
      <trkpt lat="45.92266" lon="4.75805">
        <ele>174</ele>
        <time>2018-02-28T11:20:19Z</time>
      </trkpt>
      <trkpt lat="45.92264" lon="4.75799">
        <ele>174</ele>
        <time>2018-02-28T11:20:20Z</time>
      </trkpt>
      <trkpt lat="45.92262" lon="4.75792">
        <ele>174</ele>
        <time>2018-02-28T11:20:21Z</time>
      </trkpt>
      <trkpt lat="45.92261" lon="4.75786">
        <ele>174</ele>
        <time>2018-02-28T11:20:22Z</time>
      </trkpt>
      <trkpt lat="45.9226" lon="4.7578">
        <ele>174</ele>
        <time>2018-02-28T11:20:23Z</time>
      </trkpt>
      <trkpt lat="45.92257" lon="4.75773">
        <ele>174</ele>
        <time>2018-02-28T11:20:24Z</time>
      </trkpt>
      <trkpt lat="45.92256" lon="4.75766">
        <ele>174</ele>
        <time>2018-02-28T11:20:25Z</time>
      </trkpt>
      <trkpt lat="45.92255" lon="4.75759">
        <ele>174</ele>
        <time>2018-02-28T11:20:26Z</time>
      </trkpt>
      <trkpt lat="45.92254" lon="4.75751">
        <ele>174</ele>
        <time>2018-02-28T11:20:27Z</time>
      </trkpt>
      <trkpt lat="45.92251" lon="4.75745">
        <ele>174</ele>
        <time>2018-02-28T11:20:28Z</time>
      </trkpt>
      <trkpt lat="45.92249" lon="4.75738">
        <ele>174</ele>
        <time>2018-02-28T11:20:29Z</time>
      </trkpt>
      <trkpt lat="45.92246" lon="4.75726">
        <ele>174</ele>
        <time>2018-02-28T11:20:31Z</time>
      </trkpt>
      <trkpt lat="45.92244" lon="4.75722">
        <ele>174</ele>
        <time>2018-02-28T11:20:32Z</time>
      </trkpt>
      <trkpt lat="45.92238" lon="4.75713">
        <ele>174</ele>
        <time>2018-02-28T11:20:34Z</time>
      </trkpt>
      <trkpt lat="45.92234" lon="4.75707">
        <ele>174</ele>
        <time>2018-02-28T11:20:35Z</time>
      </trkpt>
      <trkpt lat="45.92231" lon="4.75701">
        <ele>174</ele>
        <time>2018-02-28T11:20:36Z</time>
      </trkpt>
      <trkpt lat="45.92227" lon="4.75695">
        <ele>174</ele>
        <time>2018-02-28T11:20:37Z</time>
      </trkpt>
      <trkpt lat="45.92223" lon="4.75691">
        <ele>174</ele>
        <time>2018-02-28T11:20:38Z</time>
      </trkpt>
      <trkpt lat="45.92218" lon="4.75686">
        <ele>174</ele>
        <time>2018-02-28T11:20:39Z</time>
      </trkpt>
      <trkpt lat="45.92213" lon="4.7568">
        <ele>174</ele>
        <time>2018-02-28T11:20:40Z</time>
      </trkpt>
      <trkpt lat="45.92208" lon="4.75676">
        <ele>174</ele>
        <time>2018-02-28T11:20:41Z</time>
      </trkpt>
      <trkpt lat="45.92204" lon="4.75671">
        <ele>174</ele>
        <time>2018-02-28T11:20:42Z</time>
      </trkpt>
      <trkpt lat="45.92198" lon="4.75665">
        <ele>174</ele>
        <time>2018-02-28T11:20:43Z</time>
      </trkpt>
      <trkpt lat="45.92194" lon="4.75661">
        <ele>174</ele>
        <time>2018-02-28T11:20:44Z</time>
      </trkpt>
      <trkpt lat="45.92189" lon="4.75658">
        <ele>174</ele>
        <time>2018-02-28T11:20:45Z</time>
      </trkpt>
      <trkpt lat="45.92185" lon="4.75653">
        <ele>174</ele>
        <time>2018-02-28T11:20:46Z</time>
      </trkpt>
      <trkpt lat="45.9218" lon="4.75649">
        <ele>174</ele>
        <time>2018-02-28T11:20:47Z</time>
      </trkpt>
      <trkpt lat="45.92176" lon="4.75644">
        <ele>174</ele>
        <time>2018-02-28T11:20:48Z</time>
      </trkpt>
      <trkpt lat="45.92172" lon="4.75639">
        <ele>174</ele>
        <time>2018-02-28T11:20:49Z</time>
      </trkpt>
      <trkpt lat="45.92167" lon="4.75635">
        <ele>174</ele>
        <time>2018-02-28T11:20:50Z</time>
      </trkpt>
      <trkpt lat="45.92163" lon="4.75632">
        <ele>174</ele>
        <time>2018-02-28T11:20:51Z</time>
      </trkpt>
      <trkpt lat="45.92158" lon="4.75628">
        <ele>174</ele>
        <time>2018-02-28T11:20:52Z</time>
      </trkpt>
      <trkpt lat="45.92154" lon="4.75623">
        <ele>174</ele>
        <time>2018-02-28T11:20:53Z</time>
      </trkpt>
      <trkpt lat="45.9215" lon="4.75619">
        <ele>174</ele>
        <time>2018-02-28T11:20:54Z</time>
      </trkpt>
      <trkpt lat="45.92146" lon="4.75614">
        <ele>174</ele>
        <time>2018-02-28T11:20:55Z</time>
      </trkpt>
      <trkpt lat="45.92142" lon="4.75609">
        <ele>174</ele>
        <time>2018-02-28T11:20:56Z</time>
      </trkpt>
      <trkpt lat="45.92137" lon="4.75605">
        <ele>174</ele>
        <time>2018-02-28T11:20:57Z</time>
      </trkpt>
      <trkpt lat="45.92133" lon="4.75601">
        <ele>174</ele>
        <time>2018-02-28T11:20:58Z</time>
      </trkpt>
      <trkpt lat="45.9213" lon="4.75597">
        <ele>174</ele>
        <time>2018-02-28T11:20:59Z</time>
      </trkpt>
      <trkpt lat="45.92124" lon="4.7559">
        <ele>174</ele>
        <time>2018-02-28T11:21:01Z</time>
      </trkpt>
      <trkpt lat="45.92122" lon="4.75585">
        <ele>174</ele>
        <time>2018-02-28T11:21:02Z</time>
      </trkpt>
      <trkpt lat="45.92118" lon="4.75575">
        <ele>174</ele>
        <time>2018-02-28T11:21:05Z</time>
      </trkpt>
      <trkpt lat="45.92116" lon="4.75567">
        <ele>174</ele>
        <time>2018-02-28T11:21:06Z</time>
      </trkpt>
      <trkpt lat="45.9212" lon="4.75558">
        <ele>174</ele>
        <time>2018-02-28T11:21:08Z</time>
      </trkpt>
      <trkpt lat="45.92123" lon="4.75553">
        <ele>174</ele>
        <time>2018-02-28T11:21:09Z</time>
      </trkpt>
      <trkpt lat="45.92129" lon="4.75543">
        <ele>174</ele>
        <time>2018-02-28T11:21:11Z</time>
      </trkpt>
      <trkpt lat="45.92132" lon="4.75539">
        <ele>174</ele>
        <time>2018-02-28T11:21:12Z</time>
      </trkpt>
      <trkpt lat="45.92136" lon="4.75532">
        <ele>174</ele>
        <time>2018-02-28T11:21:14Z</time>
      </trkpt>
      <trkpt lat="45.92138" lon="4.75528">
        <ele>174</ele>
        <time>2018-02-28T11:21:15Z</time>
      </trkpt>
      <trkpt lat="45.92139" lon="4.75521">
        <ele>174</ele>
        <time>2018-02-28T11:21:16Z</time>
      </trkpt>
      <trkpt lat="45.92141" lon="4.75516">
        <ele>174</ele>
        <time>2018-02-28T11:21:17Z</time>
      </trkpt>
      <trkpt lat="45.92144" lon="4.7551">
        <ele>174</ele>
        <time>2018-02-28T11:21:18Z</time>
      </trkpt>
      <trkpt lat="45.92146" lon="4.75504">
        <ele>175</ele>
        <time>2018-02-28T11:21:19Z</time>
      </trkpt>
      <trkpt lat="45.92149" lon="4.75496">
        <ele>175</ele>
        <time>2018-02-28T11:21:20Z</time>
      </trkpt>
      <trkpt lat="45.92152" lon="4.75491">
        <ele>175</ele>
        <time>2018-02-28T11:21:21Z</time>
      </trkpt>
      <trkpt lat="45.92154" lon="4.75484">
        <ele>176</ele>
        <time>2018-02-28T11:21:22Z</time>
      </trkpt>
      <trkpt lat="45.92157" lon="4.75478">
        <ele>176</ele>
        <time>2018-02-28T11:21:23Z</time>
      </trkpt>
      <trkpt lat="45.92161" lon="4.75469">
        <ele>176</ele>
        <time>2018-02-28T11:21:24Z</time>
      </trkpt>
      <trkpt lat="45.92164" lon="4.75462">
        <ele>176</ele>
        <time>2018-02-28T11:21:25Z</time>
      </trkpt>
      <trkpt lat="45.92166" lon="4.75456">
        <ele>176</ele>
        <time>2018-02-28T11:21:26Z</time>
      </trkpt>
      <trkpt lat="45.92169" lon="4.75449">
        <ele>176</ele>
        <time>2018-02-28T11:21:27Z</time>
      </trkpt>
      <trkpt lat="45.9217" lon="4.75445">
        <ele>176</ele>
        <time>2018-02-28T11:21:28Z</time>
      </trkpt>
      <trkpt lat="45.92174" lon="4.75437">
        <ele>177</ele>
        <time>2018-02-28T11:21:29Z</time>
      </trkpt>
      <trkpt lat="45.92176" lon="4.75431">
        <ele>177</ele>
        <time>2018-02-28T11:21:30Z</time>
      </trkpt>
      <trkpt lat="45.92179" lon="4.75425">
        <ele>177</ele>
        <time>2018-02-28T11:21:31Z</time>
      </trkpt>
      <trkpt lat="45.92181" lon="4.75419">
        <ele>177</ele>
        <time>2018-02-28T11:21:32Z</time>
      </trkpt>
      <trkpt lat="45.92183" lon="4.75413">
        <ele>177</ele>
        <time>2018-02-28T11:21:33Z</time>
      </trkpt>
      <trkpt lat="45.92187" lon="4.75403">
        <ele>177</ele>
        <time>2018-02-28T11:21:35Z</time>
      </trkpt>
      <trkpt lat="45.9219" lon="4.75397">
        <ele>177</ele>
        <time>2018-02-28T11:21:36Z</time>
      </trkpt>
      <trkpt lat="45.92194" lon="4.75387">
        <ele>177</ele>
        <time>2018-02-28T11:21:38Z</time>
      </trkpt>
      <trkpt lat="45.92196" lon="4.75382">
        <ele>177</ele>
        <time>2018-02-28T11:21:39Z</time>
      </trkpt>
      <trkpt lat="45.922" lon="4.75371">
        <ele>177</ele>
        <time>2018-02-28T11:21:41Z</time>
      </trkpt>
      <trkpt lat="45.92202" lon="4.75366">
        <ele>177</ele>
        <time>2018-02-28T11:21:42Z</time>
      </trkpt>
      <trkpt lat="45.92203" lon="4.7536">
        <ele>177</ele>
        <time>2018-02-28T11:21:43Z</time>
      </trkpt>
      <trkpt lat="45.92206" lon="4.75354">
        <ele>177</ele>
        <time>2018-02-28T11:21:44Z</time>
      </trkpt>
      <trkpt lat="45.92207" lon="4.75342">
        <ele>177</ele>
        <time>2018-02-28T11:21:46Z</time>
      </trkpt>
      <trkpt lat="45.92208" lon="4.75332">
        <ele>176</ele>
        <time>2018-02-28T11:21:47Z</time>
      </trkpt>
      <trkpt lat="45.92209" lon="4.75326">
        <ele>176</ele>
        <time>2018-02-28T11:21:48Z</time>
      </trkpt>
      <trkpt lat="45.92211" lon="4.75318">
        <ele>176</ele>
        <time>2018-02-28T11:21:49Z</time>
      </trkpt>
      <trkpt lat="45.92212" lon="4.75311">
        <ele>176</ele>
        <time>2018-02-28T11:21:50Z</time>
      </trkpt>
      <trkpt lat="45.92213" lon="4.75302">
        <ele>176</ele>
        <time>2018-02-28T11:21:51Z</time>
      </trkpt>
      <trkpt lat="45.92213" lon="4.75294">
        <ele>176</ele>
        <time>2018-02-28T11:21:52Z</time>
      </trkpt>
      <trkpt lat="45.92213" lon="4.75286">
        <ele>176</ele>
        <time>2018-02-28T11:21:53Z</time>
      </trkpt>
      <trkpt lat="45.92213" lon="4.75278">
        <ele>176</ele>
        <time>2018-02-28T11:21:54Z</time>
      </trkpt>
      <trkpt lat="45.92214" lon="4.7527">
        <ele>176</ele>
        <time>2018-02-28T11:21:55Z</time>
      </trkpt>
      <trkpt lat="45.92214" lon="4.75263">
        <ele>176</ele>
        <time>2018-02-28T11:21:56Z</time>
      </trkpt>
      <trkpt lat="45.92215" lon="4.75255">
        <ele>175</ele>
        <time>2018-02-28T11:21:57Z</time>
      </trkpt>
      <trkpt lat="45.92215" lon="4.75247">
        <ele>175</ele>
        <time>2018-02-28T11:21:58Z</time>
      </trkpt>
      <trkpt lat="45.92216" lon="4.75239">
        <ele>175</ele>
        <time>2018-02-28T11:21:59Z</time>
      </trkpt>
      <trkpt lat="45.92216" lon="4.75231">
        <ele>175</ele>
        <time>2018-02-28T11:22:00Z</time>
      </trkpt>
      <trkpt lat="45.92217" lon="4.75222">
        <ele>175</ele>
        <time>2018-02-28T11:22:01Z</time>
      </trkpt>
      <trkpt lat="45.92218" lon="4.75214">
        <ele>175</ele>
        <time>2018-02-28T11:22:02Z</time>
      </trkpt>
      <trkpt lat="45.92218" lon="4.75206">
        <ele>175</ele>
        <time>2018-02-28T11:22:03Z</time>
      </trkpt>
      <trkpt lat="45.92221" lon="4.75197">
        <ele>175</ele>
        <time>2018-02-28T11:22:04Z</time>
      </trkpt>
      <trkpt lat="45.92223" lon="4.75189">
        <ele>175</ele>
        <time>2018-02-28T11:22:05Z</time>
      </trkpt>
      <trkpt lat="45.92226" lon="4.75181">
        <ele>175</ele>
        <time>2018-02-28T11:22:06Z</time>
      </trkpt>
      <trkpt lat="45.92228" lon="4.75173">
        <ele>175</ele>
        <time>2018-02-28T11:22:07Z</time>
      </trkpt>
      <trkpt lat="45.92231" lon="4.75165">
        <ele>174</ele>
        <time>2018-02-28T11:22:08Z</time>
      </trkpt>
      <trkpt lat="45.92235" lon="4.75155">
        <ele>174</ele>
        <time>2018-02-28T11:22:09Z</time>
      </trkpt>
      <trkpt lat="45.92239" lon="4.75147">
        <ele>174</ele>
        <time>2018-02-28T11:22:10Z</time>
      </trkpt>
      <trkpt lat="45.92243" lon="4.75141">
        <ele>174</ele>
        <time>2018-02-28T11:22:11Z</time>
      </trkpt>
      <trkpt lat="45.92248" lon="4.75133">
        <ele>174</ele>
        <time>2018-02-28T11:22:12Z</time>
      </trkpt>
      <trkpt lat="45.92252" lon="4.75127">
        <ele>174</ele>
        <time>2018-02-28T11:22:13Z</time>
      </trkpt>
      <trkpt lat="45.92255" lon="4.75121">
        <ele>174</ele>
        <time>2018-02-28T11:22:14Z</time>
      </trkpt>
      <trkpt lat="45.92258" lon="4.75117">
        <ele>174</ele>
        <time>2018-02-28T11:22:15Z</time>
      </trkpt>
      <trkpt lat="45.92261" lon="4.75113">
        <ele>174</ele>
        <time>2018-02-28T11:22:16Z</time>
      </trkpt>
      <trkpt lat="45.92266" lon="4.75108">
        <ele>174</ele>
        <time>2018-02-28T11:22:17Z</time>
      </trkpt>
      <trkpt lat="45.9227" lon="4.75104">
        <ele>173</ele>
        <time>2018-02-28T11:22:18Z</time>
      </trkpt>
      <trkpt lat="45.92275" lon="4.751">
        <ele>173</ele>
        <time>2018-02-28T11:22:19Z</time>
      </trkpt>
      <trkpt lat="45.92279" lon="4.75097">
        <ele>173</ele>
        <time>2018-02-28T11:22:20Z</time>
      </trkpt>
      <trkpt lat="45.92283" lon="4.75092">
        <ele>173</ele>
        <time>2018-02-28T11:22:21Z</time>
      </trkpt>
      <trkpt lat="45.92287" lon="4.75089">
        <ele>173</ele>
        <time>2018-02-28T11:22:22Z</time>
      </trkpt>
      <trkpt lat="45.92293" lon="4.75085">
        <ele>173</ele>
        <time>2018-02-28T11:22:23Z</time>
      </trkpt>
      <trkpt lat="45.92296" lon="4.75079">
        <ele>172</ele>
        <time>2018-02-28T11:22:24Z</time>
      </trkpt>
      <trkpt lat="45.923" lon="4.75075">
        <ele>172</ele>
        <time>2018-02-28T11:22:25Z</time>
      </trkpt>
      <trkpt lat="45.92307" lon="4.75066">
        <ele>172</ele>
        <time>2018-02-28T11:22:27Z</time>
      </trkpt>
      <trkpt lat="45.92311" lon="4.7506">
        <ele>172</ele>
        <time>2018-02-28T11:22:28Z</time>
      </trkpt>
      <trkpt lat="45.92314" lon="4.75054">
        <ele>172</ele>
        <time>2018-02-28T11:22:29Z</time>
      </trkpt>
      <trkpt lat="45.92319" lon="4.75046">
        <ele>172</ele>
        <time>2018-02-28T11:22:30Z</time>
      </trkpt>
      <trkpt lat="45.92323" lon="4.7504">
        <ele>171</ele>
        <time>2018-02-28T11:22:31Z</time>
      </trkpt>
      <trkpt lat="45.92326" lon="4.75034">
        <ele>171</ele>
        <time>2018-02-28T11:22:32Z</time>
      </trkpt>
      <trkpt lat="45.9233" lon="4.75026">
        <ele>171</ele>
        <time>2018-02-28T11:22:33Z</time>
      </trkpt>
      <trkpt lat="45.92333" lon="4.75018">
        <ele>171</ele>
        <time>2018-02-28T11:22:34Z</time>
      </trkpt>
      <trkpt lat="45.92336" lon="4.75009">
        <ele>170</ele>
        <time>2018-02-28T11:22:35Z</time>
      </trkpt>
      <trkpt lat="45.92339" lon="4.75003">
        <ele>170</ele>
        <time>2018-02-28T11:22:36Z</time>
      </trkpt>
      <trkpt lat="45.92342" lon="4.74995">
        <ele>170</ele>
        <time>2018-02-28T11:22:37Z</time>
      </trkpt>
      <trkpt lat="45.92345" lon="4.7499">
        <ele>170</ele>
        <time>2018-02-28T11:22:38Z</time>
      </trkpt>
      <trkpt lat="45.92348" lon="4.74983">
        <ele>170</ele>
        <time>2018-02-28T11:22:39Z</time>
      </trkpt>
      <trkpt lat="45.92352" lon="4.74976">
        <ele>170</ele>
        <time>2018-02-28T11:22:40Z</time>
      </trkpt>
      <trkpt lat="45.92355" lon="4.7497">
        <ele>170</ele>
        <time>2018-02-28T11:22:41Z</time>
      </trkpt>
      <trkpt lat="45.92357" lon="4.74964">
        <ele>170</ele>
        <time>2018-02-28T11:22:42Z</time>
      </trkpt>
      <trkpt lat="45.9236" lon="4.74956">
        <ele>170</ele>
        <time>2018-02-28T11:22:43Z</time>
      </trkpt>
      <trkpt lat="45.92363" lon="4.74949">
        <ele>170</ele>
        <time>2018-02-28T11:22:44Z</time>
      </trkpt>
      <trkpt lat="45.92364" lon="4.74944">
        <ele>170</ele>
        <time>2018-02-28T11:22:45Z</time>
      </trkpt>
      <trkpt lat="45.92367" lon="4.74937">
        <ele>170</ele>
        <time>2018-02-28T11:22:46Z</time>
      </trkpt>
      <trkpt lat="45.9237" lon="4.74931">
        <ele>170</ele>
        <time>2018-02-28T11:22:47Z</time>
      </trkpt>
      <trkpt lat="45.92372" lon="4.74924">
        <ele>170</ele>
        <time>2018-02-28T11:22:48Z</time>
      </trkpt>
      <trkpt lat="45.92374" lon="4.74916">
        <ele>171</ele>
        <time>2018-02-28T11:22:50Z</time>
      </trkpt>
      <trkpt lat="45.92377" lon="4.74909">
        <ele>171</ele>
        <time>2018-02-28T11:22:51Z</time>
      </trkpt>
      <trkpt lat="45.92379" lon="4.74903">
        <ele>171</ele>
        <time>2018-02-28T11:22:52Z</time>
      </trkpt>
      <trkpt lat="45.92382" lon="4.74896">
        <ele>171</ele>
        <time>2018-02-28T11:22:53Z</time>
      </trkpt>
      <trkpt lat="45.92386" lon="4.74889">
        <ele>171</ele>
        <time>2018-02-28T11:22:54Z</time>
      </trkpt>
      <trkpt lat="45.92388" lon="4.74882">
        <ele>171</ele>
        <time>2018-02-28T11:22:55Z</time>
      </trkpt>
      <trkpt lat="45.92392" lon="4.74875">
        <ele>171</ele>
        <time>2018-02-28T11:22:56Z</time>
      </trkpt>
      <trkpt lat="45.92395" lon="4.74868">
        <ele>171</ele>
        <time>2018-02-28T11:22:57Z</time>
      </trkpt>
      <trkpt lat="45.92398" lon="4.7486">
        <ele>171</ele>
        <time>2018-02-28T11:22:58Z</time>
      </trkpt>
      <trkpt lat="45.924" lon="4.74853">
        <ele>171</ele>
        <time>2018-02-28T11:22:59Z</time>
      </trkpt>
      <trkpt lat="45.92402" lon="4.74847">
        <ele>171</ele>
        <time>2018-02-28T11:23:00Z</time>
      </trkpt>
      <trkpt lat="45.92403" lon="4.74841">
        <ele>171</ele>
        <time>2018-02-28T11:23:01Z</time>
      </trkpt>
      <trkpt lat="45.92404" lon="4.7483">
        <ele>171</ele>
        <time>2018-02-28T11:23:03Z</time>
      </trkpt>
      <trkpt lat="45.92406" lon="4.74822">
        <ele>171</ele>
        <time>2018-02-28T11:23:04Z</time>
      </trkpt>
      <trkpt lat="45.92407" lon="4.74817">
        <ele>171</ele>
        <time>2018-02-28T11:23:05Z</time>
      </trkpt>
      <trkpt lat="45.92409" lon="4.74808">
        <ele>171</ele>
        <time>2018-02-28T11:23:06Z</time>
      </trkpt>
      <trkpt lat="45.92411" lon="4.74801">
        <ele>171</ele>
        <time>2018-02-28T11:23:07Z</time>
      </trkpt>
      <trkpt lat="45.92413" lon="4.74793">
        <ele>171</ele>
        <time>2018-02-28T11:23:08Z</time>
      </trkpt>
      <trkpt lat="45.92414" lon="4.74787">
        <ele>171</ele>
        <time>2018-02-28T11:23:09Z</time>
      </trkpt>
      <trkpt lat="45.92415" lon="4.7478">
        <ele>171</ele>
        <time>2018-02-28T11:23:10Z</time>
      </trkpt>
      <trkpt lat="45.92417" lon="4.74773">
        <ele>171</ele>
        <time>2018-02-28T11:23:11Z</time>
      </trkpt>
      <trkpt lat="45.92419" lon="4.74766">
        <ele>171</ele>
        <time>2018-02-28T11:23:12Z</time>
      </trkpt>
      <trkpt lat="45.92421" lon="4.74759">
        <ele>171</ele>
        <time>2018-02-28T11:23:13Z</time>
      </trkpt>
      <trkpt lat="45.92422" lon="4.74753">
        <ele>172</ele>
        <time>2018-02-28T11:23:14Z</time>
      </trkpt>
      <trkpt lat="45.92424" lon="4.74747">
        <ele>172</ele>
        <time>2018-02-28T11:23:15Z</time>
      </trkpt>
      <trkpt lat="45.92426" lon="4.7474">
        <ele>171</ele>
        <time>2018-02-28T11:23:16Z</time>
      </trkpt>
      <trkpt lat="45.92428" lon="4.74735">
        <ele>171</ele>
        <time>2018-02-28T11:23:17Z</time>
      </trkpt>
      <trkpt lat="45.9243" lon="4.74728">
        <ele>171</ele>
        <time>2018-02-28T11:23:18Z</time>
      </trkpt>
      <trkpt lat="45.92433" lon="4.74721">
        <ele>171</ele>
        <time>2018-02-28T11:23:19Z</time>
      </trkpt>
      <trkpt lat="45.92436" lon="4.74715">
        <ele>171</ele>
        <time>2018-02-28T11:23:20Z</time>
      </trkpt>
      <trkpt lat="45.92438" lon="4.74709">
        <ele>171</ele>
        <time>2018-02-28T11:23:21Z</time>
      </trkpt>
      <trkpt lat="45.92441" lon="4.74702">
        <ele>171</ele>
        <time>2018-02-28T11:23:22Z</time>
      </trkpt>
      <trkpt lat="45.92444" lon="4.74695">
        <ele>171</ele>
        <time>2018-02-28T11:23:23Z</time>
      </trkpt>
      <trkpt lat="45.92447" lon="4.74689">
        <ele>171</ele>
        <time>2018-02-28T11:23:24Z</time>
      </trkpt>
      <trkpt lat="45.92449" lon="4.74684">
        <ele>171</ele>
        <time>2018-02-28T11:23:25Z</time>
      </trkpt>
      <trkpt lat="45.92452" lon="4.74677">
        <ele>171</ele>
        <time>2018-02-28T11:23:26Z</time>
      </trkpt>
      <trkpt lat="45.92454" lon="4.7467">
        <ele>171</ele>
        <time>2018-02-28T11:23:27Z</time>
      </trkpt>
      <trkpt lat="45.92458" lon="4.74666">
        <ele>171</ele>
        <time>2018-02-28T11:23:28Z</time>
      </trkpt>
      <trkpt lat="45.92461" lon="4.7466">
        <ele>171</ele>
        <time>2018-02-28T11:23:29Z</time>
      </trkpt>
      <trkpt lat="45.92464" lon="4.74652">
        <ele>171</ele>
        <time>2018-02-28T11:23:30Z</time>
      </trkpt>
      <trkpt lat="45.92469" lon="4.74645">
        <ele>171</ele>
        <time>2018-02-28T11:23:31Z</time>
      </trkpt>
      <trkpt lat="45.92474" lon="4.74639">
        <ele>171</ele>
        <time>2018-02-28T11:23:32Z</time>
      </trkpt>
      <trkpt lat="45.92479" lon="4.74629">
        <ele>171</ele>
        <time>2018-02-28T11:23:34Z</time>
      </trkpt>
      <trkpt lat="45.92483" lon="4.74625">
        <ele>171</ele>
        <time>2018-02-28T11:23:35Z</time>
      </trkpt>
      <trkpt lat="45.92486" lon="4.7462">
        <ele>171</ele>
        <time>2018-02-28T11:23:36Z</time>
      </trkpt>
      <trkpt lat="45.9249" lon="4.74615">
        <ele>171</ele>
        <time>2018-02-28T11:23:37Z</time>
      </trkpt>
      <trkpt lat="45.92493" lon="4.7461">
        <ele>171</ele>
        <time>2018-02-28T11:23:38Z</time>
      </trkpt>
      <trkpt lat="45.92496" lon="4.74603">
        <ele>171</ele>
        <time>2018-02-28T11:23:39Z</time>
      </trkpt>
      <trkpt lat="45.925" lon="4.74599">
        <ele>171</ele>
        <time>2018-02-28T11:23:40Z</time>
      </trkpt>
      <trkpt lat="45.92504" lon="4.74594">
        <ele>171</ele>
        <time>2018-02-28T11:23:41Z</time>
      </trkpt>
      <trkpt lat="45.92509" lon="4.74589">
        <ele>171</ele>
        <time>2018-02-28T11:23:42Z</time>
      </trkpt>
      <trkpt lat="45.92513" lon="4.74583">
        <ele>171</ele>
        <time>2018-02-28T11:23:43Z</time>
      </trkpt>
      <trkpt lat="45.92517" lon="4.74578">
        <ele>171</ele>
        <time>2018-02-28T11:23:44Z</time>
      </trkpt>
      <trkpt lat="45.9252" lon="4.74573">
        <ele>171</ele>
        <time>2018-02-28T11:23:45Z</time>
      </trkpt>
      <trkpt lat="45.92524" lon="4.74568">
        <ele>171</ele>
        <time>2018-02-28T11:23:46Z</time>
      </trkpt>
      <trkpt lat="45.92528" lon="4.74561">
        <ele>171</ele>
        <time>2018-02-28T11:23:47Z</time>
      </trkpt>
      <trkpt lat="45.92532" lon="4.74557">
        <ele>171</ele>
        <time>2018-02-28T11:23:48Z</time>
      </trkpt>
      <trkpt lat="45.92536" lon="4.74552">
        <ele>171</ele>
        <time>2018-02-28T11:23:49Z</time>
      </trkpt>
      <trkpt lat="45.9254" lon="4.74546">
        <ele>171</ele>
        <time>2018-02-28T11:23:50Z</time>
      </trkpt>
      <trkpt lat="45.92543" lon="4.7454">
        <ele>170</ele>
        <time>2018-02-28T11:23:51Z</time>
      </trkpt>
      <trkpt lat="45.92547" lon="4.74534">
        <ele>170</ele>
        <time>2018-02-28T11:23:52Z</time>
      </trkpt>
      <trkpt lat="45.9255" lon="4.7453">
        <ele>170</ele>
        <time>2018-02-28T11:23:53Z</time>
      </trkpt>
      <trkpt lat="45.92553" lon="4.74524">
        <ele>170</ele>
        <time>2018-02-28T11:23:54Z</time>
      </trkpt>
      <trkpt lat="45.92556" lon="4.74518">
        <ele>170</ele>
        <time>2018-02-28T11:23:55Z</time>
      </trkpt>
      <trkpt lat="45.9256" lon="4.74514">
        <ele>170</ele>
        <time>2018-02-28T11:23:56Z</time>
      </trkpt>
      <trkpt lat="45.92563" lon="4.74509">
        <ele>170</ele>
        <time>2018-02-28T11:23:57Z</time>
      </trkpt>
      <trkpt lat="45.92565" lon="4.74504">
        <ele>170</ele>
        <time>2018-02-28T11:23:58Z</time>
      </trkpt>
      <trkpt lat="45.92569" lon="4.74498">
        <ele>170</ele>
        <time>2018-02-28T11:23:59Z</time>
      </trkpt>
      <trkpt lat="45.92572" lon="4.74492">
        <ele>170</ele>
        <time>2018-02-28T11:24:00Z</time>
      </trkpt>
      <trkpt lat="45.92575" lon="4.74485">
        <ele>170</ele>
        <time>2018-02-28T11:24:01Z</time>
      </trkpt>
      <trkpt lat="45.92578" lon="4.7448">
        <ele>170</ele>
        <time>2018-02-28T11:24:02Z</time>
      </trkpt>
      <trkpt lat="45.92581" lon="4.74475">
        <ele>170</ele>
        <time>2018-02-28T11:24:03Z</time>
      </trkpt>
      <trkpt lat="45.92584" lon="4.7447">
        <ele>170</ele>
        <time>2018-02-28T11:24:04Z</time>
      </trkpt>
      <trkpt lat="45.92587" lon="4.74466">
        <ele>170</ele>
        <time>2018-02-28T11:24:05Z</time>
      </trkpt>
      <trkpt lat="45.9259" lon="4.74461">
        <ele>170</ele>
        <time>2018-02-28T11:24:06Z</time>
      </trkpt>
      <trkpt lat="45.92593" lon="4.74455">
        <ele>170</ele>
        <time>2018-02-28T11:24:07Z</time>
      </trkpt>
      <trkpt lat="45.92596" lon="4.74449">
        <ele>170</ele>
        <time>2018-02-28T11:24:08Z</time>
      </trkpt>
      <trkpt lat="45.92599" lon="4.74444">
        <ele>170</ele>
        <time>2018-02-28T11:24:09Z</time>
      </trkpt>
      <trkpt lat="45.92603" lon="4.74438">
        <ele>170</ele>
        <time>2018-02-28T11:24:10Z</time>
      </trkpt>
      <trkpt lat="45.92606" lon="4.7443">
        <ele>170</ele>
        <time>2018-02-28T11:24:11Z</time>
      </trkpt>
      <trkpt lat="45.9261" lon="4.74424">
        <ele>170</ele>
        <time>2018-02-28T11:24:12Z</time>
      </trkpt>
      <trkpt lat="45.92612" lon="4.74418">
        <ele>170</ele>
        <time>2018-02-28T11:24:13Z</time>
      </trkpt>
      <trkpt lat="45.92616" lon="4.74412">
        <ele>170</ele>
        <time>2018-02-28T11:24:14Z</time>
      </trkpt>
      <trkpt lat="45.92619" lon="4.74407">
        <ele>170</ele>
        <time>2018-02-28T11:24:15Z</time>
      </trkpt>
      <trkpt lat="45.92622" lon="4.74402">
        <ele>170</ele>
        <time>2018-02-28T11:24:16Z</time>
      </trkpt>
      <trkpt lat="45.92625" lon="4.74396">
        <ele>170</ele>
        <time>2018-02-28T11:24:17Z</time>
      </trkpt>
      <trkpt lat="45.92628" lon="4.74391">
        <ele>170</ele>
        <time>2018-02-28T11:24:18Z</time>
      </trkpt>
      <trkpt lat="45.92632" lon="4.74385">
        <ele>170</ele>
        <time>2018-02-28T11:24:19Z</time>
      </trkpt>
      <trkpt lat="45.92635" lon="4.7438">
        <ele>170</ele>
        <time>2018-02-28T11:24:20Z</time>
      </trkpt>
      <trkpt lat="45.9264" lon="4.74373">
        <ele>171</ele>
        <time>2018-02-28T11:24:21Z</time>
      </trkpt>
      <trkpt lat="45.92642" lon="4.74368">
        <ele>171</ele>
        <time>2018-02-28T11:24:22Z</time>
      </trkpt>
      <trkpt lat="45.92646" lon="4.74363">
        <ele>171</ele>
        <time>2018-02-28T11:24:23Z</time>
      </trkpt>
      <trkpt lat="45.92648" lon="4.74357">
        <ele>171</ele>
        <time>2018-02-28T11:24:24Z</time>
      </trkpt>
      <trkpt lat="45.92651" lon="4.74351">
        <ele>171</ele>
        <time>2018-02-28T11:24:25Z</time>
      </trkpt>
      <trkpt lat="45.92653" lon="4.74346">
        <ele>171</ele>
        <time>2018-02-28T11:24:26Z</time>
      </trkpt>
      <trkpt lat="45.92656" lon="4.7434">
        <ele>171</ele>
        <time>2018-02-28T11:24:27Z</time>
      </trkpt>
      <trkpt lat="45.9266" lon="4.74335">
        <ele>171</ele>
        <time>2018-02-28T11:24:28Z</time>
      </trkpt>
      <trkpt lat="45.92663" lon="4.74329">
        <ele>171</ele>
        <time>2018-02-28T11:24:29Z</time>
      </trkpt>
      <trkpt lat="45.92666" lon="4.74323">
        <ele>171</ele>
        <time>2018-02-28T11:24:30Z</time>
      </trkpt>
      <trkpt lat="45.92669" lon="4.74317">
        <ele>171</ele>
        <time>2018-02-28T11:24:31Z</time>
      </trkpt>
      <trkpt lat="45.92672" lon="4.74312">
        <ele>171</ele>
        <time>2018-02-28T11:24:32Z</time>
      </trkpt>
      <trkpt lat="45.92675" lon="4.74305">
        <ele>171</ele>
        <time>2018-02-28T11:24:33Z</time>
      </trkpt>
      <trkpt lat="45.92677" lon="4.74299">
        <ele>171</ele>
        <time>2018-02-28T11:24:34Z</time>
      </trkpt>
      <trkpt lat="45.9268" lon="4.74291">
        <ele>171</ele>
        <time>2018-02-28T11:24:35Z</time>
      </trkpt>
      <trkpt lat="45.92683" lon="4.74285">
        <ele>171</ele>
        <time>2018-02-28T11:24:36Z</time>
      </trkpt>
      <trkpt lat="45.92686" lon="4.7428">
        <ele>171</ele>
        <time>2018-02-28T11:24:37Z</time>
      </trkpt>
      <trkpt lat="45.92689" lon="4.74274">
        <ele>171</ele>
        <time>2018-02-28T11:24:38Z</time>
      </trkpt>
      <trkpt lat="45.92692" lon="4.74269">
        <ele>171</ele>
        <time>2018-02-28T11:24:39Z</time>
      </trkpt>
      <trkpt lat="45.92695" lon="4.74264">
        <ele>171</ele>
        <time>2018-02-28T11:24:40Z</time>
      </trkpt>
      <trkpt lat="45.92699" lon="4.74259">
        <ele>171</ele>
        <time>2018-02-28T11:24:41Z</time>
      </trkpt>
      <trkpt lat="45.92703" lon="4.74253">
        <ele>171</ele>
        <time>2018-02-28T11:24:42Z</time>
      </trkpt>
      <trkpt lat="45.92706" lon="4.74246">
        <ele>171</ele>
        <time>2018-02-28T11:24:43Z</time>
      </trkpt>
      <trkpt lat="45.9271" lon="4.7424">
        <ele>171</ele>
        <time>2018-02-28T11:24:44Z</time>
      </trkpt>
      <trkpt lat="45.92713" lon="4.74234">
        <ele>171</ele>
        <time>2018-02-28T11:24:45Z</time>
      </trkpt>
      <trkpt lat="45.92717" lon="4.74229">
        <ele>171</ele>
        <time>2018-02-28T11:24:46Z</time>
      </trkpt>
      <trkpt lat="45.92721" lon="4.74224">
        <ele>171</ele>
        <time>2018-02-28T11:24:47Z</time>
      </trkpt>
      <trkpt lat="45.92725" lon="4.74219">
        <ele>171</ele>
        <time>2018-02-28T11:24:48Z</time>
      </trkpt>
      <trkpt lat="45.9273" lon="4.74214">
        <ele>171</ele>
        <time>2018-02-28T11:24:49Z</time>
      </trkpt>
      <trkpt lat="45.92735" lon="4.74208">
        <ele>171</ele>
        <time>2018-02-28T11:24:50Z</time>
      </trkpt>
      <trkpt lat="45.92738" lon="4.74203">
        <ele>171</ele>
        <time>2018-02-28T11:24:51Z</time>
      </trkpt>
      <trkpt lat="45.92742" lon="4.74198">
        <ele>171</ele>
        <time>2018-02-28T11:24:52Z</time>
      </trkpt>
      <trkpt lat="45.92746" lon="4.74194">
        <ele>171</ele>
        <time>2018-02-28T11:24:53Z</time>
      </trkpt>
      <trkpt lat="45.92749" lon="4.74189">
        <ele>172</ele>
        <time>2018-02-28T11:24:54Z</time>
      </trkpt>
      <trkpt lat="45.92754" lon="4.74184">
        <ele>172</ele>
        <time>2018-02-28T11:24:55Z</time>
      </trkpt>
      <trkpt lat="45.92758" lon="4.74179">
        <ele>172</ele>
        <time>2018-02-28T11:24:56Z</time>
      </trkpt>
      <trkpt lat="45.92763" lon="4.74174">
        <ele>172</ele>
        <time>2018-02-28T11:24:57Z</time>
      </trkpt>
      <trkpt lat="45.92768" lon="4.74169">
        <ele>172</ele>
        <time>2018-02-28T11:24:58Z</time>
      </trkpt>
      <trkpt lat="45.92772" lon="4.74166">
        <ele>172</ele>
        <time>2018-02-28T11:24:59Z</time>
      </trkpt>
      <trkpt lat="45.92777" lon="4.74161">
        <ele>172</ele>
        <time>2018-02-28T11:25:00Z</time>
      </trkpt>
      <trkpt lat="45.92782" lon="4.74156">
        <ele>172</ele>
        <time>2018-02-28T11:25:01Z</time>
      </trkpt>
      <trkpt lat="45.92787" lon="4.7415">
        <ele>172</ele>
        <time>2018-02-28T11:25:02Z</time>
      </trkpt>
      <trkpt lat="45.92791" lon="4.74144">
        <ele>172</ele>
        <time>2018-02-28T11:25:03Z</time>
      </trkpt>
      <trkpt lat="45.92796" lon="4.74139">
        <ele>172</ele>
        <time>2018-02-28T11:25:04Z</time>
      </trkpt>
      <trkpt lat="45.92801" lon="4.74134">
        <ele>172</ele>
        <time>2018-02-28T11:25:05Z</time>
      </trkpt>
      <trkpt lat="45.92806" lon="4.74129">
        <ele>172</ele>
        <time>2018-02-28T11:25:06Z</time>
      </trkpt>
      <trkpt lat="45.92811" lon="4.74122">
        <ele>172</ele>
        <time>2018-02-28T11:25:07Z</time>
      </trkpt>
      <trkpt lat="45.92814" lon="4.74117">
        <ele>172</ele>
        <time>2018-02-28T11:25:08Z</time>
      </trkpt>
      <trkpt lat="45.92819" lon="4.74111">
        <ele>172</ele>
        <time>2018-02-28T11:25:09Z</time>
      </trkpt>
      <trkpt lat="45.92824" lon="4.74106">
        <ele>171</ele>
        <time>2018-02-28T11:25:10Z</time>
      </trkpt>
      <trkpt lat="45.92828" lon="4.74101">
        <ele>171</ele>
        <time>2018-02-28T11:25:11Z</time>
      </trkpt>
      <trkpt lat="45.92832" lon="4.74097">
        <ele>171</ele>
        <time>2018-02-28T11:25:12Z</time>
      </trkpt>
      <trkpt lat="45.92837" lon="4.74092">
        <ele>171</ele>
        <time>2018-02-28T11:25:13Z</time>
      </trkpt>
      <trkpt lat="45.92842" lon="4.74088">
        <ele>171</ele>
        <time>2018-02-28T11:25:14Z</time>
      </trkpt>
      <trkpt lat="45.92845" lon="4.74083">
        <ele>171</ele>
        <time>2018-02-28T11:25:15Z</time>
      </trkpt>
      <trkpt lat="45.92849" lon="4.74079">
        <ele>172</ele>
        <time>2018-02-28T11:25:16Z</time>
      </trkpt>
      <trkpt lat="45.92852" lon="4.74074">
        <ele>172</ele>
        <time>2018-02-28T11:25:17Z</time>
      </trkpt>
      <trkpt lat="45.92856" lon="4.74069">
        <ele>172</ele>
        <time>2018-02-28T11:25:18Z</time>
      </trkpt>
      <trkpt lat="45.9286" lon="4.74063">
        <ele>172</ele>
        <time>2018-02-28T11:25:19Z</time>
      </trkpt>
      <trkpt lat="45.92864" lon="4.74059">
        <ele>172</ele>
        <time>2018-02-28T11:25:20Z</time>
      </trkpt>
      <trkpt lat="45.92868" lon="4.74056">
        <ele>172</ele>
        <time>2018-02-28T11:25:21Z</time>
      </trkpt>
      <trkpt lat="45.92872" lon="4.74052">
        <ele>172</ele>
        <time>2018-02-28T11:25:22Z</time>
      </trkpt>
      <trkpt lat="45.92877" lon="4.74048">
        <ele>172</ele>
        <time>2018-02-28T11:25:23Z</time>
      </trkpt>
      <trkpt lat="45.92885" lon="4.74046">
        <ele>172</ele>
        <time>2018-02-28T11:25:25Z</time>
      </trkpt>
      <trkpt lat="45.92889" lon="4.74046">
        <ele>172</ele>
        <time>2018-02-28T11:25:26Z</time>
      </trkpt>
      <trkpt lat="45.92894" lon="4.74047">
        <ele>172</ele>
        <time>2018-02-28T11:25:27Z</time>
      </trkpt>
      <trkpt lat="45.92899" lon="4.74047">
        <ele>172</ele>
        <time>2018-02-28T11:25:28Z</time>
      </trkpt>
      <trkpt lat="45.92907" lon="4.74045">
        <ele>172</ele>
        <time>2018-02-28T11:25:30Z</time>
      </trkpt>
      <trkpt lat="45.9291" lon="4.74041">
        <ele>172</ele>
        <time>2018-02-28T11:25:31Z</time>
      </trkpt>
      <trkpt lat="45.92913" lon="4.74035">
        <ele>172</ele>
        <time>2018-02-28T11:25:32Z</time>
      </trkpt>
      <trkpt lat="45.92917" lon="4.74026">
        <ele>172</ele>
        <time>2018-02-28T11:25:33Z</time>
      </trkpt>
      <trkpt lat="45.92919" lon="4.74019">
        <ele>172</ele>
        <time>2018-02-28T11:25:34Z</time>
      </trkpt>
      <trkpt lat="45.92919" lon="4.74012">
        <ele>172</ele>
        <time>2018-02-28T11:25:35Z</time>
      </trkpt>
      <trkpt lat="45.92918" lon="4.74">
        <ele>172</ele>
        <time>2018-02-28T11:25:37Z</time>
      </trkpt>
      <trkpt lat="45.92915" lon="4.73995">
        <ele>172</ele>
        <time>2018-02-28T11:25:38Z</time>
      </trkpt>
      <trkpt lat="45.92912" lon="4.7399">
        <ele>172</ele>
        <time>2018-02-28T11:25:39Z</time>
      </trkpt>
      <trkpt lat="45.92908" lon="4.73985">
        <ele>172</ele>
        <time>2018-02-28T11:25:40Z</time>
      </trkpt>
      <trkpt lat="45.929" lon="4.7398">
        <ele>172</ele>
        <time>2018-02-28T11:25:42Z</time>
      </trkpt>
      <trkpt lat="45.92897" lon="4.73977">
        <ele>172</ele>
        <time>2018-02-28T11:25:43Z</time>
      </trkpt>
      <trkpt lat="45.92892" lon="4.73973">
        <ele>172</ele>
        <time>2018-02-28T11:25:44Z</time>
      </trkpt>
      <trkpt lat="45.9289" lon="4.73967">
        <ele>172</ele>
        <time>2018-02-28T11:25:45Z</time>
      </trkpt>
      <trkpt lat="45.92888" lon="4.7396">
        <ele>172</ele>
        <time>2018-02-28T11:25:46Z</time>
      </trkpt>
      <trkpt lat="45.92887" lon="4.73952">
        <ele>172</ele>
        <time>2018-02-28T11:25:47Z</time>
      </trkpt>
      <trkpt lat="45.92888" lon="4.73944">
        <ele>172</ele>
        <time>2018-02-28T11:25:48Z</time>
      </trkpt>
      <trkpt lat="45.92888" lon="4.73936">
        <ele>172</ele>
        <time>2018-02-28T11:25:49Z</time>
      </trkpt>
      <trkpt lat="45.92888" lon="4.73928">
        <ele>172</ele>
        <time>2018-02-28T11:25:50Z</time>
      </trkpt>
      <trkpt lat="45.92886" lon="4.73919">
        <ele>172</ele>
        <time>2018-02-28T11:25:51Z</time>
      </trkpt>
      <trkpt lat="45.92883" lon="4.73911">
        <ele>173</ele>
        <time>2018-02-28T11:25:52Z</time>
      </trkpt>
      <trkpt lat="45.92882" lon="4.73902">
        <ele>173</ele>
        <time>2018-02-28T11:25:53Z</time>
      </trkpt>
      <trkpt lat="45.92881" lon="4.73894">
        <ele>173</ele>
        <time>2018-02-28T11:25:54Z</time>
      </trkpt>
      <trkpt lat="45.92879" lon="4.73885">
        <ele>173</ele>
        <time>2018-02-28T11:25:55Z</time>
      </trkpt>
      <trkpt lat="45.92878" lon="4.73877">
        <ele>173</ele>
        <time>2018-02-28T11:25:56Z</time>
      </trkpt>
      <trkpt lat="45.92875" lon="4.73869">
        <ele>173</ele>
        <time>2018-02-28T11:25:57Z</time>
      </trkpt>
      <trkpt lat="45.92873" lon="4.73862">
        <ele>173</ele>
        <time>2018-02-28T11:25:58Z</time>
      </trkpt>
      <trkpt lat="45.92871" lon="4.73854">
        <ele>173</ele>
        <time>2018-02-28T11:25:59Z</time>
      </trkpt>
      <trkpt lat="45.9287" lon="4.73847">
        <ele>173</ele>
        <time>2018-02-28T11:26:00Z</time>
      </trkpt>
      <trkpt lat="45.92869" lon="4.7384">
        <ele>173</ele>
        <time>2018-02-28T11:26:01Z</time>
      </trkpt>
      <trkpt lat="45.92867" lon="4.7383">
        <ele>173</ele>
        <time>2018-02-28T11:26:03Z</time>
      </trkpt>
      <trkpt lat="45.92866" lon="4.73821">
        <ele>173</ele>
        <time>2018-02-28T11:26:04Z</time>
      </trkpt>
      <trkpt lat="45.92864" lon="4.73809">
        <ele>173</ele>
        <time>2018-02-28T11:26:06Z</time>
      </trkpt>
      <trkpt lat="45.92863" lon="4.73806">
        <ele>173</ele>
        <time>2018-02-28T11:26:07Z</time>
      </trkpt>
      <trkpt lat="45.92862" lon="4.73794">
        <ele>173</ele>
        <time>2018-02-28T11:26:11Z</time>
      </trkpt>
      <trkpt lat="45.9286" lon="4.73792">
        <ele>173</ele>
        <time>2018-02-28T11:26:12Z</time>
      </trkpt>
      <trkpt lat="45.92854" lon="4.73782">
        <ele>173</ele>
        <time>2018-02-28T11:26:17Z</time>
      </trkpt>
      <trkpt lat="45.92852" lon="4.73781">
        <ele>173</ele>
        <time>2018-02-28T11:26:18Z</time>
      </trkpt>
      <trkpt lat="45.9285" lon="4.73781">
        <ele>173</ele>
        <time>2018-02-28T11:26:19Z</time>
      </trkpt>
      <trkpt lat="45.92842" lon="4.73781">
        <ele>173</ele>
        <time>2018-02-28T11:26:20Z</time>
      </trkpt>
      <trkpt lat="45.92835" lon="4.73779">
        <ele>172</ele>
        <time>2018-02-28T11:26:23Z</time>
      </trkpt>
      <trkpt lat="45.92833" lon="4.73777">
        <ele>173</ele>
        <time>2018-02-28T11:26:24Z</time>
      </trkpt>
      <trkpt lat="45.92828" lon="4.73773">
        <ele>173</ele>
        <time>2018-02-28T11:26:26Z</time>
      </trkpt>
      <trkpt lat="45.92825" lon="4.73771">
        <ele>173</ele>
        <time>2018-02-28T11:26:27Z</time>
      </trkpt>
      <trkpt lat="45.92822" lon="4.73769">
        <ele>173</ele>
        <time>2018-02-28T11:26:28Z</time>
      </trkpt>
      <trkpt lat="45.92813" lon="4.73763">
        <ele>173</ele>
        <time>2018-02-28T11:26:29Z</time>
      </trkpt>
      <trkpt lat="45.92805" lon="4.73759">
        <ele>173</ele>
        <time>2018-02-28T11:26:33Z</time>
      </trkpt>
      <trkpt lat="45.92802" lon="4.73757">
        <ele>173</ele>
        <time>2018-02-28T11:26:34Z</time>
      </trkpt>
      <trkpt lat="45.92795" lon="4.73753">
        <ele>173</ele>
        <time>2018-02-28T11:26:35Z</time>
      </trkpt>
      <trkpt lat="45.92793" lon="4.73752">
        <ele>173</ele>
        <time>2018-02-28T11:26:36Z</time>
      </trkpt>
      <trkpt lat="45.92788" lon="4.73746">
        <ele>172</ele>
        <time>2018-02-28T11:26:39Z</time>
      </trkpt>
      <trkpt lat="45.92783" lon="4.73737">
        <ele>172</ele>
        <time>2018-02-28T11:26:40Z</time>
      </trkpt>
      <trkpt lat="45.92776" lon="4.7373">
        <ele>172</ele>
        <time>2018-02-28T11:26:42Z</time>
      </trkpt>
      <trkpt lat="45.92772" lon="4.73728">
        <ele>172</ele>
        <time>2018-02-28T11:26:43Z</time>
      </trkpt>
      <trkpt lat="45.92768" lon="4.73727">
        <ele>172</ele>
        <time>2018-02-28T11:26:44Z</time>
      </trkpt>
      <trkpt lat="45.92762" lon="4.73725">
        <ele>172</ele>
        <time>2018-02-28T11:26:45Z</time>
      </trkpt>
      <trkpt lat="45.92757" lon="4.73724">
        <ele>172</ele>
        <time>2018-02-28T11:26:46Z</time>
      </trkpt>
      <trkpt lat="45.92752" lon="4.73723">
        <ele>172</ele>
        <time>2018-02-28T11:26:47Z</time>
      </trkpt>
      <trkpt lat="45.92747" lon="4.73721">
        <ele>173</ele>
        <time>2018-02-28T11:26:48Z</time>
      </trkpt>
      <trkpt lat="45.92742" lon="4.7372">
        <ele>173</ele>
        <time>2018-02-28T11:26:49Z</time>
      </trkpt>
      <trkpt lat="45.92737" lon="4.7372">
        <ele>173</ele>
        <time>2018-02-28T11:26:50Z</time>
      </trkpt>
      <trkpt lat="45.92732" lon="4.73719">
        <ele>173</ele>
        <time>2018-02-28T11:26:51Z</time>
      </trkpt>
      <trkpt lat="45.92724" lon="4.73717">
        <ele>173</ele>
        <time>2018-02-28T11:26:53Z</time>
      </trkpt>
      <trkpt lat="45.92719" lon="4.73714">
        <ele>173</ele>
        <time>2018-02-28T11:26:54Z</time>
      </trkpt>
      <trkpt lat="45.92713" lon="4.73714">
        <ele>173</ele>
        <time>2018-02-28T11:26:55Z</time>
      </trkpt>
      <trkpt lat="45.92708" lon="4.73714">
        <ele>173</ele>
        <time>2018-02-28T11:26:56Z</time>
      </trkpt>
      <trkpt lat="45.927" lon="4.7371">
        <ele>173</ele>
        <time>2018-02-28T11:26:58Z</time>
      </trkpt>
      <trkpt lat="45.92696" lon="4.73709">
        <ele>173</ele>
        <time>2018-02-28T11:26:59Z</time>
      </trkpt>
      <trkpt lat="45.9269" lon="4.73707">
        <ele>173</ele>
        <time>2018-02-28T11:27:00Z</time>
      </trkpt>
      <trkpt lat="45.92687" lon="4.73704">
        <ele>173</ele>
        <time>2018-02-28T11:27:01Z</time>
      </trkpt>
      <trkpt lat="45.9268" lon="4.73703">
        <ele>173</ele>
        <time>2018-02-28T11:27:03Z</time>
      </trkpt>
      <trkpt lat="45.92676" lon="4.73701">
        <ele>174</ele>
        <time>2018-02-28T11:27:04Z</time>
      </trkpt>
      <trkpt lat="45.92671" lon="4.737">
        <ele>174</ele>
        <time>2018-02-28T11:27:05Z</time>
      </trkpt>
      <trkpt lat="45.92667" lon="4.73697">
        <ele>174</ele>
        <time>2018-02-28T11:27:06Z</time>
      </trkpt>
      <trkpt lat="45.92662" lon="4.73694">
        <ele>173</ele>
        <time>2018-02-28T11:27:07Z</time>
      </trkpt>
      <trkpt lat="45.92658" lon="4.7369">
        <ele>173</ele>
        <time>2018-02-28T11:27:08Z</time>
      </trkpt>
      <trkpt lat="45.92654" lon="4.73686">
        <ele>173</ele>
        <time>2018-02-28T11:27:09Z</time>
      </trkpt>
      <trkpt lat="45.9265" lon="4.73681">
        <ele>173</ele>
        <time>2018-02-28T11:27:10Z</time>
      </trkpt>
      <trkpt lat="45.92647" lon="4.73674">
        <ele>173</ele>
        <time>2018-02-28T11:27:11Z</time>
      </trkpt>
      <trkpt lat="45.92643" lon="4.73668">
        <ele>173</ele>
        <time>2018-02-28T11:27:12Z</time>
      </trkpt>
      <trkpt lat="45.92641" lon="4.73661">
        <ele>173</ele>
        <time>2018-02-28T11:27:13Z</time>
      </trkpt>
      <trkpt lat="45.92638" lon="4.73653">
        <ele>173</ele>
        <time>2018-02-28T11:27:14Z</time>
      </trkpt>
      <trkpt lat="45.92635" lon="4.73646">
        <ele>173</ele>
        <time>2018-02-28T11:27:15Z</time>
      </trkpt>
      <trkpt lat="45.92632" lon="4.73639">
        <ele>173</ele>
        <time>2018-02-28T11:27:16Z</time>
      </trkpt>
      <trkpt lat="45.92628" lon="4.73633">
        <ele>173</ele>
        <time>2018-02-28T11:27:17Z</time>
      </trkpt>
      <trkpt lat="45.92624" lon="4.73627">
        <ele>173</ele>
        <time>2018-02-28T11:27:18Z</time>
      </trkpt>
      <trkpt lat="45.92619" lon="4.73623">
        <ele>173</ele>
        <time>2018-02-28T11:27:19Z</time>
      </trkpt>
      <trkpt lat="45.92613" lon="4.73621">
        <ele>173</ele>
        <time>2018-02-28T11:27:20Z</time>
      </trkpt>
      <trkpt lat="45.92609" lon="4.7362">
        <ele>173</ele>
        <time>2018-02-28T11:27:21Z</time>
      </trkpt>
      <trkpt lat="45.92601" lon="4.7362">
        <ele>173</ele>
        <time>2018-02-28T11:27:22Z</time>
      </trkpt>
      <trkpt lat="45.92591" lon="4.73622">
        <ele>173</ele>
        <time>2018-02-28T11:27:23Z</time>
      </trkpt>
      <trkpt lat="45.92585" lon="4.73623">
        <ele>173</ele>
        <time>2018-02-28T11:27:24Z</time>
      </trkpt>
      <trkpt lat="45.92578" lon="4.73625">
        <ele>173</ele>
        <time>2018-02-28T11:27:25Z</time>
      </trkpt>
      <trkpt lat="45.92572" lon="4.73625">
        <ele>173</ele>
        <time>2018-02-28T11:27:26Z</time>
      </trkpt>
      <trkpt lat="45.92567" lon="4.73625">
        <ele>173</ele>
        <time>2018-02-28T11:27:27Z</time>
      </trkpt>
      <trkpt lat="45.92559" lon="4.73628">
        <ele>173</ele>
        <time>2018-02-28T11:27:29Z</time>
      </trkpt>
      <trkpt lat="45.92553" lon="4.73629">
        <ele>173</ele>
        <time>2018-02-28T11:27:30Z</time>
      </trkpt>
      <trkpt lat="45.92548" lon="4.73632">
        <ele>173</ele>
        <time>2018-02-28T11:27:31Z</time>
      </trkpt>
      <trkpt lat="45.92541" lon="4.73632">
        <ele>173</ele>
        <time>2018-02-28T11:27:32Z</time>
      </trkpt>
      <trkpt lat="45.92536" lon="4.73634">
        <ele>173</ele>
        <time>2018-02-28T11:27:33Z</time>
      </trkpt>
      <trkpt lat="45.9253" lon="4.73636">
        <ele>173</ele>
        <time>2018-02-28T11:27:34Z</time>
      </trkpt>
      <trkpt lat="45.92525" lon="4.73636">
        <ele>173</ele>
        <time>2018-02-28T11:27:35Z</time>
      </trkpt>
      <trkpt lat="45.92519" lon="4.73635">
        <ele>173</ele>
        <time>2018-02-28T11:27:36Z</time>
      </trkpt>
      <trkpt lat="45.92515" lon="4.73635">
        <ele>173</ele>
        <time>2018-02-28T11:27:37Z</time>
      </trkpt>
      <trkpt lat="45.9251" lon="4.73636">
        <ele>174</ele>
        <time>2018-02-28T11:27:38Z</time>
      </trkpt>
      <trkpt lat="45.92505" lon="4.73636">
        <ele>174</ele>
        <time>2018-02-28T11:27:39Z</time>
      </trkpt>
      <trkpt lat="45.92501" lon="4.73636">
        <ele>174</ele>
        <time>2018-02-28T11:27:40Z</time>
      </trkpt>
      <trkpt lat="45.92492" lon="4.73637">
        <ele>174</ele>
        <time>2018-02-28T11:27:42Z</time>
      </trkpt>
      <trkpt lat="45.92488" lon="4.73637">
        <ele>174</ele>
        <time>2018-02-28T11:27:43Z</time>
      </trkpt>
      <trkpt lat="45.9248" lon="4.73639">
        <ele>174</ele>
        <time>2018-02-28T11:27:45Z</time>
      </trkpt>
      <trkpt lat="45.92476" lon="4.73642">
        <ele>174</ele>
        <time>2018-02-28T11:27:46Z</time>
      </trkpt>
      <trkpt lat="45.92471" lon="4.73651">
        <ele>174</ele>
        <time>2018-02-28T11:27:48Z</time>
      </trkpt>
      <trkpt lat="45.92469" lon="4.73657">
        <ele>174</ele>
        <time>2018-02-28T11:27:49Z</time>
      </trkpt>
      <trkpt lat="45.92467" lon="4.73668">
        <ele>174</ele>
        <time>2018-02-28T11:27:52Z</time>
      </trkpt>
      <trkpt lat="45.92467" lon="4.73672">
        <ele>174</ele>
        <time>2018-02-28T11:27:53Z</time>
      </trkpt>
      <trkpt lat="45.92466" lon="4.7368">
        <ele>174</ele>
        <time>2018-02-28T11:27:55Z</time>
      </trkpt>
      <trkpt lat="45.92465" lon="4.73685">
        <ele>174</ele>
        <time>2018-02-28T11:27:56Z</time>
      </trkpt>
      <trkpt lat="45.92464" lon="4.73697">
        <ele>174</ele>
        <time>2018-02-28T11:27:59Z</time>
      </trkpt>
      <trkpt lat="45.92464" lon="4.73701">
        <ele>174</ele>
        <time>2018-02-28T11:28:00Z</time>
      </trkpt>
      <trkpt lat="45.92461" lon="4.73713">
        <ele>174</ele>
        <time>2018-02-28T11:28:48.266Z</time>
      </trkpt>
    </trkseg>
  </trk>
</gpx>